<?xml version="1.0" encoding="UTF-8" standalone="no" ?>
<gpx xmlns="http://www.topografix.com/GPX/1/1" xmlns:xsi="http://www.w3.org/2001/XMLSchema-instance" xsi:schemaLocation="http://www.topografix.com/GPX/1/1 http://www.topografix.com/GPX/1/1/gpx.xsd" version="1.1" creator="VisuGPX - https://www.visugpx.com">
  <metadata>
    <name>Pornichet 13/12/2020</name>
    <desc><![CDATA[Sortie VTT du dimanche 13 décembre 2020]]></desc>
  </metadata>
  <trk>
    <name><![CDATA[Pornichet Cyclisme]]></name>
    <trkseg>
      <trkpt lat="47.26396" lon="-2.31575">
        <ele>28.200000762939</ele>
        <time>2020-12-13T08:13:18.000Z</time>
      </trkpt>
      <trkpt lat="47.26396" lon="-2.31594">
        <ele>28.200000762939</ele>
        <time>2020-12-13T08:13:22.000Z</time>
      </trkpt>
      <trkpt lat="47.26395" lon="-2.31599">
        <ele>27.60000038147</ele>
        <time>2020-12-13T08:13:23.000Z</time>
      </trkpt>
      <trkpt lat="47.26395" lon="-2.31609">
        <ele>27.60000038147</ele>
        <time>2020-12-13T08:13:25.000Z</time>
      </trkpt>
      <trkpt lat="47.26396" lon="-2.31642">
        <ele>27.60000038147</ele>
        <time>2020-12-13T08:13:32.000Z</time>
      </trkpt>
      <trkpt lat="47.26395" lon="-2.3165">
        <ele>27.60000038147</ele>
        <time>2020-12-13T08:13:34.000Z</time>
      </trkpt>
      <trkpt lat="47.26391" lon="-2.31654">
        <ele>27.60000038147</ele>
        <time>2020-12-13T08:13:36.000Z</time>
      </trkpt>
      <trkpt lat="47.26382" lon="-2.31658">
        <ele>27.60000038147</ele>
        <time>2020-12-13T08:13:39.000Z</time>
      </trkpt>
      <trkpt lat="47.2637" lon="-2.31664">
        <ele>27.60000038147</ele>
        <time>2020-12-13T08:13:42.000Z</time>
      </trkpt>
      <trkpt lat="47.26338" lon="-2.31681">
        <ele>27.60000038147</ele>
        <time>2020-12-13T08:13:49.000Z</time>
      </trkpt>
      <trkpt lat="47.26334" lon="-2.31683">
        <ele>27.60000038147</ele>
        <time>2020-12-13T08:13:50.000Z</time>
      </trkpt>
      <trkpt lat="47.2633" lon="-2.31685">
        <ele>27.60000038147</ele>
        <time>2020-12-13T08:13:51.000Z</time>
      </trkpt>
      <trkpt lat="47.2632" lon="-2.3169">
        <ele>26.60000038147</ele>
        <time>2020-12-13T08:13:53.000Z</time>
      </trkpt>
      <trkpt lat="47.26316" lon="-2.31692">
        <ele>26.200000762939</ele>
        <time>2020-12-13T08:13:54.000Z</time>
      </trkpt>
      <trkpt lat="47.26311" lon="-2.31694">
        <ele>25.799999237061</ele>
        <time>2020-12-13T08:13:55.000Z</time>
      </trkpt>
      <trkpt lat="47.26307" lon="-2.31697">
        <ele>25.39999961853</ele>
        <time>2020-12-13T08:13:56.000Z</time>
      </trkpt>
      <trkpt lat="47.26296" lon="-2.31704">
        <ele>25</ele>
        <time>2020-12-13T08:13:59.000Z</time>
      </trkpt>
      <trkpt lat="47.26293" lon="-2.31708">
        <ele>24.60000038147</ele>
        <time>2020-12-13T08:14:00.000Z</time>
      </trkpt>
      <trkpt lat="47.26291" lon="-2.31712">
        <ele>24.200000762939</ele>
        <time>2020-12-13T08:14:01.000Z</time>
      </trkpt>
      <trkpt lat="47.2629" lon="-2.31716">
        <ele>23.799999237061</ele>
        <time>2020-12-13T08:14:02.000Z</time>
      </trkpt>
      <trkpt lat="47.26289" lon="-2.3172">
        <ele>23.39999961853</ele>
        <time>2020-12-13T08:14:03.000Z</time>
      </trkpt>
      <trkpt lat="47.26289" lon="-2.31725">
        <ele>23.39999961853</ele>
        <time>2020-12-13T08:14:04.000Z</time>
      </trkpt>
      <trkpt lat="47.26296" lon="-2.31761">
        <ele>23.39999961853</ele>
        <time>2020-12-13T08:14:11.000Z</time>
      </trkpt>
      <trkpt lat="47.26297" lon="-2.31793">
        <ele>23.39999961853</ele>
        <time>2020-12-13T08:14:17.000Z</time>
      </trkpt>
      <trkpt lat="47.26294" lon="-2.31823">
        <ele>23.39999961853</ele>
        <time>2020-12-13T08:14:23.000Z</time>
      </trkpt>
      <trkpt lat="47.26294" lon="-2.31846">
        <ele>23.39999961853</ele>
        <time>2020-12-13T08:14:28.000Z</time>
      </trkpt>
      <trkpt lat="47.26292" lon="-2.31862">
        <ele>23.39999961853</ele>
        <time>2020-12-13T08:14:32.000Z</time>
      </trkpt>
      <trkpt lat="47.26288" lon="-2.31869">
        <ele>23.39999961853</ele>
        <time>2020-12-13T08:14:34.000Z</time>
      </trkpt>
      <trkpt lat="47.26282" lon="-2.31877">
        <ele>23.39999961853</ele>
        <time>2020-12-13T08:14:37.000Z</time>
      </trkpt>
      <trkpt lat="47.26276" lon="-2.31887">
        <ele>23.39999961853</ele>
        <time>2020-12-13T08:14:40.000Z</time>
      </trkpt>
      <trkpt lat="47.26264" lon="-2.31912">
        <ele>23.39999961853</ele>
        <time>2020-12-13T08:14:46.000Z</time>
      </trkpt>
      <trkpt lat="47.26252" lon="-2.31935">
        <ele>23.39999961853</ele>
        <time>2020-12-13T08:14:53.000Z</time>
      </trkpt>
      <trkpt lat="47.26241" lon="-2.31946">
        <ele>22.799999237061</ele>
        <time>2020-12-13T08:14:58.000Z</time>
      </trkpt>
      <trkpt lat="47.26238" lon="-2.31947">
        <ele>22.39999961853</ele>
        <time>2020-12-13T08:14:59.000Z</time>
      </trkpt>
      <trkpt lat="47.26236" lon="-2.31948">
        <ele>22</ele>
        <time>2020-12-13T08:15:00.000Z</time>
      </trkpt>
      <trkpt lat="47.26233" lon="-2.3195">
        <ele>21.60000038147</ele>
        <time>2020-12-13T08:15:01.000Z</time>
      </trkpt>
      <trkpt lat="47.26231" lon="-2.31952">
        <ele>21.200000762939</ele>
        <time>2020-12-13T08:15:02.000Z</time>
      </trkpt>
      <trkpt lat="47.26224" lon="-2.31959">
        <ele>21.200000762939</ele>
        <time>2020-12-13T08:15:05.000Z</time>
      </trkpt>
      <trkpt lat="47.26208" lon="-2.31976">
        <ele>21.200000762939</ele>
        <time>2020-12-13T08:15:12.000Z</time>
      </trkpt>
      <trkpt lat="47.26204" lon="-2.31979">
        <ele>21.200000762939</ele>
        <time>2020-12-13T08:15:14.000Z</time>
      </trkpt>
      <trkpt lat="47.26197" lon="-2.3199">
        <ele>21.200000762939</ele>
        <time>2020-12-13T08:15:19.000Z</time>
      </trkpt>
      <trkpt lat="47.26196" lon="-2.31991">
        <ele>21.200000762939</ele>
        <time>2020-12-13T08:15:20.000Z</time>
      </trkpt>
      <trkpt lat="47.26191" lon="-2.31993">
        <ele>21.200000762939</ele>
        <time>2020-12-13T08:15:24.000Z</time>
      </trkpt>
      <trkpt lat="47.26186" lon="-2.31995">
        <ele>21.200000762939</ele>
        <time>2020-12-13T08:15:27.000Z</time>
      </trkpt>
      <trkpt lat="47.26178" lon="-2.32001">
        <ele>21.200000762939</ele>
        <time>2020-12-13T08:15:30.000Z</time>
      </trkpt>
      <trkpt lat="47.26175" lon="-2.32003">
        <ele>21.200000762939</ele>
        <time>2020-12-13T08:15:31.000Z</time>
      </trkpt>
      <trkpt lat="47.26159" lon="-2.32013">
        <ele>21.200000762939</ele>
        <time>2020-12-13T08:15:36.000Z</time>
      </trkpt>
      <trkpt lat="47.26147" lon="-2.32036">
        <ele>21.200000762939</ele>
        <time>2020-12-13T08:15:41.000Z</time>
      </trkpt>
      <trkpt lat="47.26134" lon="-2.32073">
        <ele>21.200000762939</ele>
        <time>2020-12-13T08:15:48.000Z</time>
      </trkpt>
      <trkpt lat="47.2612" lon="-2.32111">
        <ele>21.200000762939</ele>
        <time>2020-12-13T08:15:55.000Z</time>
      </trkpt>
      <trkpt lat="47.26106" lon="-2.32146">
        <ele>21.200000762939</ele>
        <time>2020-12-13T08:16:02.000Z</time>
      </trkpt>
      <trkpt lat="47.26089" lon="-2.32183">
        <ele>21.200000762939</ele>
        <time>2020-12-13T08:16:09.000Z</time>
      </trkpt>
      <trkpt lat="47.26065" lon="-2.32219">
        <ele>21.200000762939</ele>
        <time>2020-12-13T08:16:17.000Z</time>
      </trkpt>
      <trkpt lat="47.2604" lon="-2.3225">
        <ele>21.200000762939</ele>
        <time>2020-12-13T08:16:25.000Z</time>
      </trkpt>
      <trkpt lat="47.26008" lon="-2.32285">
        <ele>21.200000762939</ele>
        <time>2020-12-13T08:16:34.000Z</time>
      </trkpt>
      <trkpt lat="47.25982" lon="-2.3232">
        <ele>21.200000762939</ele>
        <time>2020-12-13T08:16:42.000Z</time>
      </trkpt>
      <trkpt lat="47.25969" lon="-2.32338">
        <ele>21.200000762939</ele>
        <time>2020-12-13T08:16:46.000Z</time>
      </trkpt>
      <trkpt lat="47.25957" lon="-2.32353">
        <ele>21.200000762939</ele>
        <time>2020-12-13T08:16:50.000Z</time>
      </trkpt>
      <trkpt lat="47.25944" lon="-2.32377">
        <ele>21.200000762939</ele>
        <time>2020-12-13T08:16:57.000Z</time>
      </trkpt>
      <trkpt lat="47.25928" lon="-2.32403">
        <ele>21.200000762939</ele>
        <time>2020-12-13T08:17:04.000Z</time>
      </trkpt>
      <trkpt lat="47.2591" lon="-2.32429">
        <ele>21.200000762939</ele>
        <time>2020-12-13T08:17:11.000Z</time>
      </trkpt>
      <trkpt lat="47.25894" lon="-2.32454">
        <ele>21.200000762939</ele>
        <time>2020-12-13T08:17:18.000Z</time>
      </trkpt>
      <trkpt lat="47.2589" lon="-2.32459">
        <ele>21.200000762939</ele>
        <time>2020-12-13T08:17:20.000Z</time>
      </trkpt>
      <trkpt lat="47.25892" lon="-2.32461">
        <ele>21.200000762939</ele>
        <time>2020-12-13T08:17:22.000Z</time>
      </trkpt>
      <trkpt lat="47.25899" lon="-2.32461">
        <ele>21.200000762939</ele>
        <time>2020-12-13T08:17:25.000Z</time>
      </trkpt>
      <trkpt lat="47.25906" lon="-2.32465">
        <ele>21.200000762939</ele>
        <time>2020-12-13T08:17:27.000Z</time>
      </trkpt>
      <trkpt lat="47.25909" lon="-2.32468">
        <ele>21.200000762939</ele>
        <time>2020-12-13T08:17:28.000Z</time>
      </trkpt>
      <trkpt lat="47.25922" lon="-2.32485">
        <ele>21.200000762939</ele>
        <time>2020-12-13T08:17:32.000Z</time>
      </trkpt>
      <trkpt lat="47.25927" lon="-2.32497">
        <ele>21.200000762939</ele>
        <time>2020-12-13T08:17:34.000Z</time>
      </trkpt>
      <trkpt lat="47.25935" lon="-2.3252">
        <ele>21.200000762939</ele>
        <time>2020-12-13T08:17:38.000Z</time>
      </trkpt>
      <trkpt lat="47.25949" lon="-2.32563">
        <ele>21.200000762939</ele>
        <time>2020-12-13T08:17:45.000Z</time>
      </trkpt>
      <trkpt lat="47.25959" lon="-2.32607">
        <ele>21.200000762939</ele>
        <time>2020-12-13T08:17:52.000Z</time>
      </trkpt>
      <trkpt lat="47.25961" lon="-2.3262">
        <ele>21.200000762939</ele>
        <time>2020-12-13T08:17:54.000Z</time>
      </trkpt>
      <trkpt lat="47.25961" lon="-2.32633">
        <ele>21.200000762939</ele>
        <time>2020-12-13T08:17:56.000Z</time>
      </trkpt>
      <trkpt lat="47.25962" lon="-2.32639">
        <ele>21.200000762939</ele>
        <time>2020-12-13T08:17:57.000Z</time>
      </trkpt>
      <trkpt lat="47.25968" lon="-2.32642">
        <ele>21.200000762939</ele>
        <time>2020-12-13T08:17:59.000Z</time>
      </trkpt>
      <trkpt lat="47.25983" lon="-2.32644">
        <ele>21.200000762939</ele>
        <time>2020-12-13T08:18:03.000Z</time>
      </trkpt>
      <trkpt lat="47.25988" lon="-2.32644">
        <ele>21.200000762939</ele>
        <time>2020-12-13T08:18:04.000Z</time>
      </trkpt>
      <trkpt lat="47.26014" lon="-2.32642">
        <ele>21.200000762939</ele>
        <time>2020-12-13T08:18:10.000Z</time>
      </trkpt>
      <trkpt lat="47.26023" lon="-2.32641">
        <ele>21.60000038147</ele>
        <time>2020-12-13T08:18:12.000Z</time>
      </trkpt>
      <trkpt lat="47.26027" lon="-2.32641">
        <ele>22</ele>
        <time>2020-12-13T08:18:13.000Z</time>
      </trkpt>
      <trkpt lat="47.26031" lon="-2.32641">
        <ele>22.39999961853</ele>
        <time>2020-12-13T08:18:14.000Z</time>
      </trkpt>
      <trkpt lat="47.26035" lon="-2.3264">
        <ele>22.799999237061</ele>
        <time>2020-12-13T08:18:15.000Z</time>
      </trkpt>
      <trkpt lat="47.2604" lon="-2.32639">
        <ele>23.200000762939</ele>
        <time>2020-12-13T08:18:16.000Z</time>
      </trkpt>
      <trkpt lat="47.26044" lon="-2.32638">
        <ele>23.200000762939</ele>
        <time>2020-12-13T08:18:17.000Z</time>
      </trkpt>
      <trkpt lat="47.26077" lon="-2.32634">
        <ele>23.200000762939</ele>
        <time>2020-12-13T08:18:25.000Z</time>
      </trkpt>
      <trkpt lat="47.2611" lon="-2.32632">
        <ele>23.200000762939</ele>
        <time>2020-12-13T08:18:33.000Z</time>
      </trkpt>
      <trkpt lat="47.2614" lon="-2.32635">
        <ele>23.200000762939</ele>
        <time>2020-12-13T08:18:40.000Z</time>
      </trkpt>
      <trkpt lat="47.26144" lon="-2.32637">
        <ele>23.200000762939</ele>
        <time>2020-12-13T08:18:41.000Z</time>
      </trkpt>
      <trkpt lat="47.26161" lon="-2.32644">
        <ele>23.60000038147</ele>
        <time>2020-12-13T08:18:45.000Z</time>
      </trkpt>
      <trkpt lat="47.26165" lon="-2.32646">
        <ele>24</ele>
        <time>2020-12-13T08:18:46.000Z</time>
      </trkpt>
      <trkpt lat="47.2617" lon="-2.32648">
        <ele>24.60000038147</ele>
        <time>2020-12-13T08:18:47.000Z</time>
      </trkpt>
      <trkpt lat="47.26174" lon="-2.32651">
        <ele>25</ele>
        <time>2020-12-13T08:18:48.000Z</time>
      </trkpt>
      <trkpt lat="47.26178" lon="-2.32654">
        <ele>25.39999961853</ele>
        <time>2020-12-13T08:18:49.000Z</time>
      </trkpt>
      <trkpt lat="47.26204" lon="-2.32678">
        <ele>25.39999961853</ele>
        <time>2020-12-13T08:18:56.000Z</time>
      </trkpt>
      <trkpt lat="47.26234" lon="-2.32715">
        <ele>25.39999961853</ele>
        <time>2020-12-13T08:19:04.000Z</time>
      </trkpt>
      <trkpt lat="47.2627" lon="-2.32773">
        <ele>25.39999961853</ele>
        <time>2020-12-13T08:19:14.000Z</time>
      </trkpt>
      <trkpt lat="47.26286" lon="-2.32814">
        <ele>25.39999961853</ele>
        <time>2020-12-13T08:19:20.000Z</time>
      </trkpt>
      <trkpt lat="47.26287" lon="-2.32821">
        <ele>25.39999961853</ele>
        <time>2020-12-13T08:19:21.000Z</time>
      </trkpt>
      <trkpt lat="47.2629" lon="-2.32843">
        <ele>25.39999961853</ele>
        <time>2020-12-13T08:19:24.000Z</time>
      </trkpt>
      <trkpt lat="47.26292" lon="-2.32849">
        <ele>25.39999961853</ele>
        <time>2020-12-13T08:19:25.000Z</time>
      </trkpt>
      <trkpt lat="47.26303" lon="-2.32861">
        <ele>25.39999961853</ele>
        <time>2020-12-13T08:19:28.000Z</time>
      </trkpt>
      <trkpt lat="47.26312" lon="-2.32865">
        <ele>24.799999237061</ele>
        <time>2020-12-13T08:19:30.000Z</time>
      </trkpt>
      <trkpt lat="47.26316" lon="-2.32869">
        <ele>24.39999961853</ele>
        <time>2020-12-13T08:19:31.000Z</time>
      </trkpt>
      <trkpt lat="47.26319" lon="-2.32874">
        <ele>24</ele>
        <time>2020-12-13T08:19:32.000Z</time>
      </trkpt>
      <trkpt lat="47.26322" lon="-2.3288">
        <ele>23.60000038147</ele>
        <time>2020-12-13T08:19:33.000Z</time>
      </trkpt>
      <trkpt lat="47.26324" lon="-2.32887">
        <ele>23.200000762939</ele>
        <time>2020-12-13T08:19:34.000Z</time>
      </trkpt>
      <trkpt lat="47.26326" lon="-2.32893">
        <ele>23.200000762939</ele>
        <time>2020-12-13T08:19:35.000Z</time>
      </trkpt>
      <trkpt lat="47.26331" lon="-2.32906">
        <ele>23.200000762939</ele>
        <time>2020-12-13T08:19:37.000Z</time>
      </trkpt>
      <trkpt lat="47.26338" lon="-2.32933">
        <ele>23.200000762939</ele>
        <time>2020-12-13T08:19:41.000Z</time>
      </trkpt>
      <trkpt lat="47.2635" lon="-2.32964">
        <ele>23.200000762939</ele>
        <time>2020-12-13T08:19:46.000Z</time>
      </trkpt>
      <trkpt lat="47.26356" lon="-2.32975">
        <ele>23.200000762939</ele>
        <time>2020-12-13T08:19:48.000Z</time>
      </trkpt>
      <trkpt lat="47.26365" lon="-2.3299">
        <ele>23.200000762939</ele>
        <time>2020-12-13T08:19:51.000Z</time>
      </trkpt>
      <trkpt lat="47.26368" lon="-2.33017">
        <ele>23.200000762939</ele>
        <time>2020-12-13T08:19:55.000Z</time>
      </trkpt>
      <trkpt lat="47.26368" lon="-2.33024">
        <ele>23.200000762939</ele>
        <time>2020-12-13T08:19:56.000Z</time>
      </trkpt>
      <trkpt lat="47.26369" lon="-2.33057">
        <ele>23.60000038147</ele>
        <time>2020-12-13T08:20:01.000Z</time>
      </trkpt>
      <trkpt lat="47.26369" lon="-2.33064">
        <ele>24</ele>
        <time>2020-12-13T08:20:02.000Z</time>
      </trkpt>
      <trkpt lat="47.2637" lon="-2.33071">
        <ele>24.39999961853</ele>
        <time>2020-12-13T08:20:03.000Z</time>
      </trkpt>
      <trkpt lat="47.2637" lon="-2.33077">
        <ele>25.39999961853</ele>
        <time>2020-12-13T08:20:04.000Z</time>
      </trkpt>
      <trkpt lat="47.26374" lon="-2.3313">
        <ele>25.39999961853</ele>
        <time>2020-12-13T08:20:12.000Z</time>
      </trkpt>
      <trkpt lat="47.26377" lon="-2.33182">
        <ele>25.39999961853</ele>
        <time>2020-12-13T08:20:20.000Z</time>
      </trkpt>
      <trkpt lat="47.2638" lon="-2.33238">
        <ele>25.39999961853</ele>
        <time>2020-12-13T08:20:29.000Z</time>
      </trkpt>
      <trkpt lat="47.26385" lon="-2.33255">
        <ele>25.39999961853</ele>
        <time>2020-12-13T08:20:32.000Z</time>
      </trkpt>
      <trkpt lat="47.26391" lon="-2.33264">
        <ele>25.39999961853</ele>
        <time>2020-12-13T08:20:34.000Z</time>
      </trkpt>
      <trkpt lat="47.26408" lon="-2.33268">
        <ele>25.39999961853</ele>
        <time>2020-12-13T08:20:38.000Z</time>
      </trkpt>
      <trkpt lat="47.26426" lon="-2.3327">
        <ele>25.39999961853</ele>
        <time>2020-12-13T08:20:42.000Z</time>
      </trkpt>
      <trkpt lat="47.26431" lon="-2.3327">
        <ele>25.39999961853</ele>
        <time>2020-12-13T08:20:43.000Z</time>
      </trkpt>
      <trkpt lat="47.26457" lon="-2.33275">
        <ele>25.39999961853</ele>
        <time>2020-12-13T08:20:49.000Z</time>
      </trkpt>
      <trkpt lat="47.26462" lon="-2.33276">
        <ele>25.39999961853</ele>
        <time>2020-12-13T08:20:50.000Z</time>
      </trkpt>
      <trkpt lat="47.2647" lon="-2.33278">
        <ele>25.39999961853</ele>
        <time>2020-12-13T08:20:52.000Z</time>
      </trkpt>
      <trkpt lat="47.26488" lon="-2.33279">
        <ele>25.39999961853</ele>
        <time>2020-12-13T08:20:56.000Z</time>
      </trkpt>
      <trkpt lat="47.26496" lon="-2.3328">
        <ele>25.39999961853</ele>
        <time>2020-12-13T08:20:58.000Z</time>
      </trkpt>
      <trkpt lat="47.26509" lon="-2.33287">
        <ele>25.39999961853</ele>
        <time>2020-12-13T08:21:01.000Z</time>
      </trkpt>
      <trkpt lat="47.26517" lon="-2.3329">
        <ele>25.39999961853</ele>
        <time>2020-12-13T08:21:03.000Z</time>
      </trkpt>
      <trkpt lat="47.26526" lon="-2.33291">
        <ele>25.39999961853</ele>
        <time>2020-12-13T08:21:05.000Z</time>
      </trkpt>
      <trkpt lat="47.26529" lon="-2.33291">
        <ele>25.39999961853</ele>
        <time>2020-12-13T08:21:06.000Z</time>
      </trkpt>
      <trkpt lat="47.26533" lon="-2.33293">
        <ele>25.39999961853</ele>
        <time>2020-12-13T08:21:07.000Z</time>
      </trkpt>
      <trkpt lat="47.26537" lon="-2.333">
        <ele>25.39999961853</ele>
        <time>2020-12-13T08:21:09.000Z</time>
      </trkpt>
      <trkpt lat="47.26544" lon="-2.33298">
        <ele>25.39999961853</ele>
        <time>2020-12-13T08:21:12.000Z</time>
      </trkpt>
      <trkpt lat="47.26546" lon="-2.33294">
        <ele>25.39999961853</ele>
        <time>2020-12-13T08:21:13.000Z</time>
      </trkpt>
      <trkpt lat="47.26557" lon="-2.33281">
        <ele>25.39999961853</ele>
        <time>2020-12-13T08:21:17.000Z</time>
      </trkpt>
      <trkpt lat="47.26576" lon="-2.33261">
        <ele>25.39999961853</ele>
        <time>2020-12-13T08:21:23.000Z</time>
      </trkpt>
      <trkpt lat="47.26609" lon="-2.33227">
        <ele>25.39999961853</ele>
        <time>2020-12-13T08:21:32.000Z</time>
      </trkpt>
      <trkpt lat="47.26623" lon="-2.33212">
        <ele>25.39999961853</ele>
        <time>2020-12-13T08:21:36.000Z</time>
      </trkpt>
      <trkpt lat="47.2663" lon="-2.33205">
        <ele>25.39999961853</ele>
        <time>2020-12-13T08:21:38.000Z</time>
      </trkpt>
      <trkpt lat="47.26658" lon="-2.33178">
        <ele>25.39999961853</ele>
        <time>2020-12-13T08:21:46.000Z</time>
      </trkpt>
      <trkpt lat="47.26667" lon="-2.33167">
        <ele>25.39999961853</ele>
        <time>2020-12-13T08:21:49.000Z</time>
      </trkpt>
      <trkpt lat="47.26678" lon="-2.33157">
        <ele>25.39999961853</ele>
        <time>2020-12-13T08:21:52.000Z</time>
      </trkpt>
      <trkpt lat="47.26689" lon="-2.33146">
        <ele>25.799999237061</ele>
        <time>2020-12-13T08:21:55.000Z</time>
      </trkpt>
      <trkpt lat="47.26693" lon="-2.33142">
        <ele>26.200000762939</ele>
        <time>2020-12-13T08:21:56.000Z</time>
      </trkpt>
      <trkpt lat="47.26697" lon="-2.33139">
        <ele>26.60000038147</ele>
        <time>2020-12-13T08:21:57.000Z</time>
      </trkpt>
      <trkpt lat="47.26701" lon="-2.33135">
        <ele>27</ele>
        <time>2020-12-13T08:21:58.000Z</time>
      </trkpt>
      <trkpt lat="47.26704" lon="-2.33132">
        <ele>27.39999961853</ele>
        <time>2020-12-13T08:21:59.000Z</time>
      </trkpt>
      <trkpt lat="47.26708" lon="-2.33128">
        <ele>27.39999961853</ele>
        <time>2020-12-13T08:22:00.000Z</time>
      </trkpt>
      <trkpt lat="47.2673" lon="-2.33104">
        <ele>27.39999961853</ele>
        <time>2020-12-13T08:22:07.000Z</time>
      </trkpt>
      <trkpt lat="47.2675" lon="-2.33085">
        <ele>27.39999961853</ele>
        <time>2020-12-13T08:22:14.000Z</time>
      </trkpt>
      <trkpt lat="47.26753" lon="-2.33086">
        <ele>27.39999961853</ele>
        <time>2020-12-13T08:22:15.000Z</time>
      </trkpt>
      <trkpt lat="47.2676" lon="-2.33094">
        <ele>27.39999961853</ele>
        <time>2020-12-13T08:22:17.000Z</time>
      </trkpt>
      <trkpt lat="47.26765" lon="-2.33119">
        <ele>27.39999961853</ele>
        <time>2020-12-13T08:22:21.000Z</time>
      </trkpt>
      <trkpt lat="47.26759" lon="-2.33152">
        <ele>27.39999961853</ele>
        <time>2020-12-13T08:22:26.000Z</time>
      </trkpt>
      <trkpt lat="47.2675" lon="-2.33189">
        <ele>27.39999961853</ele>
        <time>2020-12-13T08:22:32.000Z</time>
      </trkpt>
      <trkpt lat="47.26734" lon="-2.33251">
        <ele>27.39999961853</ele>
        <time>2020-12-13T08:22:42.000Z</time>
      </trkpt>
      <trkpt lat="47.26731" lon="-2.33263">
        <ele>27.39999961853</ele>
        <time>2020-12-13T08:22:44.000Z</time>
      </trkpt>
      <trkpt lat="47.26732" lon="-2.33283">
        <ele>27.39999961853</ele>
        <time>2020-12-13T08:22:47.000Z</time>
      </trkpt>
      <trkpt lat="47.26735" lon="-2.33295">
        <ele>27.39999961853</ele>
        <time>2020-12-13T08:22:49.000Z</time>
      </trkpt>
      <trkpt lat="47.26744" lon="-2.33327">
        <ele>27.39999961853</ele>
        <time>2020-12-13T08:22:54.000Z</time>
      </trkpt>
      <trkpt lat="47.26749" lon="-2.33353">
        <ele>27.39999961853</ele>
        <time>2020-12-13T08:22:58.000Z</time>
      </trkpt>
      <trkpt lat="47.26752" lon="-2.33372">
        <ele>27.39999961853</ele>
        <time>2020-12-13T08:23:01.000Z</time>
      </trkpt>
      <trkpt lat="47.26756" lon="-2.33422">
        <ele>27.39999961853</ele>
        <time>2020-12-13T08:23:08.000Z</time>
      </trkpt>
      <trkpt lat="47.26762" lon="-2.33463">
        <ele>27.39999961853</ele>
        <time>2020-12-13T08:23:14.000Z</time>
      </trkpt>
      <trkpt lat="47.26769" lon="-2.33511">
        <ele>27.39999961853</ele>
        <time>2020-12-13T08:23:21.000Z</time>
      </trkpt>
      <trkpt lat="47.26775" lon="-2.3355">
        <ele>27.39999961853</ele>
        <time>2020-12-13T08:23:27.000Z</time>
      </trkpt>
      <trkpt lat="47.26777" lon="-2.3357">
        <ele>27.39999961853</ele>
        <time>2020-12-13T08:23:30.000Z</time>
      </trkpt>
      <trkpt lat="47.26778" lon="-2.33595">
        <ele>27.799999237061</ele>
        <time>2020-12-13T08:23:34.000Z</time>
      </trkpt>
      <trkpt lat="47.26778" lon="-2.33602">
        <ele>28.200000762939</ele>
        <time>2020-12-13T08:23:35.000Z</time>
      </trkpt>
      <trkpt lat="47.26779" lon="-2.33608">
        <ele>28.60000038147</ele>
        <time>2020-12-13T08:23:36.000Z</time>
      </trkpt>
      <trkpt lat="47.26779" lon="-2.33614">
        <ele>29</ele>
        <time>2020-12-13T08:23:37.000Z</time>
      </trkpt>
      <trkpt lat="47.26779" lon="-2.3362">
        <ele>29.39999961853</ele>
        <time>2020-12-13T08:23:38.000Z</time>
      </trkpt>
      <trkpt lat="47.26779" lon="-2.33644">
        <ele>29.39999961853</ele>
        <time>2020-12-13T08:23:42.000Z</time>
      </trkpt>
      <trkpt lat="47.26779" lon="-2.33675">
        <ele>29.799999237061</ele>
        <time>2020-12-13T08:23:48.000Z</time>
      </trkpt>
      <trkpt lat="47.26779" lon="-2.3368">
        <ele>30.39999961853</ele>
        <time>2020-12-13T08:23:49.000Z</time>
      </trkpt>
      <trkpt lat="47.2678" lon="-2.33686">
        <ele>30.799999237061</ele>
        <time>2020-12-13T08:23:50.000Z</time>
      </trkpt>
      <trkpt lat="47.26781" lon="-2.33691">
        <ele>31.200000762939</ele>
        <time>2020-12-13T08:23:51.000Z</time>
      </trkpt>
      <trkpt lat="47.26781" lon="-2.33696">
        <ele>31.799999237061</ele>
        <time>2020-12-13T08:23:52.000Z</time>
      </trkpt>
      <trkpt lat="47.26785" lon="-2.33705">
        <ele>31.799999237061</ele>
        <time>2020-12-13T08:23:54.000Z</time>
      </trkpt>
      <trkpt lat="47.26799" lon="-2.33725">
        <ele>31.799999237061</ele>
        <time>2020-12-13T08:23:59.000Z</time>
      </trkpt>
      <trkpt lat="47.26827" lon="-2.33754">
        <ele>31.799999237061</ele>
        <time>2020-12-13T08:24:07.000Z</time>
      </trkpt>
      <trkpt lat="47.26845" lon="-2.33773">
        <ele>31.799999237061</ele>
        <time>2020-12-13T08:24:12.000Z</time>
      </trkpt>
      <trkpt lat="47.26853" lon="-2.33778">
        <ele>31.799999237061</ele>
        <time>2020-12-13T08:24:14.000Z</time>
      </trkpt>
      <trkpt lat="47.26874" lon="-2.33787">
        <ele>31.799999237061</ele>
        <time>2020-12-13T08:24:19.000Z</time>
      </trkpt>
      <trkpt lat="47.26882" lon="-2.3379">
        <ele>31.799999237061</ele>
        <time>2020-12-13T08:24:21.000Z</time>
      </trkpt>
      <trkpt lat="47.26893" lon="-2.33798">
        <ele>31.799999237061</ele>
        <time>2020-12-13T08:24:24.000Z</time>
      </trkpt>
      <trkpt lat="47.26897" lon="-2.33809">
        <ele>31.799999237061</ele>
        <time>2020-12-13T08:24:26.000Z</time>
      </trkpt>
      <trkpt lat="47.269" lon="-2.33821">
        <ele>31.799999237061</ele>
        <time>2020-12-13T08:24:28.000Z</time>
      </trkpt>
      <trkpt lat="47.26905" lon="-2.33839">
        <ele>32.200000762939</ele>
        <time>2020-12-13T08:24:31.000Z</time>
      </trkpt>
      <trkpt lat="47.26906" lon="-2.33845">
        <ele>32.599998474121</ele>
        <time>2020-12-13T08:24:32.000Z</time>
      </trkpt>
      <trkpt lat="47.26908" lon="-2.33851">
        <ele>33</ele>
        <time>2020-12-13T08:24:33.000Z</time>
      </trkpt>
      <trkpt lat="47.26909" lon="-2.33857">
        <ele>33.400001525879</ele>
        <time>2020-12-13T08:24:34.000Z</time>
      </trkpt>
      <trkpt lat="47.2691" lon="-2.33863">
        <ele>33.799999237061</ele>
        <time>2020-12-13T08:24:35.000Z</time>
      </trkpt>
      <trkpt lat="47.26922" lon="-2.33916">
        <ele>33.799999237061</ele>
        <time>2020-12-13T08:24:44.000Z</time>
      </trkpt>
      <trkpt lat="47.26934" lon="-2.33961">
        <ele>33.799999237061</ele>
        <time>2020-12-13T08:24:52.000Z</time>
      </trkpt>
      <trkpt lat="47.26935" lon="-2.33967">
        <ele>33.799999237061</ele>
        <time>2020-12-13T08:24:53.000Z</time>
      </trkpt>
      <trkpt lat="47.26945" lon="-2.34012">
        <ele>33.799999237061</ele>
        <time>2020-12-13T08:25:01.000Z</time>
      </trkpt>
      <trkpt lat="47.26948" lon="-2.34024">
        <ele>34.200000762939</ele>
        <time>2020-12-13T08:25:03.000Z</time>
      </trkpt>
      <trkpt lat="47.26949" lon="-2.34029">
        <ele>34.599998474121</ele>
        <time>2020-12-13T08:25:04.000Z</time>
      </trkpt>
      <trkpt lat="47.26951" lon="-2.34035">
        <ele>35</ele>
        <time>2020-12-13T08:25:05.000Z</time>
      </trkpt>
      <trkpt lat="47.26952" lon="-2.3404">
        <ele>35.400001525879</ele>
        <time>2020-12-13T08:25:06.000Z</time>
      </trkpt>
      <trkpt lat="47.26954" lon="-2.34046">
        <ele>35.799999237061</ele>
        <time>2020-12-13T08:25:07.000Z</time>
      </trkpt>
      <trkpt lat="47.26964" lon="-2.34094">
        <ele>35.799999237061</ele>
        <time>2020-12-13T08:25:15.000Z</time>
      </trkpt>
      <trkpt lat="47.26976" lon="-2.34147">
        <ele>35.799999237061</ele>
        <time>2020-12-13T08:25:24.000Z</time>
      </trkpt>
      <trkpt lat="47.26989" lon="-2.34203">
        <ele>35.799999237061</ele>
        <time>2020-12-13T08:25:33.000Z</time>
      </trkpt>
      <trkpt lat="47.26998" lon="-2.34243">
        <ele>36.200000762939</ele>
        <time>2020-12-13T08:25:40.000Z</time>
      </trkpt>
      <trkpt lat="47.27" lon="-2.34249">
        <ele>36.599998474121</ele>
        <time>2020-12-13T08:25:41.000Z</time>
      </trkpt>
      <trkpt lat="47.27001" lon="-2.34255">
        <ele>37</ele>
        <time>2020-12-13T08:25:42.000Z</time>
      </trkpt>
      <trkpt lat="47.27003" lon="-2.34261">
        <ele>37.599998474121</ele>
        <time>2020-12-13T08:25:43.000Z</time>
      </trkpt>
      <trkpt lat="47.27004" lon="-2.34266">
        <ele>38</ele>
        <time>2020-12-13T08:25:44.000Z</time>
      </trkpt>
      <trkpt lat="47.27006" lon="-2.34301">
        <ele>38</ele>
        <time>2020-12-13T08:25:50.000Z</time>
      </trkpt>
      <trkpt lat="47.27012" lon="-2.34319">
        <ele>38</ele>
        <time>2020-12-13T08:25:54.000Z</time>
      </trkpt>
      <trkpt lat="47.27026" lon="-2.34323">
        <ele>38</ele>
        <time>2020-12-13T08:25:58.000Z</time>
      </trkpt>
      <trkpt lat="47.27038" lon="-2.34336">
        <ele>38</ele>
        <time>2020-12-13T08:26:02.000Z</time>
      </trkpt>
      <trkpt lat="47.2705" lon="-2.3437">
        <ele>38</ele>
        <time>2020-12-13T08:26:08.000Z</time>
      </trkpt>
      <trkpt lat="47.27063" lon="-2.34426">
        <ele>38</ele>
        <time>2020-12-13T08:26:16.000Z</time>
      </trkpt>
      <trkpt lat="47.27077" lon="-2.34491">
        <ele>38</ele>
        <time>2020-12-13T08:26:25.000Z</time>
      </trkpt>
      <trkpt lat="47.27087" lon="-2.3454">
        <ele>38</ele>
        <time>2020-12-13T08:26:32.000Z</time>
      </trkpt>
      <trkpt lat="47.27091" lon="-2.3456">
        <ele>38.400001525879</ele>
        <time>2020-12-13T08:26:35.000Z</time>
      </trkpt>
      <trkpt lat="47.27093" lon="-2.34567">
        <ele>38.799999237061</ele>
        <time>2020-12-13T08:26:36.000Z</time>
      </trkpt>
      <trkpt lat="47.27095" lon="-2.34574">
        <ele>39.200000762939</ele>
        <time>2020-12-13T08:26:37.000Z</time>
      </trkpt>
      <trkpt lat="47.27096" lon="-2.34581">
        <ele>39.599998474121</ele>
        <time>2020-12-13T08:26:38.000Z</time>
      </trkpt>
      <trkpt lat="47.27098" lon="-2.34588">
        <ele>40</ele>
        <time>2020-12-13T08:26:39.000Z</time>
      </trkpt>
      <trkpt lat="47.27113" lon="-2.34654">
        <ele>40</ele>
        <time>2020-12-13T08:26:48.000Z</time>
      </trkpt>
      <trkpt lat="47.27126" lon="-2.34711">
        <ele>40</ele>
        <time>2020-12-13T08:26:56.000Z</time>
      </trkpt>
      <trkpt lat="47.27135" lon="-2.34758">
        <ele>40</ele>
        <time>2020-12-13T08:27:03.000Z</time>
      </trkpt>
      <trkpt lat="47.27143" lon="-2.34799">
        <ele>40</ele>
        <time>2020-12-13T08:27:09.000Z</time>
      </trkpt>
      <trkpt lat="47.27157" lon="-2.34861">
        <ele>40</ele>
        <time>2020-12-13T08:27:18.000Z</time>
      </trkpt>
      <trkpt lat="47.27174" lon="-2.3492">
        <ele>40</ele>
        <time>2020-12-13T08:27:27.000Z</time>
      </trkpt>
      <trkpt lat="47.27194" lon="-2.34979">
        <ele>40</ele>
        <time>2020-12-13T08:27:36.000Z</time>
      </trkpt>
      <trkpt lat="47.27211" lon="-2.35026">
        <ele>40</ele>
        <time>2020-12-13T08:27:44.000Z</time>
      </trkpt>
      <trkpt lat="47.27229" lon="-2.3507">
        <ele>40</ele>
        <time>2020-12-13T08:27:51.000Z</time>
      </trkpt>
      <trkpt lat="47.27243" lon="-2.351">
        <ele>40.400001525879</ele>
        <time>2020-12-13T08:27:56.000Z</time>
      </trkpt>
      <trkpt lat="47.27246" lon="-2.35106">
        <ele>40.799999237061</ele>
        <time>2020-12-13T08:27:57.000Z</time>
      </trkpt>
      <trkpt lat="47.27248" lon="-2.35112">
        <ele>41.200000762939</ele>
        <time>2020-12-13T08:27:58.000Z</time>
      </trkpt>
      <trkpt lat="47.27251" lon="-2.35118">
        <ele>41.599998474121</ele>
        <time>2020-12-13T08:27:59.000Z</time>
      </trkpt>
      <trkpt lat="47.27254" lon="-2.35122">
        <ele>42</ele>
        <time>2020-12-13T08:28:00.000Z</time>
      </trkpt>
      <trkpt lat="47.27265" lon="-2.35124">
        <ele>42</ele>
        <time>2020-12-13T08:28:03.000Z</time>
      </trkpt>
      <trkpt lat="47.27281" lon="-2.35113">
        <ele>42</ele>
        <time>2020-12-13T08:28:07.000Z</time>
      </trkpt>
      <trkpt lat="47.27285" lon="-2.35112">
        <ele>42</ele>
        <time>2020-12-13T08:28:08.000Z</time>
      </trkpt>
      <trkpt lat="47.27299" lon="-2.35104">
        <ele>42</ele>
        <time>2020-12-13T08:28:13.000Z</time>
      </trkpt>
      <trkpt lat="47.27307" lon="-2.35116">
        <ele>42</ele>
        <time>2020-12-13T08:28:17.000Z</time>
      </trkpt>
      <trkpt lat="47.27315" lon="-2.35137">
        <ele>42</ele>
        <time>2020-12-13T08:28:21.000Z</time>
      </trkpt>
      <trkpt lat="47.27318" lon="-2.35149">
        <ele>42</ele>
        <time>2020-12-13T08:28:23.000Z</time>
      </trkpt>
      <trkpt lat="47.27326" lon="-2.3519">
        <ele>42</ele>
        <time>2020-12-13T08:28:29.000Z</time>
      </trkpt>
      <trkpt lat="47.27333" lon="-2.35233">
        <ele>42</ele>
        <time>2020-12-13T08:28:35.000Z</time>
      </trkpt>
      <trkpt lat="47.27335" lon="-2.3524">
        <ele>42</ele>
        <time>2020-12-13T08:28:36.000Z</time>
      </trkpt>
      <trkpt lat="47.27347" lon="-2.35292">
        <ele>42</ele>
        <time>2020-12-13T08:28:44.000Z</time>
      </trkpt>
      <trkpt lat="47.27358" lon="-2.35337">
        <ele>42</ele>
        <time>2020-12-13T08:28:50.000Z</time>
      </trkpt>
      <trkpt lat="47.27368" lon="-2.35384">
        <ele>42</ele>
        <time>2020-12-13T08:28:56.000Z</time>
      </trkpt>
      <trkpt lat="47.27371" lon="-2.35389">
        <ele>42</ele>
        <time>2020-12-13T08:28:57.000Z</time>
      </trkpt>
      <trkpt lat="47.27382" lon="-2.35392">
        <ele>42</ele>
        <time>2020-12-13T08:29:00.000Z</time>
      </trkpt>
      <trkpt lat="47.2739" lon="-2.35388">
        <ele>42</ele>
        <time>2020-12-13T08:29:02.000Z</time>
      </trkpt>
      <trkpt lat="47.27403" lon="-2.3538">
        <ele>42</ele>
        <time>2020-12-13T08:29:05.000Z</time>
      </trkpt>
      <trkpt lat="47.27429" lon="-2.35364">
        <ele>42</ele>
        <time>2020-12-13T08:29:12.000Z</time>
      </trkpt>
      <trkpt lat="47.27438" lon="-2.35364">
        <ele>42</ele>
        <time>2020-12-13T08:29:14.000Z</time>
      </trkpt>
      <trkpt lat="47.27443" lon="-2.35373">
        <ele>42</ele>
        <time>2020-12-13T08:29:16.000Z</time>
      </trkpt>
      <trkpt lat="47.27445" lon="-2.35396">
        <ele>42</ele>
        <time>2020-12-13T08:29:19.000Z</time>
      </trkpt>
      <trkpt lat="47.27444" lon="-2.35405">
        <ele>42</ele>
        <time>2020-12-13T08:29:20.000Z</time>
      </trkpt>
      <trkpt lat="47.27441" lon="-2.35442">
        <ele>42</ele>
        <time>2020-12-13T08:29:25.000Z</time>
      </trkpt>
      <trkpt lat="47.27439" lon="-2.35496">
        <ele>42</ele>
        <time>2020-12-13T08:29:32.000Z</time>
      </trkpt>
      <trkpt lat="47.27438" lon="-2.35541">
        <ele>42</ele>
        <time>2020-12-13T08:29:38.000Z</time>
      </trkpt>
      <trkpt lat="47.27439" lon="-2.35548">
        <ele>42</ele>
        <time>2020-12-13T08:29:39.000Z</time>
      </trkpt>
      <trkpt lat="47.2744" lon="-2.35555">
        <ele>41.599998474121</ele>
        <time>2020-12-13T08:29:40.000Z</time>
      </trkpt>
      <trkpt lat="47.27441" lon="-2.35562">
        <ele>41.200000762939</ele>
        <time>2020-12-13T08:29:41.000Z</time>
      </trkpt>
      <trkpt lat="47.27442" lon="-2.3557">
        <ele>40.799999237061</ele>
        <time>2020-12-13T08:29:42.000Z</time>
      </trkpt>
      <trkpt lat="47.27443" lon="-2.35578">
        <ele>40.200000762939</ele>
        <time>2020-12-13T08:29:43.000Z</time>
      </trkpt>
      <trkpt lat="47.27443" lon="-2.35585">
        <ele>39.799999237061</ele>
        <time>2020-12-13T08:29:44.000Z</time>
      </trkpt>
      <trkpt lat="47.27441" lon="-2.35601">
        <ele>39.799999237061</ele>
        <time>2020-12-13T08:29:46.000Z</time>
      </trkpt>
      <trkpt lat="47.27429" lon="-2.35619">
        <ele>39.799999237061</ele>
        <time>2020-12-13T08:29:49.000Z</time>
      </trkpt>
      <trkpt lat="47.27424" lon="-2.35624">
        <ele>39.799999237061</ele>
        <time>2020-12-13T08:29:50.000Z</time>
      </trkpt>
      <trkpt lat="47.27416" lon="-2.35634">
        <ele>39.799999237061</ele>
        <time>2020-12-13T08:29:52.000Z</time>
      </trkpt>
      <trkpt lat="47.27415" lon="-2.3564">
        <ele>39.799999237061</ele>
        <time>2020-12-13T08:29:53.000Z</time>
      </trkpt>
      <trkpt lat="47.27416" lon="-2.35651">
        <ele>39.400001525879</ele>
        <time>2020-12-13T08:29:55.000Z</time>
      </trkpt>
      <trkpt lat="47.27419" lon="-2.35656">
        <ele>39</ele>
        <time>2020-12-13T08:29:56.000Z</time>
      </trkpt>
      <trkpt lat="47.27421" lon="-2.3566">
        <ele>38.599998474121</ele>
        <time>2020-12-13T08:29:57.000Z</time>
      </trkpt>
      <trkpt lat="47.27426" lon="-2.35664">
        <ele>37.799999237061</ele>
        <time>2020-12-13T08:29:58.000Z</time>
      </trkpt>
      <trkpt lat="47.27431" lon="-2.35665">
        <ele>37.799999237061</ele>
        <time>2020-12-13T08:29:59.000Z</time>
      </trkpt>
      <trkpt lat="47.27441" lon="-2.35668">
        <ele>37.799999237061</ele>
        <time>2020-12-13T08:30:01.000Z</time>
      </trkpt>
      <trkpt lat="47.27462" lon="-2.35672">
        <ele>37.799999237061</ele>
        <time>2020-12-13T08:30:05.000Z</time>
      </trkpt>
      <trkpt lat="47.27486" lon="-2.35676">
        <ele>37.799999237061</ele>
        <time>2020-12-13T08:30:10.000Z</time>
      </trkpt>
      <trkpt lat="47.27521" lon="-2.35686">
        <ele>37.799999237061</ele>
        <time>2020-12-13T08:30:17.000Z</time>
      </trkpt>
      <trkpt lat="47.27548" lon="-2.35691">
        <ele>37.799999237061</ele>
        <time>2020-12-13T08:30:23.000Z</time>
      </trkpt>
      <trkpt lat="47.27582" lon="-2.35702">
        <ele>37.799999237061</ele>
        <time>2020-12-13T08:30:30.000Z</time>
      </trkpt>
      <trkpt lat="47.2761" lon="-2.3571">
        <ele>37.799999237061</ele>
        <time>2020-12-13T08:30:36.000Z</time>
      </trkpt>
      <trkpt lat="47.27627" lon="-2.35716">
        <ele>38.200000762939</ele>
        <time>2020-12-13T08:30:40.000Z</time>
      </trkpt>
      <trkpt lat="47.27632" lon="-2.35717">
        <ele>38.599998474121</ele>
        <time>2020-12-13T08:30:41.000Z</time>
      </trkpt>
      <trkpt lat="47.27636" lon="-2.35717">
        <ele>39</ele>
        <time>2020-12-13T08:30:42.000Z</time>
      </trkpt>
      <trkpt lat="47.27641" lon="-2.35718">
        <ele>39.400001525879</ele>
        <time>2020-12-13T08:30:43.000Z</time>
      </trkpt>
      <trkpt lat="47.27645" lon="-2.3572">
        <ele>39.799999237061</ele>
        <time>2020-12-13T08:30:44.000Z</time>
      </trkpt>
      <trkpt lat="47.2766" lon="-2.35725">
        <ele>39.799999237061</ele>
        <time>2020-12-13T08:30:48.000Z</time>
      </trkpt>
      <trkpt lat="47.27673" lon="-2.35728">
        <ele>40.200000762939</ele>
        <time>2020-12-13T08:30:51.000Z</time>
      </trkpt>
      <trkpt lat="47.27677" lon="-2.35728">
        <ele>40.599998474121</ele>
        <time>2020-12-13T08:30:52.000Z</time>
      </trkpt>
      <trkpt lat="47.2768" lon="-2.35729">
        <ele>41</ele>
        <time>2020-12-13T08:30:53.000Z</time>
      </trkpt>
      <trkpt lat="47.27684" lon="-2.35729">
        <ele>41.400001525879</ele>
        <time>2020-12-13T08:30:54.000Z</time>
      </trkpt>
      <trkpt lat="47.27688" lon="-2.35727">
        <ele>41.799999237061</ele>
        <time>2020-12-13T08:30:55.000Z</time>
      </trkpt>
      <trkpt lat="47.27699" lon="-2.3572">
        <ele>41.799999237061</ele>
        <time>2020-12-13T08:30:58.000Z</time>
      </trkpt>
      <trkpt lat="47.27703" lon="-2.35718">
        <ele>41.799999237061</ele>
        <time>2020-12-13T08:30:59.000Z</time>
      </trkpt>
      <trkpt lat="47.27719" lon="-2.357">
        <ele>41.799999237061</ele>
        <time>2020-12-13T08:31:04.000Z</time>
      </trkpt>
      <trkpt lat="47.27731" lon="-2.35683">
        <ele>42.200000762939</ele>
        <time>2020-12-13T08:31:08.000Z</time>
      </trkpt>
      <trkpt lat="47.27734" lon="-2.35678">
        <ele>42.599998474121</ele>
        <time>2020-12-13T08:31:09.000Z</time>
      </trkpt>
      <trkpt lat="47.27736" lon="-2.35674">
        <ele>43</ele>
        <time>2020-12-13T08:31:10.000Z</time>
      </trkpt>
      <trkpt lat="47.27739" lon="-2.35671">
        <ele>43.799999237061</ele>
        <time>2020-12-13T08:31:11.000Z</time>
      </trkpt>
      <trkpt lat="47.27756" lon="-2.35645">
        <ele>43.799999237061</ele>
        <time>2020-12-13T08:31:17.000Z</time>
      </trkpt>
      <trkpt lat="47.2777" lon="-2.3563">
        <ele>43.799999237061</ele>
        <time>2020-12-13T08:31:21.000Z</time>
      </trkpt>
      <trkpt lat="47.27778" lon="-2.35625">
        <ele>43.799999237061</ele>
        <time>2020-12-13T08:31:23.000Z</time>
      </trkpt>
      <trkpt lat="47.27802" lon="-2.35613">
        <ele>44.200000762939</ele>
        <time>2020-12-13T08:31:29.000Z</time>
      </trkpt>
      <trkpt lat="47.27806" lon="-2.35611">
        <ele>44.599998474121</ele>
        <time>2020-12-13T08:31:30.000Z</time>
      </trkpt>
      <trkpt lat="47.27811" lon="-2.3561">
        <ele>45</ele>
        <time>2020-12-13T08:31:31.000Z</time>
      </trkpt>
      <trkpt lat="47.27815" lon="-2.35609">
        <ele>45.599998474121</ele>
        <time>2020-12-13T08:31:32.000Z</time>
      </trkpt>
      <trkpt lat="47.27819" lon="-2.35609">
        <ele>46</ele>
        <time>2020-12-13T08:31:33.000Z</time>
      </trkpt>
      <trkpt lat="47.27832" lon="-2.35606">
        <ele>46</ele>
        <time>2020-12-13T08:31:36.000Z</time>
      </trkpt>
      <trkpt lat="47.27866" lon="-2.35596">
        <ele>46</ele>
        <time>2020-12-13T08:31:44.000Z</time>
      </trkpt>
      <trkpt lat="47.2787" lon="-2.35595">
        <ele>46.400001525879</ele>
        <time>2020-12-13T08:31:45.000Z</time>
      </trkpt>
      <trkpt lat="47.27874" lon="-2.35594">
        <ele>46.799999237061</ele>
        <time>2020-12-13T08:31:46.000Z</time>
      </trkpt>
      <trkpt lat="47.27877" lon="-2.35594">
        <ele>47.200000762939</ele>
        <time>2020-12-13T08:31:47.000Z</time>
      </trkpt>
      <trkpt lat="47.27881" lon="-2.35593">
        <ele>47.599998474121</ele>
        <time>2020-12-13T08:31:48.000Z</time>
      </trkpt>
      <trkpt lat="47.27885" lon="-2.35591">
        <ele>48</ele>
        <time>2020-12-13T08:31:49.000Z</time>
      </trkpt>
      <trkpt lat="47.27897" lon="-2.35588">
        <ele>48</ele>
        <time>2020-12-13T08:31:52.000Z</time>
      </trkpt>
      <trkpt lat="47.27915" lon="-2.35584">
        <ele>48.400001525879</ele>
        <time>2020-12-13T08:31:57.000Z</time>
      </trkpt>
      <trkpt lat="47.27919" lon="-2.35584">
        <ele>48.799999237061</ele>
        <time>2020-12-13T08:31:58.000Z</time>
      </trkpt>
      <trkpt lat="47.27923" lon="-2.35585">
        <ele>49.200000762939</ele>
        <time>2020-12-13T08:31:59.000Z</time>
      </trkpt>
      <trkpt lat="47.27927" lon="-2.35586">
        <ele>50.200000762939</ele>
        <time>2020-12-13T08:32:00.000Z</time>
      </trkpt>
      <trkpt lat="47.27941" lon="-2.35588">
        <ele>50.200000762939</ele>
        <time>2020-12-13T08:32:04.000Z</time>
      </trkpt>
      <trkpt lat="47.27966" lon="-2.35581">
        <ele>50.200000762939</ele>
        <time>2020-12-13T08:32:10.000Z</time>
      </trkpt>
      <trkpt lat="47.2797" lon="-2.35581">
        <ele>50.200000762939</ele>
        <time>2020-12-13T08:32:11.000Z</time>
      </trkpt>
      <trkpt lat="47.27974" lon="-2.3558">
        <ele>50.599998474121</ele>
        <time>2020-12-13T08:32:12.000Z</time>
      </trkpt>
      <trkpt lat="47.27977" lon="-2.35579">
        <ele>51</ele>
        <time>2020-12-13T08:32:13.000Z</time>
      </trkpt>
      <trkpt lat="47.27981" lon="-2.35577">
        <ele>51.400001525879</ele>
        <time>2020-12-13T08:32:14.000Z</time>
      </trkpt>
      <trkpt lat="47.27985" lon="-2.35575">
        <ele>51.799999237061</ele>
        <time>2020-12-13T08:32:15.000Z</time>
      </trkpt>
      <trkpt lat="47.27988" lon="-2.35574">
        <ele>52.200000762939</ele>
        <time>2020-12-13T08:32:16.000Z</time>
      </trkpt>
      <trkpt lat="47.28007" lon="-2.35566">
        <ele>52.200000762939</ele>
        <time>2020-12-13T08:32:21.000Z</time>
      </trkpt>
      <trkpt lat="47.2803" lon="-2.35566">
        <ele>52.200000762939</ele>
        <time>2020-12-13T08:32:27.000Z</time>
      </trkpt>
      <trkpt lat="47.28047" lon="-2.35576">
        <ele>52.200000762939</ele>
        <time>2020-12-13T08:32:32.000Z</time>
      </trkpt>
      <trkpt lat="47.28068" lon="-2.35584">
        <ele>52.200000762939</ele>
        <time>2020-12-13T08:32:40.000Z</time>
      </trkpt>
      <trkpt lat="47.28074" lon="-2.3559">
        <ele>52.599998474121</ele>
        <time>2020-12-13T08:32:44.000Z</time>
      </trkpt>
      <trkpt lat="47.28074" lon="-2.3559">
        <ele>53</ele>
        <time>2020-12-13T08:32:45.000Z</time>
      </trkpt>
      <trkpt lat="47.28074" lon="-2.3559">
        <ele>53.599998474121</ele>
        <time>2020-12-13T08:32:46.000Z</time>
      </trkpt>
      <trkpt lat="47.28074" lon="-2.3559">
        <ele>54</ele>
        <time>2020-12-13T08:32:47.000Z</time>
      </trkpt>
      <trkpt lat="47.28074" lon="-2.35591">
        <ele>56.400001525879</ele>
        <time>2020-12-13T08:36:29.000Z</time>
      </trkpt>
      <trkpt lat="47.28072" lon="-2.35587">
        <ele>56.400001525879</ele>
        <time>2020-12-13T08:36:31.000Z</time>
      </trkpt>
      <trkpt lat="47.28071" lon="-2.35579">
        <ele>56.400001525879</ele>
        <time>2020-12-13T08:36:35.000Z</time>
      </trkpt>
      <trkpt lat="47.28071" lon="-2.35576">
        <ele>56.400001525879</ele>
        <time>2020-12-13T08:36:36.000Z</time>
      </trkpt>
      <trkpt lat="47.28075" lon="-2.35561">
        <ele>56.400001525879</ele>
        <time>2020-12-13T08:36:41.000Z</time>
      </trkpt>
      <trkpt lat="47.28082" lon="-2.35554">
        <ele>56.400001525879</ele>
        <time>2020-12-13T08:36:45.000Z</time>
      </trkpt>
      <trkpt lat="47.28085" lon="-2.35554">
        <ele>56.400001525879</ele>
        <time>2020-12-13T08:36:46.000Z</time>
      </trkpt>
      <trkpt lat="47.28104" lon="-2.35553">
        <ele>56.400001525879</ele>
        <time>2020-12-13T08:36:51.000Z</time>
      </trkpt>
      <trkpt lat="47.28128" lon="-2.35556">
        <ele>57.200000762939</ele>
        <time>2020-12-13T08:36:57.000Z</time>
      </trkpt>
      <trkpt lat="47.28132" lon="-2.35557">
        <ele>57.799999237061</ele>
        <time>2020-12-13T08:36:58.000Z</time>
      </trkpt>
      <trkpt lat="47.28135" lon="-2.35556">
        <ele>58.200000762939</ele>
        <time>2020-12-13T08:36:59.000Z</time>
      </trkpt>
      <trkpt lat="47.28138" lon="-2.35555">
        <ele>58.599998474121</ele>
        <time>2020-12-13T08:37:00.000Z</time>
      </trkpt>
      <trkpt lat="47.28142" lon="-2.35547">
        <ele>58.599998474121</ele>
        <time>2020-12-13T08:37:02.000Z</time>
      </trkpt>
      <trkpt lat="47.2815" lon="-2.35529">
        <ele>58.599998474121</ele>
        <time>2020-12-13T08:37:05.000Z</time>
      </trkpt>
      <trkpt lat="47.28152" lon="-2.35523">
        <ele>58.599998474121</ele>
        <time>2020-12-13T08:37:06.000Z</time>
      </trkpt>
      <trkpt lat="47.28175" lon="-2.3548">
        <ele>58.599998474121</ele>
        <time>2020-12-13T08:37:13.000Z</time>
      </trkpt>
      <trkpt lat="47.28179" lon="-2.35476">
        <ele>58.599998474121</ele>
        <time>2020-12-13T08:37:14.000Z</time>
      </trkpt>
      <trkpt lat="47.28191" lon="-2.3546">
        <ele>58.599998474121</ele>
        <time>2020-12-13T08:37:17.000Z</time>
      </trkpt>
      <trkpt lat="47.28203" lon="-2.35444">
        <ele>58.599998474121</ele>
        <time>2020-12-13T08:37:20.000Z</time>
      </trkpt>
      <trkpt lat="47.28208" lon="-2.35439">
        <ele>58.599998474121</ele>
        <time>2020-12-13T08:37:21.000Z</time>
      </trkpt>
      <trkpt lat="47.2823" lon="-2.35415">
        <ele>58.599998474121</ele>
        <time>2020-12-13T08:37:26.000Z</time>
      </trkpt>
      <trkpt lat="47.28234" lon="-2.35411">
        <ele>58.599998474121</ele>
        <time>2020-12-13T08:37:27.000Z</time>
      </trkpt>
      <trkpt lat="47.28252" lon="-2.35403">
        <ele>58.599998474121</ele>
        <time>2020-12-13T08:37:32.000Z</time>
      </trkpt>
      <trkpt lat="47.2826" lon="-2.3541">
        <ele>58.599998474121</ele>
        <time>2020-12-13T08:37:35.000Z</time>
      </trkpt>
      <trkpt lat="47.28267" lon="-2.35411">
        <ele>58.599998474121</ele>
        <time>2020-12-13T08:37:37.000Z</time>
      </trkpt>
      <trkpt lat="47.28279" lon="-2.35405">
        <ele>58.599998474121</ele>
        <time>2020-12-13T08:37:41.000Z</time>
      </trkpt>
      <trkpt lat="47.28286" lon="-2.35393">
        <ele>58.599998474121</ele>
        <time>2020-12-13T08:37:45.000Z</time>
      </trkpt>
      <trkpt lat="47.28297" lon="-2.35375">
        <ele>58.599998474121</ele>
        <time>2020-12-13T08:37:50.000Z</time>
      </trkpt>
      <trkpt lat="47.28318" lon="-2.35362">
        <ele>58.599998474121</ele>
        <time>2020-12-13T08:37:56.000Z</time>
      </trkpt>
      <trkpt lat="47.28334" lon="-2.35352">
        <ele>58.599998474121</ele>
        <time>2020-12-13T08:38:02.000Z</time>
      </trkpt>
      <trkpt lat="47.28336" lon="-2.35351">
        <ele>59</ele>
        <time>2020-12-13T08:38:03.000Z</time>
      </trkpt>
      <trkpt lat="47.28339" lon="-2.35348">
        <ele>59.400001525879</ele>
        <time>2020-12-13T08:38:04.000Z</time>
      </trkpt>
      <trkpt lat="47.28341" lon="-2.35347">
        <ele>59.799999237061</ele>
        <time>2020-12-13T08:38:05.000Z</time>
      </trkpt>
      <trkpt lat="47.28343" lon="-2.35345">
        <ele>60.200000762939</ele>
        <time>2020-12-13T08:38:06.000Z</time>
      </trkpt>
      <trkpt lat="47.28345" lon="-2.35344">
        <ele>60.599998474121</ele>
        <time>2020-12-13T08:38:07.000Z</time>
      </trkpt>
      <trkpt lat="47.28347" lon="-2.35343">
        <ele>60.599998474121</ele>
        <time>2020-12-13T08:38:08.000Z</time>
      </trkpt>
      <trkpt lat="47.28352" lon="-2.35338">
        <ele>60.599998474121</ele>
        <time>2020-12-13T08:38:12.000Z</time>
      </trkpt>
      <trkpt lat="47.28353" lon="-2.35339">
        <ele>60.599998474121</ele>
        <time>2020-12-13T08:38:13.000Z</time>
      </trkpt>
      <trkpt lat="47.28358" lon="-2.35347">
        <ele>60.599998474121</ele>
        <time>2020-12-13T08:38:16.000Z</time>
      </trkpt>
      <trkpt lat="47.28361" lon="-2.35353">
        <ele>60.599998474121</ele>
        <time>2020-12-13T08:38:18.000Z</time>
      </trkpt>
      <trkpt lat="47.28365" lon="-2.35362">
        <ele>60.599998474121</ele>
        <time>2020-12-13T08:38:23.000Z</time>
      </trkpt>
      <trkpt lat="47.2837" lon="-2.35372">
        <ele>60.599998474121</ele>
        <time>2020-12-13T08:38:29.000Z</time>
      </trkpt>
      <trkpt lat="47.2837" lon="-2.35374">
        <ele>61</ele>
        <time>2020-12-13T08:38:30.000Z</time>
      </trkpt>
      <trkpt lat="47.28371" lon="-2.35375">
        <ele>61.400001525879</ele>
        <time>2020-12-13T08:38:31.000Z</time>
      </trkpt>
      <trkpt lat="47.28372" lon="-2.35378">
        <ele>62</ele>
        <time>2020-12-13T08:38:32.000Z</time>
      </trkpt>
      <trkpt lat="47.28373" lon="-2.35382">
        <ele>62.400001525879</ele>
        <time>2020-12-13T08:38:33.000Z</time>
      </trkpt>
      <trkpt lat="47.28374" lon="-2.35383">
        <ele>62.799999237061</ele>
        <time>2020-12-13T08:38:34.000Z</time>
      </trkpt>
      <trkpt lat="47.28374" lon="-2.35384">
        <ele>63.200000762939</ele>
        <time>2020-12-13T08:38:35.000Z</time>
      </trkpt>
      <trkpt lat="47.28374" lon="-2.35386">
        <ele>63.599998474121</ele>
        <time>2020-12-13T08:38:36.000Z</time>
      </trkpt>
      <trkpt lat="47.28374" lon="-2.35387">
        <ele>64.400001525879</ele>
        <time>2020-12-13T08:38:37.000Z</time>
      </trkpt>
      <trkpt lat="47.28374" lon="-2.35389">
        <ele>64.800003051758</ele>
        <time>2020-12-13T08:38:38.000Z</time>
      </trkpt>
      <trkpt lat="47.28375" lon="-2.35392">
        <ele>64.800003051758</ele>
        <time>2020-12-13T08:38:39.000Z</time>
      </trkpt>
      <trkpt lat="47.28376" lon="-2.35396">
        <ele>65.400001525879</ele>
        <time>2020-12-13T08:38:41.000Z</time>
      </trkpt>
      <trkpt lat="47.28377" lon="-2.35398">
        <ele>65.800003051758</ele>
        <time>2020-12-13T08:38:42.000Z</time>
      </trkpt>
      <trkpt lat="47.28377" lon="-2.35399">
        <ele>66.199996948242</ele>
        <time>2020-12-13T08:38:43.000Z</time>
      </trkpt>
      <trkpt lat="47.28377" lon="-2.354">
        <ele>66.599998474121</ele>
        <time>2020-12-13T08:38:44.000Z</time>
      </trkpt>
      <trkpt lat="47.28379" lon="-2.35401">
        <ele>67</ele>
        <time>2020-12-13T08:38:45.000Z</time>
      </trkpt>
      <trkpt lat="47.28382" lon="-2.35406">
        <ele>67.599998474121</ele>
        <time>2020-12-13T08:38:48.000Z</time>
      </trkpt>
      <trkpt lat="47.28383" lon="-2.35407">
        <ele>68</ele>
        <time>2020-12-13T08:38:49.000Z</time>
      </trkpt>
      <trkpt lat="47.28384" lon="-2.35408">
        <ele>68.400001525879</ele>
        <time>2020-12-13T08:38:50.000Z</time>
      </trkpt>
      <trkpt lat="47.28385" lon="-2.35411">
        <ele>68.800003051758</ele>
        <time>2020-12-13T08:38:51.000Z</time>
      </trkpt>
      <trkpt lat="47.28386" lon="-2.35412">
        <ele>69.199996948242</ele>
        <time>2020-12-13T08:38:52.000Z</time>
      </trkpt>
      <trkpt lat="47.28391" lon="-2.35418">
        <ele>69.199996948242</ele>
        <time>2020-12-13T08:38:56.000Z</time>
      </trkpt>
      <trkpt lat="47.284" lon="-2.35425">
        <ele>69.199996948242</ele>
        <time>2020-12-13T08:39:02.000Z</time>
      </trkpt>
      <trkpt lat="47.28408" lon="-2.35429">
        <ele>69.199996948242</ele>
        <time>2020-12-13T08:39:07.000Z</time>
      </trkpt>
      <trkpt lat="47.28412" lon="-2.35429">
        <ele>69.199996948242</ele>
        <time>2020-12-13T08:39:09.000Z</time>
      </trkpt>
      <trkpt lat="47.28422" lon="-2.35432">
        <ele>69.199996948242</ele>
        <time>2020-12-13T08:39:15.000Z</time>
      </trkpt>
      <trkpt lat="47.28431" lon="-2.35434">
        <ele>69.199996948242</ele>
        <time>2020-12-13T08:39:21.000Z</time>
      </trkpt>
      <trkpt lat="47.28436" lon="-2.35431">
        <ele>69.199996948242</ele>
        <time>2020-12-13T08:39:25.000Z</time>
      </trkpt>
      <trkpt lat="47.28441" lon="-2.3543">
        <ele>69.199996948242</ele>
        <time>2020-12-13T08:39:30.000Z</time>
      </trkpt>
      <trkpt lat="47.28443" lon="-2.3543">
        <ele>69.199996948242</ele>
        <time>2020-12-13T08:39:33.000Z</time>
      </trkpt>
      <trkpt lat="47.28445" lon="-2.35429">
        <ele>69.199996948242</ele>
        <time>2020-12-13T08:39:38.000Z</time>
      </trkpt>
      <trkpt lat="47.28449" lon="-2.35428">
        <ele>69.199996948242</ele>
        <time>2020-12-13T08:39:40.000Z</time>
      </trkpt>
      <trkpt lat="47.28457" lon="-2.35429">
        <ele>69.199996948242</ele>
        <time>2020-12-13T08:39:44.000Z</time>
      </trkpt>
      <trkpt lat="47.28462" lon="-2.35436">
        <ele>69.199996948242</ele>
        <time>2020-12-13T08:39:47.000Z</time>
      </trkpt>
      <trkpt lat="47.28466" lon="-2.3544">
        <ele>69.199996948242</ele>
        <time>2020-12-13T08:39:50.000Z</time>
      </trkpt>
      <trkpt lat="47.28468" lon="-2.3544">
        <ele>69.199996948242</ele>
        <time>2020-12-13T08:39:51.000Z</time>
      </trkpt>
      <trkpt lat="47.28471" lon="-2.35442">
        <ele>69.199996948242</ele>
        <time>2020-12-13T08:39:53.000Z</time>
      </trkpt>
      <trkpt lat="47.28476" lon="-2.35441">
        <ele>69.199996948242</ele>
        <time>2020-12-13T08:39:55.000Z</time>
      </trkpt>
      <trkpt lat="47.28479" lon="-2.35439">
        <ele>69.199996948242</ele>
        <time>2020-12-13T08:39:56.000Z</time>
      </trkpt>
      <trkpt lat="47.28483" lon="-2.35435">
        <ele>68.800003051758</ele>
        <time>2020-12-13T08:39:58.000Z</time>
      </trkpt>
      <trkpt lat="47.28485" lon="-2.35433">
        <ele>68.400001525879</ele>
        <time>2020-12-13T08:39:59.000Z</time>
      </trkpt>
      <trkpt lat="47.28488" lon="-2.35431">
        <ele>68</ele>
        <time>2020-12-13T08:40:00.000Z</time>
      </trkpt>
      <trkpt lat="47.28491" lon="-2.3543">
        <ele>67.599998474121</ele>
        <time>2020-12-13T08:40:01.000Z</time>
      </trkpt>
      <trkpt lat="47.28493" lon="-2.35429">
        <ele>67.199996948242</ele>
        <time>2020-12-13T08:40:02.000Z</time>
      </trkpt>
      <trkpt lat="47.28496" lon="-2.35429">
        <ele>67.199996948242</ele>
        <time>2020-12-13T08:40:03.000Z</time>
      </trkpt>
      <trkpt lat="47.28501" lon="-2.35429">
        <ele>66.800003051758</ele>
        <time>2020-12-13T08:40:05.000Z</time>
      </trkpt>
      <trkpt lat="47.28504" lon="-2.35428">
        <ele>66.199996948242</ele>
        <time>2020-12-13T08:40:06.000Z</time>
      </trkpt>
      <trkpt lat="47.28507" lon="-2.35427">
        <ele>65.800003051758</ele>
        <time>2020-12-13T08:40:07.000Z</time>
      </trkpt>
      <trkpt lat="47.2851" lon="-2.35425">
        <ele>65.400001525879</ele>
        <time>2020-12-13T08:40:08.000Z</time>
      </trkpt>
      <trkpt lat="47.28513" lon="-2.35424">
        <ele>65</ele>
        <time>2020-12-13T08:40:09.000Z</time>
      </trkpt>
      <trkpt lat="47.28516" lon="-2.35425">
        <ele>65</ele>
        <time>2020-12-13T08:40:10.000Z</time>
      </trkpt>
      <trkpt lat="47.28524" lon="-2.35431">
        <ele>65</ele>
        <time>2020-12-13T08:40:13.000Z</time>
      </trkpt>
      <trkpt lat="47.28533" lon="-2.35431">
        <ele>65</ele>
        <time>2020-12-13T08:40:17.000Z</time>
      </trkpt>
      <trkpt lat="47.28536" lon="-2.35429">
        <ele>65</ele>
        <time>2020-12-13T08:40:19.000Z</time>
      </trkpt>
      <trkpt lat="47.28544" lon="-2.35427">
        <ele>65</ele>
        <time>2020-12-13T08:40:25.000Z</time>
      </trkpt>
      <trkpt lat="47.2855" lon="-2.35422">
        <ele>65</ele>
        <time>2020-12-13T08:40:31.000Z</time>
      </trkpt>
      <trkpt lat="47.28554" lon="-2.35414">
        <ele>65</ele>
        <time>2020-12-13T08:40:38.000Z</time>
      </trkpt>
      <trkpt lat="47.28558" lon="-2.35415">
        <ele>65</ele>
        <time>2020-12-13T08:40:42.000Z</time>
      </trkpt>
      <trkpt lat="47.2856" lon="-2.35418">
        <ele>65</ele>
        <time>2020-12-13T08:40:44.000Z</time>
      </trkpt>
      <trkpt lat="47.28561" lon="-2.35424">
        <ele>65</ele>
        <time>2020-12-13T08:40:46.000Z</time>
      </trkpt>
      <trkpt lat="47.28569" lon="-2.35445">
        <ele>65</ele>
        <time>2020-12-13T08:40:51.000Z</time>
      </trkpt>
      <trkpt lat="47.28578" lon="-2.35478">
        <ele>65</ele>
        <time>2020-12-13T08:40:57.000Z</time>
      </trkpt>
      <trkpt lat="47.28588" lon="-2.35525">
        <ele>65</ele>
        <time>2020-12-13T08:41:04.000Z</time>
      </trkpt>
      <trkpt lat="47.28594" lon="-2.35567">
        <ele>65.400001525879</ele>
        <time>2020-12-13T08:41:10.000Z</time>
      </trkpt>
      <trkpt lat="47.28595" lon="-2.35574">
        <ele>65.800003051758</ele>
        <time>2020-12-13T08:41:11.000Z</time>
      </trkpt>
      <trkpt lat="47.28595" lon="-2.35581">
        <ele>66.199996948242</ele>
        <time>2020-12-13T08:41:12.000Z</time>
      </trkpt>
      <trkpt lat="47.28596" lon="-2.35588">
        <ele>66.599998474121</ele>
        <time>2020-12-13T08:41:13.000Z</time>
      </trkpt>
      <trkpt lat="47.28598" lon="-2.35594">
        <ele>67</ele>
        <time>2020-12-13T08:41:14.000Z</time>
      </trkpt>
      <trkpt lat="47.28602" lon="-2.35635">
        <ele>67</ele>
        <time>2020-12-13T08:41:20.000Z</time>
      </trkpt>
      <trkpt lat="47.28606" lon="-2.35681">
        <ele>67</ele>
        <time>2020-12-13T08:41:27.000Z</time>
      </trkpt>
      <trkpt lat="47.28613" lon="-2.35728">
        <ele>67</ele>
        <time>2020-12-13T08:41:34.000Z</time>
      </trkpt>
      <trkpt lat="47.28615" lon="-2.35734">
        <ele>67.400001525879</ele>
        <time>2020-12-13T08:41:35.000Z</time>
      </trkpt>
      <trkpt lat="47.28617" lon="-2.3574">
        <ele>67.800003051758</ele>
        <time>2020-12-13T08:41:36.000Z</time>
      </trkpt>
      <trkpt lat="47.2862" lon="-2.35744">
        <ele>68.199996948242</ele>
        <time>2020-12-13T08:41:37.000Z</time>
      </trkpt>
      <trkpt lat="47.28624" lon="-2.35748">
        <ele>68.599998474121</ele>
        <time>2020-12-13T08:41:38.000Z</time>
      </trkpt>
      <trkpt lat="47.28627" lon="-2.35753">
        <ele>69</ele>
        <time>2020-12-13T08:41:39.000Z</time>
      </trkpt>
      <trkpt lat="47.28634" lon="-2.35774">
        <ele>69</ele>
        <time>2020-12-13T08:41:43.000Z</time>
      </trkpt>
      <trkpt lat="47.28642" lon="-2.35811">
        <ele>69</ele>
        <time>2020-12-13T08:41:50.000Z</time>
      </trkpt>
      <trkpt lat="47.28646" lon="-2.35839">
        <ele>69</ele>
        <time>2020-12-13T08:41:56.000Z</time>
      </trkpt>
      <trkpt lat="47.28659" lon="-2.35871">
        <ele>69</ele>
        <time>2020-12-13T08:42:03.000Z</time>
      </trkpt>
      <trkpt lat="47.28667" lon="-2.35896">
        <ele>69.400001525879</ele>
        <time>2020-12-13T08:42:08.000Z</time>
      </trkpt>
      <trkpt lat="47.28668" lon="-2.35901">
        <ele>69.800003051758</ele>
        <time>2020-12-13T08:42:09.000Z</time>
      </trkpt>
      <trkpt lat="47.2867" lon="-2.35905">
        <ele>70.199996948242</ele>
        <time>2020-12-13T08:42:10.000Z</time>
      </trkpt>
      <trkpt lat="47.28672" lon="-2.3591">
        <ele>70.599998474121</ele>
        <time>2020-12-13T08:42:11.000Z</time>
      </trkpt>
      <trkpt lat="47.28673" lon="-2.35914">
        <ele>71</ele>
        <time>2020-12-13T08:42:12.000Z</time>
      </trkpt>
      <trkpt lat="47.28676" lon="-2.35917">
        <ele>71</ele>
        <time>2020-12-13T08:42:13.000Z</time>
      </trkpt>
      <trkpt lat="47.28678" lon="-2.35917">
        <ele>71</ele>
        <time>2020-12-13T08:42:14.000Z</time>
      </trkpt>
      <trkpt lat="47.28686" lon="-2.35908">
        <ele>71</ele>
        <time>2020-12-13T08:42:17.000Z</time>
      </trkpt>
      <trkpt lat="47.28689" lon="-2.35904">
        <ele>71</ele>
        <time>2020-12-13T08:42:18.000Z</time>
      </trkpt>
      <trkpt lat="47.28714" lon="-2.35871">
        <ele>71</ele>
        <time>2020-12-13T08:42:26.000Z</time>
      </trkpt>
      <trkpt lat="47.28739" lon="-2.3582">
        <ele>71</ele>
        <time>2020-12-13T08:42:36.000Z</time>
      </trkpt>
      <trkpt lat="47.28762" lon="-2.35777">
        <ele>71</ele>
        <time>2020-12-13T08:42:44.000Z</time>
      </trkpt>
      <trkpt lat="47.28787" lon="-2.3573">
        <ele>71.400001525879</ele>
        <time>2020-12-13T08:42:52.000Z</time>
      </trkpt>
      <trkpt lat="47.28789" lon="-2.35724">
        <ele>71.800003051758</ele>
        <time>2020-12-13T08:42:53.000Z</time>
      </trkpt>
      <trkpt lat="47.28792" lon="-2.35718">
        <ele>72.400001525879</ele>
        <time>2020-12-13T08:42:54.000Z</time>
      </trkpt>
      <trkpt lat="47.28796" lon="-2.35712">
        <ele>72.800003051758</ele>
        <time>2020-12-13T08:42:55.000Z</time>
      </trkpt>
      <trkpt lat="47.28799" lon="-2.35706">
        <ele>73.199996948242</ele>
        <time>2020-12-13T08:42:56.000Z</time>
      </trkpt>
      <trkpt lat="47.28818" lon="-2.35673">
        <ele>73.199996948242</ele>
        <time>2020-12-13T08:43:01.000Z</time>
      </trkpt>
      <trkpt lat="47.2885" lon="-2.35634">
        <ele>73.199996948242</ele>
        <time>2020-12-13T08:43:08.000Z</time>
      </trkpt>
      <trkpt lat="47.28882" lon="-2.356">
        <ele>73.199996948242</ele>
        <time>2020-12-13T08:43:15.000Z</time>
      </trkpt>
      <trkpt lat="47.28912" lon="-2.35565">
        <ele>73.199996948242</ele>
        <time>2020-12-13T08:43:22.000Z</time>
      </trkpt>
      <trkpt lat="47.28916" lon="-2.35561">
        <ele>73.199996948242</ele>
        <time>2020-12-13T08:43:23.000Z</time>
      </trkpt>
      <trkpt lat="47.28927" lon="-2.3556">
        <ele>73.199996948242</ele>
        <time>2020-12-13T08:43:26.000Z</time>
      </trkpt>
      <trkpt lat="47.28931" lon="-2.35569">
        <ele>73.199996948242</ele>
        <time>2020-12-13T08:43:28.000Z</time>
      </trkpt>
      <trkpt lat="47.28935" lon="-2.35579">
        <ele>73.199996948242</ele>
        <time>2020-12-13T08:43:30.000Z</time>
      </trkpt>
      <trkpt lat="47.28938" lon="-2.3559">
        <ele>73.199996948242</ele>
        <time>2020-12-13T08:43:32.000Z</time>
      </trkpt>
      <trkpt lat="47.28949" lon="-2.35618">
        <ele>73.199996948242</ele>
        <time>2020-12-13T08:43:37.000Z</time>
      </trkpt>
      <trkpt lat="47.28973" lon="-2.35674">
        <ele>73.199996948242</ele>
        <time>2020-12-13T08:43:47.000Z</time>
      </trkpt>
      <trkpt lat="47.28976" lon="-2.3568">
        <ele>73.199996948242</ele>
        <time>2020-12-13T08:43:48.000Z</time>
      </trkpt>
      <trkpt lat="47.28991" lon="-2.35697">
        <ele>73.199996948242</ele>
        <time>2020-12-13T08:43:52.000Z</time>
      </trkpt>
      <trkpt lat="47.29015" lon="-2.35703">
        <ele>73.199996948242</ele>
        <time>2020-12-13T08:43:57.000Z</time>
      </trkpt>
      <trkpt lat="47.29034" lon="-2.35692">
        <ele>73.199996948242</ele>
        <time>2020-12-13T08:44:01.000Z</time>
      </trkpt>
      <trkpt lat="47.29042" lon="-2.35684">
        <ele>73.199996948242</ele>
        <time>2020-12-13T08:44:03.000Z</time>
      </trkpt>
      <trkpt lat="47.29066" lon="-2.35658">
        <ele>73.199996948242</ele>
        <time>2020-12-13T08:44:09.000Z</time>
      </trkpt>
      <trkpt lat="47.29081" lon="-2.35642">
        <ele>73.199996948242</ele>
        <time>2020-12-13T08:44:13.000Z</time>
      </trkpt>
      <trkpt lat="47.29082" lon="-2.35638">
        <ele>73.199996948242</ele>
        <time>2020-12-13T08:44:14.000Z</time>
      </trkpt>
      <trkpt lat="47.29077" lon="-2.35623">
        <ele>73.199996948242</ele>
        <time>2020-12-13T08:44:17.000Z</time>
      </trkpt>
      <trkpt lat="47.29075" lon="-2.35618">
        <ele>73.199996948242</ele>
        <time>2020-12-13T08:44:18.000Z</time>
      </trkpt>
      <trkpt lat="47.2906" lon="-2.35581">
        <ele>73.199996948242</ele>
        <time>2020-12-13T08:44:24.000Z</time>
      </trkpt>
      <trkpt lat="47.29055" lon="-2.35568">
        <ele>73.599998474121</ele>
        <time>2020-12-13T08:44:26.000Z</time>
      </trkpt>
      <trkpt lat="47.29053" lon="-2.35561">
        <ele>74</ele>
        <time>2020-12-13T08:44:27.000Z</time>
      </trkpt>
      <trkpt lat="47.2905" lon="-2.35555">
        <ele>74.400001525879</ele>
        <time>2020-12-13T08:44:28.000Z</time>
      </trkpt>
      <trkpt lat="47.29048" lon="-2.35548">
        <ele>74.800003051758</ele>
        <time>2020-12-13T08:44:29.000Z</time>
      </trkpt>
      <trkpt lat="47.29045" lon="-2.35541">
        <ele>74.599998474121</ele>
        <time>2020-12-13T08:44:30.000Z</time>
      </trkpt>
      <trkpt lat="47.29043" lon="-2.35534">
        <ele>74.199996948242</ele>
        <time>2020-12-13T08:44:31.000Z</time>
      </trkpt>
      <trkpt lat="47.29041" lon="-2.35528">
        <ele>74</ele>
        <time>2020-12-13T08:44:32.000Z</time>
      </trkpt>
      <trkpt lat="47.29041" lon="-2.35521">
        <ele>73.599998474121</ele>
        <time>2020-12-13T08:44:33.000Z</time>
      </trkpt>
      <trkpt lat="47.29042" lon="-2.35513">
        <ele>73.400001525879</ele>
        <time>2020-12-13T08:44:34.000Z</time>
      </trkpt>
      <trkpt lat="47.29052" lon="-2.35495">
        <ele>73.400001525879</ele>
        <time>2020-12-13T08:44:37.000Z</time>
      </trkpt>
      <trkpt lat="47.29082" lon="-2.35452">
        <ele>73.400001525879</ele>
        <time>2020-12-13T08:44:45.000Z</time>
      </trkpt>
      <trkpt lat="47.29085" lon="-2.35446">
        <ele>73.400001525879</ele>
        <time>2020-12-13T08:44:46.000Z</time>
      </trkpt>
      <trkpt lat="47.29087" lon="-2.35424">
        <ele>73.400001525879</ele>
        <time>2020-12-13T08:44:49.000Z</time>
      </trkpt>
      <trkpt lat="47.29082" lon="-2.354">
        <ele>73.400001525879</ele>
        <time>2020-12-13T08:44:52.000Z</time>
      </trkpt>
      <trkpt lat="47.29079" lon="-2.35384">
        <ele>73.400001525879</ele>
        <time>2020-12-13T08:44:54.000Z</time>
      </trkpt>
      <trkpt lat="47.29064" lon="-2.35308">
        <ele>73.400001525879</ele>
        <time>2020-12-13T08:45:03.000Z</time>
      </trkpt>
      <trkpt lat="47.29055" lon="-2.35268">
        <ele>73.400001525879</ele>
        <time>2020-12-13T08:45:08.000Z</time>
      </trkpt>
      <trkpt lat="47.29053" lon="-2.35261">
        <ele>73.400001525879</ele>
        <time>2020-12-13T08:45:09.000Z</time>
      </trkpt>
      <trkpt lat="47.29041" lon="-2.35244">
        <ele>73.400001525879</ele>
        <time>2020-12-13T08:45:12.000Z</time>
      </trkpt>
      <trkpt lat="47.29039" lon="-2.35238">
        <ele>73.400001525879</ele>
        <time>2020-12-13T08:45:13.000Z</time>
      </trkpt>
      <trkpt lat="47.29036" lon="-2.35222">
        <ele>72.800003051758</ele>
        <time>2020-12-13T08:45:15.000Z</time>
      </trkpt>
      <trkpt lat="47.29037" lon="-2.35213">
        <ele>72.400001525879</ele>
        <time>2020-12-13T08:45:16.000Z</time>
      </trkpt>
      <trkpt lat="47.29038" lon="-2.35205">
        <ele>72</ele>
        <time>2020-12-13T08:45:17.000Z</time>
      </trkpt>
      <trkpt lat="47.2904" lon="-2.35198">
        <ele>71.599998474121</ele>
        <time>2020-12-13T08:45:18.000Z</time>
      </trkpt>
      <trkpt lat="47.29041" lon="-2.3519">
        <ele>71.199996948242</ele>
        <time>2020-12-13T08:45:19.000Z</time>
      </trkpt>
      <trkpt lat="47.29042" lon="-2.35181">
        <ele>71.199996948242</ele>
        <time>2020-12-13T08:45:20.000Z</time>
      </trkpt>
      <trkpt lat="47.29035" lon="-2.35139">
        <ele>71.199996948242</ele>
        <time>2020-12-13T08:45:25.000Z</time>
      </trkpt>
      <trkpt lat="47.29023" lon="-2.35072">
        <ele>71.199996948242</ele>
        <time>2020-12-13T08:45:33.000Z</time>
      </trkpt>
      <trkpt lat="47.29009" lon="-2.35003">
        <ele>71.199996948242</ele>
        <time>2020-12-13T08:45:41.000Z</time>
      </trkpt>
      <trkpt lat="47.28994" lon="-2.34933">
        <ele>71.199996948242</ele>
        <time>2020-12-13T08:45:49.000Z</time>
      </trkpt>
      <trkpt lat="47.28988" lon="-2.34897">
        <ele>70.800003051758</ele>
        <time>2020-12-13T08:45:53.000Z</time>
      </trkpt>
      <trkpt lat="47.28987" lon="-2.34888">
        <ele>70.199996948242</ele>
        <time>2020-12-13T08:45:54.000Z</time>
      </trkpt>
      <trkpt lat="47.28985" lon="-2.34879">
        <ele>69.800003051758</ele>
        <time>2020-12-13T08:45:55.000Z</time>
      </trkpt>
      <trkpt lat="47.28984" lon="-2.3487">
        <ele>69.400001525879</ele>
        <time>2020-12-13T08:45:56.000Z</time>
      </trkpt>
      <trkpt lat="47.28982" lon="-2.34861">
        <ele>69</ele>
        <time>2020-12-13T08:45:57.000Z</time>
      </trkpt>
      <trkpt lat="47.28979" lon="-2.34843">
        <ele>69</ele>
        <time>2020-12-13T08:45:59.000Z</time>
      </trkpt>
      <trkpt lat="47.28965" lon="-2.34765">
        <ele>69</ele>
        <time>2020-12-13T08:46:08.000Z</time>
      </trkpt>
      <trkpt lat="47.28962" lon="-2.34748">
        <ele>69</ele>
        <time>2020-12-13T08:46:10.000Z</time>
      </trkpt>
      <trkpt lat="47.2895" lon="-2.3468">
        <ele>69</ele>
        <time>2020-12-13T08:46:18.000Z</time>
      </trkpt>
      <trkpt lat="47.28933" lon="-2.34606">
        <ele>69</ele>
        <time>2020-12-13T08:46:27.000Z</time>
      </trkpt>
      <trkpt lat="47.28923" lon="-2.34551">
        <ele>69</ele>
        <time>2020-12-13T08:46:34.000Z</time>
      </trkpt>
      <trkpt lat="47.28914" lon="-2.34487">
        <ele>69</ele>
        <time>2020-12-13T08:46:42.000Z</time>
      </trkpt>
      <trkpt lat="47.289" lon="-2.34415">
        <ele>69</ele>
        <time>2020-12-13T08:46:51.000Z</time>
      </trkpt>
      <trkpt lat="47.28887" lon="-2.34345">
        <ele>69</ele>
        <time>2020-12-13T08:47:00.000Z</time>
      </trkpt>
      <trkpt lat="47.28879" lon="-2.34307">
        <ele>69.400001525879</ele>
        <time>2020-12-13T08:47:05.000Z</time>
      </trkpt>
      <trkpt lat="47.28878" lon="-2.34299">
        <ele>69.800003051758</ele>
        <time>2020-12-13T08:47:06.000Z</time>
      </trkpt>
      <trkpt lat="47.28877" lon="-2.34292">
        <ele>70.199996948242</ele>
        <time>2020-12-13T08:47:07.000Z</time>
      </trkpt>
      <trkpt lat="47.28875" lon="-2.34284">
        <ele>70.599998474121</ele>
        <time>2020-12-13T08:47:08.000Z</time>
      </trkpt>
      <trkpt lat="47.28874" lon="-2.34276">
        <ele>71</ele>
        <time>2020-12-13T08:47:09.000Z</time>
      </trkpt>
      <trkpt lat="47.28863" lon="-2.34198">
        <ele>71</ele>
        <time>2020-12-13T08:47:19.000Z</time>
      </trkpt>
      <trkpt lat="47.28857" lon="-2.34143">
        <ele>71</ele>
        <time>2020-12-13T08:47:26.000Z</time>
      </trkpt>
      <trkpt lat="47.28846" lon="-2.34079">
        <ele>71</ele>
        <time>2020-12-13T08:47:34.000Z</time>
      </trkpt>
      <trkpt lat="47.28832" lon="-2.34015">
        <ele>71</ele>
        <time>2020-12-13T08:47:42.000Z</time>
      </trkpt>
      <trkpt lat="47.28813" lon="-2.33953">
        <ele>71</ele>
        <time>2020-12-13T08:47:50.000Z</time>
      </trkpt>
      <trkpt lat="47.28793" lon="-2.33902">
        <ele>70.599998474121</ele>
        <time>2020-12-13T08:47:57.000Z</time>
      </trkpt>
      <trkpt lat="47.2879" lon="-2.33895">
        <ele>70.199996948242</ele>
        <time>2020-12-13T08:47:58.000Z</time>
      </trkpt>
      <trkpt lat="47.28787" lon="-2.33889">
        <ele>69.800003051758</ele>
        <time>2020-12-13T08:47:59.000Z</time>
      </trkpt>
      <trkpt lat="47.28784" lon="-2.33882">
        <ele>69.400001525879</ele>
        <time>2020-12-13T08:48:00.000Z</time>
      </trkpt>
      <trkpt lat="47.28781" lon="-2.33876">
        <ele>69</ele>
        <time>2020-12-13T08:48:01.000Z</time>
      </trkpt>
      <trkpt lat="47.28772" lon="-2.33856">
        <ele>69</ele>
        <time>2020-12-13T08:48:04.000Z</time>
      </trkpt>
      <trkpt lat="47.28769" lon="-2.33849">
        <ele>69</ele>
        <time>2020-12-13T08:48:05.000Z</time>
      </trkpt>
      <trkpt lat="47.28763" lon="-2.33818">
        <ele>69</ele>
        <time>2020-12-13T08:48:09.000Z</time>
      </trkpt>
      <trkpt lat="47.28757" lon="-2.33769">
        <ele>69</ele>
        <time>2020-12-13T08:48:15.000Z</time>
      </trkpt>
      <trkpt lat="47.28748" lon="-2.33729">
        <ele>69</ele>
        <time>2020-12-13T08:48:20.000Z</time>
      </trkpt>
      <trkpt lat="47.28745" lon="-2.33722">
        <ele>69</ele>
        <time>2020-12-13T08:48:21.000Z</time>
      </trkpt>
      <trkpt lat="47.28727" lon="-2.33699">
        <ele>69</ele>
        <time>2020-12-13T08:48:25.000Z</time>
      </trkpt>
      <trkpt lat="47.28705" lon="-2.33689">
        <ele>69</ele>
        <time>2020-12-13T08:48:29.000Z</time>
      </trkpt>
      <trkpt lat="47.28683" lon="-2.33694">
        <ele>69</ele>
        <time>2020-12-13T08:48:33.000Z</time>
      </trkpt>
      <trkpt lat="47.28678" lon="-2.33696">
        <ele>69</ele>
        <time>2020-12-13T08:48:34.000Z</time>
      </trkpt>
      <trkpt lat="47.28673" lon="-2.33698">
        <ele>69.400001525879</ele>
        <time>2020-12-13T08:48:35.000Z</time>
      </trkpt>
      <trkpt lat="47.28668" lon="-2.33701">
        <ele>69.800003051758</ele>
        <time>2020-12-13T08:48:36.000Z</time>
      </trkpt>
      <trkpt lat="47.28663" lon="-2.33703">
        <ele>70.199996948242</ele>
        <time>2020-12-13T08:48:37.000Z</time>
      </trkpt>
      <trkpt lat="47.28657" lon="-2.33705">
        <ele>70.599998474121</ele>
        <time>2020-12-13T08:48:38.000Z</time>
      </trkpt>
      <trkpt lat="47.28652" lon="-2.33707">
        <ele>71</ele>
        <time>2020-12-13T08:48:39.000Z</time>
      </trkpt>
      <trkpt lat="47.28641" lon="-2.33711">
        <ele>71</ele>
        <time>2020-12-13T08:48:41.000Z</time>
      </trkpt>
      <trkpt lat="47.28601" lon="-2.33727">
        <ele>71</ele>
        <time>2020-12-13T08:48:49.000Z</time>
      </trkpt>
      <trkpt lat="47.28587" lon="-2.33732">
        <ele>71</ele>
        <time>2020-12-13T08:48:52.000Z</time>
      </trkpt>
      <trkpt lat="47.2857" lon="-2.33732">
        <ele>71</ele>
        <time>2020-12-13T08:48:55.000Z</time>
      </trkpt>
      <trkpt lat="47.28565" lon="-2.33731">
        <ele>71</ele>
        <time>2020-12-13T08:48:56.000Z</time>
      </trkpt>
      <trkpt lat="47.28536" lon="-2.33731">
        <ele>71</ele>
        <time>2020-12-13T08:49:01.000Z</time>
      </trkpt>
      <trkpt lat="47.28519" lon="-2.33732">
        <ele>71</ele>
        <time>2020-12-13T08:49:04.000Z</time>
      </trkpt>
      <trkpt lat="47.28508" lon="-2.33736">
        <ele>71</ele>
        <time>2020-12-13T08:49:06.000Z</time>
      </trkpt>
      <trkpt lat="47.2849" lon="-2.33753">
        <ele>71</ele>
        <time>2020-12-13T08:49:10.000Z</time>
      </trkpt>
      <trkpt lat="47.28486" lon="-2.33758">
        <ele>71</ele>
        <time>2020-12-13T08:49:11.000Z</time>
      </trkpt>
      <trkpt lat="47.28451" lon="-2.338">
        <ele>71</ele>
        <time>2020-12-13T08:49:20.000Z</time>
      </trkpt>
      <trkpt lat="47.28427" lon="-2.33825">
        <ele>70.599998474121</ele>
        <time>2020-12-13T08:49:26.000Z</time>
      </trkpt>
      <trkpt lat="47.28422" lon="-2.3383">
        <ele>70.199996948242</ele>
        <time>2020-12-13T08:49:27.000Z</time>
      </trkpt>
      <trkpt lat="47.28418" lon="-2.33834">
        <ele>69.800003051758</ele>
        <time>2020-12-13T08:49:28.000Z</time>
      </trkpt>
      <trkpt lat="47.28414" lon="-2.33838">
        <ele>69.400001525879</ele>
        <time>2020-12-13T08:49:29.000Z</time>
      </trkpt>
      <trkpt lat="47.2841" lon="-2.33842">
        <ele>69</ele>
        <time>2020-12-13T08:49:30.000Z</time>
      </trkpt>
      <trkpt lat="47.28387" lon="-2.33864">
        <ele>68.599998474121</ele>
        <time>2020-12-13T08:49:35.000Z</time>
      </trkpt>
      <trkpt lat="47.28383" lon="-2.33868">
        <ele>68.199996948242</ele>
        <time>2020-12-13T08:49:36.000Z</time>
      </trkpt>
      <trkpt lat="47.28378" lon="-2.33873">
        <ele>67.800003051758</ele>
        <time>2020-12-13T08:49:37.000Z</time>
      </trkpt>
      <trkpt lat="47.28373" lon="-2.33877">
        <ele>67.199996948242</ele>
        <time>2020-12-13T08:49:38.000Z</time>
      </trkpt>
      <trkpt lat="47.28368" lon="-2.33881">
        <ele>66.800003051758</ele>
        <time>2020-12-13T08:49:39.000Z</time>
      </trkpt>
      <trkpt lat="47.28336" lon="-2.33912">
        <ele>66.800003051758</ele>
        <time>2020-12-13T08:49:46.000Z</time>
      </trkpt>
      <trkpt lat="47.2832" lon="-2.33925">
        <ele>66.400001525879</ele>
        <time>2020-12-13T08:49:49.000Z</time>
      </trkpt>
      <trkpt lat="47.28316" lon="-2.33929">
        <ele>66</ele>
        <time>2020-12-13T08:49:50.000Z</time>
      </trkpt>
      <trkpt lat="47.28312" lon="-2.33931">
        <ele>65.599998474121</ele>
        <time>2020-12-13T08:49:51.000Z</time>
      </trkpt>
      <trkpt lat="47.28308" lon="-2.33932">
        <ele>65.199996948242</ele>
        <time>2020-12-13T08:49:52.000Z</time>
      </trkpt>
      <trkpt lat="47.28305" lon="-2.33929">
        <ele>64.800003051758</ele>
        <time>2020-12-13T08:49:53.000Z</time>
      </trkpt>
      <trkpt lat="47.28299" lon="-2.33918">
        <ele>64.800003051758</ele>
        <time>2020-12-13T08:49:55.000Z</time>
      </trkpt>
      <trkpt lat="47.28297" lon="-2.33912">
        <ele>64.800003051758</ele>
        <time>2020-12-13T08:49:56.000Z</time>
      </trkpt>
      <trkpt lat="47.28288" lon="-2.33891">
        <ele>64.800003051758</ele>
        <time>2020-12-13T08:49:59.000Z</time>
      </trkpt>
      <trkpt lat="47.28285" lon="-2.33883">
        <ele>64.800003051758</ele>
        <time>2020-12-13T08:50:00.000Z</time>
      </trkpt>
      <trkpt lat="47.2826" lon="-2.33828">
        <ele>64.800003051758</ele>
        <time>2020-12-13T08:50:07.000Z</time>
      </trkpt>
      <trkpt lat="47.28251" lon="-2.33815">
        <ele>64.800003051758</ele>
        <time>2020-12-13T08:50:09.000Z</time>
      </trkpt>
      <trkpt lat="47.2824" lon="-2.33806">
        <ele>64.800003051758</ele>
        <time>2020-12-13T08:50:11.000Z</time>
      </trkpt>
      <trkpt lat="47.28221" lon="-2.33797">
        <ele>64.800003051758</ele>
        <time>2020-12-13T08:50:14.000Z</time>
      </trkpt>
      <trkpt lat="47.28208" lon="-2.33793">
        <ele>64.800003051758</ele>
        <time>2020-12-13T08:50:16.000Z</time>
      </trkpt>
      <trkpt lat="47.28203" lon="-2.3379">
        <ele>64.800003051758</ele>
        <time>2020-12-13T08:50:17.000Z</time>
      </trkpt>
      <trkpt lat="47.28187" lon="-2.33776">
        <ele>64.400001525879</ele>
        <time>2020-12-13T08:50:20.000Z</time>
      </trkpt>
      <trkpt lat="47.28183" lon="-2.3377">
        <ele>63.799999237061</ele>
        <time>2020-12-13T08:50:21.000Z</time>
      </trkpt>
      <trkpt lat="47.28178" lon="-2.33765">
        <ele>63.400001525879</ele>
        <time>2020-12-13T08:50:22.000Z</time>
      </trkpt>
      <trkpt lat="47.28173" lon="-2.3376">
        <ele>63</ele>
        <time>2020-12-13T08:50:23.000Z</time>
      </trkpt>
      <trkpt lat="47.28169" lon="-2.33754">
        <ele>62.599998474121</ele>
        <time>2020-12-13T08:50:24.000Z</time>
      </trkpt>
      <trkpt lat="47.28159" lon="-2.33743">
        <ele>62.599998474121</ele>
        <time>2020-12-13T08:50:26.000Z</time>
      </trkpt>
      <trkpt lat="47.28136" lon="-2.33707">
        <ele>62.599998474121</ele>
        <time>2020-12-13T08:50:32.000Z</time>
      </trkpt>
      <trkpt lat="47.28126" lon="-2.3369">
        <ele>62.599998474121</ele>
        <time>2020-12-13T08:50:35.000Z</time>
      </trkpt>
      <trkpt lat="47.28114" lon="-2.33674">
        <ele>62.599998474121</ele>
        <time>2020-12-13T08:50:38.000Z</time>
      </trkpt>
      <trkpt lat="47.2811" lon="-2.33669">
        <ele>62.200000762939</ele>
        <time>2020-12-13T08:50:39.000Z</time>
      </trkpt>
      <trkpt lat="47.28106" lon="-2.33665">
        <ele>61.799999237061</ele>
        <time>2020-12-13T08:50:40.000Z</time>
      </trkpt>
      <trkpt lat="47.28103" lon="-2.3366">
        <ele>61.400001525879</ele>
        <time>2020-12-13T08:50:41.000Z</time>
      </trkpt>
      <trkpt lat="47.28101" lon="-2.33655">
        <ele>61</ele>
        <time>2020-12-13T08:50:42.000Z</time>
      </trkpt>
      <trkpt lat="47.28099" lon="-2.33651">
        <ele>60.400001525879</ele>
        <time>2020-12-13T08:50:43.000Z</time>
      </trkpt>
      <trkpt lat="47.28095" lon="-2.33639">
        <ele>60.400001525879</ele>
        <time>2020-12-13T08:50:45.000Z</time>
      </trkpt>
      <trkpt lat="47.28093" lon="-2.33623">
        <ele>60.400001525879</ele>
        <time>2020-12-13T08:50:47.000Z</time>
      </trkpt>
      <trkpt lat="47.28084" lon="-2.33573">
        <ele>60.400001525879</ele>
        <time>2020-12-13T08:50:53.000Z</time>
      </trkpt>
      <trkpt lat="47.28078" lon="-2.33527">
        <ele>60.400001525879</ele>
        <time>2020-12-13T08:50:59.000Z</time>
      </trkpt>
      <trkpt lat="47.2807" lon="-2.33515">
        <ele>60.400001525879</ele>
        <time>2020-12-13T08:51:02.000Z</time>
      </trkpt>
      <trkpt lat="47.28058" lon="-2.33515">
        <ele>60.400001525879</ele>
        <time>2020-12-13T08:51:05.000Z</time>
      </trkpt>
      <trkpt lat="47.28053" lon="-2.33516">
        <ele>60.400001525879</ele>
        <time>2020-12-13T08:51:06.000Z</time>
      </trkpt>
      <trkpt lat="47.28027" lon="-2.33522">
        <ele>60.400001525879</ele>
        <time>2020-12-13T08:51:11.000Z</time>
      </trkpt>
      <trkpt lat="47.28022" lon="-2.33525">
        <ele>60.400001525879</ele>
        <time>2020-12-13T08:51:12.000Z</time>
      </trkpt>
      <trkpt lat="47.27994" lon="-2.33544">
        <ele>60.400001525879</ele>
        <time>2020-12-13T08:51:18.000Z</time>
      </trkpt>
      <trkpt lat="47.27971" lon="-2.33559">
        <ele>61</ele>
        <time>2020-12-13T08:51:23.000Z</time>
      </trkpt>
      <trkpt lat="47.27966" lon="-2.33562">
        <ele>61.400001525879</ele>
        <time>2020-12-13T08:51:24.000Z</time>
      </trkpt>
      <trkpt lat="47.27961" lon="-2.33565">
        <ele>61.799999237061</ele>
        <time>2020-12-13T08:51:25.000Z</time>
      </trkpt>
      <trkpt lat="47.27957" lon="-2.33568">
        <ele>62.200000762939</ele>
        <time>2020-12-13T08:51:26.000Z</time>
      </trkpt>
      <trkpt lat="47.27953" lon="-2.3357">
        <ele>62.799999237061</ele>
        <time>2020-12-13T08:51:27.000Z</time>
      </trkpt>
      <trkpt lat="47.27949" lon="-2.33571">
        <ele>62.799999237061</ele>
        <time>2020-12-13T08:51:28.000Z</time>
      </trkpt>
      <trkpt lat="47.2794" lon="-2.33566">
        <ele>62.799999237061</ele>
        <time>2020-12-13T08:51:30.000Z</time>
      </trkpt>
      <trkpt lat="47.27934" lon="-2.33549">
        <ele>62.799999237061</ele>
        <time>2020-12-13T08:51:33.000Z</time>
      </trkpt>
      <trkpt lat="47.27914" lon="-2.33491">
        <ele>62.799999237061</ele>
        <time>2020-12-13T08:51:42.000Z</time>
      </trkpt>
      <trkpt lat="47.27911" lon="-2.33485">
        <ele>62.799999237061</ele>
        <time>2020-12-13T08:51:43.000Z</time>
      </trkpt>
      <trkpt lat="47.27896" lon="-2.33465">
        <ele>62.799999237061</ele>
        <time>2020-12-13T08:51:47.000Z</time>
      </trkpt>
      <trkpt lat="47.27875" lon="-2.33457">
        <ele>62.799999237061</ele>
        <time>2020-12-13T08:51:51.000Z</time>
      </trkpt>
      <trkpt lat="47.27859" lon="-2.33456">
        <ele>63.200000762939</ele>
        <time>2020-12-13T08:51:54.000Z</time>
      </trkpt>
      <trkpt lat="47.27854" lon="-2.33455">
        <ele>63.599998474121</ele>
        <time>2020-12-13T08:51:55.000Z</time>
      </trkpt>
      <trkpt lat="47.27848" lon="-2.33454">
        <ele>64</ele>
        <time>2020-12-13T08:51:56.000Z</time>
      </trkpt>
      <trkpt lat="47.27843" lon="-2.33452">
        <ele>64.400001525879</ele>
        <time>2020-12-13T08:51:57.000Z</time>
      </trkpt>
      <trkpt lat="47.27839" lon="-2.3345">
        <ele>64.800003051758</ele>
        <time>2020-12-13T08:51:58.000Z</time>
      </trkpt>
      <trkpt lat="47.2783" lon="-2.33444">
        <ele>65.400001525879</ele>
        <time>2020-12-13T08:52:00.000Z</time>
      </trkpt>
      <trkpt lat="47.27826" lon="-2.33441">
        <ele>66</ele>
        <time>2020-12-13T08:52:01.000Z</time>
      </trkpt>
      <trkpt lat="47.27821" lon="-2.33438">
        <ele>66.400001525879</ele>
        <time>2020-12-13T08:52:02.000Z</time>
      </trkpt>
      <trkpt lat="47.27817" lon="-2.33435">
        <ele>67</ele>
        <time>2020-12-13T08:52:03.000Z</time>
      </trkpt>
      <trkpt lat="47.27812" lon="-2.33432">
        <ele>67.599998474121</ele>
        <time>2020-12-13T08:52:04.000Z</time>
      </trkpt>
      <trkpt lat="47.27808" lon="-2.33431">
        <ele>67.599998474121</ele>
        <time>2020-12-13T08:52:05.000Z</time>
      </trkpt>
      <trkpt lat="47.27794" lon="-2.3343">
        <ele>67.599998474121</ele>
        <time>2020-12-13T08:52:08.000Z</time>
      </trkpt>
      <trkpt lat="47.2779" lon="-2.3343">
        <ele>67.599998474121</ele>
        <time>2020-12-13T08:52:09.000Z</time>
      </trkpt>
      <trkpt lat="47.27784" lon="-2.33429">
        <ele>67</ele>
        <time>2020-12-13T08:52:11.000Z</time>
      </trkpt>
      <trkpt lat="47.2778" lon="-2.33425">
        <ele>66.599998474121</ele>
        <time>2020-12-13T08:52:12.000Z</time>
      </trkpt>
      <trkpt lat="47.27778" lon="-2.3342">
        <ele>65.800003051758</ele>
        <time>2020-12-13T08:52:13.000Z</time>
      </trkpt>
      <trkpt lat="47.27778" lon="-2.33414">
        <ele>65.400001525879</ele>
        <time>2020-12-13T08:52:14.000Z</time>
      </trkpt>
      <trkpt lat="47.27777" lon="-2.33401">
        <ele>65.400001525879</ele>
        <time>2020-12-13T08:52:16.000Z</time>
      </trkpt>
      <trkpt lat="47.27776" lon="-2.33393">
        <ele>65.400001525879</ele>
        <time>2020-12-13T08:52:17.000Z</time>
      </trkpt>
      <trkpt lat="47.27775" lon="-2.33328">
        <ele>65.400001525879</ele>
        <time>2020-12-13T08:52:25.000Z</time>
      </trkpt>
      <trkpt lat="47.2777" lon="-2.33263">
        <ele>65.400001525879</ele>
        <time>2020-12-13T08:52:33.000Z</time>
      </trkpt>
      <trkpt lat="47.27764" lon="-2.33207">
        <ele>65.400001525879</ele>
        <time>2020-12-13T08:52:40.000Z</time>
      </trkpt>
      <trkpt lat="47.27763" lon="-2.33183">
        <ele>65.400001525879</ele>
        <time>2020-12-13T08:52:43.000Z</time>
      </trkpt>
      <trkpt lat="47.2776" lon="-2.33168">
        <ele>65.400001525879</ele>
        <time>2020-12-13T08:52:45.000Z</time>
      </trkpt>
      <trkpt lat="47.27758" lon="-2.33162">
        <ele>65</ele>
        <time>2020-12-13T08:52:46.000Z</time>
      </trkpt>
      <trkpt lat="47.27756" lon="-2.33155">
        <ele>64.599998474121</ele>
        <time>2020-12-13T08:52:47.000Z</time>
      </trkpt>
      <trkpt lat="47.27756" lon="-2.33148">
        <ele>64.199996948242</ele>
        <time>2020-12-13T08:52:48.000Z</time>
      </trkpt>
      <trkpt lat="47.27756" lon="-2.3314">
        <ele>63.799999237061</ele>
        <time>2020-12-13T08:52:49.000Z</time>
      </trkpt>
      <trkpt lat="47.27756" lon="-2.33132">
        <ele>63.400001525879</ele>
        <time>2020-12-13T08:52:50.000Z</time>
      </trkpt>
      <trkpt lat="47.27756" lon="-2.33115">
        <ele>63.400001525879</ele>
        <time>2020-12-13T08:52:52.000Z</time>
      </trkpt>
      <trkpt lat="47.27755" lon="-2.33096">
        <ele>63.400001525879</ele>
        <time>2020-12-13T08:52:54.000Z</time>
      </trkpt>
      <trkpt lat="47.27752" lon="-2.33017">
        <ele>63.400001525879</ele>
        <time>2020-12-13T08:53:02.000Z</time>
      </trkpt>
      <trkpt lat="47.27752" lon="-2.33006">
        <ele>63</ele>
        <time>2020-12-13T08:53:03.000Z</time>
      </trkpt>
      <trkpt lat="47.27752" lon="-2.32995">
        <ele>62.400001525879</ele>
        <time>2020-12-13T08:53:04.000Z</time>
      </trkpt>
      <trkpt lat="47.27752" lon="-2.32984">
        <ele>62</ele>
        <time>2020-12-13T08:53:05.000Z</time>
      </trkpt>
      <trkpt lat="47.27752" lon="-2.32975">
        <ele>61.599998474121</ele>
        <time>2020-12-13T08:53:06.000Z</time>
      </trkpt>
      <trkpt lat="47.27752" lon="-2.32966">
        <ele>61.200000762939</ele>
        <time>2020-12-13T08:53:07.000Z</time>
      </trkpt>
      <trkpt lat="47.27753" lon="-2.32957">
        <ele>60.599998474121</ele>
        <time>2020-12-13T08:53:08.000Z</time>
      </trkpt>
      <trkpt lat="47.27753" lon="-2.32947">
        <ele>60</ele>
        <time>2020-12-13T08:53:09.000Z</time>
      </trkpt>
      <trkpt lat="47.27752" lon="-2.32938">
        <ele>59.599998474121</ele>
        <time>2020-12-13T08:53:10.000Z</time>
      </trkpt>
      <trkpt lat="47.27751" lon="-2.32929">
        <ele>59</ele>
        <time>2020-12-13T08:53:11.000Z</time>
      </trkpt>
      <trkpt lat="47.27745" lon="-2.32912">
        <ele>59</ele>
        <time>2020-12-13T08:53:13.000Z</time>
      </trkpt>
      <trkpt lat="47.27731" lon="-2.32899">
        <ele>59</ele>
        <time>2020-12-13T08:53:16.000Z</time>
      </trkpt>
      <trkpt lat="47.27726" lon="-2.32897">
        <ele>59</ele>
        <time>2020-12-13T08:53:17.000Z</time>
      </trkpt>
      <trkpt lat="47.27702" lon="-2.32891">
        <ele>59</ele>
        <time>2020-12-13T08:53:22.000Z</time>
      </trkpt>
      <trkpt lat="47.27697" lon="-2.32888">
        <ele>59.599998474121</ele>
        <time>2020-12-13T08:53:23.000Z</time>
      </trkpt>
      <trkpt lat="47.27693" lon="-2.32885">
        <ele>60</ele>
        <time>2020-12-13T08:53:24.000Z</time>
      </trkpt>
      <trkpt lat="47.27688" lon="-2.32881">
        <ele>60.400001525879</ele>
        <time>2020-12-13T08:53:25.000Z</time>
      </trkpt>
      <trkpt lat="47.27683" lon="-2.32877">
        <ele>60.799999237061</ele>
        <time>2020-12-13T08:53:26.000Z</time>
      </trkpt>
      <trkpt lat="47.27679" lon="-2.32873">
        <ele>61.200000762939</ele>
        <time>2020-12-13T08:53:27.000Z</time>
      </trkpt>
      <trkpt lat="47.27662" lon="-2.32854">
        <ele>61.200000762939</ele>
        <time>2020-12-13T08:53:31.000Z</time>
      </trkpt>
      <trkpt lat="47.27653" lon="-2.32843">
        <ele>61.200000762939</ele>
        <time>2020-12-13T08:53:33.000Z</time>
      </trkpt>
      <trkpt lat="47.27648" lon="-2.32839">
        <ele>61.200000762939</ele>
        <time>2020-12-13T08:53:34.000Z</time>
      </trkpt>
      <trkpt lat="47.27623" lon="-2.3282">
        <ele>61.200000762939</ele>
        <time>2020-12-13T08:53:39.000Z</time>
      </trkpt>
      <trkpt lat="47.27613" lon="-2.32817">
        <ele>61.200000762939</ele>
        <time>2020-12-13T08:53:41.000Z</time>
      </trkpt>
      <trkpt lat="47.27591" lon="-2.32821">
        <ele>61.200000762939</ele>
        <time>2020-12-13T08:53:45.000Z</time>
      </trkpt>
      <trkpt lat="47.27587" lon="-2.32822">
        <ele>61.200000762939</ele>
        <time>2020-12-13T08:53:46.000Z</time>
      </trkpt>
      <trkpt lat="47.27579" lon="-2.32826">
        <ele>60.799999237061</ele>
        <time>2020-12-13T08:53:49.000Z</time>
      </trkpt>
      <trkpt lat="47.27578" lon="-2.32827">
        <ele>60.400001525879</ele>
        <time>2020-12-13T08:53:50.000Z</time>
      </trkpt>
      <trkpt lat="47.27576" lon="-2.32827">
        <ele>60</ele>
        <time>2020-12-13T08:53:51.000Z</time>
      </trkpt>
      <trkpt lat="47.27575" lon="-2.32828">
        <ele>59.599998474121</ele>
        <time>2020-12-13T08:53:52.000Z</time>
      </trkpt>
      <trkpt lat="47.27574" lon="-2.32827">
        <ele>59.200000762939</ele>
        <time>2020-12-13T08:53:53.000Z</time>
      </trkpt>
      <trkpt lat="47.27572" lon="-2.32825">
        <ele>59.200000762939</ele>
        <time>2020-12-13T08:53:55.000Z</time>
      </trkpt>
      <trkpt lat="47.27571" lon="-2.32822">
        <ele>59.200000762939</ele>
        <time>2020-12-13T08:53:57.000Z</time>
      </trkpt>
      <trkpt lat="47.2757" lon="-2.3282">
        <ele>59.200000762939</ele>
        <time>2020-12-13T08:53:58.000Z</time>
      </trkpt>
      <trkpt lat="47.27569" lon="-2.32811">
        <ele>59.200000762939</ele>
        <time>2020-12-13T08:54:00.000Z</time>
      </trkpt>
      <trkpt lat="47.27573" lon="-2.32794">
        <ele>59.200000762939</ele>
        <time>2020-12-13T08:54:03.000Z</time>
      </trkpt>
      <trkpt lat="47.27574" lon="-2.32789">
        <ele>59.200000762939</ele>
        <time>2020-12-13T08:54:04.000Z</time>
      </trkpt>
      <trkpt lat="47.27578" lon="-2.32776">
        <ele>58.799999237061</ele>
        <time>2020-12-13T08:54:07.000Z</time>
      </trkpt>
      <trkpt lat="47.2758" lon="-2.32772">
        <ele>58.400001525879</ele>
        <time>2020-12-13T08:54:08.000Z</time>
      </trkpt>
      <trkpt lat="47.27582" lon="-2.32769">
        <ele>58</ele>
        <time>2020-12-13T08:54:09.000Z</time>
      </trkpt>
      <trkpt lat="47.27583" lon="-2.32766">
        <ele>57.400001525879</ele>
        <time>2020-12-13T08:54:10.000Z</time>
      </trkpt>
      <trkpt lat="47.27585" lon="-2.32763">
        <ele>57</ele>
        <time>2020-12-13T08:54:11.000Z</time>
      </trkpt>
      <trkpt lat="47.27585" lon="-2.32759">
        <ele>57</ele>
        <time>2020-12-13T08:54:12.000Z</time>
      </trkpt>
      <trkpt lat="47.27585" lon="-2.32754">
        <ele>57</ele>
        <time>2020-12-13T08:54:13.000Z</time>
      </trkpt>
      <trkpt lat="47.27586" lon="-2.32733">
        <ele>56.599998474121</ele>
        <time>2020-12-13T08:54:17.000Z</time>
      </trkpt>
      <trkpt lat="47.27587" lon="-2.32727">
        <ele>55.400001525879</ele>
        <time>2020-12-13T08:54:18.000Z</time>
      </trkpt>
      <trkpt lat="47.2759" lon="-2.32721">
        <ele>55</ele>
        <time>2020-12-13T08:54:19.000Z</time>
      </trkpt>
      <trkpt lat="47.27592" lon="-2.32713">
        <ele>54.400001525879</ele>
        <time>2020-12-13T08:54:20.000Z</time>
      </trkpt>
      <trkpt lat="47.27595" lon="-2.32705">
        <ele>54</ele>
        <time>2020-12-13T08:54:21.000Z</time>
      </trkpt>
      <trkpt lat="47.27598" lon="-2.32699">
        <ele>53.400001525879</ele>
        <time>2020-12-13T08:54:22.000Z</time>
      </trkpt>
      <trkpt lat="47.27601" lon="-2.32693">
        <ele>53</ele>
        <time>2020-12-13T08:54:23.000Z</time>
      </trkpt>
      <trkpt lat="47.27603" lon="-2.3269">
        <ele>52.400001525879</ele>
        <time>2020-12-13T08:54:24.000Z</time>
      </trkpt>
      <trkpt lat="47.27606" lon="-2.32689">
        <ele>52</ele>
        <time>2020-12-13T08:54:25.000Z</time>
      </trkpt>
      <trkpt lat="47.2761" lon="-2.3269">
        <ele>52</ele>
        <time>2020-12-13T08:54:26.000Z</time>
      </trkpt>
      <trkpt lat="47.27618" lon="-2.32695">
        <ele>52</ele>
        <time>2020-12-13T08:54:29.000Z</time>
      </trkpt>
      <trkpt lat="47.27623" lon="-2.32699">
        <ele>52</ele>
        <time>2020-12-13T08:54:31.000Z</time>
      </trkpt>
      <trkpt lat="47.27645" lon="-2.32709">
        <ele>52</ele>
        <time>2020-12-13T08:54:37.000Z</time>
      </trkpt>
      <trkpt lat="47.27668" lon="-2.32724">
        <ele>52</ele>
        <time>2020-12-13T08:54:43.000Z</time>
      </trkpt>
      <trkpt lat="47.27682" lon="-2.32723">
        <ele>52</ele>
        <time>2020-12-13T08:54:47.000Z</time>
      </trkpt>
      <trkpt lat="47.27694" lon="-2.32719">
        <ele>52</ele>
        <time>2020-12-13T08:54:52.000Z</time>
      </trkpt>
      <trkpt lat="47.27701" lon="-2.32712">
        <ele>52</ele>
        <time>2020-12-13T08:54:56.000Z</time>
      </trkpt>
      <trkpt lat="47.277" lon="-2.32709">
        <ele>52</ele>
        <time>2020-12-13T08:54:57.000Z</time>
      </trkpt>
      <trkpt lat="47.27693" lon="-2.32696">
        <ele>52</ele>
        <time>2020-12-13T08:55:01.000Z</time>
      </trkpt>
      <trkpt lat="47.27689" lon="-2.3269">
        <ele>52</ele>
        <time>2020-12-13T08:55:02.000Z</time>
      </trkpt>
      <trkpt lat="47.27673" lon="-2.32658">
        <ele>53</ele>
        <time>2020-12-13T08:55:07.000Z</time>
      </trkpt>
      <trkpt lat="47.2767" lon="-2.32652">
        <ele>53.400001525879</ele>
        <time>2020-12-13T08:55:08.000Z</time>
      </trkpt>
      <trkpt lat="47.27668" lon="-2.32645">
        <ele>53.799999237061</ele>
        <time>2020-12-13T08:55:09.000Z</time>
      </trkpt>
      <trkpt lat="47.27665" lon="-2.32639">
        <ele>54.200000762939</ele>
        <time>2020-12-13T08:55:10.000Z</time>
      </trkpt>
      <trkpt lat="47.27652" lon="-2.32606">
        <ele>54.599998474121</ele>
        <time>2020-12-13T08:55:16.000Z</time>
      </trkpt>
      <trkpt lat="47.2765" lon="-2.32601">
        <ele>55</ele>
        <time>2020-12-13T08:55:17.000Z</time>
      </trkpt>
      <trkpt lat="47.27648" lon="-2.32595">
        <ele>55.400001525879</ele>
        <time>2020-12-13T08:55:18.000Z</time>
      </trkpt>
      <trkpt lat="47.27646" lon="-2.3259">
        <ele>56</ele>
        <time>2020-12-13T08:55:19.000Z</time>
      </trkpt>
      <trkpt lat="47.27645" lon="-2.32585">
        <ele>56.400001525879</ele>
        <time>2020-12-13T08:55:20.000Z</time>
      </trkpt>
      <trkpt lat="47.27639" lon="-2.32565">
        <ele>56.799999237061</ele>
        <time>2020-12-13T08:55:24.000Z</time>
      </trkpt>
      <trkpt lat="47.27638" lon="-2.3256">
        <ele>57.200000762939</ele>
        <time>2020-12-13T08:55:25.000Z</time>
      </trkpt>
      <trkpt lat="47.27637" lon="-2.32556">
        <ele>57.599998474121</ele>
        <time>2020-12-13T08:55:26.000Z</time>
      </trkpt>
      <trkpt lat="47.27636" lon="-2.3255">
        <ele>58</ele>
        <time>2020-12-13T08:55:27.000Z</time>
      </trkpt>
      <trkpt lat="47.27635" lon="-2.32545">
        <ele>58.400001525879</ele>
        <time>2020-12-13T08:55:28.000Z</time>
      </trkpt>
      <trkpt lat="47.27633" lon="-2.32533">
        <ele>58.400001525879</ele>
        <time>2020-12-13T08:55:30.000Z</time>
      </trkpt>
      <trkpt lat="47.2763" lon="-2.32522">
        <ele>59.200000762939</ele>
        <time>2020-12-13T08:55:32.000Z</time>
      </trkpt>
      <trkpt lat="47.27629" lon="-2.32516">
        <ele>59.599998474121</ele>
        <time>2020-12-13T08:55:33.000Z</time>
      </trkpt>
      <trkpt lat="47.27627" lon="-2.3251">
        <ele>60</ele>
        <time>2020-12-13T08:55:34.000Z</time>
      </trkpt>
      <trkpt lat="47.27626" lon="-2.32504">
        <ele>60.400001525879</ele>
        <time>2020-12-13T08:55:35.000Z</time>
      </trkpt>
      <trkpt lat="47.27624" lon="-2.32498">
        <ele>60.400001525879</ele>
        <time>2020-12-13T08:55:36.000Z</time>
      </trkpt>
      <trkpt lat="47.27611" lon="-2.32458">
        <ele>60.799999237061</ele>
        <time>2020-12-13T08:55:43.000Z</time>
      </trkpt>
      <trkpt lat="47.27608" lon="-2.32453">
        <ele>61.200000762939</ele>
        <time>2020-12-13T08:55:44.000Z</time>
      </trkpt>
      <trkpt lat="47.27604" lon="-2.32449">
        <ele>61.599998474121</ele>
        <time>2020-12-13T08:55:45.000Z</time>
      </trkpt>
      <trkpt lat="47.27601" lon="-2.32444">
        <ele>62.200000762939</ele>
        <time>2020-12-13T08:55:46.000Z</time>
      </trkpt>
      <trkpt lat="47.27598" lon="-2.32439">
        <ele>62.599998474121</ele>
        <time>2020-12-13T08:55:47.000Z</time>
      </trkpt>
      <trkpt lat="47.27584" lon="-2.32423">
        <ele>62.599998474121</ele>
        <time>2020-12-13T08:55:51.000Z</time>
      </trkpt>
      <trkpt lat="47.27574" lon="-2.32417">
        <ele>62.599998474121</ele>
        <time>2020-12-13T08:55:55.000Z</time>
      </trkpt>
      <trkpt lat="47.27572" lon="-2.32417">
        <ele>62.599998474121</ele>
        <time>2020-12-13T08:55:56.000Z</time>
      </trkpt>
      <trkpt lat="47.27569" lon="-2.32425">
        <ele>62.599998474121</ele>
        <time>2020-12-13T08:56:00.000Z</time>
      </trkpt>
      <trkpt lat="47.27563" lon="-2.32444">
        <ele>62.599998474121</ele>
        <time>2020-12-13T08:56:06.000Z</time>
      </trkpt>
      <trkpt lat="47.2756" lon="-2.32468">
        <ele>62.599998474121</ele>
        <time>2020-12-13T08:56:11.000Z</time>
      </trkpt>
      <trkpt lat="47.27559" lon="-2.32473">
        <ele>62.200000762939</ele>
        <time>2020-12-13T08:56:12.000Z</time>
      </trkpt>
      <trkpt lat="47.27557" lon="-2.32479">
        <ele>61.799999237061</ele>
        <time>2020-12-13T08:56:13.000Z</time>
      </trkpt>
      <trkpt lat="47.27556" lon="-2.32484">
        <ele>61.200000762939</ele>
        <time>2020-12-13T08:56:14.000Z</time>
      </trkpt>
      <trkpt lat="47.27554" lon="-2.32491">
        <ele>60.799999237061</ele>
        <time>2020-12-13T08:56:15.000Z</time>
      </trkpt>
      <trkpt lat="47.27551" lon="-2.32498">
        <ele>60.400001525879</ele>
        <time>2020-12-13T08:56:16.000Z</time>
      </trkpt>
      <trkpt lat="47.27548" lon="-2.32506">
        <ele>60.400001525879</ele>
        <time>2020-12-13T08:56:17.000Z</time>
      </trkpt>
      <trkpt lat="47.27545" lon="-2.32512">
        <ele>60</ele>
        <time>2020-12-13T08:56:18.000Z</time>
      </trkpt>
      <trkpt lat="47.27543" lon="-2.32518">
        <ele>59.400001525879</ele>
        <time>2020-12-13T08:56:19.000Z</time>
      </trkpt>
      <trkpt lat="47.27541" lon="-2.32524">
        <ele>59</ele>
        <time>2020-12-13T08:56:20.000Z</time>
      </trkpt>
      <trkpt lat="47.2754" lon="-2.3253">
        <ele>58</ele>
        <time>2020-12-13T08:56:21.000Z</time>
      </trkpt>
      <trkpt lat="47.27539" lon="-2.32536">
        <ele>57.400001525879</ele>
        <time>2020-12-13T08:56:22.000Z</time>
      </trkpt>
      <trkpt lat="47.27539" lon="-2.32542">
        <ele>56.599998474121</ele>
        <time>2020-12-13T08:56:23.000Z</time>
      </trkpt>
      <trkpt lat="47.27539" lon="-2.32549">
        <ele>56</ele>
        <time>2020-12-13T08:56:24.000Z</time>
      </trkpt>
      <trkpt lat="47.2754" lon="-2.32556">
        <ele>55.400001525879</ele>
        <time>2020-12-13T08:56:25.000Z</time>
      </trkpt>
      <trkpt lat="47.27542" lon="-2.32562">
        <ele>54.799999237061</ele>
        <time>2020-12-13T08:56:26.000Z</time>
      </trkpt>
      <trkpt lat="47.27545" lon="-2.32569">
        <ele>54.200000762939</ele>
        <time>2020-12-13T08:56:27.000Z</time>
      </trkpt>
      <trkpt lat="47.27547" lon="-2.32575">
        <ele>53.599998474121</ele>
        <time>2020-12-13T08:56:28.000Z</time>
      </trkpt>
      <trkpt lat="47.2755" lon="-2.32582">
        <ele>53</ele>
        <time>2020-12-13T08:56:29.000Z</time>
      </trkpt>
      <trkpt lat="47.27554" lon="-2.32599">
        <ele>53</ele>
        <time>2020-12-13T08:56:31.000Z</time>
      </trkpt>
      <trkpt lat="47.27553" lon="-2.32607">
        <ele>53</ele>
        <time>2020-12-13T08:56:32.000Z</time>
      </trkpt>
      <trkpt lat="47.27545" lon="-2.32633">
        <ele>53</ele>
        <time>2020-12-13T08:56:36.000Z</time>
      </trkpt>
      <trkpt lat="47.27525" lon="-2.32653">
        <ele>53</ele>
        <time>2020-12-13T08:56:40.000Z</time>
      </trkpt>
      <trkpt lat="47.27518" lon="-2.32665">
        <ele>53</ele>
        <time>2020-12-13T08:56:42.000Z</time>
      </trkpt>
      <trkpt lat="47.27507" lon="-2.32681">
        <ele>53</ele>
        <time>2020-12-13T08:56:45.000Z</time>
      </trkpt>
      <trkpt lat="47.27487" lon="-2.32691">
        <ele>53</ele>
        <time>2020-12-13T08:56:49.000Z</time>
      </trkpt>
      <trkpt lat="47.27482" lon="-2.32693">
        <ele>53</ele>
        <time>2020-12-13T08:56:50.000Z</time>
      </trkpt>
      <trkpt lat="47.27473" lon="-2.327">
        <ele>53</ele>
        <time>2020-12-13T08:56:52.000Z</time>
      </trkpt>
      <trkpt lat="47.27466" lon="-2.32711">
        <ele>53</ele>
        <time>2020-12-13T08:56:54.000Z</time>
      </trkpt>
      <trkpt lat="47.27456" lon="-2.32733">
        <ele>53.400001525879</ele>
        <time>2020-12-13T08:56:58.000Z</time>
      </trkpt>
      <trkpt lat="47.27454" lon="-2.32737">
        <ele>53.799999237061</ele>
        <time>2020-12-13T08:56:59.000Z</time>
      </trkpt>
      <trkpt lat="47.27452" lon="-2.32741">
        <ele>54.200000762939</ele>
        <time>2020-12-13T08:57:00.000Z</time>
      </trkpt>
      <trkpt lat="47.2745" lon="-2.32746">
        <ele>54.599998474121</ele>
        <time>2020-12-13T08:57:01.000Z</time>
      </trkpt>
      <trkpt lat="47.27448" lon="-2.3275">
        <ele>55</ele>
        <time>2020-12-13T08:57:02.000Z</time>
      </trkpt>
      <trkpt lat="47.27443" lon="-2.32759">
        <ele>55.599998474121</ele>
        <time>2020-12-13T08:57:04.000Z</time>
      </trkpt>
      <trkpt lat="47.27442" lon="-2.32763">
        <ele>56</ele>
        <time>2020-12-13T08:57:05.000Z</time>
      </trkpt>
      <trkpt lat="47.2744" lon="-2.32768">
        <ele>56.400001525879</ele>
        <time>2020-12-13T08:57:06.000Z</time>
      </trkpt>
      <trkpt lat="47.27439" lon="-2.32774">
        <ele>56.799999237061</ele>
        <time>2020-12-13T08:57:07.000Z</time>
      </trkpt>
      <trkpt lat="47.27437" lon="-2.32779">
        <ele>57.400001525879</ele>
        <time>2020-12-13T08:57:08.000Z</time>
      </trkpt>
      <trkpt lat="47.27435" lon="-2.32792">
        <ele>57.400001525879</ele>
        <time>2020-12-13T08:57:10.000Z</time>
      </trkpt>
      <trkpt lat="47.27433" lon="-2.32799">
        <ele>57.799999237061</ele>
        <time>2020-12-13T08:57:11.000Z</time>
      </trkpt>
      <trkpt lat="47.27432" lon="-2.32806">
        <ele>58.200000762939</ele>
        <time>2020-12-13T08:57:12.000Z</time>
      </trkpt>
      <trkpt lat="47.27431" lon="-2.32814">
        <ele>58.599998474121</ele>
        <time>2020-12-13T08:57:13.000Z</time>
      </trkpt>
      <trkpt lat="47.2743" lon="-2.32821">
        <ele>59</ele>
        <time>2020-12-13T08:57:14.000Z</time>
      </trkpt>
      <trkpt lat="47.27429" lon="-2.32829">
        <ele>59.400001525879</ele>
        <time>2020-12-13T08:57:15.000Z</time>
      </trkpt>
      <trkpt lat="47.27425" lon="-2.32847">
        <ele>59.400001525879</ele>
        <time>2020-12-13T08:57:18.000Z</time>
      </trkpt>
      <trkpt lat="47.27422" lon="-2.32854">
        <ele>59.400001525879</ele>
        <time>2020-12-13T08:57:19.000Z</time>
      </trkpt>
      <trkpt lat="47.27418" lon="-2.32865">
        <ele>59.799999237061</ele>
        <time>2020-12-13T08:57:21.000Z</time>
      </trkpt>
      <trkpt lat="47.27415" lon="-2.32869">
        <ele>60.200000762939</ele>
        <time>2020-12-13T08:57:22.000Z</time>
      </trkpt>
      <trkpt lat="47.27413" lon="-2.32874">
        <ele>60.799999237061</ele>
        <time>2020-12-13T08:57:23.000Z</time>
      </trkpt>
      <trkpt lat="47.27411" lon="-2.3288">
        <ele>61.200000762939</ele>
        <time>2020-12-13T08:57:24.000Z</time>
      </trkpt>
      <trkpt lat="47.27409" lon="-2.32885">
        <ele>61.599998474121</ele>
        <time>2020-12-13T08:57:25.000Z</time>
      </trkpt>
      <trkpt lat="47.27398" lon="-2.32907">
        <ele>61.599998474121</ele>
        <time>2020-12-13T08:57:30.000Z</time>
      </trkpt>
      <trkpt lat="47.27384" lon="-2.32934">
        <ele>61.599998474121</ele>
        <time>2020-12-13T08:57:36.000Z</time>
      </trkpt>
      <trkpt lat="47.27374" lon="-2.32957">
        <ele>61.599998474121</ele>
        <time>2020-12-13T08:57:41.000Z</time>
      </trkpt>
      <trkpt lat="47.27366" lon="-2.32971">
        <ele>62</ele>
        <time>2020-12-13T08:57:44.000Z</time>
      </trkpt>
      <trkpt lat="47.27363" lon="-2.32977">
        <ele>62.400001525879</ele>
        <time>2020-12-13T08:57:45.000Z</time>
      </trkpt>
      <trkpt lat="47.27361" lon="-2.32981">
        <ele>62.799999237061</ele>
        <time>2020-12-13T08:57:46.000Z</time>
      </trkpt>
      <trkpt lat="47.27358" lon="-2.32987">
        <ele>63.200000762939</ele>
        <time>2020-12-13T08:57:47.000Z</time>
      </trkpt>
      <trkpt lat="47.27355" lon="-2.32992">
        <ele>63.599998474121</ele>
        <time>2020-12-13T08:57:48.000Z</time>
      </trkpt>
      <trkpt lat="47.27348" lon="-2.33016">
        <ele>63.599998474121</ele>
        <time>2020-12-13T08:57:52.000Z</time>
      </trkpt>
      <trkpt lat="47.2734" lon="-2.33041">
        <ele>63.599998474121</ele>
        <time>2020-12-13T08:57:56.000Z</time>
      </trkpt>
      <trkpt lat="47.27335" lon="-2.33054">
        <ele>64</ele>
        <time>2020-12-13T08:57:58.000Z</time>
      </trkpt>
      <trkpt lat="47.27333" lon="-2.3306">
        <ele>64.599998474121</ele>
        <time>2020-12-13T08:57:59.000Z</time>
      </trkpt>
      <trkpt lat="47.27331" lon="-2.33066">
        <ele>65.400001525879</ele>
        <time>2020-12-13T08:58:00.000Z</time>
      </trkpt>
      <trkpt lat="47.27329" lon="-2.33072">
        <ele>65.800003051758</ele>
        <time>2020-12-13T08:58:01.000Z</time>
      </trkpt>
      <trkpt lat="47.27319" lon="-2.33098">
        <ele>65.800003051758</ele>
        <time>2020-12-13T08:58:06.000Z</time>
      </trkpt>
      <trkpt lat="47.27308" lon="-2.33111">
        <ele>65.800003051758</ele>
        <time>2020-12-13T08:58:10.000Z</time>
      </trkpt>
      <trkpt lat="47.27304" lon="-2.3311">
        <ele>65.800003051758</ele>
        <time>2020-12-13T08:58:11.000Z</time>
      </trkpt>
      <trkpt lat="47.27295" lon="-2.33098">
        <ele>65.800003051758</ele>
        <time>2020-12-13T08:58:14.000Z</time>
      </trkpt>
      <trkpt lat="47.27269" lon="-2.33062">
        <ele>65.800003051758</ele>
        <time>2020-12-13T08:58:22.000Z</time>
      </trkpt>
      <trkpt lat="47.27262" lon="-2.33052">
        <ele>65.800003051758</ele>
        <time>2020-12-13T08:58:24.000Z</time>
      </trkpt>
      <trkpt lat="47.27247" lon="-2.33029">
        <ele>65.800003051758</ele>
        <time>2020-12-13T08:58:28.000Z</time>
      </trkpt>
      <trkpt lat="47.27224" lon="-2.32989">
        <ele>65.800003051758</ele>
        <time>2020-12-13T08:58:34.000Z</time>
      </trkpt>
      <trkpt lat="47.27213" lon="-2.32977">
        <ele>65.400001525879</ele>
        <time>2020-12-13T08:58:37.000Z</time>
      </trkpt>
      <trkpt lat="47.27208" lon="-2.32976">
        <ele>65</ele>
        <time>2020-12-13T08:58:38.000Z</time>
      </trkpt>
      <trkpt lat="47.27204" lon="-2.32978">
        <ele>64.599998474121</ele>
        <time>2020-12-13T08:58:39.000Z</time>
      </trkpt>
      <trkpt lat="47.27199" lon="-2.32981">
        <ele>64.199996948242</ele>
        <time>2020-12-13T08:58:40.000Z</time>
      </trkpt>
      <trkpt lat="47.27194" lon="-2.32985">
        <ele>63.799999237061</ele>
        <time>2020-12-13T08:58:41.000Z</time>
      </trkpt>
      <trkpt lat="47.2719" lon="-2.32988">
        <ele>63.799999237061</ele>
        <time>2020-12-13T08:58:42.000Z</time>
      </trkpt>
      <trkpt lat="47.27164" lon="-2.33008">
        <ele>63.799999237061</ele>
        <time>2020-12-13T08:58:48.000Z</time>
      </trkpt>
      <trkpt lat="47.27139" lon="-2.33027">
        <ele>63.799999237061</ele>
        <time>2020-12-13T08:58:54.000Z</time>
      </trkpt>
      <trkpt lat="47.27104" lon="-2.33057">
        <ele>63.799999237061</ele>
        <time>2020-12-13T08:59:02.000Z</time>
      </trkpt>
      <trkpt lat="47.2709" lon="-2.3307">
        <ele>63.799999237061</ele>
        <time>2020-12-13T08:59:05.000Z</time>
      </trkpt>
      <trkpt lat="47.27077" lon="-2.33085">
        <ele>63.799999237061</ele>
        <time>2020-12-13T08:59:08.000Z</time>
      </trkpt>
      <trkpt lat="47.27045" lon="-2.33121">
        <ele>63.799999237061</ele>
        <time>2020-12-13T08:59:15.000Z</time>
      </trkpt>
      <trkpt lat="47.27022" lon="-2.33145">
        <ele>64.199996948242</ele>
        <time>2020-12-13T08:59:20.000Z</time>
      </trkpt>
      <trkpt lat="47.27017" lon="-2.33149">
        <ele>64.599998474121</ele>
        <time>2020-12-13T08:59:21.000Z</time>
      </trkpt>
      <trkpt lat="47.27013" lon="-2.33153">
        <ele>65</ele>
        <time>2020-12-13T08:59:22.000Z</time>
      </trkpt>
      <trkpt lat="47.27008" lon="-2.33157">
        <ele>65.599998474121</ele>
        <time>2020-12-13T08:59:23.000Z</time>
      </trkpt>
      <trkpt lat="47.27004" lon="-2.33161">
        <ele>66</ele>
        <time>2020-12-13T08:59:24.000Z</time>
      </trkpt>
      <trkpt lat="47.26996" lon="-2.3317">
        <ele>66</ele>
        <time>2020-12-13T08:59:26.000Z</time>
      </trkpt>
      <trkpt lat="47.26983" lon="-2.3318">
        <ele>66</ele>
        <time>2020-12-13T08:59:29.000Z</time>
      </trkpt>
      <trkpt lat="47.26968" lon="-2.33198">
        <ele>66</ele>
        <time>2020-12-13T08:59:33.000Z</time>
      </trkpt>
      <trkpt lat="47.26963" lon="-2.33201">
        <ele>66</ele>
        <time>2020-12-13T08:59:34.000Z</time>
      </trkpt>
      <trkpt lat="47.26936" lon="-2.33219">
        <ele>66</ele>
        <time>2020-12-13T08:59:40.000Z</time>
      </trkpt>
      <trkpt lat="47.26929" lon="-2.33228">
        <ele>66</ele>
        <time>2020-12-13T08:59:42.000Z</time>
      </trkpt>
      <trkpt lat="47.26927" lon="-2.33241">
        <ele>66</ele>
        <time>2020-12-13T08:59:44.000Z</time>
      </trkpt>
      <trkpt lat="47.26933" lon="-2.33262">
        <ele>66</ele>
        <time>2020-12-13T08:59:47.000Z</time>
      </trkpt>
      <trkpt lat="47.26935" lon="-2.33269">
        <ele>66</ele>
        <time>2020-12-13T08:59:48.000Z</time>
      </trkpt>
      <trkpt lat="47.26945" lon="-2.333">
        <ele>66</ele>
        <time>2020-12-13T08:59:53.000Z</time>
      </trkpt>
      <trkpt lat="47.2696" lon="-2.33342">
        <ele>66</ele>
        <time>2020-12-13T09:00:00.000Z</time>
      </trkpt>
      <trkpt lat="47.26971" lon="-2.33373">
        <ele>66</ele>
        <time>2020-12-13T09:00:07.000Z</time>
      </trkpt>
      <trkpt lat="47.26966" lon="-2.33379">
        <ele>66</ele>
        <time>2020-12-13T09:00:11.000Z</time>
      </trkpt>
      <trkpt lat="47.26963" lon="-2.3338">
        <ele>65.599998474121</ele>
        <time>2020-12-13T09:00:13.000Z</time>
      </trkpt>
      <trkpt lat="47.26961" lon="-2.33381">
        <ele>65.199996948242</ele>
        <time>2020-12-13T09:00:14.000Z</time>
      </trkpt>
      <trkpt lat="47.26959" lon="-2.33382">
        <ele>64.800003051758</ele>
        <time>2020-12-13T09:00:15.000Z</time>
      </trkpt>
      <trkpt lat="47.26956" lon="-2.33384">
        <ele>64.199996948242</ele>
        <time>2020-12-13T09:00:16.000Z</time>
      </trkpt>
      <trkpt lat="47.26953" lon="-2.33385">
        <ele>63.799999237061</ele>
        <time>2020-12-13T09:00:17.000Z</time>
      </trkpt>
      <trkpt lat="47.26935" lon="-2.33393">
        <ele>63.799999237061</ele>
        <time>2020-12-13T09:00:22.000Z</time>
      </trkpt>
      <trkpt lat="47.26906" lon="-2.33408">
        <ele>63.799999237061</ele>
        <time>2020-12-13T09:00:28.000Z</time>
      </trkpt>
      <trkpt lat="47.26895" lon="-2.33412">
        <ele>63.400001525879</ele>
        <time>2020-12-13T09:00:30.000Z</time>
      </trkpt>
      <trkpt lat="47.26891" lon="-2.33414">
        <ele>63</ele>
        <time>2020-12-13T09:00:31.000Z</time>
      </trkpt>
      <trkpt lat="47.26888" lon="-2.33416">
        <ele>62.599998474121</ele>
        <time>2020-12-13T09:00:32.000Z</time>
      </trkpt>
      <trkpt lat="47.26885" lon="-2.33418">
        <ele>62</ele>
        <time>2020-12-13T09:00:33.000Z</time>
      </trkpt>
      <trkpt lat="47.26883" lon="-2.33419">
        <ele>61.599998474121</ele>
        <time>2020-12-13T09:00:34.000Z</time>
      </trkpt>
      <trkpt lat="47.2688" lon="-2.33426">
        <ele>61.200000762939</ele>
        <time>2020-12-13T09:00:36.000Z</time>
      </trkpt>
      <trkpt lat="47.26879" lon="-2.33431">
        <ele>60.799999237061</ele>
        <time>2020-12-13T09:00:37.000Z</time>
      </trkpt>
      <trkpt lat="47.26877" lon="-2.33437">
        <ele>60.400001525879</ele>
        <time>2020-12-13T09:00:38.000Z</time>
      </trkpt>
      <trkpt lat="47.26877" lon="-2.33445">
        <ele>60</ele>
        <time>2020-12-13T09:00:39.000Z</time>
      </trkpt>
      <trkpt lat="47.26877" lon="-2.33454">
        <ele>59.599998474121</ele>
        <time>2020-12-13T09:00:40.000Z</time>
      </trkpt>
      <trkpt lat="47.26881" lon="-2.33476">
        <ele>59</ele>
        <time>2020-12-13T09:00:42.000Z</time>
      </trkpt>
      <trkpt lat="47.26883" lon="-2.33486">
        <ele>58.599998474121</ele>
        <time>2020-12-13T09:00:43.000Z</time>
      </trkpt>
      <trkpt lat="47.26885" lon="-2.33496">
        <ele>58.200000762939</ele>
        <time>2020-12-13T09:00:44.000Z</time>
      </trkpt>
      <trkpt lat="47.26887" lon="-2.33505">
        <ele>57.799999237061</ele>
        <time>2020-12-13T09:00:45.000Z</time>
      </trkpt>
      <trkpt lat="47.26888" lon="-2.33513">
        <ele>57.200000762939</ele>
        <time>2020-12-13T09:00:46.000Z</time>
      </trkpt>
      <trkpt lat="47.2689" lon="-2.33521">
        <ele>56.400001525879</ele>
        <time>2020-12-13T09:00:47.000Z</time>
      </trkpt>
      <trkpt lat="47.26889" lon="-2.33528">
        <ele>55.799999237061</ele>
        <time>2020-12-13T09:00:48.000Z</time>
      </trkpt>
      <trkpt lat="47.26887" lon="-2.33534">
        <ele>55</ele>
        <time>2020-12-13T09:00:49.000Z</time>
      </trkpt>
      <trkpt lat="47.26883" lon="-2.33538">
        <ele>54.200000762939</ele>
        <time>2020-12-13T09:00:50.000Z</time>
      </trkpt>
      <trkpt lat="47.26878" lon="-2.3354">
        <ele>53.400001525879</ele>
        <time>2020-12-13T09:00:51.000Z</time>
      </trkpt>
      <trkpt lat="47.26873" lon="-2.33541">
        <ele>52.599998474121</ele>
        <time>2020-12-13T09:00:52.000Z</time>
      </trkpt>
      <trkpt lat="47.26866" lon="-2.33542">
        <ele>51.799999237061</ele>
        <time>2020-12-13T09:00:53.000Z</time>
      </trkpt>
      <trkpt lat="47.26853" lon="-2.33545">
        <ele>51.799999237061</ele>
        <time>2020-12-13T09:00:55.000Z</time>
      </trkpt>
      <trkpt lat="47.26841" lon="-2.33549">
        <ele>51.400001525879</ele>
        <time>2020-12-13T09:00:57.000Z</time>
      </trkpt>
      <trkpt lat="47.26835" lon="-2.33551">
        <ele>51</ele>
        <time>2020-12-13T09:00:58.000Z</time>
      </trkpt>
      <trkpt lat="47.26829" lon="-2.33553">
        <ele>50.599998474121</ele>
        <time>2020-12-13T09:00:59.000Z</time>
      </trkpt>
      <trkpt lat="47.26823" lon="-2.33555">
        <ele>50.200000762939</ele>
        <time>2020-12-13T09:01:00.000Z</time>
      </trkpt>
      <trkpt lat="47.26818" lon="-2.33556">
        <ele>49.599998474121</ele>
        <time>2020-12-13T09:01:01.000Z</time>
      </trkpt>
      <trkpt lat="47.26788" lon="-2.33567">
        <ele>49.599998474121</ele>
        <time>2020-12-13T09:01:07.000Z</time>
      </trkpt>
      <trkpt lat="47.2678" lon="-2.33564">
        <ele>49.599998474121</ele>
        <time>2020-12-13T09:01:09.000Z</time>
      </trkpt>
      <trkpt lat="47.26778" lon="-2.33559">
        <ele>49.599998474121</ele>
        <time>2020-12-13T09:01:10.000Z</time>
      </trkpt>
      <trkpt lat="47.26774" lon="-2.33541">
        <ele>49.599998474121</ele>
        <time>2020-12-13T09:01:13.000Z</time>
      </trkpt>
      <trkpt lat="47.26772" lon="-2.33534">
        <ele>49.599998474121</ele>
        <time>2020-12-13T09:01:14.000Z</time>
      </trkpt>
      <trkpt lat="47.26766" lon="-2.33495">
        <ele>49.599998474121</ele>
        <time>2020-12-13T09:01:19.000Z</time>
      </trkpt>
      <trkpt lat="47.26757" lon="-2.33434">
        <ele>49.599998474121</ele>
        <time>2020-12-13T09:01:26.000Z</time>
      </trkpt>
      <trkpt lat="47.26755" lon="-2.33418">
        <ele>49.200000762939</ele>
        <time>2020-12-13T09:01:28.000Z</time>
      </trkpt>
      <trkpt lat="47.26754" lon="-2.3341">
        <ele>48.799999237061</ele>
        <time>2020-12-13T09:01:29.000Z</time>
      </trkpt>
      <trkpt lat="47.26753" lon="-2.33402">
        <ele>48.400001525879</ele>
        <time>2020-12-13T09:01:30.000Z</time>
      </trkpt>
      <trkpt lat="47.26752" lon="-2.33394">
        <ele>47.799999237061</ele>
        <time>2020-12-13T09:01:31.000Z</time>
      </trkpt>
      <trkpt lat="47.26752" lon="-2.33385">
        <ele>47.400001525879</ele>
        <time>2020-12-13T09:01:32.000Z</time>
      </trkpt>
      <trkpt lat="47.26748" lon="-2.33349">
        <ele>47.400001525879</ele>
        <time>2020-12-13T09:01:37.000Z</time>
      </trkpt>
      <trkpt lat="47.26743" lon="-2.33323">
        <ele>47.400001525879</ele>
        <time>2020-12-13T09:01:42.000Z</time>
      </trkpt>
      <trkpt lat="47.26741" lon="-2.33317">
        <ele>47.400001525879</ele>
        <time>2020-12-13T09:01:43.000Z</time>
      </trkpt>
      <trkpt lat="47.26735" lon="-2.33299">
        <ele>47.400001525879</ele>
        <time>2020-12-13T09:01:46.000Z</time>
      </trkpt>
      <trkpt lat="47.26733" lon="-2.33294">
        <ele>47.400001525879</ele>
        <time>2020-12-13T09:01:47.000Z</time>
      </trkpt>
      <trkpt lat="47.26728" lon="-2.33266">
        <ele>47.400001525879</ele>
        <time>2020-12-13T09:01:51.000Z</time>
      </trkpt>
      <trkpt lat="47.26728" lon="-2.33258">
        <ele>47.400001525879</ele>
        <time>2020-12-13T09:01:52.000Z</time>
      </trkpt>
      <trkpt lat="47.26733" lon="-2.33233">
        <ele>47.400001525879</ele>
        <time>2020-12-13T09:01:55.000Z</time>
      </trkpt>
      <trkpt lat="47.26735" lon="-2.33225">
        <ele>47.400001525879</ele>
        <time>2020-12-13T09:01:56.000Z</time>
      </trkpt>
      <trkpt lat="47.26747" lon="-2.3318">
        <ele>47.400001525879</ele>
        <time>2020-12-13T09:02:02.000Z</time>
      </trkpt>
      <trkpt lat="47.2676" lon="-2.33131">
        <ele>47.400001525879</ele>
        <time>2020-12-13T09:02:09.000Z</time>
      </trkpt>
      <trkpt lat="47.26763" lon="-2.33116">
        <ele>47.400001525879</ele>
        <time>2020-12-13T09:02:11.000Z</time>
      </trkpt>
      <trkpt lat="47.26762" lon="-2.33102">
        <ele>47.400001525879</ele>
        <time>2020-12-13T09:02:13.000Z</time>
      </trkpt>
      <trkpt lat="47.26751" lon="-2.33082">
        <ele>47.400001525879</ele>
        <time>2020-12-13T09:02:17.000Z</time>
      </trkpt>
      <trkpt lat="47.26741" lon="-2.33089">
        <ele>47.799999237061</ele>
        <time>2020-12-13T09:02:20.000Z</time>
      </trkpt>
      <trkpt lat="47.26738" lon="-2.33093">
        <ele>48.400001525879</ele>
        <time>2020-12-13T09:02:21.000Z</time>
      </trkpt>
      <trkpt lat="47.26735" lon="-2.33096">
        <ele>48.799999237061</ele>
        <time>2020-12-13T09:02:22.000Z</time>
      </trkpt>
      <trkpt lat="47.26731" lon="-2.331">
        <ele>49.200000762939</ele>
        <time>2020-12-13T09:02:23.000Z</time>
      </trkpt>
      <trkpt lat="47.26727" lon="-2.33104">
        <ele>49.599998474121</ele>
        <time>2020-12-13T09:02:24.000Z</time>
      </trkpt>
      <trkpt lat="47.26723" lon="-2.33108">
        <ele>49.599998474121</ele>
        <time>2020-12-13T09:02:25.000Z</time>
      </trkpt>
      <trkpt lat="47.26699" lon="-2.33132">
        <ele>49.599998474121</ele>
        <time>2020-12-13T09:02:30.000Z</time>
      </trkpt>
      <trkpt lat="47.26664" lon="-2.33169">
        <ele>49.599998474121</ele>
        <time>2020-12-13T09:02:37.000Z</time>
      </trkpt>
      <trkpt lat="47.26631" lon="-2.33202">
        <ele>49.599998474121</ele>
        <time>2020-12-13T09:02:44.000Z</time>
      </trkpt>
      <trkpt lat="47.26605" lon="-2.3323">
        <ele>49.599998474121</ele>
        <time>2020-12-13T09:02:50.000Z</time>
      </trkpt>
      <trkpt lat="47.26601" lon="-2.33233">
        <ele>49.599998474121</ele>
        <time>2020-12-13T09:02:51.000Z</time>
      </trkpt>
      <trkpt lat="47.26582" lon="-2.33252">
        <ele>49.599998474121</ele>
        <time>2020-12-13T09:02:56.000Z</time>
      </trkpt>
      <trkpt lat="47.2656" lon="-2.33274">
        <ele>49.599998474121</ele>
        <time>2020-12-13T09:03:02.000Z</time>
      </trkpt>
      <trkpt lat="47.26546" lon="-2.33288">
        <ele>49.599998474121</ele>
        <time>2020-12-13T09:03:07.000Z</time>
      </trkpt>
      <trkpt lat="47.26536" lon="-2.33296">
        <ele>49.599998474121</ele>
        <time>2020-12-13T09:03:12.000Z</time>
      </trkpt>
      <trkpt lat="47.26529" lon="-2.33282">
        <ele>49.599998474121</ele>
        <time>2020-12-13T09:03:16.000Z</time>
      </trkpt>
      <trkpt lat="47.26522" lon="-2.33278">
        <ele>49.599998474121</ele>
        <time>2020-12-13T09:03:18.000Z</time>
      </trkpt>
      <trkpt lat="47.26519" lon="-2.3328">
        <ele>49.599998474121</ele>
        <time>2020-12-13T09:03:19.000Z</time>
      </trkpt>
      <trkpt lat="47.26504" lon="-2.33279">
        <ele>49.599998474121</ele>
        <time>2020-12-13T09:03:23.000Z</time>
      </trkpt>
      <trkpt lat="47.26501" lon="-2.33275">
        <ele>49.599998474121</ele>
        <time>2020-12-13T09:03:24.000Z</time>
      </trkpt>
      <trkpt lat="47.26499" lon="-2.33263">
        <ele>49.599998474121</ele>
        <time>2020-12-13T09:03:26.000Z</time>
      </trkpt>
      <trkpt lat="47.26499" lon="-2.33258">
        <ele>49.200000762939</ele>
        <time>2020-12-13T09:03:27.000Z</time>
      </trkpt>
      <trkpt lat="47.265" lon="-2.33252">
        <ele>48.799999237061</ele>
        <time>2020-12-13T09:03:28.000Z</time>
      </trkpt>
      <trkpt lat="47.26501" lon="-2.33247">
        <ele>48.400001525879</ele>
        <time>2020-12-13T09:03:29.000Z</time>
      </trkpt>
      <trkpt lat="47.26503" lon="-2.33241">
        <ele>48</ele>
        <time>2020-12-13T09:03:30.000Z</time>
      </trkpt>
      <trkpt lat="47.26507" lon="-2.33237">
        <ele>47.599998474121</ele>
        <time>2020-12-13T09:03:31.000Z</time>
      </trkpt>
      <trkpt lat="47.26515" lon="-2.33229">
        <ele>47.599998474121</ele>
        <time>2020-12-13T09:03:33.000Z</time>
      </trkpt>
      <trkpt lat="47.2652" lon="-2.33226">
        <ele>47.599998474121</ele>
        <time>2020-12-13T09:03:34.000Z</time>
      </trkpt>
      <trkpt lat="47.26546" lon="-2.33211">
        <ele>47.599998474121</ele>
        <time>2020-12-13T09:03:39.000Z</time>
      </trkpt>
      <trkpt lat="47.26581" lon="-2.33183">
        <ele>47.599998474121</ele>
        <time>2020-12-13T09:03:46.000Z</time>
      </trkpt>
      <trkpt lat="47.26591" lon="-2.33156">
        <ele>47.599998474121</ele>
        <time>2020-12-13T09:03:50.000Z</time>
      </trkpt>
      <trkpt lat="47.26602" lon="-2.33145">
        <ele>47.599998474121</ele>
        <time>2020-12-13T09:03:53.000Z</time>
      </trkpt>
      <trkpt lat="47.26612" lon="-2.33146">
        <ele>47.599998474121</ele>
        <time>2020-12-13T09:03:55.000Z</time>
      </trkpt>
      <trkpt lat="47.26622" lon="-2.33149">
        <ele>47.599998474121</ele>
        <time>2020-12-13T09:03:57.000Z</time>
      </trkpt>
      <trkpt lat="47.26627" lon="-2.33149">
        <ele>47.599998474121</ele>
        <time>2020-12-13T09:03:58.000Z</time>
      </trkpt>
      <trkpt lat="47.26643" lon="-2.33143">
        <ele>47.599998474121</ele>
        <time>2020-12-13T09:04:01.000Z</time>
      </trkpt>
      <trkpt lat="47.26656" lon="-2.33133">
        <ele>47.599998474121</ele>
        <time>2020-12-13T09:04:04.000Z</time>
      </trkpt>
      <trkpt lat="47.26665" lon="-2.33126">
        <ele>47.599998474121</ele>
        <time>2020-12-13T09:04:06.000Z</time>
      </trkpt>
      <trkpt lat="47.26692" lon="-2.33102">
        <ele>47.599998474121</ele>
        <time>2020-12-13T09:04:12.000Z</time>
      </trkpt>
      <trkpt lat="47.26696" lon="-2.33098">
        <ele>47.599998474121</ele>
        <time>2020-12-13T09:04:13.000Z</time>
      </trkpt>
      <trkpt lat="47.26723" lon="-2.33069">
        <ele>47.599998474121</ele>
        <time>2020-12-13T09:04:19.000Z</time>
      </trkpt>
      <trkpt lat="47.2673" lon="-2.33057">
        <ele>47.599998474121</ele>
        <time>2020-12-13T09:04:21.000Z</time>
      </trkpt>
      <trkpt lat="47.26735" lon="-2.33035">
        <ele>47.599998474121</ele>
        <time>2020-12-13T09:04:24.000Z</time>
      </trkpt>
      <trkpt lat="47.26735" lon="-2.33028">
        <ele>47.599998474121</ele>
        <time>2020-12-13T09:04:25.000Z</time>
      </trkpt>
      <trkpt lat="47.26736" lon="-2.33014">
        <ele>47.599998474121</ele>
        <time>2020-12-13T09:04:27.000Z</time>
      </trkpt>
      <trkpt lat="47.26735" lon="-2.33">
        <ele>47.599998474121</ele>
        <time>2020-12-13T09:04:29.000Z</time>
      </trkpt>
      <trkpt lat="47.26741" lon="-2.32977">
        <ele>47.599998474121</ele>
        <time>2020-12-13T09:04:32.000Z</time>
      </trkpt>
      <trkpt lat="47.26748" lon="-2.32964">
        <ele>48.400001525879</ele>
        <time>2020-12-13T09:04:34.000Z</time>
      </trkpt>
      <trkpt lat="47.26752" lon="-2.32959">
        <ele>48.799999237061</ele>
        <time>2020-12-13T09:04:35.000Z</time>
      </trkpt>
      <trkpt lat="47.26757" lon="-2.32953">
        <ele>49.200000762939</ele>
        <time>2020-12-13T09:04:36.000Z</time>
      </trkpt>
      <trkpt lat="47.26762" lon="-2.32948">
        <ele>49.599998474121</ele>
        <time>2020-12-13T09:04:37.000Z</time>
      </trkpt>
      <trkpt lat="47.26791" lon="-2.32915">
        <ele>49.599998474121</ele>
        <time>2020-12-13T09:04:43.000Z</time>
      </trkpt>
      <trkpt lat="47.26811" lon="-2.32899">
        <ele>49.599998474121</ele>
        <time>2020-12-13T09:04:47.000Z</time>
      </trkpt>
      <trkpt lat="47.26816" lon="-2.32895">
        <ele>49.599998474121</ele>
        <time>2020-12-13T09:04:48.000Z</time>
      </trkpt>
      <trkpt lat="47.26846" lon="-2.32875">
        <ele>49.599998474121</ele>
        <time>2020-12-13T09:04:54.000Z</time>
      </trkpt>
      <trkpt lat="47.26856" lon="-2.32872">
        <ele>49.599998474121</ele>
        <time>2020-12-13T09:04:56.000Z</time>
      </trkpt>
      <trkpt lat="47.26862" lon="-2.32859">
        <ele>49.599998474121</ele>
        <time>2020-12-13T09:04:59.000Z</time>
      </trkpt>
      <trkpt lat="47.26857" lon="-2.32843">
        <ele>49.599998474121</ele>
        <time>2020-12-13T09:05:02.000Z</time>
      </trkpt>
      <trkpt lat="47.26854" lon="-2.32832">
        <ele>50</ele>
        <time>2020-12-13T09:05:04.000Z</time>
      </trkpt>
      <trkpt lat="47.26853" lon="-2.32827">
        <ele>50.400001525879</ele>
        <time>2020-12-13T09:05:05.000Z</time>
      </trkpt>
      <trkpt lat="47.26851" lon="-2.32822">
        <ele>50.799999237061</ele>
        <time>2020-12-13T09:05:06.000Z</time>
      </trkpt>
      <trkpt lat="47.2685" lon="-2.32818">
        <ele>51.200000762939</ele>
        <time>2020-12-13T09:05:07.000Z</time>
      </trkpt>
      <trkpt lat="47.26848" lon="-2.32814">
        <ele>51.599998474121</ele>
        <time>2020-12-13T09:05:08.000Z</time>
      </trkpt>
      <trkpt lat="47.26846" lon="-2.32811">
        <ele>52.200000762939</ele>
        <time>2020-12-13T09:05:09.000Z</time>
      </trkpt>
      <trkpt lat="47.26845" lon="-2.32807">
        <ele>52.599998474121</ele>
        <time>2020-12-13T09:05:10.000Z</time>
      </trkpt>
      <trkpt lat="47.26844" lon="-2.32802">
        <ele>53.200000762939</ele>
        <time>2020-12-13T09:05:11.000Z</time>
      </trkpt>
      <trkpt lat="47.26843" lon="-2.32797">
        <ele>53.599998474121</ele>
        <time>2020-12-13T09:05:12.000Z</time>
      </trkpt>
      <trkpt lat="47.26842" lon="-2.32793">
        <ele>54.200000762939</ele>
        <time>2020-12-13T09:05:13.000Z</time>
      </trkpt>
      <trkpt lat="47.2684" lon="-2.32788">
        <ele>54.799999237061</ele>
        <time>2020-12-13T09:05:14.000Z</time>
      </trkpt>
      <trkpt lat="47.2684" lon="-2.32783">
        <ele>55.200000762939</ele>
        <time>2020-12-13T09:05:15.000Z</time>
      </trkpt>
      <trkpt lat="47.26839" lon="-2.32778">
        <ele>55.799999237061</ele>
        <time>2020-12-13T09:05:16.000Z</time>
      </trkpt>
      <trkpt lat="47.26838" lon="-2.32774">
        <ele>56.400001525879</ele>
        <time>2020-12-13T09:05:17.000Z</time>
      </trkpt>
      <trkpt lat="47.26836" lon="-2.32761">
        <ele>56.400001525879</ele>
        <time>2020-12-13T09:05:20.000Z</time>
      </trkpt>
      <trkpt lat="47.26834" lon="-2.32757">
        <ele>56.799999237061</ele>
        <time>2020-12-13T09:05:21.000Z</time>
      </trkpt>
      <trkpt lat="47.26833" lon="-2.32753">
        <ele>57.200000762939</ele>
        <time>2020-12-13T09:05:22.000Z</time>
      </trkpt>
      <trkpt lat="47.26831" lon="-2.3275">
        <ele>57.599998474121</ele>
        <time>2020-12-13T09:05:23.000Z</time>
      </trkpt>
      <trkpt lat="47.26829" lon="-2.32746">
        <ele>58</ele>
        <time>2020-12-13T09:05:24.000Z</time>
      </trkpt>
      <trkpt lat="47.26827" lon="-2.32743">
        <ele>58.400001525879</ele>
        <time>2020-12-13T09:05:25.000Z</time>
      </trkpt>
      <trkpt lat="47.26825" lon="-2.3274">
        <ele>59</ele>
        <time>2020-12-13T09:05:26.000Z</time>
      </trkpt>
      <trkpt lat="47.26824" lon="-2.32736">
        <ele>59.400001525879</ele>
        <time>2020-12-13T09:05:27.000Z</time>
      </trkpt>
      <trkpt lat="47.26822" lon="-2.32732">
        <ele>59.799999237061</ele>
        <time>2020-12-13T09:05:28.000Z</time>
      </trkpt>
      <trkpt lat="47.2682" lon="-2.32729">
        <ele>60.200000762939</ele>
        <time>2020-12-13T09:05:29.000Z</time>
      </trkpt>
      <trkpt lat="47.26819" lon="-2.32725">
        <ele>60.799999237061</ele>
        <time>2020-12-13T09:05:30.000Z</time>
      </trkpt>
      <trkpt lat="47.26813" lon="-2.32714">
        <ele>60.799999237061</ele>
        <time>2020-12-13T09:05:33.000Z</time>
      </trkpt>
      <trkpt lat="47.26805" lon="-2.32695">
        <ele>61.200000762939</ele>
        <time>2020-12-13T09:05:37.000Z</time>
      </trkpt>
      <trkpt lat="47.26803" lon="-2.3269">
        <ele>61.599998474121</ele>
        <time>2020-12-13T09:05:38.000Z</time>
      </trkpt>
      <trkpt lat="47.26802" lon="-2.32685">
        <ele>62</ele>
        <time>2020-12-13T09:05:39.000Z</time>
      </trkpt>
      <trkpt lat="47.26802" lon="-2.3268">
        <ele>62.400001525879</ele>
        <time>2020-12-13T09:05:40.000Z</time>
      </trkpt>
      <trkpt lat="47.26802" lon="-2.32675">
        <ele>62.799999237061</ele>
        <time>2020-12-13T09:05:41.000Z</time>
      </trkpt>
      <trkpt lat="47.26804" lon="-2.3267">
        <ele>62.799999237061</ele>
        <time>2020-12-13T09:05:42.000Z</time>
      </trkpt>
      <trkpt lat="47.26809" lon="-2.32656">
        <ele>62.799999237061</ele>
        <time>2020-12-13T09:05:45.000Z</time>
      </trkpt>
      <trkpt lat="47.2681" lon="-2.32649">
        <ele>62.799999237061</ele>
        <time>2020-12-13T09:05:46.000Z</time>
      </trkpt>
      <trkpt lat="47.26807" lon="-2.32627">
        <ele>62.799999237061</ele>
        <time>2020-12-13T09:05:49.000Z</time>
      </trkpt>
      <trkpt lat="47.26806" lon="-2.3262">
        <ele>62.799999237061</ele>
        <time>2020-12-13T09:05:50.000Z</time>
      </trkpt>
      <trkpt lat="47.26798" lon="-2.32561">
        <ele>62.799999237061</ele>
        <time>2020-12-13T09:05:58.000Z</time>
      </trkpt>
      <trkpt lat="47.26798" lon="-2.32554">
        <ele>62.799999237061</ele>
        <time>2020-12-13T09:05:59.000Z</time>
      </trkpt>
      <trkpt lat="47.26797" lon="-2.3252">
        <ele>62.799999237061</ele>
        <time>2020-12-13T09:06:04.000Z</time>
      </trkpt>
      <trkpt lat="47.26795" lon="-2.32494">
        <ele>62.799999237061</ele>
        <time>2020-12-13T09:06:08.000Z</time>
      </trkpt>
      <trkpt lat="47.26794" lon="-2.32482">
        <ele>62.799999237061</ele>
        <time>2020-12-13T09:06:10.000Z</time>
      </trkpt>
      <trkpt lat="47.26793" lon="-2.32476">
        <ele>62.799999237061</ele>
        <time>2020-12-13T09:06:11.000Z</time>
      </trkpt>
      <trkpt lat="47.2679" lon="-2.3245">
        <ele>62.799999237061</ele>
        <time>2020-12-13T09:06:15.000Z</time>
      </trkpt>
      <trkpt lat="47.26787" lon="-2.32427">
        <ele>62.799999237061</ele>
        <time>2020-12-13T09:06:19.000Z</time>
      </trkpt>
      <trkpt lat="47.26784" lon="-2.32409">
        <ele>62.799999237061</ele>
        <time>2020-12-13T09:06:22.000Z</time>
      </trkpt>
      <trkpt lat="47.2678" lon="-2.32382">
        <ele>62.799999237061</ele>
        <time>2020-12-13T09:06:28.000Z</time>
      </trkpt>
      <trkpt lat="47.26779" lon="-2.32372">
        <ele>62.799999237061</ele>
        <time>2020-12-13T09:06:31.000Z</time>
      </trkpt>
      <trkpt lat="47.26782" lon="-2.32368">
        <ele>62.799999237061</ele>
        <time>2020-12-13T09:06:33.000Z</time>
      </trkpt>
      <trkpt lat="47.26785" lon="-2.32363">
        <ele>62.799999237061</ele>
        <time>2020-12-13T09:06:35.000Z</time>
      </trkpt>
      <trkpt lat="47.26796" lon="-2.32356">
        <ele>62.799999237061</ele>
        <time>2020-12-13T09:06:40.000Z</time>
      </trkpt>
      <trkpt lat="47.26815" lon="-2.3235">
        <ele>62.799999237061</ele>
        <time>2020-12-13T09:06:47.000Z</time>
      </trkpt>
      <trkpt lat="47.26835" lon="-2.32344">
        <ele>62.799999237061</ele>
        <time>2020-12-13T09:06:51.000Z</time>
      </trkpt>
      <trkpt lat="47.26841" lon="-2.32342">
        <ele>62.400001525879</ele>
        <time>2020-12-13T09:06:52.000Z</time>
      </trkpt>
      <trkpt lat="47.26848" lon="-2.32341">
        <ele>62</ele>
        <time>2020-12-13T09:06:53.000Z</time>
      </trkpt>
      <trkpt lat="47.26854" lon="-2.3234">
        <ele>61.599998474121</ele>
        <time>2020-12-13T09:06:54.000Z</time>
      </trkpt>
      <trkpt lat="47.26861" lon="-2.32339">
        <ele>61.200000762939</ele>
        <time>2020-12-13T09:06:55.000Z</time>
      </trkpt>
      <trkpt lat="47.26868" lon="-2.32337">
        <ele>60.799999237061</ele>
        <time>2020-12-13T09:06:56.000Z</time>
      </trkpt>
      <trkpt lat="47.26874" lon="-2.32336">
        <ele>60.200000762939</ele>
        <time>2020-12-13T09:06:57.000Z</time>
      </trkpt>
      <trkpt lat="47.2688" lon="-2.32335">
        <ele>59.799999237061</ele>
        <time>2020-12-13T09:06:58.000Z</time>
      </trkpt>
      <trkpt lat="47.26886" lon="-2.32335">
        <ele>59.200000762939</ele>
        <time>2020-12-13T09:06:59.000Z</time>
      </trkpt>
      <trkpt lat="47.26892" lon="-2.32334">
        <ele>58.799999237061</ele>
        <time>2020-12-13T09:07:00.000Z</time>
      </trkpt>
      <trkpt lat="47.26897" lon="-2.32334">
        <ele>58.200000762939</ele>
        <time>2020-12-13T09:07:01.000Z</time>
      </trkpt>
      <trkpt lat="47.26902" lon="-2.32333">
        <ele>57.400001525879</ele>
        <time>2020-12-13T09:07:02.000Z</time>
      </trkpt>
      <trkpt lat="47.26907" lon="-2.32332">
        <ele>57</ele>
        <time>2020-12-13T09:07:03.000Z</time>
      </trkpt>
      <trkpt lat="47.26911" lon="-2.32331">
        <ele>56.599998474121</ele>
        <time>2020-12-13T09:07:04.000Z</time>
      </trkpt>
      <trkpt lat="47.26914" lon="-2.32327">
        <ele>56</ele>
        <time>2020-12-13T09:07:05.000Z</time>
      </trkpt>
      <trkpt lat="47.26916" lon="-2.32317">
        <ele>55.599998474121</ele>
        <time>2020-12-13T09:07:07.000Z</time>
      </trkpt>
      <trkpt lat="47.26916" lon="-2.32311">
        <ele>55.200000762939</ele>
        <time>2020-12-13T09:07:08.000Z</time>
      </trkpt>
      <trkpt lat="47.26914" lon="-2.32306">
        <ele>54.799999237061</ele>
        <time>2020-12-13T09:07:09.000Z</time>
      </trkpt>
      <trkpt lat="47.26912" lon="-2.323">
        <ele>54.400001525879</ele>
        <time>2020-12-13T09:07:10.000Z</time>
      </trkpt>
      <trkpt lat="47.2691" lon="-2.32295">
        <ele>54</ele>
        <time>2020-12-13T09:07:11.000Z</time>
      </trkpt>
      <trkpt lat="47.26903" lon="-2.32279">
        <ele>54</ele>
        <time>2020-12-13T09:07:14.000Z</time>
      </trkpt>
      <trkpt lat="47.26898" lon="-2.32263">
        <ele>54</ele>
        <time>2020-12-13T09:07:17.000Z</time>
      </trkpt>
      <trkpt lat="47.2689" lon="-2.32247">
        <ele>54</ele>
        <time>2020-12-13T09:07:21.000Z</time>
      </trkpt>
      <trkpt lat="47.26883" lon="-2.32236">
        <ele>54.599998474121</ele>
        <time>2020-12-13T09:07:24.000Z</time>
      </trkpt>
      <trkpt lat="47.2688" lon="-2.32232">
        <ele>55</ele>
        <time>2020-12-13T09:07:25.000Z</time>
      </trkpt>
      <trkpt lat="47.26878" lon="-2.32228">
        <ele>55.400001525879</ele>
        <time>2020-12-13T09:07:26.000Z</time>
      </trkpt>
      <trkpt lat="47.26875" lon="-2.32224">
        <ele>56.400001525879</ele>
        <time>2020-12-13T09:07:27.000Z</time>
      </trkpt>
      <trkpt lat="47.26867" lon="-2.32207">
        <ele>56.400001525879</ele>
        <time>2020-12-13T09:07:31.000Z</time>
      </trkpt>
      <trkpt lat="47.26854" lon="-2.32179">
        <ele>56.400001525879</ele>
        <time>2020-12-13T09:07:37.000Z</time>
      </trkpt>
      <trkpt lat="47.2685" lon="-2.32169">
        <ele>56.799999237061</ele>
        <time>2020-12-13T09:07:39.000Z</time>
      </trkpt>
      <trkpt lat="47.26849" lon="-2.32164">
        <ele>57.200000762939</ele>
        <time>2020-12-13T09:07:40.000Z</time>
      </trkpt>
      <trkpt lat="47.26847" lon="-2.32159">
        <ele>57.599998474121</ele>
        <time>2020-12-13T09:07:41.000Z</time>
      </trkpt>
      <trkpt lat="47.26845" lon="-2.32153">
        <ele>58</ele>
        <time>2020-12-13T09:07:42.000Z</time>
      </trkpt>
      <trkpt lat="47.26843" lon="-2.32148">
        <ele>58.400001525879</ele>
        <time>2020-12-13T09:07:43.000Z</time>
      </trkpt>
      <trkpt lat="47.2684" lon="-2.32137">
        <ele>58.400001525879</ele>
        <time>2020-12-13T09:07:45.000Z</time>
      </trkpt>
      <trkpt lat="47.26828" lon="-2.32097">
        <ele>58.400001525879</ele>
        <time>2020-12-13T09:07:52.000Z</time>
      </trkpt>
      <trkpt lat="47.26823" lon="-2.3208">
        <ele>58.400001525879</ele>
        <time>2020-12-13T09:07:55.000Z</time>
      </trkpt>
      <trkpt lat="47.2682" lon="-2.32066">
        <ele>58.799999237061</ele>
        <time>2020-12-13T09:07:57.000Z</time>
      </trkpt>
      <trkpt lat="47.26819" lon="-2.3206">
        <ele>59.200000762939</ele>
        <time>2020-12-13T09:07:58.000Z</time>
      </trkpt>
      <trkpt lat="47.26818" lon="-2.32054">
        <ele>59.599998474121</ele>
        <time>2020-12-13T09:07:59.000Z</time>
      </trkpt>
      <trkpt lat="47.26816" lon="-2.32049">
        <ele>60</ele>
        <time>2020-12-13T09:08:00.000Z</time>
      </trkpt>
      <trkpt lat="47.26814" lon="-2.32043">
        <ele>60.400001525879</ele>
        <time>2020-12-13T09:08:01.000Z</time>
      </trkpt>
      <trkpt lat="47.26812" lon="-2.32037">
        <ele>60.400001525879</ele>
        <time>2020-12-13T09:08:02.000Z</time>
      </trkpt>
      <trkpt lat="47.26805" lon="-2.32013">
        <ele>60.400001525879</ele>
        <time>2020-12-13T09:08:06.000Z</time>
      </trkpt>
      <trkpt lat="47.26801" lon="-2.32002">
        <ele>60.400001525879</ele>
        <time>2020-12-13T09:08:08.000Z</time>
      </trkpt>
      <trkpt lat="47.26785" lon="-2.31972">
        <ele>60.799999237061</ele>
        <time>2020-12-13T09:08:15.000Z</time>
      </trkpt>
      <trkpt lat="47.26783" lon="-2.31969">
        <ele>61.799999237061</ele>
        <time>2020-12-13T09:08:16.000Z</time>
      </trkpt>
      <trkpt lat="47.26781" lon="-2.31966">
        <ele>62.200000762939</ele>
        <time>2020-12-13T09:08:17.000Z</time>
      </trkpt>
      <trkpt lat="47.26779" lon="-2.31963">
        <ele>62.599998474121</ele>
        <time>2020-12-13T09:08:18.000Z</time>
      </trkpt>
      <trkpt lat="47.26775" lon="-2.31955">
        <ele>62.599998474121</ele>
        <time>2020-12-13T09:08:21.000Z</time>
      </trkpt>
      <trkpt lat="47.26769" lon="-2.31944">
        <ele>62.599998474121</ele>
        <time>2020-12-13T09:08:27.000Z</time>
      </trkpt>
      <trkpt lat="47.26766" lon="-2.31942">
        <ele>62.599998474121</ele>
        <time>2020-12-13T09:08:30.000Z</time>
      </trkpt>
      <trkpt lat="47.26765" lon="-2.31944">
        <ele>63</ele>
        <time>2020-12-13T09:08:31.000Z</time>
      </trkpt>
      <trkpt lat="47.26764" lon="-2.31945">
        <ele>63.400001525879</ele>
        <time>2020-12-13T09:08:32.000Z</time>
      </trkpt>
      <trkpt lat="47.26763" lon="-2.31946">
        <ele>63.799999237061</ele>
        <time>2020-12-13T09:08:33.000Z</time>
      </trkpt>
      <trkpt lat="47.26761" lon="-2.31949">
        <ele>64.199996948242</ele>
        <time>2020-12-13T09:08:34.000Z</time>
      </trkpt>
      <trkpt lat="47.2676" lon="-2.31952">
        <ele>64.599998474121</ele>
        <time>2020-12-13T09:08:35.000Z</time>
      </trkpt>
      <trkpt lat="47.26757" lon="-2.31958">
        <ele>64.599998474121</ele>
        <time>2020-12-13T09:08:37.000Z</time>
      </trkpt>
      <trkpt lat="47.26747" lon="-2.31973">
        <ele>64.599998474121</ele>
        <time>2020-12-13T09:08:42.000Z</time>
      </trkpt>
      <trkpt lat="47.26731" lon="-2.31987">
        <ele>64.599998474121</ele>
        <time>2020-12-13T09:08:47.000Z</time>
      </trkpt>
      <trkpt lat="47.26713" lon="-2.32001">
        <ele>64.599998474121</ele>
        <time>2020-12-13T09:08:53.000Z</time>
      </trkpt>
      <trkpt lat="47.26705" lon="-2.32007">
        <ele>65</ele>
        <time>2020-12-13T09:08:56.000Z</time>
      </trkpt>
      <trkpt lat="47.26703" lon="-2.32009">
        <ele>65.400001525879</ele>
        <time>2020-12-13T09:08:57.000Z</time>
      </trkpt>
      <trkpt lat="47.26701" lon="-2.32012">
        <ele>66</ele>
        <time>2020-12-13T09:08:58.000Z</time>
      </trkpt>
      <trkpt lat="47.26699" lon="-2.32015">
        <ele>66.400001525879</ele>
        <time>2020-12-13T09:08:59.000Z</time>
      </trkpt>
      <trkpt lat="47.26698" lon="-2.32018">
        <ele>66.800003051758</ele>
        <time>2020-12-13T09:09:00.000Z</time>
      </trkpt>
      <trkpt lat="47.26694" lon="-2.32027">
        <ele>66.800003051758</ele>
        <time>2020-12-13T09:09:02.000Z</time>
      </trkpt>
      <trkpt lat="47.26687" lon="-2.32052">
        <ele>66.800003051758</ele>
        <time>2020-12-13T09:09:07.000Z</time>
      </trkpt>
      <trkpt lat="47.26687" lon="-2.32057">
        <ele>67.199996948242</ele>
        <time>2020-12-13T09:09:08.000Z</time>
      </trkpt>
      <trkpt lat="47.26687" lon="-2.32063">
        <ele>67.599998474121</ele>
        <time>2020-12-13T09:09:09.000Z</time>
      </trkpt>
      <trkpt lat="47.26687" lon="-2.3207">
        <ele>68</ele>
        <time>2020-12-13T09:09:10.000Z</time>
      </trkpt>
      <trkpt lat="47.26687" lon="-2.32076">
        <ele>68.400001525879</ele>
        <time>2020-12-13T09:09:11.000Z</time>
      </trkpt>
      <trkpt lat="47.26687" lon="-2.32083">
        <ele>68.800003051758</ele>
        <time>2020-12-13T09:09:12.000Z</time>
      </trkpt>
      <trkpt lat="47.26683" lon="-2.32122">
        <ele>68.800003051758</ele>
        <time>2020-12-13T09:09:19.000Z</time>
      </trkpt>
      <trkpt lat="47.26677" lon="-2.32124">
        <ele>68.800003051758</ele>
        <time>2020-12-13T09:09:21.000Z</time>
      </trkpt>
      <trkpt lat="47.26675" lon="-2.3212">
        <ele>68.800003051758</ele>
        <time>2020-12-13T09:09:22.000Z</time>
      </trkpt>
      <trkpt lat="47.2667" lon="-2.32102">
        <ele>68.800003051758</ele>
        <time>2020-12-13T09:09:25.000Z</time>
      </trkpt>
      <trkpt lat="47.26659" lon="-2.32057">
        <ele>68.800003051758</ele>
        <time>2020-12-13T09:09:33.000Z</time>
      </trkpt>
      <trkpt lat="47.26653" lon="-2.32035">
        <ele>68.800003051758</ele>
        <time>2020-12-13T09:09:39.000Z</time>
      </trkpt>
      <trkpt lat="47.26646" lon="-2.32005">
        <ele>68.800003051758</ele>
        <time>2020-12-13T09:09:46.000Z</time>
      </trkpt>
      <trkpt lat="47.26644" lon="-2.32003">
        <ele>68.800003051758</ele>
        <time>2020-12-13T09:09:47.000Z</time>
      </trkpt>
      <trkpt lat="47.26638" lon="-2.32004">
        <ele>68.800003051758</ele>
        <time>2020-12-13T09:09:49.000Z</time>
      </trkpt>
      <trkpt lat="47.26632" lon="-2.32009">
        <ele>68.800003051758</ele>
        <time>2020-12-13T09:09:51.000Z</time>
      </trkpt>
      <trkpt lat="47.26622" lon="-2.32013">
        <ele>68.800003051758</ele>
        <time>2020-12-13T09:09:54.000Z</time>
      </trkpt>
      <trkpt lat="47.26601" lon="-2.3202">
        <ele>68.800003051758</ele>
        <time>2020-12-13T09:10:00.000Z</time>
      </trkpt>
      <trkpt lat="47.2658" lon="-2.32028">
        <ele>68.800003051758</ele>
        <time>2020-12-13T09:10:06.000Z</time>
      </trkpt>
      <trkpt lat="47.26564" lon="-2.32033">
        <ele>68.800003051758</ele>
        <time>2020-12-13T09:10:12.000Z</time>
      </trkpt>
      <trkpt lat="47.26552" lon="-2.32037">
        <ele>68.800003051758</ele>
        <time>2020-12-13T09:10:19.000Z</time>
      </trkpt>
      <trkpt lat="47.26548" lon="-2.32037">
        <ele>68.800003051758</ele>
        <time>2020-12-13T09:10:24.000Z</time>
      </trkpt>
      <trkpt lat="47.26545" lon="-2.32034">
        <ele>68.800003051758</ele>
        <time>2020-12-13T09:11:30.000Z</time>
      </trkpt>
      <trkpt lat="47.26539" lon="-2.32018">
        <ele>68.800003051758</ele>
        <time>2020-12-13T09:11:35.000Z</time>
      </trkpt>
      <trkpt lat="47.26531" lon="-2.32004">
        <ele>68.800003051758</ele>
        <time>2020-12-13T09:11:40.000Z</time>
      </trkpt>
      <trkpt lat="47.26526" lon="-2.32">
        <ele>68.800003051758</ele>
        <time>2020-12-13T09:11:42.000Z</time>
      </trkpt>
      <trkpt lat="47.26522" lon="-2.31998">
        <ele>68.800003051758</ele>
        <time>2020-12-13T09:11:44.000Z</time>
      </trkpt>
      <trkpt lat="47.26513" lon="-2.31997">
        <ele>68.800003051758</ele>
        <time>2020-12-13T09:11:48.000Z</time>
      </trkpt>
      <trkpt lat="47.26508" lon="-2.31998">
        <ele>68.400001525879</ele>
        <time>2020-12-13T09:11:50.000Z</time>
      </trkpt>
      <trkpt lat="47.26506" lon="-2.31999">
        <ele>68</ele>
        <time>2020-12-13T09:11:51.000Z</time>
      </trkpt>
      <trkpt lat="47.26503" lon="-2.32">
        <ele>67.599998474121</ele>
        <time>2020-12-13T09:11:52.000Z</time>
      </trkpt>
      <trkpt lat="47.265" lon="-2.32001">
        <ele>67.199996948242</ele>
        <time>2020-12-13T09:11:53.000Z</time>
      </trkpt>
      <trkpt lat="47.26497" lon="-2.32001">
        <ele>66.800003051758</ele>
        <time>2020-12-13T09:11:54.000Z</time>
      </trkpt>
      <trkpt lat="47.2648" lon="-2.32002">
        <ele>66.800003051758</ele>
        <time>2020-12-13T09:11:59.000Z</time>
      </trkpt>
      <trkpt lat="47.26458" lon="-2.32003">
        <ele>66.800003051758</ele>
        <time>2020-12-13T09:12:05.000Z</time>
      </trkpt>
      <trkpt lat="47.26442" lon="-2.32001">
        <ele>66.800003051758</ele>
        <time>2020-12-13T09:12:10.000Z</time>
      </trkpt>
      <trkpt lat="47.26421" lon="-2.31999">
        <ele>66.800003051758</ele>
        <time>2020-12-13T09:12:15.000Z</time>
      </trkpt>
      <trkpt lat="47.26406" lon="-2.31995">
        <ele>66.800003051758</ele>
        <time>2020-12-13T09:12:18.000Z</time>
      </trkpt>
      <trkpt lat="47.26398" lon="-2.31996">
        <ele>66.800003051758</ele>
        <time>2020-12-13T09:12:20.000Z</time>
      </trkpt>
      <trkpt lat="47.26384" lon="-2.31993">
        <ele>66.800003051758</ele>
        <time>2020-12-13T09:12:23.000Z</time>
      </trkpt>
      <trkpt lat="47.26376" lon="-2.31993">
        <ele>66.800003051758</ele>
        <time>2020-12-13T09:12:25.000Z</time>
      </trkpt>
      <trkpt lat="47.26362" lon="-2.31981">
        <ele>66.800003051758</ele>
        <time>2020-12-13T09:12:30.000Z</time>
      </trkpt>
      <trkpt lat="47.26351" lon="-2.31958">
        <ele>66.800003051758</ele>
        <time>2020-12-13T09:12:35.000Z</time>
      </trkpt>
      <trkpt lat="47.26341" lon="-2.31941">
        <ele>66.800003051758</ele>
        <time>2020-12-13T09:12:39.000Z</time>
      </trkpt>
      <trkpt lat="47.26329" lon="-2.31941">
        <ele>66.800003051758</ele>
        <time>2020-12-13T09:12:43.000Z</time>
      </trkpt>
      <trkpt lat="47.26315" lon="-2.31944">
        <ele>66.800003051758</ele>
        <time>2020-12-13T09:12:49.000Z</time>
      </trkpt>
      <trkpt lat="47.26309" lon="-2.31928">
        <ele>66.800003051758</ele>
        <time>2020-12-13T09:12:53.000Z</time>
      </trkpt>
      <trkpt lat="47.26307" lon="-2.31896">
        <ele>66.800003051758</ele>
        <time>2020-12-13T09:12:59.000Z</time>
      </trkpt>
      <trkpt lat="47.26308" lon="-2.3187">
        <ele>66.400001525879</ele>
        <time>2020-12-13T09:13:04.000Z</time>
      </trkpt>
      <trkpt lat="47.26308" lon="-2.31864">
        <ele>66</ele>
        <time>2020-12-13T09:13:05.000Z</time>
      </trkpt>
      <trkpt lat="47.26308" lon="-2.31858">
        <ele>65.599998474121</ele>
        <time>2020-12-13T09:13:06.000Z</time>
      </trkpt>
      <trkpt lat="47.26309" lon="-2.31851">
        <ele>65.199996948242</ele>
        <time>2020-12-13T09:13:07.000Z</time>
      </trkpt>
      <trkpt lat="47.26309" lon="-2.31846">
        <ele>64.800003051758</ele>
        <time>2020-12-13T09:13:08.000Z</time>
      </trkpt>
      <trkpt lat="47.2631" lon="-2.31823">
        <ele>64.800003051758</ele>
        <time>2020-12-13T09:13:11.000Z</time>
      </trkpt>
      <trkpt lat="47.2631" lon="-2.31808">
        <ele>64.800003051758</ele>
        <time>2020-12-13T09:13:13.000Z</time>
      </trkpt>
      <trkpt lat="47.26308" lon="-2.3176">
        <ele>64.800003051758</ele>
        <time>2020-12-13T09:13:19.000Z</time>
      </trkpt>
      <trkpt lat="47.26302" lon="-2.3172">
        <ele>64.800003051758</ele>
        <time>2020-12-13T09:13:24.000Z</time>
      </trkpt>
      <trkpt lat="47.263" lon="-2.31715">
        <ele>64.800003051758</ele>
        <time>2020-12-13T09:13:25.000Z</time>
      </trkpt>
      <trkpt lat="47.26297" lon="-2.3171">
        <ele>64.800003051758</ele>
        <time>2020-12-13T09:13:26.000Z</time>
      </trkpt>
      <trkpt lat="47.26292" lon="-2.31703">
        <ele>64.800003051758</ele>
        <time>2020-12-13T09:13:28.000Z</time>
      </trkpt>
      <trkpt lat="47.26284" lon="-2.31687">
        <ele>64.800003051758</ele>
        <time>2020-12-13T09:13:31.000Z</time>
      </trkpt>
      <trkpt lat="47.2628" lon="-2.31682">
        <ele>64.800003051758</ele>
        <time>2020-12-13T09:13:32.000Z</time>
      </trkpt>
      <trkpt lat="47.26275" lon="-2.31671">
        <ele>64.800003051758</ele>
        <time>2020-12-13T09:13:34.000Z</time>
      </trkpt>
      <trkpt lat="47.26265" lon="-2.31651">
        <ele>64.800003051758</ele>
        <time>2020-12-13T09:13:38.000Z</time>
      </trkpt>
      <trkpt lat="47.26247" lon="-2.31616">
        <ele>64.800003051758</ele>
        <time>2020-12-13T09:13:44.000Z</time>
      </trkpt>
      <trkpt lat="47.26239" lon="-2.31606">
        <ele>64.800003051758</ele>
        <time>2020-12-13T09:13:46.000Z</time>
      </trkpt>
      <trkpt lat="47.26226" lon="-2.31597">
        <ele>64.800003051758</ele>
        <time>2020-12-13T09:13:49.000Z</time>
      </trkpt>
      <trkpt lat="47.26213" lon="-2.31591">
        <ele>64.800003051758</ele>
        <time>2020-12-13T09:13:52.000Z</time>
      </trkpt>
      <trkpt lat="47.26204" lon="-2.31592">
        <ele>64.800003051758</ele>
        <time>2020-12-13T09:13:54.000Z</time>
      </trkpt>
      <trkpt lat="47.26181" lon="-2.31597">
        <ele>64.800003051758</ele>
        <time>2020-12-13T09:13:59.000Z</time>
      </trkpt>
      <trkpt lat="47.26171" lon="-2.316">
        <ele>64.800003051758</ele>
        <time>2020-12-13T09:14:01.000Z</time>
      </trkpt>
      <trkpt lat="47.26148" lon="-2.31609">
        <ele>64.800003051758</ele>
        <time>2020-12-13T09:14:06.000Z</time>
      </trkpt>
      <trkpt lat="47.26139" lon="-2.31612">
        <ele>64.800003051758</ele>
        <time>2020-12-13T09:14:08.000Z</time>
      </trkpt>
      <trkpt lat="47.26131" lon="-2.31614">
        <ele>64.800003051758</ele>
        <time>2020-12-13T09:14:10.000Z</time>
      </trkpt>
      <trkpt lat="47.26118" lon="-2.31614">
        <ele>64.800003051758</ele>
        <time>2020-12-13T09:14:13.000Z</time>
      </trkpt>
      <trkpt lat="47.26113" lon="-2.31614">
        <ele>64.800003051758</ele>
        <time>2020-12-13T09:14:14.000Z</time>
      </trkpt>
      <trkpt lat="47.261" lon="-2.31606">
        <ele>64.800003051758</ele>
        <time>2020-12-13T09:14:17.000Z</time>
      </trkpt>
      <trkpt lat="47.2609" lon="-2.31591">
        <ele>64.800003051758</ele>
        <time>2020-12-13T09:14:21.000Z</time>
      </trkpt>
      <trkpt lat="47.26088" lon="-2.31587">
        <ele>64.800003051758</ele>
        <time>2020-12-13T09:14:22.000Z</time>
      </trkpt>
      <trkpt lat="47.26078" lon="-2.31578">
        <ele>64.800003051758</ele>
        <time>2020-12-13T09:14:27.000Z</time>
      </trkpt>
      <trkpt lat="47.26072" lon="-2.31569">
        <ele>64.400001525879</ele>
        <time>2020-12-13T09:14:30.000Z</time>
      </trkpt>
      <trkpt lat="47.26071" lon="-2.31565">
        <ele>64</ele>
        <time>2020-12-13T09:14:31.000Z</time>
      </trkpt>
      <trkpt lat="47.26069" lon="-2.3156">
        <ele>63.599998474121</ele>
        <time>2020-12-13T09:14:32.000Z</time>
      </trkpt>
      <trkpt lat="47.26067" lon="-2.31555">
        <ele>63.200000762939</ele>
        <time>2020-12-13T09:14:33.000Z</time>
      </trkpt>
      <trkpt lat="47.26065" lon="-2.3155">
        <ele>62.799999237061</ele>
        <time>2020-12-13T09:14:34.000Z</time>
      </trkpt>
      <trkpt lat="47.26056" lon="-2.31532">
        <ele>62.799999237061</ele>
        <time>2020-12-13T09:14:38.000Z</time>
      </trkpt>
      <trkpt lat="47.26041" lon="-2.31512">
        <ele>62.799999237061</ele>
        <time>2020-12-13T09:14:43.000Z</time>
      </trkpt>
      <trkpt lat="47.26038" lon="-2.31512">
        <ele>62.799999237061</ele>
        <time>2020-12-13T09:14:44.000Z</time>
      </trkpt>
      <trkpt lat="47.26029" lon="-2.31528">
        <ele>62.799999237061</ele>
        <time>2020-12-13T09:14:48.000Z</time>
      </trkpt>
      <trkpt lat="47.26019" lon="-2.31556">
        <ele>62.799999237061</ele>
        <time>2020-12-13T09:14:53.000Z</time>
      </trkpt>
      <trkpt lat="47.26011" lon="-2.31561">
        <ele>62.799999237061</ele>
        <time>2020-12-13T09:14:56.000Z</time>
      </trkpt>
      <trkpt lat="47.26003" lon="-2.31554">
        <ele>62.799999237061</ele>
        <time>2020-12-13T09:14:59.000Z</time>
      </trkpt>
      <trkpt lat="47.26" lon="-2.3155">
        <ele>62.799999237061</ele>
        <time>2020-12-13T09:15:00.000Z</time>
      </trkpt>
      <trkpt lat="47.25979" lon="-2.31511">
        <ele>62.799999237061</ele>
        <time>2020-12-13T09:15:08.000Z</time>
      </trkpt>
      <trkpt lat="47.25968" lon="-2.31486">
        <ele>62.799999237061</ele>
        <time>2020-12-13T09:15:13.000Z</time>
      </trkpt>
      <trkpt lat="47.25965" lon="-2.31481">
        <ele>62.799999237061</ele>
        <time>2020-12-13T09:15:14.000Z</time>
      </trkpt>
      <trkpt lat="47.25955" lon="-2.3147">
        <ele>62.799999237061</ele>
        <time>2020-12-13T09:15:17.000Z</time>
      </trkpt>
      <trkpt lat="47.25951" lon="-2.31466">
        <ele>62.799999237061</ele>
        <time>2020-12-13T09:15:18.000Z</time>
      </trkpt>
      <trkpt lat="47.25943" lon="-2.31461">
        <ele>62.799999237061</ele>
        <time>2020-12-13T09:15:20.000Z</time>
      </trkpt>
      <trkpt lat="47.25928" lon="-2.31458">
        <ele>62.799999237061</ele>
        <time>2020-12-13T09:15:24.000Z</time>
      </trkpt>
      <trkpt lat="47.25924" lon="-2.31465">
        <ele>62.799999237061</ele>
        <time>2020-12-13T09:15:26.000Z</time>
      </trkpt>
      <trkpt lat="47.25923" lon="-2.31469">
        <ele>62.799999237061</ele>
        <time>2020-12-13T09:15:27.000Z</time>
      </trkpt>
      <trkpt lat="47.25917" lon="-2.31488">
        <ele>62.799999237061</ele>
        <time>2020-12-13T09:15:33.000Z</time>
      </trkpt>
      <trkpt lat="47.25912" lon="-2.315">
        <ele>62.799999237061</ele>
        <time>2020-12-13T09:15:39.000Z</time>
      </trkpt>
      <trkpt lat="47.25911" lon="-2.31504">
        <ele>62.799999237061</ele>
        <time>2020-12-13T09:15:41.000Z</time>
      </trkpt>
      <trkpt lat="47.25912" lon="-2.31507">
        <ele>62.799999237061</ele>
        <time>2020-12-13T09:15:44.000Z</time>
      </trkpt>
      <trkpt lat="47.25911" lon="-2.31508">
        <ele>62.799999237061</ele>
        <time>2020-12-13T09:15:45.000Z</time>
      </trkpt>
      <trkpt lat="47.25907" lon="-2.3151">
        <ele>62.799999237061</ele>
        <time>2020-12-13T09:15:48.000Z</time>
      </trkpt>
      <trkpt lat="47.25902" lon="-2.31509">
        <ele>62.799999237061</ele>
        <time>2020-12-13T09:15:51.000Z</time>
      </trkpt>
      <trkpt lat="47.259" lon="-2.31509">
        <ele>62.799999237061</ele>
        <time>2020-12-13T09:15:53.000Z</time>
      </trkpt>
      <trkpt lat="47.25898" lon="-2.31509">
        <ele>62.799999237061</ele>
        <time>2020-12-13T09:15:55.000Z</time>
      </trkpt>
      <trkpt lat="47.25896" lon="-2.31508">
        <ele>62.400001525879</ele>
        <time>2020-12-13T09:15:56.000Z</time>
      </trkpt>
      <trkpt lat="47.25895" lon="-2.31506">
        <ele>62</ele>
        <time>2020-12-13T09:15:57.000Z</time>
      </trkpt>
      <trkpt lat="47.25893" lon="-2.31505">
        <ele>61.599998474121</ele>
        <time>2020-12-13T09:15:58.000Z</time>
      </trkpt>
      <trkpt lat="47.25892" lon="-2.31504">
        <ele>61.200000762939</ele>
        <time>2020-12-13T09:15:59.000Z</time>
      </trkpt>
      <trkpt lat="47.25891" lon="-2.31503">
        <ele>60.799999237061</ele>
        <time>2020-12-13T09:16:00.000Z</time>
      </trkpt>
      <trkpt lat="47.25887" lon="-2.315">
        <ele>60.799999237061</ele>
        <time>2020-12-13T09:16:04.000Z</time>
      </trkpt>
      <trkpt lat="47.25887" lon="-2.315">
        <ele>60.799999237061</ele>
        <time>2020-12-13T09:16:05.000Z</time>
      </trkpt>
      <trkpt lat="47.25886" lon="-2.31496">
        <ele>60.799999237061</ele>
        <time>2020-12-13T09:16:25.000Z</time>
      </trkpt>
      <trkpt lat="47.25887" lon="-2.31494">
        <ele>60.799999237061</ele>
        <time>2020-12-13T09:16:26.000Z</time>
      </trkpt>
      <trkpt lat="47.2589" lon="-2.31496">
        <ele>60.799999237061</ele>
        <time>2020-12-13T09:16:29.000Z</time>
      </trkpt>
      <trkpt lat="47.25891" lon="-2.31497">
        <ele>60.799999237061</ele>
        <time>2020-12-13T09:16:33.000Z</time>
      </trkpt>
      <trkpt lat="47.259" lon="-2.31511">
        <ele>60.799999237061</ele>
        <time>2020-12-13T09:16:40.000Z</time>
      </trkpt>
      <trkpt lat="47.25898" lon="-2.31533">
        <ele>60.799999237061</ele>
        <time>2020-12-13T09:16:45.000Z</time>
      </trkpt>
      <trkpt lat="47.25889" lon="-2.31557">
        <ele>60.799999237061</ele>
        <time>2020-12-13T09:16:50.000Z</time>
      </trkpt>
      <trkpt lat="47.25882" lon="-2.3157">
        <ele>60.200000762939</ele>
        <time>2020-12-13T09:16:53.000Z</time>
      </trkpt>
      <trkpt lat="47.2588" lon="-2.31574">
        <ele>59.799999237061</ele>
        <time>2020-12-13T09:16:54.000Z</time>
      </trkpt>
      <trkpt lat="47.25877" lon="-2.31578">
        <ele>59</ele>
        <time>2020-12-13T09:16:55.000Z</time>
      </trkpt>
      <trkpt lat="47.25875" lon="-2.31581">
        <ele>58.599998474121</ele>
        <time>2020-12-13T09:16:56.000Z</time>
      </trkpt>
      <trkpt lat="47.25844" lon="-2.31608">
        <ele>58.599998474121</ele>
        <time>2020-12-13T09:17:06.000Z</time>
      </trkpt>
      <trkpt lat="47.25829" lon="-2.31617">
        <ele>58.599998474121</ele>
        <time>2020-12-13T09:17:11.000Z</time>
      </trkpt>
      <trkpt lat="47.25827" lon="-2.31615">
        <ele>58.599998474121</ele>
        <time>2020-12-13T09:17:12.000Z</time>
      </trkpt>
      <trkpt lat="47.25819" lon="-2.31601">
        <ele>58.599998474121</ele>
        <time>2020-12-13T09:17:16.000Z</time>
      </trkpt>
      <trkpt lat="47.25813" lon="-2.31592">
        <ele>58.599998474121</ele>
        <time>2020-12-13T09:17:18.000Z</time>
      </trkpt>
      <trkpt lat="47.25788" lon="-2.31548">
        <ele>58.599998474121</ele>
        <time>2020-12-13T09:17:27.000Z</time>
      </trkpt>
      <trkpt lat="47.25759" lon="-2.31503">
        <ele>58.599998474121</ele>
        <time>2020-12-13T09:17:36.000Z</time>
      </trkpt>
      <trkpt lat="47.25739" lon="-2.3147">
        <ele>58.599998474121</ele>
        <time>2020-12-13T09:17:44.000Z</time>
      </trkpt>
      <trkpt lat="47.25743" lon="-2.31458">
        <ele>58.599998474121</ele>
        <time>2020-12-13T09:17:48.000Z</time>
      </trkpt>
      <trkpt lat="47.25749" lon="-2.3145">
        <ele>58.599998474121</ele>
        <time>2020-12-13T09:17:50.000Z</time>
      </trkpt>
      <trkpt lat="47.25757" lon="-2.3144">
        <ele>58.599998474121</ele>
        <time>2020-12-13T09:17:52.000Z</time>
      </trkpt>
      <trkpt lat="47.25791" lon="-2.31398">
        <ele>58.599998474121</ele>
        <time>2020-12-13T09:18:00.000Z</time>
      </trkpt>
      <trkpt lat="47.25811" lon="-2.31365">
        <ele>58.599998474121</ele>
        <time>2020-12-13T09:18:05.000Z</time>
      </trkpt>
      <trkpt lat="47.25814" lon="-2.31357">
        <ele>58.599998474121</ele>
        <time>2020-12-13T09:18:06.000Z</time>
      </trkpt>
      <trkpt lat="47.25819" lon="-2.31324">
        <ele>58.599998474121</ele>
        <time>2020-12-13T09:18:10.000Z</time>
      </trkpt>
      <trkpt lat="47.25818" lon="-2.31299">
        <ele>58.599998474121</ele>
        <time>2020-12-13T09:18:13.000Z</time>
      </trkpt>
      <trkpt lat="47.25817" lon="-2.31283">
        <ele>58.599998474121</ele>
        <time>2020-12-13T09:18:15.000Z</time>
      </trkpt>
      <trkpt lat="47.25813" lon="-2.31247">
        <ele>58.599998474121</ele>
        <time>2020-12-13T09:18:20.000Z</time>
      </trkpt>
      <trkpt lat="47.2581" lon="-2.31234">
        <ele>58.599998474121</ele>
        <time>2020-12-13T09:18:22.000Z</time>
      </trkpt>
      <trkpt lat="47.25798" lon="-2.31194">
        <ele>58.599998474121</ele>
        <time>2020-12-13T09:18:28.000Z</time>
      </trkpt>
      <trkpt lat="47.25795" lon="-2.31187">
        <ele>58.599998474121</ele>
        <time>2020-12-13T09:18:29.000Z</time>
      </trkpt>
      <trkpt lat="47.25791" lon="-2.31168">
        <ele>58.599998474121</ele>
        <time>2020-12-13T09:18:32.000Z</time>
      </trkpt>
      <trkpt lat="47.2579" lon="-2.31162">
        <ele>58.599998474121</ele>
        <time>2020-12-13T09:18:33.000Z</time>
      </trkpt>
      <trkpt lat="47.25792" lon="-2.31141">
        <ele>58.599998474121</ele>
        <time>2020-12-13T09:18:36.000Z</time>
      </trkpt>
      <trkpt lat="47.25793" lon="-2.31135">
        <ele>58.599998474121</ele>
        <time>2020-12-13T09:18:37.000Z</time>
      </trkpt>
      <trkpt lat="47.25793" lon="-2.31128">
        <ele>58.599998474121</ele>
        <time>2020-12-13T09:18:38.000Z</time>
      </trkpt>
      <trkpt lat="47.25786" lon="-2.31113">
        <ele>58.599998474121</ele>
        <time>2020-12-13T09:18:41.000Z</time>
      </trkpt>
      <trkpt lat="47.25783" lon="-2.31106">
        <ele>58.599998474121</ele>
        <time>2020-12-13T09:18:42.000Z</time>
      </trkpt>
      <trkpt lat="47.25764" lon="-2.31067">
        <ele>58.599998474121</ele>
        <time>2020-12-13T09:18:49.000Z</time>
      </trkpt>
      <trkpt lat="47.25762" lon="-2.31062">
        <ele>58.599998474121</ele>
        <time>2020-12-13T09:18:50.000Z</time>
      </trkpt>
      <trkpt lat="47.25763" lon="-2.31051">
        <ele>58.599998474121</ele>
        <time>2020-12-13T09:18:52.000Z</time>
      </trkpt>
      <trkpt lat="47.2577" lon="-2.31019">
        <ele>58.599998474121</ele>
        <time>2020-12-13T09:18:58.000Z</time>
      </trkpt>
      <trkpt lat="47.2578" lon="-2.30974">
        <ele>58.599998474121</ele>
        <time>2020-12-13T09:19:06.000Z</time>
      </trkpt>
      <trkpt lat="47.25788" lon="-2.30943">
        <ele>58.599998474121</ele>
        <time>2020-12-13T09:19:12.000Z</time>
      </trkpt>
      <trkpt lat="47.25792" lon="-2.30932">
        <ele>58.599998474121</ele>
        <time>2020-12-13T09:19:15.000Z</time>
      </trkpt>
      <trkpt lat="47.25791" lon="-2.30927">
        <ele>58.599998474121</ele>
        <time>2020-12-13T09:19:16.000Z</time>
      </trkpt>
      <trkpt lat="47.25785" lon="-2.3091">
        <ele>58.599998474121</ele>
        <time>2020-12-13T09:19:20.000Z</time>
      </trkpt>
      <trkpt lat="47.25786" lon="-2.30904">
        <ele>58.599998474121</ele>
        <time>2020-12-13T09:19:21.000Z</time>
      </trkpt>
      <trkpt lat="47.2579" lon="-2.30879">
        <ele>58.599998474121</ele>
        <time>2020-12-13T09:19:25.000Z</time>
      </trkpt>
      <trkpt lat="47.25792" lon="-2.30866">
        <ele>58.599998474121</ele>
        <time>2020-12-13T09:19:27.000Z</time>
      </trkpt>
      <trkpt lat="47.258" lon="-2.30813">
        <ele>58.599998474121</ele>
        <time>2020-12-13T09:19:35.000Z</time>
      </trkpt>
      <trkpt lat="47.25802" lon="-2.30805">
        <ele>59</ele>
        <time>2020-12-13T09:19:36.000Z</time>
      </trkpt>
      <trkpt lat="47.25803" lon="-2.30798">
        <ele>59.400001525879</ele>
        <time>2020-12-13T09:19:37.000Z</time>
      </trkpt>
      <trkpt lat="47.25804" lon="-2.30791">
        <ele>59.799999237061</ele>
        <time>2020-12-13T09:19:38.000Z</time>
      </trkpt>
      <trkpt lat="47.25805" lon="-2.30784">
        <ele>60.200000762939</ele>
        <time>2020-12-13T09:19:39.000Z</time>
      </trkpt>
      <trkpt lat="47.25806" lon="-2.30777">
        <ele>60.599998474121</ele>
        <time>2020-12-13T09:19:40.000Z</time>
      </trkpt>
      <trkpt lat="47.2581" lon="-2.30756">
        <ele>60.599998474121</ele>
        <time>2020-12-13T09:19:43.000Z</time>
      </trkpt>
      <trkpt lat="47.25817" lon="-2.30712">
        <ele>60.599998474121</ele>
        <time>2020-12-13T09:19:49.000Z</time>
      </trkpt>
      <trkpt lat="47.25826" lon="-2.30652">
        <ele>60.599998474121</ele>
        <time>2020-12-13T09:19:57.000Z</time>
      </trkpt>
      <trkpt lat="47.25835" lon="-2.30608">
        <ele>60.599998474121</ele>
        <time>2020-12-13T09:20:03.000Z</time>
      </trkpt>
      <trkpt lat="47.25848" lon="-2.30556">
        <ele>60.599998474121</ele>
        <time>2020-12-13T09:20:10.000Z</time>
      </trkpt>
      <trkpt lat="47.25864" lon="-2.30504">
        <ele>60.599998474121</ele>
        <time>2020-12-13T09:20:17.000Z</time>
      </trkpt>
      <trkpt lat="47.25884" lon="-2.30444">
        <ele>60.599998474121</ele>
        <time>2020-12-13T09:20:25.000Z</time>
      </trkpt>
      <trkpt lat="47.25898" lon="-2.30384">
        <ele>60.599998474121</ele>
        <time>2020-12-13T09:20:32.000Z</time>
      </trkpt>
      <trkpt lat="47.259" lon="-2.30366">
        <ele>60.599998474121</ele>
        <time>2020-12-13T09:20:34.000Z</time>
      </trkpt>
      <trkpt lat="47.25899" lon="-2.30337">
        <ele>60.599998474121</ele>
        <time>2020-12-13T09:20:37.000Z</time>
      </trkpt>
      <trkpt lat="47.25896" lon="-2.3032">
        <ele>60.599998474121</ele>
        <time>2020-12-13T09:20:39.000Z</time>
      </trkpt>
      <trkpt lat="47.25888" lon="-2.30309">
        <ele>60.599998474121</ele>
        <time>2020-12-13T09:20:41.000Z</time>
      </trkpt>
      <trkpt lat="47.25869" lon="-2.30292">
        <ele>60.599998474121</ele>
        <time>2020-12-13T09:20:45.000Z</time>
      </trkpt>
      <trkpt lat="47.25859" lon="-2.30283">
        <ele>60.599998474121</ele>
        <time>2020-12-13T09:20:47.000Z</time>
      </trkpt>
      <trkpt lat="47.25849" lon="-2.30274">
        <ele>60.599998474121</ele>
        <time>2020-12-13T09:20:49.000Z</time>
      </trkpt>
      <trkpt lat="47.25844" lon="-2.30272">
        <ele>60.599998474121</ele>
        <time>2020-12-13T09:20:50.000Z</time>
      </trkpt>
      <trkpt lat="47.25807" lon="-2.30255">
        <ele>60.599998474121</ele>
        <time>2020-12-13T09:20:56.000Z</time>
      </trkpt>
      <trkpt lat="47.25761" lon="-2.30234">
        <ele>60.599998474121</ele>
        <time>2020-12-13T09:21:03.000Z</time>
      </trkpt>
      <trkpt lat="47.25738" lon="-2.30223">
        <ele>60.599998474121</ele>
        <time>2020-12-13T09:21:07.000Z</time>
      </trkpt>
      <trkpt lat="47.25728" lon="-2.30218">
        <ele>60.599998474121</ele>
        <time>2020-12-13T09:21:09.000Z</time>
      </trkpt>
      <trkpt lat="47.25707" lon="-2.30222">
        <ele>60.599998474121</ele>
        <time>2020-12-13T09:21:13.000Z</time>
      </trkpt>
      <trkpt lat="47.25703" lon="-2.30226">
        <ele>61</ele>
        <time>2020-12-13T09:21:14.000Z</time>
      </trkpt>
      <trkpt lat="47.25699" lon="-2.3023">
        <ele>61.400001525879</ele>
        <time>2020-12-13T09:21:15.000Z</time>
      </trkpt>
      <trkpt lat="47.25696" lon="-2.30235">
        <ele>61.799999237061</ele>
        <time>2020-12-13T09:21:16.000Z</time>
      </trkpt>
      <trkpt lat="47.25693" lon="-2.3024">
        <ele>62.200000762939</ele>
        <time>2020-12-13T09:21:17.000Z</time>
      </trkpt>
      <trkpt lat="47.25691" lon="-2.30246">
        <ele>62.599998474121</ele>
        <time>2020-12-13T09:21:18.000Z</time>
      </trkpt>
      <trkpt lat="47.25689" lon="-2.30251">
        <ele>62.599998474121</ele>
        <time>2020-12-13T09:21:19.000Z</time>
      </trkpt>
      <trkpt lat="47.25688" lon="-2.30257">
        <ele>62.599998474121</ele>
        <time>2020-12-13T09:21:20.000Z</time>
      </trkpt>
      <trkpt lat="47.25687" lon="-2.30269">
        <ele>62.599998474121</ele>
        <time>2020-12-13T09:21:22.000Z</time>
      </trkpt>
      <trkpt lat="47.2569" lon="-2.30298">
        <ele>62.599998474121</ele>
        <time>2020-12-13T09:21:27.000Z</time>
      </trkpt>
      <trkpt lat="47.25684" lon="-2.30315">
        <ele>62.599998474121</ele>
        <time>2020-12-13T09:21:31.000Z</time>
      </trkpt>
      <trkpt lat="47.25677" lon="-2.30317">
        <ele>62.599998474121</ele>
        <time>2020-12-13T09:21:34.000Z</time>
      </trkpt>
      <trkpt lat="47.25664" lon="-2.30322">
        <ele>62.599998474121</ele>
        <time>2020-12-13T09:21:39.000Z</time>
      </trkpt>
      <trkpt lat="47.25662" lon="-2.30323">
        <ele>62.599998474121</ele>
        <time>2020-12-13T09:21:40.000Z</time>
      </trkpt>
      <trkpt lat="47.25652" lon="-2.30331">
        <ele>62.599998474121</ele>
        <time>2020-12-13T09:21:45.000Z</time>
      </trkpt>
      <trkpt lat="47.25644" lon="-2.30346">
        <ele>62.599998474121</ele>
        <time>2020-12-13T09:21:52.000Z</time>
      </trkpt>
      <trkpt lat="47.25642" lon="-2.3035">
        <ele>62.599998474121</ele>
        <time>2020-12-13T09:21:55.000Z</time>
      </trkpt>
      <trkpt lat="47.2564" lon="-2.3035">
        <ele>62.599998474121</ele>
        <time>2020-12-13T09:21:57.000Z</time>
      </trkpt>
      <trkpt lat="47.25639" lon="-2.3035">
        <ele>62.599998474121</ele>
        <time>2020-12-13T09:22:11.000Z</time>
      </trkpt>
      <trkpt lat="47.25636" lon="-2.30346">
        <ele>62.599998474121</ele>
        <time>2020-12-13T09:22:14.000Z</time>
      </trkpt>
      <trkpt lat="47.25635" lon="-2.30344">
        <ele>62.599998474121</ele>
        <time>2020-12-13T09:22:17.000Z</time>
      </trkpt>
      <trkpt lat="47.25633" lon="-2.30342">
        <ele>62.599998474121</ele>
        <time>2020-12-13T09:22:32.000Z</time>
      </trkpt>
      <trkpt lat="47.25632" lon="-2.30336">
        <ele>62.599998474121</ele>
        <time>2020-12-13T09:22:34.000Z</time>
      </trkpt>
      <trkpt lat="47.25631" lon="-2.30329">
        <ele>62.599998474121</ele>
        <time>2020-12-13T09:22:36.000Z</time>
      </trkpt>
      <trkpt lat="47.25628" lon="-2.30298">
        <ele>62.599998474121</ele>
        <time>2020-12-13T09:22:42.000Z</time>
      </trkpt>
      <trkpt lat="47.25624" lon="-2.30268">
        <ele>62.599998474121</ele>
        <time>2020-12-13T09:22:47.000Z</time>
      </trkpt>
      <trkpt lat="47.25615" lon="-2.30231">
        <ele>62.599998474121</ele>
        <time>2020-12-13T09:22:53.000Z</time>
      </trkpt>
      <trkpt lat="47.25607" lon="-2.30212">
        <ele>62.599998474121</ele>
        <time>2020-12-13T09:22:56.000Z</time>
      </trkpt>
      <trkpt lat="47.25604" lon="-2.30208">
        <ele>62.599998474121</ele>
        <time>2020-12-13T09:22:57.000Z</time>
      </trkpt>
      <trkpt lat="47.25592" lon="-2.30196">
        <ele>62.599998474121</ele>
        <time>2020-12-13T09:23:00.000Z</time>
      </trkpt>
      <trkpt lat="47.2558" lon="-2.30187">
        <ele>62.599998474121</ele>
        <time>2020-12-13T09:23:03.000Z</time>
      </trkpt>
      <trkpt lat="47.25576" lon="-2.30185">
        <ele>62.599998474121</ele>
        <time>2020-12-13T09:23:04.000Z</time>
      </trkpt>
      <trkpt lat="47.25563" lon="-2.30185">
        <ele>62.599998474121</ele>
        <time>2020-12-13T09:23:07.000Z</time>
      </trkpt>
      <trkpt lat="47.2555" lon="-2.3019">
        <ele>62.599998474121</ele>
        <time>2020-12-13T09:23:10.000Z</time>
      </trkpt>
      <trkpt lat="47.25542" lon="-2.30194">
        <ele>62.599998474121</ele>
        <time>2020-12-13T09:23:12.000Z</time>
      </trkpt>
      <trkpt lat="47.25527" lon="-2.30203">
        <ele>62.599998474121</ele>
        <time>2020-12-13T09:23:17.000Z</time>
      </trkpt>
      <trkpt lat="47.25511" lon="-2.30203">
        <ele>62.599998474121</ele>
        <time>2020-12-13T09:23:23.000Z</time>
      </trkpt>
      <trkpt lat="47.255" lon="-2.3021">
        <ele>62.599998474121</ele>
        <time>2020-12-13T09:23:27.000Z</time>
      </trkpt>
      <trkpt lat="47.25489" lon="-2.30229">
        <ele>62.599998474121</ele>
        <time>2020-12-13T09:23:32.000Z</time>
      </trkpt>
      <trkpt lat="47.25481" lon="-2.30244">
        <ele>63</ele>
        <time>2020-12-13T09:23:36.000Z</time>
      </trkpt>
      <trkpt lat="47.25479" lon="-2.30247">
        <ele>63.400001525879</ele>
        <time>2020-12-13T09:23:37.000Z</time>
      </trkpt>
      <trkpt lat="47.25476" lon="-2.30248">
        <ele>63.799999237061</ele>
        <time>2020-12-13T09:23:38.000Z</time>
      </trkpt>
      <trkpt lat="47.25473" lon="-2.30246">
        <ele>64.199996948242</ele>
        <time>2020-12-13T09:23:39.000Z</time>
      </trkpt>
      <trkpt lat="47.2547" lon="-2.30244">
        <ele>64.599998474121</ele>
        <time>2020-12-13T09:23:40.000Z</time>
      </trkpt>
      <trkpt lat="47.25467" lon="-2.30242">
        <ele>64.599998474121</ele>
        <time>2020-12-13T09:23:41.000Z</time>
      </trkpt>
      <trkpt lat="47.25447" lon="-2.30239">
        <ele>64.599998474121</ele>
        <time>2020-12-13T09:23:46.000Z</time>
      </trkpt>
      <trkpt lat="47.25429" lon="-2.30232">
        <ele>64.599998474121</ele>
        <time>2020-12-13T09:23:51.000Z</time>
      </trkpt>
      <trkpt lat="47.2541" lon="-2.30225">
        <ele>64.599998474121</ele>
        <time>2020-12-13T09:23:56.000Z</time>
      </trkpt>
      <trkpt lat="47.25393" lon="-2.30218">
        <ele>64.599998474121</ele>
        <time>2020-12-13T09:24:01.000Z</time>
      </trkpt>
      <trkpt lat="47.25371" lon="-2.30214">
        <ele>64.599998474121</ele>
        <time>2020-12-13T09:24:08.000Z</time>
      </trkpt>
      <trkpt lat="47.25349" lon="-2.30212">
        <ele>64.599998474121</ele>
        <time>2020-12-13T09:24:14.000Z</time>
      </trkpt>
      <trkpt lat="47.25324" lon="-2.30211">
        <ele>64.599998474121</ele>
        <time>2020-12-13T09:24:21.000Z</time>
      </trkpt>
      <trkpt lat="47.25312" lon="-2.30208">
        <ele>64.599998474121</ele>
        <time>2020-12-13T09:24:25.000Z</time>
      </trkpt>
      <trkpt lat="47.2531" lon="-2.3021">
        <ele>64.599998474121</ele>
        <time>2020-12-13T09:24:26.000Z</time>
      </trkpt>
      <trkpt lat="47.25304" lon="-2.30214">
        <ele>64.599998474121</ele>
        <time>2020-12-13T09:24:30.000Z</time>
      </trkpt>
      <trkpt lat="47.25292" lon="-2.30208">
        <ele>64.599998474121</ele>
        <time>2020-12-13T09:24:34.000Z</time>
      </trkpt>
      <trkpt lat="47.25289" lon="-2.30207">
        <ele>64.599998474121</ele>
        <time>2020-12-13T09:24:35.000Z</time>
      </trkpt>
      <trkpt lat="47.25266" lon="-2.30197">
        <ele>64.599998474121</ele>
        <time>2020-12-13T09:24:41.000Z</time>
      </trkpt>
      <trkpt lat="47.25256" lon="-2.30192">
        <ele>65</ele>
        <time>2020-12-13T09:24:44.000Z</time>
      </trkpt>
      <trkpt lat="47.25252" lon="-2.30191">
        <ele>65.800003051758</ele>
        <time>2020-12-13T09:24:45.000Z</time>
      </trkpt>
      <trkpt lat="47.25249" lon="-2.30189">
        <ele>66.199996948242</ele>
        <time>2020-12-13T09:24:46.000Z</time>
      </trkpt>
      <trkpt lat="47.25246" lon="-2.30188">
        <ele>66.599998474121</ele>
        <time>2020-12-13T09:24:47.000Z</time>
      </trkpt>
      <trkpt lat="47.25224" lon="-2.30177">
        <ele>66.599998474121</ele>
        <time>2020-12-13T09:24:54.000Z</time>
      </trkpt>
      <trkpt lat="47.25214" lon="-2.30166">
        <ele>66.599998474121</ele>
        <time>2020-12-13T09:24:58.000Z</time>
      </trkpt>
      <trkpt lat="47.25196" lon="-2.30147">
        <ele>66.599998474121</ele>
        <time>2020-12-13T09:25:04.000Z</time>
      </trkpt>
      <trkpt lat="47.25182" lon="-2.30122">
        <ele>66.599998474121</ele>
        <time>2020-12-13T09:25:11.000Z</time>
      </trkpt>
      <trkpt lat="47.25165" lon="-2.30122">
        <ele>66.599998474121</ele>
        <time>2020-12-13T09:25:16.000Z</time>
      </trkpt>
      <trkpt lat="47.25141" lon="-2.30129">
        <ele>66.599998474121</ele>
        <time>2020-12-13T09:25:24.000Z</time>
      </trkpt>
      <trkpt lat="47.25124" lon="-2.30132">
        <ele>66.599998474121</ele>
        <time>2020-12-13T09:25:30.000Z</time>
      </trkpt>
      <trkpt lat="47.25105" lon="-2.30137">
        <ele>66.599998474121</ele>
        <time>2020-12-13T09:25:36.000Z</time>
      </trkpt>
      <trkpt lat="47.25093" lon="-2.30138">
        <ele>67.199996948242</ele>
        <time>2020-12-13T09:25:40.000Z</time>
      </trkpt>
      <trkpt lat="47.2509" lon="-2.30138">
        <ele>67.599998474121</ele>
        <time>2020-12-13T09:25:41.000Z</time>
      </trkpt>
      <trkpt lat="47.25087" lon="-2.30139">
        <ele>68</ele>
        <time>2020-12-13T09:25:42.000Z</time>
      </trkpt>
      <trkpt lat="47.25084" lon="-2.30139">
        <ele>68.400001525879</ele>
        <time>2020-12-13T09:25:43.000Z</time>
      </trkpt>
      <trkpt lat="47.25081" lon="-2.30139">
        <ele>68.800003051758</ele>
        <time>2020-12-13T09:25:44.000Z</time>
      </trkpt>
      <trkpt lat="47.25072" lon="-2.30134">
        <ele>68.800003051758</ele>
        <time>2020-12-13T09:25:47.000Z</time>
      </trkpt>
      <trkpt lat="47.2507" lon="-2.3013">
        <ele>68.800003051758</ele>
        <time>2020-12-13T09:25:48.000Z</time>
      </trkpt>
      <trkpt lat="47.2507" lon="-2.3011">
        <ele>68.800003051758</ele>
        <time>2020-12-13T09:25:52.000Z</time>
      </trkpt>
      <trkpt lat="47.25072" lon="-2.3008">
        <ele>68.800003051758</ele>
        <time>2020-12-13T09:25:59.000Z</time>
      </trkpt>
      <trkpt lat="47.25073" lon="-2.30061">
        <ele>68.800003051758</ele>
        <time>2020-12-13T09:26:05.000Z</time>
      </trkpt>
      <trkpt lat="47.25065" lon="-2.30058">
        <ele>68.800003051758</ele>
        <time>2020-12-13T09:26:09.000Z</time>
      </trkpt>
      <trkpt lat="47.25049" lon="-2.30056">
        <ele>68.800003051758</ele>
        <time>2020-12-13T09:26:15.000Z</time>
      </trkpt>
      <trkpt lat="47.25027" lon="-2.30055">
        <ele>69.199996948242</ele>
        <time>2020-12-13T09:26:21.000Z</time>
      </trkpt>
      <trkpt lat="47.25023" lon="-2.30055">
        <ele>69.599998474121</ele>
        <time>2020-12-13T09:26:22.000Z</time>
      </trkpt>
      <trkpt lat="47.25019" lon="-2.30054">
        <ele>70</ele>
        <time>2020-12-13T09:26:23.000Z</time>
      </trkpt>
      <trkpt lat="47.25016" lon="-2.30054">
        <ele>70.800003051758</ele>
        <time>2020-12-13T09:26:24.000Z</time>
      </trkpt>
      <trkpt lat="47.25006" lon="-2.30054">
        <ele>70.800003051758</ele>
        <time>2020-12-13T09:26:27.000Z</time>
      </trkpt>
      <trkpt lat="47.24979" lon="-2.30058">
        <ele>70.800003051758</ele>
        <time>2020-12-13T09:26:35.000Z</time>
      </trkpt>
      <trkpt lat="47.24949" lon="-2.30057">
        <ele>70.800003051758</ele>
        <time>2020-12-13T09:26:43.000Z</time>
      </trkpt>
      <trkpt lat="47.24925" lon="-2.30057">
        <ele>70.800003051758</ele>
        <time>2020-12-13T09:26:51.000Z</time>
      </trkpt>
      <trkpt lat="47.24905" lon="-2.30055">
        <ele>70.800003051758</ele>
        <time>2020-12-13T09:26:58.000Z</time>
      </trkpt>
      <trkpt lat="47.24904" lon="-2.30052">
        <ele>70.800003051758</ele>
        <time>2020-12-13T09:26:59.000Z</time>
      </trkpt>
      <trkpt lat="47.24903" lon="-2.30045">
        <ele>70.800003051758</ele>
        <time>2020-12-13T09:27:01.000Z</time>
      </trkpt>
      <trkpt lat="47.24904" lon="-2.3003">
        <ele>71.199996948242</ele>
        <time>2020-12-13T09:27:04.000Z</time>
      </trkpt>
      <trkpt lat="47.24903" lon="-2.30024">
        <ele>71.599998474121</ele>
        <time>2020-12-13T09:27:05.000Z</time>
      </trkpt>
      <trkpt lat="47.24902" lon="-2.30018">
        <ele>72</ele>
        <time>2020-12-13T09:27:06.000Z</time>
      </trkpt>
      <trkpt lat="47.24901" lon="-2.30012">
        <ele>72.400001525879</ele>
        <time>2020-12-13T09:27:07.000Z</time>
      </trkpt>
      <trkpt lat="47.249" lon="-2.30006">
        <ele>72.800003051758</ele>
        <time>2020-12-13T09:27:08.000Z</time>
      </trkpt>
      <trkpt lat="47.24893" lon="-2.29983">
        <ele>72.800003051758</ele>
        <time>2020-12-13T09:27:12.000Z</time>
      </trkpt>
      <trkpt lat="47.24892" lon="-2.29977">
        <ele>72.800003051758</ele>
        <time>2020-12-13T09:27:13.000Z</time>
      </trkpt>
      <trkpt lat="47.24884" lon="-2.29946">
        <ele>72.800003051758</ele>
        <time>2020-12-13T09:27:18.000Z</time>
      </trkpt>
      <trkpt lat="47.24881" lon="-2.29932">
        <ele>72.800003051758</ele>
        <time>2020-12-13T09:27:20.000Z</time>
      </trkpt>
      <trkpt lat="47.24878" lon="-2.29911">
        <ele>72.800003051758</ele>
        <time>2020-12-13T09:27:23.000Z</time>
      </trkpt>
      <trkpt lat="47.24877" lon="-2.29896">
        <ele>72.800003051758</ele>
        <time>2020-12-13T09:27:25.000Z</time>
      </trkpt>
      <trkpt lat="47.24876" lon="-2.29882">
        <ele>72.800003051758</ele>
        <time>2020-12-13T09:27:27.000Z</time>
      </trkpt>
      <trkpt lat="47.24874" lon="-2.29868">
        <ele>72.800003051758</ele>
        <time>2020-12-13T09:27:29.000Z</time>
      </trkpt>
      <trkpt lat="47.24869" lon="-2.29849">
        <ele>72.800003051758</ele>
        <time>2020-12-13T09:27:32.000Z</time>
      </trkpt>
      <trkpt lat="47.24867" lon="-2.29838">
        <ele>72.800003051758</ele>
        <time>2020-12-13T09:27:34.000Z</time>
      </trkpt>
      <trkpt lat="47.24865" lon="-2.29833">
        <ele>72.800003051758</ele>
        <time>2020-12-13T09:27:35.000Z</time>
      </trkpt>
      <trkpt lat="47.24859" lon="-2.29829">
        <ele>72.800003051758</ele>
        <time>2020-12-13T09:27:37.000Z</time>
      </trkpt>
      <trkpt lat="47.2485" lon="-2.29836">
        <ele>72.800003051758</ele>
        <time>2020-12-13T09:27:40.000Z</time>
      </trkpt>
      <trkpt lat="47.24831" lon="-2.29844">
        <ele>72.800003051758</ele>
        <time>2020-12-13T09:27:45.000Z</time>
      </trkpt>
      <trkpt lat="47.24802" lon="-2.29854">
        <ele>72.800003051758</ele>
        <time>2020-12-13T09:27:51.000Z</time>
      </trkpt>
      <trkpt lat="47.24783" lon="-2.29866">
        <ele>72.800003051758</ele>
        <time>2020-12-13T09:27:55.000Z</time>
      </trkpt>
      <trkpt lat="47.24773" lon="-2.29873">
        <ele>72.800003051758</ele>
        <time>2020-12-13T09:27:57.000Z</time>
      </trkpt>
      <trkpt lat="47.24751" lon="-2.29891">
        <ele>72.800003051758</ele>
        <time>2020-12-13T09:28:02.000Z</time>
      </trkpt>
      <trkpt lat="47.24748" lon="-2.29897">
        <ele>72.800003051758</ele>
        <time>2020-12-13T09:28:03.000Z</time>
      </trkpt>
      <trkpt lat="47.24746" lon="-2.29917">
        <ele>72.800003051758</ele>
        <time>2020-12-13T09:28:06.000Z</time>
      </trkpt>
      <trkpt lat="47.24743" lon="-2.2997">
        <ele>72.800003051758</ele>
        <time>2020-12-13T09:28:13.000Z</time>
      </trkpt>
      <trkpt lat="47.24737" lon="-2.29993">
        <ele>72.800003051758</ele>
        <time>2020-12-13T09:28:16.000Z</time>
      </trkpt>
      <trkpt lat="47.24734" lon="-2.29999">
        <ele>72.800003051758</ele>
        <time>2020-12-13T09:28:17.000Z</time>
      </trkpt>
      <trkpt lat="47.24714" lon="-2.30027">
        <ele>72.800003051758</ele>
        <time>2020-12-13T09:28:22.000Z</time>
      </trkpt>
      <trkpt lat="47.24689" lon="-2.30052">
        <ele>72.800003051758</ele>
        <time>2020-12-13T09:28:28.000Z</time>
      </trkpt>
      <trkpt lat="47.24685" lon="-2.30055">
        <ele>72.800003051758</ele>
        <time>2020-12-13T09:28:29.000Z</time>
      </trkpt>
      <trkpt lat="47.24662" lon="-2.30071">
        <ele>72.800003051758</ele>
        <time>2020-12-13T09:28:34.000Z</time>
      </trkpt>
      <trkpt lat="47.24654" lon="-2.30078">
        <ele>72.800003051758</ele>
        <time>2020-12-13T09:28:36.000Z</time>
      </trkpt>
      <trkpt lat="47.24646" lon="-2.30085">
        <ele>73.199996948242</ele>
        <time>2020-12-13T09:28:39.000Z</time>
      </trkpt>
      <trkpt lat="47.24643" lon="-2.30088">
        <ele>73.599998474121</ele>
        <time>2020-12-13T09:28:40.000Z</time>
      </trkpt>
      <trkpt lat="47.2464" lon="-2.30092">
        <ele>74</ele>
        <time>2020-12-13T09:28:41.000Z</time>
      </trkpt>
      <trkpt lat="47.24636" lon="-2.30096">
        <ele>74.400001525879</ele>
        <time>2020-12-13T09:28:42.000Z</time>
      </trkpt>
      <trkpt lat="47.24632" lon="-2.301">
        <ele>75</ele>
        <time>2020-12-13T09:28:43.000Z</time>
      </trkpt>
      <trkpt lat="47.24628" lon="-2.30103">
        <ele>75</ele>
        <time>2020-12-13T09:28:44.000Z</time>
      </trkpt>
      <trkpt lat="47.24593" lon="-2.3014">
        <ele>75</ele>
        <time>2020-12-13T09:28:52.000Z</time>
      </trkpt>
      <trkpt lat="47.24566" lon="-2.30182">
        <ele>75</ele>
        <time>2020-12-13T09:28:59.000Z</time>
      </trkpt>
      <trkpt lat="47.24531" lon="-2.30224">
        <ele>75</ele>
        <time>2020-12-13T09:29:08.000Z</time>
      </trkpt>
      <trkpt lat="47.24489" lon="-2.30258">
        <ele>75</ele>
        <time>2020-12-13T09:29:16.000Z</time>
      </trkpt>
      <trkpt lat="47.24485" lon="-2.30263">
        <ele>75</ele>
        <time>2020-12-13T09:29:17.000Z</time>
      </trkpt>
      <trkpt lat="47.24473" lon="-2.30284">
        <ele>75</ele>
        <time>2020-12-13T09:29:20.000Z</time>
      </trkpt>
      <trkpt lat="47.24466" lon="-2.30323">
        <ele>75</ele>
        <time>2020-12-13T09:29:24.000Z</time>
      </trkpt>
      <trkpt lat="47.24465" lon="-2.30332">
        <ele>75</ele>
        <time>2020-12-13T09:29:25.000Z</time>
      </trkpt>
      <trkpt lat="47.24462" lon="-2.30408">
        <ele>75</ele>
        <time>2020-12-13T09:29:32.000Z</time>
      </trkpt>
      <trkpt lat="47.24463" lon="-2.30453">
        <ele>75</ele>
        <time>2020-12-13T09:29:36.000Z</time>
      </trkpt>
      <trkpt lat="47.24467" lon="-2.30464">
        <ele>75</ele>
        <time>2020-12-13T09:29:37.000Z</time>
      </trkpt>
      <trkpt lat="47.24478" lon="-2.30494">
        <ele>75</ele>
        <time>2020-12-13T09:29:40.000Z</time>
      </trkpt>
      <trkpt lat="47.24479" lon="-2.30505">
        <ele>75</ele>
        <time>2020-12-13T09:29:41.000Z</time>
      </trkpt>
      <trkpt lat="47.24476" lon="-2.30532">
        <ele>75</ele>
        <time>2020-12-13T09:29:44.000Z</time>
      </trkpt>
      <trkpt lat="47.24464" lon="-2.30547">
        <ele>75</ele>
        <time>2020-12-13T09:29:47.000Z</time>
      </trkpt>
      <trkpt lat="47.24455" lon="-2.30556">
        <ele>75</ele>
        <time>2020-12-13T09:29:49.000Z</time>
      </trkpt>
      <trkpt lat="47.2444" lon="-2.30569">
        <ele>75</ele>
        <time>2020-12-13T09:29:52.000Z</time>
      </trkpt>
      <trkpt lat="47.24434" lon="-2.30572">
        <ele>75</ele>
        <time>2020-12-13T09:29:53.000Z</time>
      </trkpt>
      <trkpt lat="47.24406" lon="-2.30586">
        <ele>75</ele>
        <time>2020-12-13T09:29:58.000Z</time>
      </trkpt>
      <trkpt lat="47.24401" lon="-2.30586">
        <ele>75</ele>
        <time>2020-12-13T09:29:59.000Z</time>
      </trkpt>
      <trkpt lat="47.24383" lon="-2.30577">
        <ele>75</ele>
        <time>2020-12-13T09:30:03.000Z</time>
      </trkpt>
      <trkpt lat="47.2437" lon="-2.30566">
        <ele>75</ele>
        <time>2020-12-13T09:30:06.000Z</time>
      </trkpt>
      <trkpt lat="47.24367" lon="-2.30554">
        <ele>75</ele>
        <time>2020-12-13T09:30:08.000Z</time>
      </trkpt>
      <trkpt lat="47.24365" lon="-2.3052">
        <ele>75</ele>
        <time>2020-12-13T09:30:14.000Z</time>
      </trkpt>
      <trkpt lat="47.24372" lon="-2.30492">
        <ele>75</ele>
        <time>2020-12-13T09:30:20.000Z</time>
      </trkpt>
      <trkpt lat="47.24378" lon="-2.30467">
        <ele>75</ele>
        <time>2020-12-13T09:30:26.000Z</time>
      </trkpt>
      <trkpt lat="47.24379" lon="-2.30451">
        <ele>75</ele>
        <time>2020-12-13T09:30:32.000Z</time>
      </trkpt>
      <trkpt lat="47.24378" lon="-2.3045">
        <ele>75</ele>
        <time>2020-12-13T09:30:33.000Z</time>
      </trkpt>
      <trkpt lat="47.24371" lon="-2.3045">
        <ele>75</ele>
        <time>2020-12-13T09:30:36.000Z</time>
      </trkpt>
      <trkpt lat="47.24354" lon="-2.30449">
        <ele>75</ele>
        <time>2020-12-13T09:30:42.000Z</time>
      </trkpt>
      <trkpt lat="47.24335" lon="-2.30438">
        <ele>75</ele>
        <time>2020-12-13T09:30:48.000Z</time>
      </trkpt>
      <trkpt lat="47.2432" lon="-2.3043">
        <ele>75</ele>
        <time>2020-12-13T09:30:53.000Z</time>
      </trkpt>
      <trkpt lat="47.24303" lon="-2.30416">
        <ele>75</ele>
        <time>2020-12-13T09:30:59.000Z</time>
      </trkpt>
      <trkpt lat="47.24287" lon="-2.30407">
        <ele>75</ele>
        <time>2020-12-13T09:31:04.000Z</time>
      </trkpt>
      <trkpt lat="47.24271" lon="-2.30383">
        <ele>75</ele>
        <time>2020-12-13T09:31:09.000Z</time>
      </trkpt>
      <trkpt lat="47.24258" lon="-2.30363">
        <ele>75</ele>
        <time>2020-12-13T09:31:13.000Z</time>
      </trkpt>
      <trkpt lat="47.24244" lon="-2.30338">
        <ele>75</ele>
        <time>2020-12-13T09:31:19.000Z</time>
      </trkpt>
      <trkpt lat="47.24229" lon="-2.30325">
        <ele>75</ele>
        <time>2020-12-13T09:31:24.000Z</time>
      </trkpt>
      <trkpt lat="47.24211" lon="-2.3033">
        <ele>75</ele>
        <time>2020-12-13T09:31:28.000Z</time>
      </trkpt>
      <trkpt lat="47.24201" lon="-2.30323">
        <ele>75</ele>
        <time>2020-12-13T09:31:31.000Z</time>
      </trkpt>
      <trkpt lat="47.24196" lon="-2.303">
        <ele>75</ele>
        <time>2020-12-13T09:31:34.000Z</time>
      </trkpt>
      <trkpt lat="47.24195" lon="-2.30292">
        <ele>75</ele>
        <time>2020-12-13T09:31:35.000Z</time>
      </trkpt>
      <trkpt lat="47.2419" lon="-2.30252">
        <ele>75</ele>
        <time>2020-12-13T09:31:40.000Z</time>
      </trkpt>
      <trkpt lat="47.24186" lon="-2.30239">
        <ele>75</ele>
        <time>2020-12-13T09:31:43.000Z</time>
      </trkpt>
      <trkpt lat="47.24183" lon="-2.30239">
        <ele>75</ele>
        <time>2020-12-13T09:31:44.000Z</time>
      </trkpt>
      <trkpt lat="47.2417" lon="-2.30244">
        <ele>75</ele>
        <time>2020-12-13T09:31:48.000Z</time>
      </trkpt>
      <trkpt lat="47.24167" lon="-2.30241">
        <ele>75</ele>
        <time>2020-12-13T09:31:49.000Z</time>
      </trkpt>
      <trkpt lat="47.24163" lon="-2.30235">
        <ele>75</ele>
        <time>2020-12-13T09:31:51.000Z</time>
      </trkpt>
      <trkpt lat="47.24152" lon="-2.30213">
        <ele>75</ele>
        <time>2020-12-13T09:31:57.000Z</time>
      </trkpt>
      <trkpt lat="47.24146" lon="-2.3019">
        <ele>75</ele>
        <time>2020-12-13T09:32:03.000Z</time>
      </trkpt>
      <trkpt lat="47.24137" lon="-2.30165">
        <ele>75</ele>
        <time>2020-12-13T09:32:11.000Z</time>
      </trkpt>
      <trkpt lat="47.24136" lon="-2.30165">
        <ele>74</ele>
        <time>2020-12-13T09:32:12.000Z</time>
      </trkpt>
      <trkpt lat="47.24136" lon="-2.30164">
        <ele>73</ele>
        <time>2020-12-13T09:32:13.000Z</time>
      </trkpt>
      <trkpt lat="47.24135" lon="-2.30163">
        <ele>72.199996948242</ele>
        <time>2020-12-13T09:32:14.000Z</time>
      </trkpt>
      <trkpt lat="47.24135" lon="-2.30162">
        <ele>72.599998474121</ele>
        <time>2020-12-13T09:32:15.000Z</time>
      </trkpt>
      <trkpt lat="47.24134" lon="-2.30162">
        <ele>72</ele>
        <time>2020-12-13T09:32:16.000Z</time>
      </trkpt>
      <trkpt lat="47.24134" lon="-2.30162">
        <ele>71.400001525879</ele>
        <time>2020-12-13T09:32:17.000Z</time>
      </trkpt>
      <trkpt lat="47.24117" lon="-2.30169">
        <ele>73.199996948242</ele>
        <time>2020-12-13T09:33:22.000Z</time>
      </trkpt>
      <trkpt lat="47.24101" lon="-2.30166">
        <ele>73.199996948242</ele>
        <time>2020-12-13T09:33:28.000Z</time>
      </trkpt>
      <trkpt lat="47.24097" lon="-2.30166">
        <ele>73.199996948242</ele>
        <time>2020-12-13T09:33:29.000Z</time>
      </trkpt>
      <trkpt lat="47.24081" lon="-2.30171">
        <ele>73.199996948242</ele>
        <time>2020-12-13T09:33:34.000Z</time>
      </trkpt>
      <trkpt lat="47.24068" lon="-2.30177">
        <ele>73.199996948242</ele>
        <time>2020-12-13T09:33:39.000Z</time>
      </trkpt>
      <trkpt lat="47.24052" lon="-2.30185">
        <ele>73.199996948242</ele>
        <time>2020-12-13T09:33:44.000Z</time>
      </trkpt>
      <trkpt lat="47.24043" lon="-2.3019">
        <ele>73.199996948242</ele>
        <time>2020-12-13T09:33:47.000Z</time>
      </trkpt>
      <trkpt lat="47.24038" lon="-2.30188">
        <ele>73.199996948242</ele>
        <time>2020-12-13T09:33:49.000Z</time>
      </trkpt>
      <trkpt lat="47.2403" lon="-2.30177">
        <ele>73.199996948242</ele>
        <time>2020-12-13T09:33:53.000Z</time>
      </trkpt>
      <trkpt lat="47.24028" lon="-2.30175">
        <ele>73.599998474121</ele>
        <time>2020-12-13T09:33:54.000Z</time>
      </trkpt>
      <trkpt lat="47.24025" lon="-2.30173">
        <ele>74</ele>
        <time>2020-12-13T09:33:55.000Z</time>
      </trkpt>
      <trkpt lat="47.24022" lon="-2.30171">
        <ele>74.400001525879</ele>
        <time>2020-12-13T09:33:56.000Z</time>
      </trkpt>
      <trkpt lat="47.24019" lon="-2.30169">
        <ele>74.800003051758</ele>
        <time>2020-12-13T09:33:57.000Z</time>
      </trkpt>
      <trkpt lat="47.24015" lon="-2.30168">
        <ele>75.199996948242</ele>
        <time>2020-12-13T09:33:58.000Z</time>
      </trkpt>
      <trkpt lat="47.24008" lon="-2.30165">
        <ele>75.199996948242</ele>
        <time>2020-12-13T09:34:00.000Z</time>
      </trkpt>
      <trkpt lat="47.23984" lon="-2.30151">
        <ele>75.199996948242</ele>
        <time>2020-12-13T09:34:06.000Z</time>
      </trkpt>
      <trkpt lat="47.2398" lon="-2.30144">
        <ele>75.199996948242</ele>
        <time>2020-12-13T09:34:08.000Z</time>
      </trkpt>
      <trkpt lat="47.2398" lon="-2.3014">
        <ele>75.199996948242</ele>
        <time>2020-12-13T09:34:09.000Z</time>
      </trkpt>
      <trkpt lat="47.2398" lon="-2.30137">
        <ele>75.199996948242</ele>
        <time>2020-12-13T09:34:10.000Z</time>
      </trkpt>
      <trkpt lat="47.23982" lon="-2.30119">
        <ele>75.199996948242</ele>
        <time>2020-12-13T09:34:15.000Z</time>
      </trkpt>
      <trkpt lat="47.23982" lon="-2.30106">
        <ele>75.199996948242</ele>
        <time>2020-12-13T09:34:22.000Z</time>
      </trkpt>
      <trkpt lat="47.23986" lon="-2.30093">
        <ele>75.199996948242</ele>
        <time>2020-12-13T09:34:29.000Z</time>
      </trkpt>
      <trkpt lat="47.23988" lon="-2.30081">
        <ele>75.199996948242</ele>
        <time>2020-12-13T09:34:34.000Z</time>
      </trkpt>
      <trkpt lat="47.2399" lon="-2.30072">
        <ele>75.199996948242</ele>
        <time>2020-12-13T09:34:37.000Z</time>
      </trkpt>
      <trkpt lat="47.24002" lon="-2.30044">
        <ele>75.199996948242</ele>
        <time>2020-12-13T09:34:45.000Z</time>
      </trkpt>
      <trkpt lat="47.2401" lon="-2.30021">
        <ele>75.199996948242</ele>
        <time>2020-12-13T09:34:51.000Z</time>
      </trkpt>
      <trkpt lat="47.24023" lon="-2.30001">
        <ele>75.199996948242</ele>
        <time>2020-12-13T09:34:58.000Z</time>
      </trkpt>
      <trkpt lat="47.24034" lon="-2.29989">
        <ele>75.199996948242</ele>
        <time>2020-12-13T09:35:04.000Z</time>
      </trkpt>
      <trkpt lat="47.24037" lon="-2.29996">
        <ele>75.199996948242</ele>
        <time>2020-12-13T09:35:08.000Z</time>
      </trkpt>
      <trkpt lat="47.2404" lon="-2.30013">
        <ele>75.199996948242</ele>
        <time>2020-12-13T09:35:13.000Z</time>
      </trkpt>
      <trkpt lat="47.24044" lon="-2.30021">
        <ele>75.199996948242</ele>
        <time>2020-12-13T09:35:16.000Z</time>
      </trkpt>
      <trkpt lat="47.24049" lon="-2.30024">
        <ele>75.199996948242</ele>
        <time>2020-12-13T09:35:18.000Z</time>
      </trkpt>
      <trkpt lat="47.2406" lon="-2.30032">
        <ele>75.199996948242</ele>
        <time>2020-12-13T09:35:22.000Z</time>
      </trkpt>
      <trkpt lat="47.24066" lon="-2.30033">
        <ele>75.199996948242</ele>
        <time>2020-12-13T09:35:24.000Z</time>
      </trkpt>
      <trkpt lat="47.24081" lon="-2.30027">
        <ele>75.199996948242</ele>
        <time>2020-12-13T09:35:29.000Z</time>
      </trkpt>
      <trkpt lat="47.24101" lon="-2.30024">
        <ele>75.199996948242</ele>
        <time>2020-12-13T09:35:35.000Z</time>
      </trkpt>
      <trkpt lat="47.24116" lon="-2.30031">
        <ele>75.199996948242</ele>
        <time>2020-12-13T09:35:40.000Z</time>
      </trkpt>
      <trkpt lat="47.2413" lon="-2.30052">
        <ele>75.199996948242</ele>
        <time>2020-12-13T09:35:46.000Z</time>
      </trkpt>
      <trkpt lat="47.24135" lon="-2.3006">
        <ele>75.199996948242</ele>
        <time>2020-12-13T09:35:48.000Z</time>
      </trkpt>
      <trkpt lat="47.2414" lon="-2.30066">
        <ele>75.199996948242</ele>
        <time>2020-12-13T09:35:50.000Z</time>
      </trkpt>
      <trkpt lat="47.24156" lon="-2.30086">
        <ele>75.199996948242</ele>
        <time>2020-12-13T09:35:56.000Z</time>
      </trkpt>
      <trkpt lat="47.24164" lon="-2.30094">
        <ele>75.199996948242</ele>
        <time>2020-12-13T09:36:01.000Z</time>
      </trkpt>
      <trkpt lat="47.24165" lon="-2.30095">
        <ele>75.199996948242</ele>
        <time>2020-12-13T09:36:02.000Z</time>
      </trkpt>
      <trkpt lat="47.24172" lon="-2.30042">
        <ele>75.199996948242</ele>
        <time>2020-12-13T09:37:29.000Z</time>
      </trkpt>
      <trkpt lat="47.24176" lon="-2.30039">
        <ele>75.199996948242</ele>
        <time>2020-12-13T09:37:31.000Z</time>
      </trkpt>
      <trkpt lat="47.24178" lon="-2.30036">
        <ele>75.199996948242</ele>
        <time>2020-12-13T09:37:32.000Z</time>
      </trkpt>
      <trkpt lat="47.24179" lon="-2.3003">
        <ele>75.199996948242</ele>
        <time>2020-12-13T09:37:34.000Z</time>
      </trkpt>
      <trkpt lat="47.24178" lon="-2.30022">
        <ele>75.199996948242</ele>
        <time>2020-12-13T09:37:37.000Z</time>
      </trkpt>
      <trkpt lat="47.24176" lon="-2.30011">
        <ele>75.199996948242</ele>
        <time>2020-12-13T09:37:43.000Z</time>
      </trkpt>
      <trkpt lat="47.24169" lon="-2.29996">
        <ele>75.199996948242</ele>
        <time>2020-12-13T09:37:49.000Z</time>
      </trkpt>
      <trkpt lat="47.24162" lon="-2.29974">
        <ele>75.199996948242</ele>
        <time>2020-12-13T09:37:56.000Z</time>
      </trkpt>
      <trkpt lat="47.24163" lon="-2.2994">
        <ele>75.199996948242</ele>
        <time>2020-12-13T09:38:03.000Z</time>
      </trkpt>
      <trkpt lat="47.24165" lon="-2.29932">
        <ele>75.199996948242</ele>
        <time>2020-12-13T09:38:05.000Z</time>
      </trkpt>
      <trkpt lat="47.24172" lon="-2.29917">
        <ele>75.199996948242</ele>
        <time>2020-12-13T09:38:09.000Z</time>
      </trkpt>
      <trkpt lat="47.24176" lon="-2.29901">
        <ele>75.199996948242</ele>
        <time>2020-12-13T09:38:14.000Z</time>
      </trkpt>
      <trkpt lat="47.24177" lon="-2.29888">
        <ele>75.199996948242</ele>
        <time>2020-12-13T09:38:19.000Z</time>
      </trkpt>
      <trkpt lat="47.24177" lon="-2.29883">
        <ele>75.199996948242</ele>
        <time>2020-12-13T09:38:21.000Z</time>
      </trkpt>
      <trkpt lat="47.24176" lon="-2.29873">
        <ele>75.199996948242</ele>
        <time>2020-12-13T09:38:24.000Z</time>
      </trkpt>
      <trkpt lat="47.24176" lon="-2.29862">
        <ele>75.199996948242</ele>
        <time>2020-12-13T09:38:26.000Z</time>
      </trkpt>
      <trkpt lat="47.24175" lon="-2.29838">
        <ele>75.199996948242</ele>
        <time>2020-12-13T09:38:31.000Z</time>
      </trkpt>
      <trkpt lat="47.24173" lon="-2.29836">
        <ele>75.199996948242</ele>
        <time>2020-12-13T09:38:32.000Z</time>
      </trkpt>
      <trkpt lat="47.24167" lon="-2.29835">
        <ele>75.199996948242</ele>
        <time>2020-12-13T09:38:34.000Z</time>
      </trkpt>
      <trkpt lat="47.24159" lon="-2.29832">
        <ele>75.199996948242</ele>
        <time>2020-12-13T09:38:40.000Z</time>
      </trkpt>
      <trkpt lat="47.24155" lon="-2.29835">
        <ele>77.199996948242</ele>
        <time>2020-12-13T09:39:37.000Z</time>
      </trkpt>
      <trkpt lat="47.24149" lon="-2.29836">
        <ele>77.199996948242</ele>
        <time>2020-12-13T09:39:39.000Z</time>
      </trkpt>
      <trkpt lat="47.24129" lon="-2.29843">
        <ele>77.199996948242</ele>
        <time>2020-12-13T09:39:45.000Z</time>
      </trkpt>
      <trkpt lat="47.24106" lon="-2.29848">
        <ele>77.199996948242</ele>
        <time>2020-12-13T09:39:52.000Z</time>
      </trkpt>
      <trkpt lat="47.2409" lon="-2.29848">
        <ele>77.199996948242</ele>
        <time>2020-12-13T09:39:57.000Z</time>
      </trkpt>
      <trkpt lat="47.24075" lon="-2.29847">
        <ele>77.199996948242</ele>
        <time>2020-12-13T09:40:03.000Z</time>
      </trkpt>
      <trkpt lat="47.24061" lon="-2.29837">
        <ele>77.199996948242</ele>
        <time>2020-12-13T09:40:09.000Z</time>
      </trkpt>
      <trkpt lat="47.24049" lon="-2.29829">
        <ele>77.199996948242</ele>
        <time>2020-12-13T09:40:14.000Z</time>
      </trkpt>
      <trkpt lat="47.24034" lon="-2.2981">
        <ele>77.199996948242</ele>
        <time>2020-12-13T09:40:21.000Z</time>
      </trkpt>
      <trkpt lat="47.24031" lon="-2.29809">
        <ele>77.199996948242</ele>
        <time>2020-12-13T09:40:22.000Z</time>
      </trkpt>
      <trkpt lat="47.24023" lon="-2.29807">
        <ele>77.199996948242</ele>
        <time>2020-12-13T09:40:25.000Z</time>
      </trkpt>
      <trkpt lat="47.24017" lon="-2.29796">
        <ele>77.199996948242</ele>
        <time>2020-12-13T09:40:28.000Z</time>
      </trkpt>
      <trkpt lat="47.24015" lon="-2.29787">
        <ele>77.199996948242</ele>
        <time>2020-12-13T09:40:30.000Z</time>
      </trkpt>
      <trkpt lat="47.24014" lon="-2.29777">
        <ele>77.199996948242</ele>
        <time>2020-12-13T09:40:32.000Z</time>
      </trkpt>
      <trkpt lat="47.24012" lon="-2.29747">
        <ele>77.199996948242</ele>
        <time>2020-12-13T09:40:37.000Z</time>
      </trkpt>
      <trkpt lat="47.24009" lon="-2.29714">
        <ele>77.199996948242</ele>
        <time>2020-12-13T09:40:42.000Z</time>
      </trkpt>
      <trkpt lat="47.24009" lon="-2.29699">
        <ele>77.199996948242</ele>
        <time>2020-12-13T09:40:44.000Z</time>
      </trkpt>
      <trkpt lat="47.24006" lon="-2.29676">
        <ele>77.199996948242</ele>
        <time>2020-12-13T09:40:47.000Z</time>
      </trkpt>
      <trkpt lat="47.24002" lon="-2.2962">
        <ele>77.199996948242</ele>
        <time>2020-12-13T09:40:54.000Z</time>
      </trkpt>
      <trkpt lat="47.24" lon="-2.29561">
        <ele>77.199996948242</ele>
        <time>2020-12-13T09:41:01.000Z</time>
      </trkpt>
      <trkpt lat="47.23998" lon="-2.29548">
        <ele>77.199996948242</ele>
        <time>2020-12-13T09:41:03.000Z</time>
      </trkpt>
      <trkpt lat="47.23997" lon="-2.29524">
        <ele>77.199996948242</ele>
        <time>2020-12-13T09:41:06.000Z</time>
      </trkpt>
      <trkpt lat="47.23995" lon="-2.29497">
        <ele>77.199996948242</ele>
        <time>2020-12-13T09:41:10.000Z</time>
      </trkpt>
      <trkpt lat="47.23993" lon="-2.29491">
        <ele>77.199996948242</ele>
        <time>2020-12-13T09:41:11.000Z</time>
      </trkpt>
      <trkpt lat="47.23985" lon="-2.29475">
        <ele>78</ele>
        <time>2020-12-13T09:41:14.000Z</time>
      </trkpt>
      <trkpt lat="47.23982" lon="-2.2947">
        <ele>78.400001525879</ele>
        <time>2020-12-13T09:41:15.000Z</time>
      </trkpt>
      <trkpt lat="47.23979" lon="-2.29466">
        <ele>79</ele>
        <time>2020-12-13T09:41:16.000Z</time>
      </trkpt>
      <trkpt lat="47.23976" lon="-2.29461">
        <ele>79.400001525879</ele>
        <time>2020-12-13T09:41:17.000Z</time>
      </trkpt>
      <trkpt lat="47.23962" lon="-2.29435">
        <ele>79.400001525879</ele>
        <time>2020-12-13T09:41:22.000Z</time>
      </trkpt>
      <trkpt lat="47.23957" lon="-2.29425">
        <ele>79.400001525879</ele>
        <time>2020-12-13T09:41:24.000Z</time>
      </trkpt>
      <trkpt lat="47.23948" lon="-2.29408">
        <ele>79.400001525879</ele>
        <time>2020-12-13T09:41:27.000Z</time>
      </trkpt>
      <trkpt lat="47.23944" lon="-2.29403">
        <ele>79.400001525879</ele>
        <time>2020-12-13T09:41:28.000Z</time>
      </trkpt>
      <trkpt lat="47.23941" lon="-2.29397">
        <ele>79.400001525879</ele>
        <time>2020-12-13T09:41:29.000Z</time>
      </trkpt>
      <trkpt lat="47.23929" lon="-2.29374">
        <ele>79.400001525879</ele>
        <time>2020-12-13T09:41:33.000Z</time>
      </trkpt>
      <trkpt lat="47.23915" lon="-2.29345">
        <ele>79.400001525879</ele>
        <time>2020-12-13T09:41:39.000Z</time>
      </trkpt>
      <trkpt lat="47.23901" lon="-2.29333">
        <ele>79.400001525879</ele>
        <time>2020-12-13T09:41:44.000Z</time>
      </trkpt>
      <trkpt lat="47.2388" lon="-2.29334">
        <ele>79.400001525879</ele>
        <time>2020-12-13T09:41:50.000Z</time>
      </trkpt>
      <trkpt lat="47.23862" lon="-2.29344">
        <ele>79.400001525879</ele>
        <time>2020-12-13T09:41:55.000Z</time>
      </trkpt>
      <trkpt lat="47.23853" lon="-2.29363">
        <ele>79.400001525879</ele>
        <time>2020-12-13T09:41:59.000Z</time>
      </trkpt>
      <trkpt lat="47.23832" lon="-2.29407">
        <ele>79.400001525879</ele>
        <time>2020-12-13T09:42:07.000Z</time>
      </trkpt>
      <trkpt lat="47.2382" lon="-2.29437">
        <ele>79.400001525879</ele>
        <time>2020-12-13T09:42:14.000Z</time>
      </trkpt>
      <trkpt lat="47.2382" lon="-2.2946">
        <ele>79.400001525879</ele>
        <time>2020-12-13T09:42:19.000Z</time>
      </trkpt>
      <trkpt lat="47.23821" lon="-2.29485">
        <ele>79.400001525879</ele>
        <time>2020-12-13T09:42:24.000Z</time>
      </trkpt>
      <trkpt lat="47.23821" lon="-2.29519">
        <ele>79.400001525879</ele>
        <time>2020-12-13T09:42:30.000Z</time>
      </trkpt>
      <trkpt lat="47.23819" lon="-2.29545">
        <ele>79.400001525879</ele>
        <time>2020-12-13T09:42:36.000Z</time>
      </trkpt>
      <trkpt lat="47.23818" lon="-2.29572">
        <ele>79.400001525879</ele>
        <time>2020-12-13T09:42:41.000Z</time>
      </trkpt>
      <trkpt lat="47.23817" lon="-2.29606">
        <ele>79.400001525879</ele>
        <time>2020-12-13T09:42:47.000Z</time>
      </trkpt>
      <trkpt lat="47.23816" lon="-2.29649">
        <ele>79.400001525879</ele>
        <time>2020-12-13T09:42:54.000Z</time>
      </trkpt>
      <trkpt lat="47.23814" lon="-2.29679">
        <ele>79.400001525879</ele>
        <time>2020-12-13T09:43:00.000Z</time>
      </trkpt>
      <trkpt lat="47.23804" lon="-2.29689">
        <ele>79.400001525879</ele>
        <time>2020-12-13T09:43:04.000Z</time>
      </trkpt>
      <trkpt lat="47.23782" lon="-2.29694">
        <ele>79.400001525879</ele>
        <time>2020-12-13T09:43:09.000Z</time>
      </trkpt>
      <trkpt lat="47.23751" lon="-2.297">
        <ele>79.400001525879</ele>
        <time>2020-12-13T09:43:15.000Z</time>
      </trkpt>
      <trkpt lat="47.23733" lon="-2.29703">
        <ele>79.400001525879</ele>
        <time>2020-12-13T09:43:18.000Z</time>
      </trkpt>
      <trkpt lat="47.23715" lon="-2.29706">
        <ele>79.400001525879</ele>
        <time>2020-12-13T09:43:21.000Z</time>
      </trkpt>
      <trkpt lat="47.23674" lon="-2.29715">
        <ele>79.400001525879</ele>
        <time>2020-12-13T09:43:27.000Z</time>
      </trkpt>
      <trkpt lat="47.23653" lon="-2.29721">
        <ele>79.400001525879</ele>
        <time>2020-12-13T09:43:30.000Z</time>
      </trkpt>
      <trkpt lat="47.23645" lon="-2.29736">
        <ele>79.400001525879</ele>
        <time>2020-12-13T09:43:32.000Z</time>
      </trkpt>
      <trkpt lat="47.23646" lon="-2.29762">
        <ele>79.400001525879</ele>
        <time>2020-12-13T09:43:35.000Z</time>
      </trkpt>
      <trkpt lat="47.23649" lon="-2.29779">
        <ele>79.400001525879</ele>
        <time>2020-12-13T09:43:37.000Z</time>
      </trkpt>
      <trkpt lat="47.23657" lon="-2.29804">
        <ele>79.400001525879</ele>
        <time>2020-12-13T09:43:40.000Z</time>
      </trkpt>
      <trkpt lat="47.23672" lon="-2.29843">
        <ele>79.400001525879</ele>
        <time>2020-12-13T09:43:46.000Z</time>
      </trkpt>
      <trkpt lat="47.23695" lon="-2.29887">
        <ele>79.400001525879</ele>
        <time>2020-12-13T09:43:54.000Z</time>
      </trkpt>
      <trkpt lat="47.23706" lon="-2.29908">
        <ele>79.400001525879</ele>
        <time>2020-12-13T09:43:58.000Z</time>
      </trkpt>
      <trkpt lat="47.23708" lon="-2.29914">
        <ele>79.400001525879</ele>
        <time>2020-12-13T09:43:59.000Z</time>
      </trkpt>
      <trkpt lat="47.23709" lon="-2.29941">
        <ele>79.400001525879</ele>
        <time>2020-12-13T09:44:03.000Z</time>
      </trkpt>
      <trkpt lat="47.23702" lon="-2.2997">
        <ele>79.400001525879</ele>
        <time>2020-12-13T09:44:07.000Z</time>
      </trkpt>
      <trkpt lat="47.23686" lon="-2.29989">
        <ele>79.400001525879</ele>
        <time>2020-12-13T09:44:11.000Z</time>
      </trkpt>
      <trkpt lat="47.23667" lon="-2.29989">
        <ele>79.400001525879</ele>
        <time>2020-12-13T09:44:16.000Z</time>
      </trkpt>
      <trkpt lat="47.23662" lon="-2.29977">
        <ele>79.400001525879</ele>
        <time>2020-12-13T09:44:19.000Z</time>
      </trkpt>
      <trkpt lat="47.23658" lon="-2.29968">
        <ele>79.400001525879</ele>
        <time>2020-12-13T09:44:21.000Z</time>
      </trkpt>
      <trkpt lat="47.23651" lon="-2.29946">
        <ele>79.400001525879</ele>
        <time>2020-12-13T09:44:25.000Z</time>
      </trkpt>
      <trkpt lat="47.23635" lon="-2.29908">
        <ele>79.400001525879</ele>
        <time>2020-12-13T09:44:31.000Z</time>
      </trkpt>
      <trkpt lat="47.23621" lon="-2.29869">
        <ele>79.400001525879</ele>
        <time>2020-12-13T09:44:38.000Z</time>
      </trkpt>
      <trkpt lat="47.23608" lon="-2.29837">
        <ele>79.400001525879</ele>
        <time>2020-12-13T09:44:44.000Z</time>
      </trkpt>
      <trkpt lat="47.23606" lon="-2.29832">
        <ele>79.400001525879</ele>
        <time>2020-12-13T09:44:45.000Z</time>
      </trkpt>
      <trkpt lat="47.236" lon="-2.29805">
        <ele>79.400001525879</ele>
        <time>2020-12-13T09:44:49.000Z</time>
      </trkpt>
      <trkpt lat="47.23587" lon="-2.29796">
        <ele>79.400001525879</ele>
        <time>2020-12-13T09:44:52.000Z</time>
      </trkpt>
      <trkpt lat="47.23573" lon="-2.29803">
        <ele>79.400001525879</ele>
        <time>2020-12-13T09:44:55.000Z</time>
      </trkpt>
      <trkpt lat="47.23569" lon="-2.29805">
        <ele>79.400001525879</ele>
        <time>2020-12-13T09:44:56.000Z</time>
      </trkpt>
      <trkpt lat="47.23543" lon="-2.29813">
        <ele>79.400001525879</ele>
        <time>2020-12-13T09:45:02.000Z</time>
      </trkpt>
      <trkpt lat="47.23513" lon="-2.29824">
        <ele>79.400001525879</ele>
        <time>2020-12-13T09:45:09.000Z</time>
      </trkpt>
      <trkpt lat="47.23488" lon="-2.29837">
        <ele>79.400001525879</ele>
        <time>2020-12-13T09:45:16.000Z</time>
      </trkpt>
      <trkpt lat="47.23479" lon="-2.29846">
        <ele>79.400001525879</ele>
        <time>2020-12-13T09:45:21.000Z</time>
      </trkpt>
      <trkpt lat="47.23474" lon="-2.29843">
        <ele>79.400001525879</ele>
        <time>2020-12-13T09:45:26.000Z</time>
      </trkpt>
      <trkpt lat="47.23473" lon="-2.2984">
        <ele>79.400001525879</ele>
        <time>2020-12-13T09:45:27.000Z</time>
      </trkpt>
      <trkpt lat="47.23471" lon="-2.29821">
        <ele>79.400001525879</ele>
        <time>2020-12-13T09:45:31.000Z</time>
      </trkpt>
      <trkpt lat="47.23473" lon="-2.29799">
        <ele>79.400001525879</ele>
        <time>2020-12-13T09:45:36.000Z</time>
      </trkpt>
      <trkpt lat="47.23483" lon="-2.29781">
        <ele>79.400001525879</ele>
        <time>2020-12-13T09:45:43.000Z</time>
      </trkpt>
      <trkpt lat="47.23488" lon="-2.29753">
        <ele>79.400001525879</ele>
        <time>2020-12-13T09:45:49.000Z</time>
      </trkpt>
      <trkpt lat="47.23491" lon="-2.29746">
        <ele>79.400001525879</ele>
        <time>2020-12-13T09:45:50.000Z</time>
      </trkpt>
      <trkpt lat="47.23498" lon="-2.29734">
        <ele>79.400001525879</ele>
        <time>2020-12-13T09:45:52.000Z</time>
      </trkpt>
      <trkpt lat="47.23507" lon="-2.29715">
        <ele>79.400001525879</ele>
        <time>2020-12-13T09:45:55.000Z</time>
      </trkpt>
      <trkpt lat="47.23511" lon="-2.29693">
        <ele>79.400001525879</ele>
        <time>2020-12-13T09:45:58.000Z</time>
      </trkpt>
      <trkpt lat="47.2351" lon="-2.29665">
        <ele>79.400001525879</ele>
        <time>2020-12-13T09:46:02.000Z</time>
      </trkpt>
      <trkpt lat="47.23509" lon="-2.2966">
        <ele>79.400001525879</ele>
        <time>2020-12-13T09:46:03.000Z</time>
      </trkpt>
      <trkpt lat="47.235" lon="-2.29628">
        <ele>79.400001525879</ele>
        <time>2020-12-13T09:46:09.000Z</time>
      </trkpt>
      <trkpt lat="47.235" lon="-2.29621">
        <ele>79.400001525879</ele>
        <time>2020-12-13T09:46:10.000Z</time>
      </trkpt>
      <trkpt lat="47.23502" lon="-2.29608">
        <ele>79.400001525879</ele>
        <time>2020-12-13T09:46:12.000Z</time>
      </trkpt>
      <trkpt lat="47.23514" lon="-2.29589">
        <ele>79.400001525879</ele>
        <time>2020-12-13T09:46:16.000Z</time>
      </trkpt>
      <trkpt lat="47.23534" lon="-2.2958">
        <ele>79.400001525879</ele>
        <time>2020-12-13T09:46:21.000Z</time>
      </trkpt>
      <trkpt lat="47.23546" lon="-2.29586">
        <ele>79.400001525879</ele>
        <time>2020-12-13T09:46:25.000Z</time>
      </trkpt>
      <trkpt lat="47.23548" lon="-2.29587">
        <ele>79.400001525879</ele>
        <time>2020-12-13T09:46:26.000Z</time>
      </trkpt>
      <trkpt lat="47.23556" lon="-2.29592">
        <ele>79.400001525879</ele>
        <time>2020-12-13T09:46:31.000Z</time>
      </trkpt>
      <trkpt lat="47.2357" lon="-2.29593">
        <ele>79.400001525879</ele>
        <time>2020-12-13T09:46:37.000Z</time>
      </trkpt>
      <trkpt lat="47.2358" lon="-2.2959">
        <ele>79.800003051758</ele>
        <time>2020-12-13T09:46:43.000Z</time>
      </trkpt>
      <trkpt lat="47.23582" lon="-2.29587">
        <ele>80.199996948242</ele>
        <time>2020-12-13T09:46:44.000Z</time>
      </trkpt>
      <trkpt lat="47.23583" lon="-2.29583">
        <ele>80.599998474121</ele>
        <time>2020-12-13T09:46:45.000Z</time>
      </trkpt>
      <trkpt lat="47.23583" lon="-2.29578">
        <ele>81</ele>
        <time>2020-12-13T09:46:46.000Z</time>
      </trkpt>
      <trkpt lat="47.23583" lon="-2.29573">
        <ele>81.400001525879</ele>
        <time>2020-12-13T09:46:47.000Z</time>
      </trkpt>
      <trkpt lat="47.23584" lon="-2.29568">
        <ele>81.400001525879</ele>
        <time>2020-12-13T09:46:48.000Z</time>
      </trkpt>
      <trkpt lat="47.23586" lon="-2.29527">
        <ele>81.400001525879</ele>
        <time>2020-12-13T09:46:54.000Z</time>
      </trkpt>
      <trkpt lat="47.23587" lon="-2.29481">
        <ele>81.400001525879</ele>
        <time>2020-12-13T09:47:01.000Z</time>
      </trkpt>
      <trkpt lat="47.23588" lon="-2.29475">
        <ele>81.400001525879</ele>
        <time>2020-12-13T09:47:02.000Z</time>
      </trkpt>
      <trkpt lat="47.2359" lon="-2.29437">
        <ele>81.400001525879</ele>
        <time>2020-12-13T09:47:08.000Z</time>
      </trkpt>
      <trkpt lat="47.23593" lon="-2.29388">
        <ele>81.400001525879</ele>
        <time>2020-12-13T09:47:15.000Z</time>
      </trkpt>
      <trkpt lat="47.23593" lon="-2.29382">
        <ele>81.400001525879</ele>
        <time>2020-12-13T09:47:16.000Z</time>
      </trkpt>
      <trkpt lat="47.23591" lon="-2.29346">
        <ele>81.400001525879</ele>
        <time>2020-12-13T09:47:21.000Z</time>
      </trkpt>
      <trkpt lat="47.23591" lon="-2.29297">
        <ele>81.400001525879</ele>
        <time>2020-12-13T09:47:26.000Z</time>
      </trkpt>
      <trkpt lat="47.23589" lon="-2.29248">
        <ele>81.400001525879</ele>
        <time>2020-12-13T09:47:31.000Z</time>
      </trkpt>
      <trkpt lat="47.23591" lon="-2.29234">
        <ele>81.400001525879</ele>
        <time>2020-12-13T09:47:33.000Z</time>
      </trkpt>
      <trkpt lat="47.23596" lon="-2.29216">
        <ele>81.400001525879</ele>
        <time>2020-12-13T09:47:36.000Z</time>
      </trkpt>
      <trkpt lat="47.23606" lon="-2.29205">
        <ele>81.400001525879</ele>
        <time>2020-12-13T09:47:39.000Z</time>
      </trkpt>
      <trkpt lat="47.23612" lon="-2.29203">
        <ele>81.400001525879</ele>
        <time>2020-12-13T09:47:40.000Z</time>
      </trkpt>
      <trkpt lat="47.23634" lon="-2.29199">
        <ele>81.400001525879</ele>
        <time>2020-12-13T09:47:44.000Z</time>
      </trkpt>
      <trkpt lat="47.23638" lon="-2.29198">
        <ele>81.400001525879</ele>
        <time>2020-12-13T09:47:45.000Z</time>
      </trkpt>
      <trkpt lat="47.23664" lon="-2.29194">
        <ele>81.400001525879</ele>
        <time>2020-12-13T09:47:52.000Z</time>
      </trkpt>
      <trkpt lat="47.23683" lon="-2.29186">
        <ele>81.400001525879</ele>
        <time>2020-12-13T09:47:56.000Z</time>
      </trkpt>
      <trkpt lat="47.23693" lon="-2.29182">
        <ele>81.400001525879</ele>
        <time>2020-12-13T09:47:58.000Z</time>
      </trkpt>
      <trkpt lat="47.23717" lon="-2.29174">
        <ele>81.400001525879</ele>
        <time>2020-12-13T09:48:03.000Z</time>
      </trkpt>
      <trkpt lat="47.2373" lon="-2.29169">
        <ele>81.400001525879</ele>
        <time>2020-12-13T09:48:06.000Z</time>
      </trkpt>
      <trkpt lat="47.2376" lon="-2.29153">
        <ele>81.400001525879</ele>
        <time>2020-12-13T09:48:14.000Z</time>
      </trkpt>
      <trkpt lat="47.23775" lon="-2.29146">
        <ele>81.400001525879</ele>
        <time>2020-12-13T09:48:20.000Z</time>
      </trkpt>
      <trkpt lat="47.23785" lon="-2.29124">
        <ele>81.400001525879</ele>
        <time>2020-12-13T09:48:25.000Z</time>
      </trkpt>
      <trkpt lat="47.23789" lon="-2.29115">
        <ele>81.400001525879</ele>
        <time>2020-12-13T09:48:26.000Z</time>
      </trkpt>
      <trkpt lat="47.23794" lon="-2.29095">
        <ele>81.400001525879</ele>
        <time>2020-12-13T09:48:29.000Z</time>
      </trkpt>
      <trkpt lat="47.23795" lon="-2.29087">
        <ele>81.400001525879</ele>
        <time>2020-12-13T09:48:30.000Z</time>
      </trkpt>
      <trkpt lat="47.23801" lon="-2.29035">
        <ele>81.400001525879</ele>
        <time>2020-12-13T09:48:36.000Z</time>
      </trkpt>
      <trkpt lat="47.2381" lon="-2.28957">
        <ele>81.400001525879</ele>
        <time>2020-12-13T09:48:44.000Z</time>
      </trkpt>
      <trkpt lat="47.23812" lon="-2.28947">
        <ele>81.400001525879</ele>
        <time>2020-12-13T09:48:45.000Z</time>
      </trkpt>
      <trkpt lat="47.23818" lon="-2.28921">
        <ele>81.400001525879</ele>
        <time>2020-12-13T09:48:49.000Z</time>
      </trkpt>
      <trkpt lat="47.23809" lon="-2.28911">
        <ele>81.400001525879</ele>
        <time>2020-12-13T09:48:52.000Z</time>
      </trkpt>
      <trkpt lat="47.23794" lon="-2.28911">
        <ele>81.400001525879</ele>
        <time>2020-12-13T09:48:55.000Z</time>
      </trkpt>
      <trkpt lat="47.23789" lon="-2.28911">
        <ele>81.400001525879</ele>
        <time>2020-12-13T09:48:56.000Z</time>
      </trkpt>
      <trkpt lat="47.23778" lon="-2.28909">
        <ele>81.400001525879</ele>
        <time>2020-12-13T09:48:59.000Z</time>
      </trkpt>
      <trkpt lat="47.23776" lon="-2.28907">
        <ele>81.400001525879</ele>
        <time>2020-12-13T09:49:00.000Z</time>
      </trkpt>
      <trkpt lat="47.23775" lon="-2.28899">
        <ele>81.400001525879</ele>
        <time>2020-12-13T09:49:02.000Z</time>
      </trkpt>
      <trkpt lat="47.23774" lon="-2.28869">
        <ele>81.400001525879</ele>
        <time>2020-12-13T09:49:07.000Z</time>
      </trkpt>
      <trkpt lat="47.23773" lon="-2.28862">
        <ele>81.400001525879</ele>
        <time>2020-12-13T09:49:08.000Z</time>
      </trkpt>
      <trkpt lat="47.23769" lon="-2.28826">
        <ele>81.400001525879</ele>
        <time>2020-12-13T09:49:13.000Z</time>
      </trkpt>
      <trkpt lat="47.2377" lon="-2.28811">
        <ele>81.400001525879</ele>
        <time>2020-12-13T09:49:15.000Z</time>
      </trkpt>
      <trkpt lat="47.2377" lon="-2.28797">
        <ele>81.400001525879</ele>
        <time>2020-12-13T09:49:17.000Z</time>
      </trkpt>
      <trkpt lat="47.23768" lon="-2.28776">
        <ele>81.400001525879</ele>
        <time>2020-12-13T09:49:20.000Z</time>
      </trkpt>
      <trkpt lat="47.23767" lon="-2.28755">
        <ele>81.400001525879</ele>
        <time>2020-12-13T09:49:23.000Z</time>
      </trkpt>
      <trkpt lat="47.23763" lon="-2.28736">
        <ele>81.400001525879</ele>
        <time>2020-12-13T09:49:26.000Z</time>
      </trkpt>
      <trkpt lat="47.23762" lon="-2.2873">
        <ele>81.400001525879</ele>
        <time>2020-12-13T09:49:27.000Z</time>
      </trkpt>
      <trkpt lat="47.2376" lon="-2.2871">
        <ele>81.400001525879</ele>
        <time>2020-12-13T09:49:31.000Z</time>
      </trkpt>
      <trkpt lat="47.23763" lon="-2.28693">
        <ele>81.400001525879</ele>
        <time>2020-12-13T09:49:35.000Z</time>
      </trkpt>
      <trkpt lat="47.23774" lon="-2.28664">
        <ele>81.400001525879</ele>
        <time>2020-12-13T09:49:41.000Z</time>
      </trkpt>
      <trkpt lat="47.23781" lon="-2.28645">
        <ele>81.400001525879</ele>
        <time>2020-12-13T09:49:46.000Z</time>
      </trkpt>
      <trkpt lat="47.2379" lon="-2.28631">
        <ele>81.400001525879</ele>
        <time>2020-12-13T09:49:51.000Z</time>
      </trkpt>
      <trkpt lat="47.23792" lon="-2.28628">
        <ele>81.400001525879</ele>
        <time>2020-12-13T09:49:52.000Z</time>
      </trkpt>
      <trkpt lat="47.23792" lon="-2.28617">
        <ele>81.400001525879</ele>
        <time>2020-12-13T09:49:55.000Z</time>
      </trkpt>
      <trkpt lat="47.23787" lon="-2.286">
        <ele>81.400001525879</ele>
        <time>2020-12-13T09:49:59.000Z</time>
      </trkpt>
      <trkpt lat="47.23784" lon="-2.28564">
        <ele>81.400001525879</ele>
        <time>2020-12-13T09:50:05.000Z</time>
      </trkpt>
      <trkpt lat="47.23785" lon="-2.28556">
        <ele>81.400001525879</ele>
        <time>2020-12-13T09:50:06.000Z</time>
      </trkpt>
      <trkpt lat="47.23786" lon="-2.28531">
        <ele>81.400001525879</ele>
        <time>2020-12-13T09:50:10.000Z</time>
      </trkpt>
      <trkpt lat="47.23784" lon="-2.28522">
        <ele>81.400001525879</ele>
        <time>2020-12-13T09:50:12.000Z</time>
      </trkpt>
      <trkpt lat="47.23778" lon="-2.28515">
        <ele>81.400001525879</ele>
        <time>2020-12-13T09:50:14.000Z</time>
      </trkpt>
      <trkpt lat="47.23775" lon="-2.28505">
        <ele>81.400001525879</ele>
        <time>2020-12-13T09:50:16.000Z</time>
      </trkpt>
      <trkpt lat="47.23772" lon="-2.285">
        <ele>81.400001525879</ele>
        <time>2020-12-13T09:50:17.000Z</time>
      </trkpt>
      <trkpt lat="47.23769" lon="-2.28495">
        <ele>81.400001525879</ele>
        <time>2020-12-13T09:50:18.000Z</time>
      </trkpt>
      <trkpt lat="47.23763" lon="-2.28485">
        <ele>81.400001525879</ele>
        <time>2020-12-13T09:50:20.000Z</time>
      </trkpt>
      <trkpt lat="47.23758" lon="-2.28477">
        <ele>81.400001525879</ele>
        <time>2020-12-13T09:50:22.000Z</time>
      </trkpt>
      <trkpt lat="47.23759" lon="-2.28459">
        <ele>81.400001525879</ele>
        <time>2020-12-13T09:50:26.000Z</time>
      </trkpt>
      <trkpt lat="47.23767" lon="-2.28449">
        <ele>81.400001525879</ele>
        <time>2020-12-13T09:50:30.000Z</time>
      </trkpt>
      <trkpt lat="47.23784" lon="-2.28443">
        <ele>81.400001525879</ele>
        <time>2020-12-13T09:50:35.000Z</time>
      </trkpt>
      <trkpt lat="47.23791" lon="-2.2844">
        <ele>81.400001525879</ele>
        <time>2020-12-13T09:50:37.000Z</time>
      </trkpt>
      <trkpt lat="47.23796" lon="-2.28434">
        <ele>81.400001525879</ele>
        <time>2020-12-13T09:50:39.000Z</time>
      </trkpt>
      <trkpt lat="47.23803" lon="-2.28418">
        <ele>81.400001525879</ele>
        <time>2020-12-13T09:50:43.000Z</time>
      </trkpt>
      <trkpt lat="47.23805" lon="-2.28409">
        <ele>81.400001525879</ele>
        <time>2020-12-13T09:50:45.000Z</time>
      </trkpt>
      <trkpt lat="47.23809" lon="-2.28383">
        <ele>81.400001525879</ele>
        <time>2020-12-13T09:50:49.000Z</time>
      </trkpt>
      <trkpt lat="47.23809" lon="-2.28373">
        <ele>81.400001525879</ele>
        <time>2020-12-13T09:50:50.000Z</time>
      </trkpt>
      <trkpt lat="47.23807" lon="-2.28313">
        <ele>81.400001525879</ele>
        <time>2020-12-13T09:50:56.000Z</time>
      </trkpt>
      <trkpt lat="47.23816" lon="-2.28294">
        <ele>81.400001525879</ele>
        <time>2020-12-13T09:50:59.000Z</time>
      </trkpt>
      <trkpt lat="47.23819" lon="-2.2829">
        <ele>81.400001525879</ele>
        <time>2020-12-13T09:51:00.000Z</time>
      </trkpt>
      <trkpt lat="47.23827" lon="-2.28272">
        <ele>81.400001525879</ele>
        <time>2020-12-13T09:51:04.000Z</time>
      </trkpt>
      <trkpt lat="47.23826" lon="-2.28257">
        <ele>81.400001525879</ele>
        <time>2020-12-13T09:51:06.000Z</time>
      </trkpt>
      <trkpt lat="47.23823" lon="-2.2824">
        <ele>81.400001525879</ele>
        <time>2020-12-13T09:51:08.000Z</time>
      </trkpt>
      <trkpt lat="47.23819" lon="-2.28209">
        <ele>81.400001525879</ele>
        <time>2020-12-13T09:51:13.000Z</time>
      </trkpt>
      <trkpt lat="47.23821" lon="-2.28169">
        <ele>81.400001525879</ele>
        <time>2020-12-13T09:51:20.000Z</time>
      </trkpt>
      <trkpt lat="47.23823" lon="-2.28137">
        <ele>81.400001525879</ele>
        <time>2020-12-13T09:51:26.000Z</time>
      </trkpt>
      <trkpt lat="47.23825" lon="-2.28125">
        <ele>81.400001525879</ele>
        <time>2020-12-13T09:51:31.000Z</time>
      </trkpt>
      <trkpt lat="47.23824" lon="-2.2812">
        <ele>81.400001525879</ele>
        <time>2020-12-13T09:51:34.000Z</time>
      </trkpt>
      <trkpt lat="47.23826" lon="-2.28114">
        <ele>81.400001525879</ele>
        <time>2020-12-13T09:51:36.000Z</time>
      </trkpt>
      <trkpt lat="47.23829" lon="-2.281">
        <ele>81.400001525879</ele>
        <time>2020-12-13T09:51:39.000Z</time>
      </trkpt>
      <trkpt lat="47.2383" lon="-2.28095">
        <ele>81.400001525879</ele>
        <time>2020-12-13T09:51:40.000Z</time>
      </trkpt>
      <trkpt lat="47.2383" lon="-2.28083">
        <ele>81.400001525879</ele>
        <time>2020-12-13T09:51:42.000Z</time>
      </trkpt>
      <trkpt lat="47.23829" lon="-2.28071">
        <ele>81.400001525879</ele>
        <time>2020-12-13T09:51:44.000Z</time>
      </trkpt>
      <trkpt lat="47.23828" lon="-2.28056">
        <ele>81</ele>
        <time>2020-12-13T09:51:47.000Z</time>
      </trkpt>
      <trkpt lat="47.23828" lon="-2.28051">
        <ele>80.599998474121</ele>
        <time>2020-12-13T09:51:48.000Z</time>
      </trkpt>
      <trkpt lat="47.23828" lon="-2.28046">
        <ele>80.199996948242</ele>
        <time>2020-12-13T09:51:49.000Z</time>
      </trkpt>
      <trkpt lat="47.23829" lon="-2.2804">
        <ele>79.599998474121</ele>
        <time>2020-12-13T09:51:50.000Z</time>
      </trkpt>
      <trkpt lat="47.23829" lon="-2.28034">
        <ele>79.199996948242</ele>
        <time>2020-12-13T09:51:51.000Z</time>
      </trkpt>
      <trkpt lat="47.23834" lon="-2.28004">
        <ele>79.199996948242</ele>
        <time>2020-12-13T09:51:55.000Z</time>
      </trkpt>
      <trkpt lat="47.23843" lon="-2.27969">
        <ele>79.199996948242</ele>
        <time>2020-12-13T09:52:00.000Z</time>
      </trkpt>
      <trkpt lat="47.23855" lon="-2.27946">
        <ele>79.199996948242</ele>
        <time>2020-12-13T09:52:05.000Z</time>
      </trkpt>
      <trkpt lat="47.23866" lon="-2.27929">
        <ele>79.199996948242</ele>
        <time>2020-12-13T09:52:10.000Z</time>
      </trkpt>
      <trkpt lat="47.23874" lon="-2.27919">
        <ele>79.199996948242</ele>
        <time>2020-12-13T09:52:16.000Z</time>
      </trkpt>
      <trkpt lat="47.23877" lon="-2.27912">
        <ele>78.800003051758</ele>
        <time>2020-12-13T09:52:19.000Z</time>
      </trkpt>
      <trkpt lat="47.23878" lon="-2.2791">
        <ele>78</ele>
        <time>2020-12-13T09:52:20.000Z</time>
      </trkpt>
      <trkpt lat="47.23878" lon="-2.27907">
        <ele>77.599998474121</ele>
        <time>2020-12-13T09:52:21.000Z</time>
      </trkpt>
      <trkpt lat="47.23879" lon="-2.27904">
        <ele>77.199996948242</ele>
        <time>2020-12-13T09:52:22.000Z</time>
      </trkpt>
      <trkpt lat="47.2388" lon="-2.27902">
        <ele>77.199996948242</ele>
        <time>2020-12-13T09:52:23.000Z</time>
      </trkpt>
      <trkpt lat="47.23889" lon="-2.2789">
        <ele>77.199996948242</ele>
        <time>2020-12-13T09:52:29.000Z</time>
      </trkpt>
      <trkpt lat="47.23893" lon="-2.27883">
        <ele>77.199996948242</ele>
        <time>2020-12-13T09:52:33.000Z</time>
      </trkpt>
      <trkpt lat="47.23893" lon="-2.27883">
        <ele>77.199996948242</ele>
        <time>2020-12-13T09:52:34.000Z</time>
      </trkpt>
      <trkpt lat="47.23892" lon="-2.27879">
        <ele>75.199996948242</ele>
        <time>2020-12-13T09:52:45.000Z</time>
      </trkpt>
      <trkpt lat="47.23889" lon="-2.27877">
        <ele>75.199996948242</ele>
        <time>2020-12-13T09:52:47.000Z</time>
      </trkpt>
      <trkpt lat="47.23885" lon="-2.27876">
        <ele>75.199996948242</ele>
        <time>2020-12-13T09:52:51.000Z</time>
      </trkpt>
      <trkpt lat="47.23884" lon="-2.27877">
        <ele>75.199996948242</ele>
        <time>2020-12-13T09:52:52.000Z</time>
      </trkpt>
      <trkpt lat="47.23883" lon="-2.27879">
        <ele>75.199996948242</ele>
        <time>2020-12-13T09:52:53.000Z</time>
      </trkpt>
      <trkpt lat="47.23886" lon="-2.27886">
        <ele>75.199996948242</ele>
        <time>2020-12-13T09:52:56.000Z</time>
      </trkpt>
      <trkpt lat="47.23887" lon="-2.27888">
        <ele>75.199996948242</ele>
        <time>2020-12-13T09:52:57.000Z</time>
      </trkpt>
      <trkpt lat="47.2389" lon="-2.27892">
        <ele>74.800003051758</ele>
        <time>2020-12-13T09:52:59.000Z</time>
      </trkpt>
      <trkpt lat="47.23891" lon="-2.27893">
        <ele>74.400001525879</ele>
        <time>2020-12-13T09:53:00.000Z</time>
      </trkpt>
      <trkpt lat="47.23893" lon="-2.27892">
        <ele>74</ele>
        <time>2020-12-13T09:53:01.000Z</time>
      </trkpt>
      <trkpt lat="47.23894" lon="-2.27891">
        <ele>73.599998474121</ele>
        <time>2020-12-13T09:53:02.000Z</time>
      </trkpt>
      <trkpt lat="47.23896" lon="-2.27888">
        <ele>73.199996948242</ele>
        <time>2020-12-13T09:53:03.000Z</time>
      </trkpt>
      <trkpt lat="47.23902" lon="-2.27888">
        <ele>73.199996948242</ele>
        <time>2020-12-13T09:53:06.000Z</time>
      </trkpt>
      <trkpt lat="47.23908" lon="-2.27888">
        <ele>73.199996948242</ele>
        <time>2020-12-13T09:53:09.000Z</time>
      </trkpt>
      <trkpt lat="47.2391" lon="-2.27887">
        <ele>73.199996948242</ele>
        <time>2020-12-13T09:53:10.000Z</time>
      </trkpt>
      <trkpt lat="47.23922" lon="-2.27881">
        <ele>73.199996948242</ele>
        <time>2020-12-13T09:53:16.000Z</time>
      </trkpt>
      <trkpt lat="47.23931" lon="-2.27879">
        <ele>73.199996948242</ele>
        <time>2020-12-13T09:53:23.000Z</time>
      </trkpt>
      <trkpt lat="47.23931" lon="-2.27879">
        <ele>73.199996948242</ele>
        <time>2020-12-13T09:53:24.000Z</time>
      </trkpt>
      <trkpt lat="47.23946" lon="-2.27876">
        <ele>71</ele>
        <time>2020-12-13T09:53:44.000Z</time>
      </trkpt>
      <trkpt lat="47.23948" lon="-2.27875">
        <ele>71</ele>
        <time>2020-12-13T09:53:45.000Z</time>
      </trkpt>
      <trkpt lat="47.23959" lon="-2.2787">
        <ele>71</ele>
        <time>2020-12-13T09:53:50.000Z</time>
      </trkpt>
      <trkpt lat="47.23962" lon="-2.27869">
        <ele>71</ele>
        <time>2020-12-13T09:53:51.000Z</time>
      </trkpt>
      <trkpt lat="47.23967" lon="-2.2787">
        <ele>71</ele>
        <time>2020-12-13T09:53:54.000Z</time>
      </trkpt>
      <trkpt lat="47.23977" lon="-2.27873">
        <ele>71</ele>
        <time>2020-12-13T09:53:59.000Z</time>
      </trkpt>
      <trkpt lat="47.23979" lon="-2.27873">
        <ele>71</ele>
        <time>2020-12-13T09:54:00.000Z</time>
      </trkpt>
      <trkpt lat="47.2399" lon="-2.2787">
        <ele>71</ele>
        <time>2020-12-13T09:54:05.000Z</time>
      </trkpt>
      <trkpt lat="47.23999" lon="-2.27857">
        <ele>71</ele>
        <time>2020-12-13T09:54:10.000Z</time>
      </trkpt>
      <trkpt lat="47.24" lon="-2.27853">
        <ele>71</ele>
        <time>2020-12-13T09:54:11.000Z</time>
      </trkpt>
      <trkpt lat="47.24001" lon="-2.27843">
        <ele>71</ele>
        <time>2020-12-13T09:54:14.000Z</time>
      </trkpt>
      <trkpt lat="47.24" lon="-2.2783">
        <ele>71</ele>
        <time>2020-12-13T09:54:18.000Z</time>
      </trkpt>
      <trkpt lat="47.23997" lon="-2.27806">
        <ele>71</ele>
        <time>2020-12-13T09:54:24.000Z</time>
      </trkpt>
      <trkpt lat="47.23993" lon="-2.27796">
        <ele>71</ele>
        <time>2020-12-13T09:54:28.000Z</time>
      </trkpt>
      <trkpt lat="47.23987" lon="-2.27792">
        <ele>71</ele>
        <time>2020-12-13T09:54:32.000Z</time>
      </trkpt>
      <trkpt lat="47.23984" lon="-2.27786">
        <ele>71</ele>
        <time>2020-12-13T09:54:34.000Z</time>
      </trkpt>
      <trkpt lat="47.23975" lon="-2.27762">
        <ele>71</ele>
        <time>2020-12-13T09:54:41.000Z</time>
      </trkpt>
      <trkpt lat="47.23969" lon="-2.27739">
        <ele>71</ele>
        <time>2020-12-13T09:54:48.000Z</time>
      </trkpt>
      <trkpt lat="47.23967" lon="-2.27724">
        <ele>71</ele>
        <time>2020-12-13T09:54:55.000Z</time>
      </trkpt>
      <trkpt lat="47.23963" lon="-2.277">
        <ele>71</ele>
        <time>2020-12-13T09:55:31.000Z</time>
      </trkpt>
      <trkpt lat="47.23958" lon="-2.27704">
        <ele>71</ele>
        <time>2020-12-13T09:55:34.000Z</time>
      </trkpt>
      <trkpt lat="47.23956" lon="-2.27706">
        <ele>71</ele>
        <time>2020-12-13T09:55:35.000Z</time>
      </trkpt>
      <trkpt lat="47.23943" lon="-2.27714">
        <ele>71</ele>
        <time>2020-12-13T09:55:39.000Z</time>
      </trkpt>
      <trkpt lat="47.23927" lon="-2.27723">
        <ele>70.599998474121</ele>
        <time>2020-12-13T09:55:44.000Z</time>
      </trkpt>
      <trkpt lat="47.23924" lon="-2.27724">
        <ele>70.199996948242</ele>
        <time>2020-12-13T09:55:45.000Z</time>
      </trkpt>
      <trkpt lat="47.23921" lon="-2.27726">
        <ele>69.800003051758</ele>
        <time>2020-12-13T09:55:46.000Z</time>
      </trkpt>
      <trkpt lat="47.23919" lon="-2.27728">
        <ele>69.400001525879</ele>
        <time>2020-12-13T09:55:47.000Z</time>
      </trkpt>
      <trkpt lat="47.23916" lon="-2.27729">
        <ele>69</ele>
        <time>2020-12-13T09:55:48.000Z</time>
      </trkpt>
      <trkpt lat="47.23904" lon="-2.27735">
        <ele>69</ele>
        <time>2020-12-13T09:55:52.000Z</time>
      </trkpt>
      <trkpt lat="47.23882" lon="-2.27746">
        <ele>69</ele>
        <time>2020-12-13T09:56:00.000Z</time>
      </trkpt>
      <trkpt lat="47.23868" lon="-2.2775">
        <ele>69</ele>
        <time>2020-12-13T09:56:05.000Z</time>
      </trkpt>
      <trkpt lat="47.23853" lon="-2.27754">
        <ele>69</ele>
        <time>2020-12-13T09:56:11.000Z</time>
      </trkpt>
      <trkpt lat="47.23848" lon="-2.27757">
        <ele>69</ele>
        <time>2020-12-13T09:56:16.000Z</time>
      </trkpt>
      <trkpt lat="47.23847" lon="-2.27758">
        <ele>69</ele>
        <time>2020-12-13T09:56:17.000Z</time>
      </trkpt>
      <trkpt lat="47.23846" lon="-2.27759">
        <ele>69</ele>
        <time>2020-12-13T09:56:19.000Z</time>
      </trkpt>
      <trkpt lat="47.2384" lon="-2.27762">
        <ele>69</ele>
        <time>2020-12-13T09:56:28.000Z</time>
      </trkpt>
      <trkpt lat="47.23838" lon="-2.27763">
        <ele>69</ele>
        <time>2020-12-13T09:56:29.000Z</time>
      </trkpt>
      <trkpt lat="47.23827" lon="-2.27768">
        <ele>69</ele>
        <time>2020-12-13T09:56:34.000Z</time>
      </trkpt>
      <trkpt lat="47.23825" lon="-2.2777">
        <ele>69</ele>
        <time>2020-12-13T09:56:35.000Z</time>
      </trkpt>
      <trkpt lat="47.23815" lon="-2.27775">
        <ele>69</ele>
        <time>2020-12-13T09:56:41.000Z</time>
      </trkpt>
      <trkpt lat="47.23813" lon="-2.27776">
        <ele>69</ele>
        <time>2020-12-13T09:56:44.000Z</time>
      </trkpt>
      <trkpt lat="47.2381" lon="-2.27777">
        <ele>69</ele>
        <time>2020-12-13T09:56:49.000Z</time>
      </trkpt>
      <trkpt lat="47.23807" lon="-2.27778">
        <ele>69</ele>
        <time>2020-12-13T09:56:51.000Z</time>
      </trkpt>
      <trkpt lat="47.23798" lon="-2.27781">
        <ele>69</ele>
        <time>2020-12-13T09:56:59.000Z</time>
      </trkpt>
      <trkpt lat="47.23794" lon="-2.27783">
        <ele>69</ele>
        <time>2020-12-13T09:57:03.000Z</time>
      </trkpt>
      <trkpt lat="47.23792" lon="-2.27782">
        <ele>69</ele>
        <time>2020-12-13T09:57:07.000Z</time>
      </trkpt>
      <trkpt lat="47.23787" lon="-2.27777">
        <ele>69</ele>
        <time>2020-12-13T09:57:12.000Z</time>
      </trkpt>
      <trkpt lat="47.23786" lon="-2.27776">
        <ele>69</ele>
        <time>2020-12-13T09:57:15.000Z</time>
      </trkpt>
      <trkpt lat="47.23786" lon="-2.27764">
        <ele>73</ele>
        <time>2020-12-13T09:59:26.000Z</time>
      </trkpt>
      <trkpt lat="47.23787" lon="-2.27762">
        <ele>73</ele>
        <time>2020-12-13T09:59:27.000Z</time>
      </trkpt>
      <trkpt lat="47.23784" lon="-2.2775">
        <ele>73</ele>
        <time>2020-12-13T09:59:31.000Z</time>
      </trkpt>
      <trkpt lat="47.23779" lon="-2.27731">
        <ele>73</ele>
        <time>2020-12-13T09:59:37.000Z</time>
      </trkpt>
      <trkpt lat="47.23783" lon="-2.2771">
        <ele>73</ele>
        <time>2020-12-13T09:59:42.000Z</time>
      </trkpt>
      <trkpt lat="47.23789" lon="-2.27699">
        <ele>73</ele>
        <time>2020-12-13T09:59:47.000Z</time>
      </trkpt>
      <trkpt lat="47.2379" lon="-2.27697">
        <ele>73</ele>
        <time>2020-12-13T09:59:48.000Z</time>
      </trkpt>
      <trkpt lat="47.23792" lon="-2.27687">
        <ele>73</ele>
        <time>2020-12-13T09:59:52.000Z</time>
      </trkpt>
      <trkpt lat="47.23799" lon="-2.27666">
        <ele>73</ele>
        <time>2020-12-13T09:59:57.000Z</time>
      </trkpt>
      <trkpt lat="47.23803" lon="-2.27661">
        <ele>73</ele>
        <time>2020-12-13T09:59:58.000Z</time>
      </trkpt>
      <trkpt lat="47.23815" lon="-2.27655">
        <ele>73</ele>
        <time>2020-12-13T10:00:01.000Z</time>
      </trkpt>
      <trkpt lat="47.23841" lon="-2.27646">
        <ele>73</ele>
        <time>2020-12-13T10:00:07.000Z</time>
      </trkpt>
      <trkpt lat="47.23868" lon="-2.27632">
        <ele>73</ele>
        <time>2020-12-13T10:00:14.000Z</time>
      </trkpt>
      <trkpt lat="47.23889" lon="-2.27626">
        <ele>73</ele>
        <time>2020-12-13T10:00:19.000Z</time>
      </trkpt>
      <trkpt lat="47.23916" lon="-2.27636">
        <ele>73</ele>
        <time>2020-12-13T10:00:26.000Z</time>
      </trkpt>
      <trkpt lat="47.23934" lon="-2.27656">
        <ele>73</ele>
        <time>2020-12-13T10:00:32.000Z</time>
      </trkpt>
      <trkpt lat="47.23945" lon="-2.27664">
        <ele>73</ele>
        <time>2020-12-13T10:00:35.000Z</time>
      </trkpt>
      <trkpt lat="47.23953" lon="-2.27667">
        <ele>73</ele>
        <time>2020-12-13T10:00:37.000Z</time>
      </trkpt>
      <trkpt lat="47.23957" lon="-2.27668">
        <ele>73</ele>
        <time>2020-12-13T10:00:38.000Z</time>
      </trkpt>
      <trkpt lat="47.23975" lon="-2.27675">
        <ele>73</ele>
        <time>2020-12-13T10:00:42.000Z</time>
      </trkpt>
      <trkpt lat="47.2398" lon="-2.27675">
        <ele>73</ele>
        <time>2020-12-13T10:00:43.000Z</time>
      </trkpt>
      <trkpt lat="47.23993" lon="-2.27669">
        <ele>73</ele>
        <time>2020-12-13T10:00:46.000Z</time>
      </trkpt>
      <trkpt lat="47.24" lon="-2.27659">
        <ele>73</ele>
        <time>2020-12-13T10:00:48.000Z</time>
      </trkpt>
      <trkpt lat="47.24003" lon="-2.27655">
        <ele>73</ele>
        <time>2020-12-13T10:00:49.000Z</time>
      </trkpt>
      <trkpt lat="47.24006" lon="-2.27652">
        <ele>73</ele>
        <time>2020-12-13T10:00:50.000Z</time>
      </trkpt>
      <trkpt lat="47.2402" lon="-2.27649">
        <ele>73</ele>
        <time>2020-12-13T10:00:53.000Z</time>
      </trkpt>
      <trkpt lat="47.2404" lon="-2.27646">
        <ele>73</ele>
        <time>2020-12-13T10:00:57.000Z</time>
      </trkpt>
      <trkpt lat="47.24043" lon="-2.27642">
        <ele>73</ele>
        <time>2020-12-13T10:00:58.000Z</time>
      </trkpt>
      <trkpt lat="47.24043" lon="-2.27632">
        <ele>73</ele>
        <time>2020-12-13T10:01:00.000Z</time>
      </trkpt>
      <trkpt lat="47.24034" lon="-2.27602">
        <ele>73</ele>
        <time>2020-12-13T10:01:05.000Z</time>
      </trkpt>
      <trkpt lat="47.24034" lon="-2.27589">
        <ele>73</ele>
        <time>2020-12-13T10:01:07.000Z</time>
      </trkpt>
      <trkpt lat="47.24035" lon="-2.27569">
        <ele>73</ele>
        <time>2020-12-13T10:01:10.000Z</time>
      </trkpt>
      <trkpt lat="47.2404" lon="-2.27519">
        <ele>73</ele>
        <time>2020-12-13T10:01:18.000Z</time>
      </trkpt>
      <trkpt lat="47.24047" lon="-2.27473">
        <ele>73</ele>
        <time>2020-12-13T10:01:24.000Z</time>
      </trkpt>
      <trkpt lat="47.24062" lon="-2.2744">
        <ele>73</ele>
        <time>2020-12-13T10:01:28.000Z</time>
      </trkpt>
      <trkpt lat="47.24067" lon="-2.27432">
        <ele>73</ele>
        <time>2020-12-13T10:01:29.000Z</time>
      </trkpt>
      <trkpt lat="47.24087" lon="-2.27395">
        <ele>73</ele>
        <time>2020-12-13T10:01:33.000Z</time>
      </trkpt>
      <trkpt lat="47.24091" lon="-2.27383">
        <ele>73</ele>
        <time>2020-12-13T10:01:34.000Z</time>
      </trkpt>
      <trkpt lat="47.24096" lon="-2.27359">
        <ele>73</ele>
        <time>2020-12-13T10:01:36.000Z</time>
      </trkpt>
      <trkpt lat="47.24099" lon="-2.27312">
        <ele>73</ele>
        <time>2020-12-13T10:01:40.000Z</time>
      </trkpt>
      <trkpt lat="47.24099" lon="-2.27275">
        <ele>73</ele>
        <time>2020-12-13T10:01:44.000Z</time>
      </trkpt>
      <trkpt lat="47.24101" lon="-2.2724">
        <ele>73</ele>
        <time>2020-12-13T10:01:48.000Z</time>
      </trkpt>
      <trkpt lat="47.241" lon="-2.27224">
        <ele>73</ele>
        <time>2020-12-13T10:01:50.000Z</time>
      </trkpt>
      <trkpt lat="47.241" lon="-2.27216">
        <ele>73</ele>
        <time>2020-12-13T10:01:51.000Z</time>
      </trkpt>
      <trkpt lat="47.24101" lon="-2.27194">
        <ele>73</ele>
        <time>2020-12-13T10:01:54.000Z</time>
      </trkpt>
      <trkpt lat="47.24102" lon="-2.27188">
        <ele>73</ele>
        <time>2020-12-13T10:01:55.000Z</time>
      </trkpt>
      <trkpt lat="47.24104" lon="-2.27169">
        <ele>73</ele>
        <time>2020-12-13T10:01:59.000Z</time>
      </trkpt>
      <trkpt lat="47.24103" lon="-2.27157">
        <ele>73</ele>
        <time>2020-12-13T10:02:01.000Z</time>
      </trkpt>
      <trkpt lat="47.24103" lon="-2.27129">
        <ele>73</ele>
        <time>2020-12-13T10:02:05.000Z</time>
      </trkpt>
      <trkpt lat="47.24104" lon="-2.27066">
        <ele>73</ele>
        <time>2020-12-13T10:02:13.000Z</time>
      </trkpt>
      <trkpt lat="47.24103" lon="-2.27013">
        <ele>73</ele>
        <time>2020-12-13T10:02:19.000Z</time>
      </trkpt>
      <trkpt lat="47.24102" lon="-2.26983">
        <ele>73</ele>
        <time>2020-12-13T10:02:23.000Z</time>
      </trkpt>
      <trkpt lat="47.24102" lon="-2.26968">
        <ele>73</ele>
        <time>2020-12-13T10:02:25.000Z</time>
      </trkpt>
      <trkpt lat="47.241" lon="-2.26925">
        <ele>73</ele>
        <time>2020-12-13T10:02:32.000Z</time>
      </trkpt>
      <trkpt lat="47.24101" lon="-2.26885">
        <ele>73</ele>
        <time>2020-12-13T10:02:39.000Z</time>
      </trkpt>
      <trkpt lat="47.24103" lon="-2.2685">
        <ele>73</ele>
        <time>2020-12-13T10:02:46.000Z</time>
      </trkpt>
      <trkpt lat="47.241" lon="-2.2684">
        <ele>73</ele>
        <time>2020-12-13T10:02:49.000Z</time>
      </trkpt>
      <trkpt lat="47.24098" lon="-2.26839">
        <ele>73</ele>
        <time>2020-12-13T10:02:50.000Z</time>
      </trkpt>
      <trkpt lat="47.24084" lon="-2.26841">
        <ele>73</ele>
        <time>2020-12-13T10:02:54.000Z</time>
      </trkpt>
      <trkpt lat="47.2408" lon="-2.26841">
        <ele>73</ele>
        <time>2020-12-13T10:02:55.000Z</time>
      </trkpt>
      <trkpt lat="47.24061" lon="-2.26846">
        <ele>73</ele>
        <time>2020-12-13T10:03:01.000Z</time>
      </trkpt>
      <trkpt lat="47.24059" lon="-2.26858">
        <ele>73</ele>
        <time>2020-12-13T10:03:04.000Z</time>
      </trkpt>
      <trkpt lat="47.24058" lon="-2.26866">
        <ele>73</ele>
        <time>2020-12-13T10:03:06.000Z</time>
      </trkpt>
      <trkpt lat="47.24055" lon="-2.26889">
        <ele>73</ele>
        <time>2020-12-13T10:03:11.000Z</time>
      </trkpt>
      <trkpt lat="47.24051" lon="-2.26915">
        <ele>73</ele>
        <time>2020-12-13T10:03:14.000Z</time>
      </trkpt>
      <trkpt lat="47.24048" lon="-2.26932">
        <ele>73</ele>
        <time>2020-12-13T10:03:16.000Z</time>
      </trkpt>
      <trkpt lat="47.24048" lon="-2.26948">
        <ele>73</ele>
        <time>2020-12-13T10:03:18.000Z</time>
      </trkpt>
      <trkpt lat="47.24048" lon="-2.26963">
        <ele>73</ele>
        <time>2020-12-13T10:03:20.000Z</time>
      </trkpt>
      <trkpt lat="47.24048" lon="-2.26976">
        <ele>73</ele>
        <time>2020-12-13T10:03:22.000Z</time>
      </trkpt>
      <trkpt lat="47.24048" lon="-2.26982">
        <ele>73</ele>
        <time>2020-12-13T10:03:23.000Z</time>
      </trkpt>
      <trkpt lat="47.24048" lon="-2.26988">
        <ele>73</ele>
        <time>2020-12-13T10:03:24.000Z</time>
      </trkpt>
      <trkpt lat="47.24041" lon="-2.27">
        <ele>73</ele>
        <time>2020-12-13T10:03:27.000Z</time>
      </trkpt>
      <trkpt lat="47.24032" lon="-2.27004">
        <ele>73</ele>
        <time>2020-12-13T10:03:29.000Z</time>
      </trkpt>
      <trkpt lat="47.24022" lon="-2.27009">
        <ele>73</ele>
        <time>2020-12-13T10:03:32.000Z</time>
      </trkpt>
      <trkpt lat="47.2402" lon="-2.27008">
        <ele>73</ele>
        <time>2020-12-13T10:03:33.000Z</time>
      </trkpt>
      <trkpt lat="47.24016" lon="-2.27003">
        <ele>73</ele>
        <time>2020-12-13T10:03:35.000Z</time>
      </trkpt>
      <trkpt lat="47.2401" lon="-2.26985">
        <ele>73</ele>
        <time>2020-12-13T10:03:39.000Z</time>
      </trkpt>
      <trkpt lat="47.24001" lon="-2.26974">
        <ele>73</ele>
        <time>2020-12-13T10:03:42.000Z</time>
      </trkpt>
      <trkpt lat="47.23997" lon="-2.26971">
        <ele>73</ele>
        <time>2020-12-13T10:03:43.000Z</time>
      </trkpt>
      <trkpt lat="47.23975" lon="-2.26958">
        <ele>73</ele>
        <time>2020-12-13T10:03:48.000Z</time>
      </trkpt>
      <trkpt lat="47.23958" lon="-2.26951">
        <ele>73</ele>
        <time>2020-12-13T10:03:52.000Z</time>
      </trkpt>
      <trkpt lat="47.23954" lon="-2.26949">
        <ele>73</ele>
        <time>2020-12-13T10:03:53.000Z</time>
      </trkpt>
      <trkpt lat="47.23949" lon="-2.26936">
        <ele>73</ele>
        <time>2020-12-13T10:03:56.000Z</time>
      </trkpt>
      <trkpt lat="47.23949" lon="-2.26925">
        <ele>73</ele>
        <time>2020-12-13T10:04:00.000Z</time>
      </trkpt>
      <trkpt lat="47.23957" lon="-2.26928">
        <ele>73</ele>
        <time>2020-12-13T10:04:04.000Z</time>
      </trkpt>
      <trkpt lat="47.2396" lon="-2.26932">
        <ele>73</ele>
        <time>2020-12-13T10:04:05.000Z</time>
      </trkpt>
      <trkpt lat="47.2397" lon="-2.26943">
        <ele>73</ele>
        <time>2020-12-13T10:04:08.000Z</time>
      </trkpt>
      <trkpt lat="47.23987" lon="-2.26951">
        <ele>73</ele>
        <time>2020-12-13T10:04:12.000Z</time>
      </trkpt>
      <trkpt lat="47.23991" lon="-2.26954">
        <ele>73</ele>
        <time>2020-12-13T10:04:13.000Z</time>
      </trkpt>
      <trkpt lat="47.24007" lon="-2.26965">
        <ele>73</ele>
        <time>2020-12-13T10:04:17.000Z</time>
      </trkpt>
      <trkpt lat="47.24013" lon="-2.26968">
        <ele>73</ele>
        <time>2020-12-13T10:04:19.000Z</time>
      </trkpt>
      <trkpt lat="47.24025" lon="-2.26965">
        <ele>73</ele>
        <time>2020-12-13T10:04:24.000Z</time>
      </trkpt>
      <trkpt lat="47.24038" lon="-2.26954">
        <ele>73</ele>
        <time>2020-12-13T10:04:30.000Z</time>
      </trkpt>
      <trkpt lat="47.24046" lon="-2.26942">
        <ele>73</ele>
        <time>2020-12-13T10:04:36.000Z</time>
      </trkpt>
      <trkpt lat="47.24047" lon="-2.26937">
        <ele>73</ele>
        <time>2020-12-13T10:04:38.000Z</time>
      </trkpt>
      <trkpt lat="47.24047" lon="-2.26931">
        <ele>73</ele>
        <time>2020-12-13T10:04:40.000Z</time>
      </trkpt>
      <trkpt lat="47.2404" lon="-2.26917">
        <ele>73</ele>
        <time>2020-12-13T10:04:45.000Z</time>
      </trkpt>
      <trkpt lat="47.24038" lon="-2.26914">
        <ele>73</ele>
        <time>2020-12-13T10:04:46.000Z</time>
      </trkpt>
      <trkpt lat="47.24031" lon="-2.26899">
        <ele>73</ele>
        <time>2020-12-13T10:04:52.000Z</time>
      </trkpt>
      <trkpt lat="47.24024" lon="-2.2689">
        <ele>73</ele>
        <time>2020-12-13T10:04:56.000Z</time>
      </trkpt>
      <trkpt lat="47.24023" lon="-2.26888">
        <ele>73</ele>
        <time>2020-12-13T10:04:57.000Z</time>
      </trkpt>
      <trkpt lat="47.24015" lon="-2.26874">
        <ele>73</ele>
        <time>2020-12-13T10:05:03.000Z</time>
      </trkpt>
      <trkpt lat="47.2401" lon="-2.2688">
        <ele>73</ele>
        <time>2020-12-13T10:05:06.000Z</time>
      </trkpt>
      <trkpt lat="47.23995" lon="-2.26885">
        <ele>73</ele>
        <time>2020-12-13T10:05:12.000Z</time>
      </trkpt>
      <trkpt lat="47.23977" lon="-2.26881">
        <ele>73</ele>
        <time>2020-12-13T10:05:18.000Z</time>
      </trkpt>
      <trkpt lat="47.23957" lon="-2.26873">
        <ele>73</ele>
        <time>2020-12-13T10:05:25.000Z</time>
      </trkpt>
      <trkpt lat="47.23949" lon="-2.26875">
        <ele>73</ele>
        <time>2020-12-13T10:05:28.000Z</time>
      </trkpt>
      <trkpt lat="47.23948" lon="-2.26878">
        <ele>73</ele>
        <time>2020-12-13T10:05:29.000Z</time>
      </trkpt>
      <trkpt lat="47.23943" lon="-2.26883">
        <ele>73</ele>
        <time>2020-12-13T10:05:33.000Z</time>
      </trkpt>
      <trkpt lat="47.2394" lon="-2.2688">
        <ele>73</ele>
        <time>2020-12-13T10:05:35.000Z</time>
      </trkpt>
      <trkpt lat="47.23937" lon="-2.26878">
        <ele>73</ele>
        <time>2020-12-13T10:05:38.000Z</time>
      </trkpt>
      <trkpt lat="47.23937" lon="-2.26877">
        <ele>73</ele>
        <time>2020-12-13T10:05:39.000Z</time>
      </trkpt>
      <trkpt lat="47.23937" lon="-2.26875">
        <ele>73</ele>
        <time>2020-12-13T10:05:40.000Z</time>
      </trkpt>
      <trkpt lat="47.23941" lon="-2.2687">
        <ele>73</ele>
        <time>2020-12-13T10:05:44.000Z</time>
      </trkpt>
      <trkpt lat="47.23948" lon="-2.26876">
        <ele>73</ele>
        <time>2020-12-13T10:05:48.000Z</time>
      </trkpt>
      <trkpt lat="47.23949" lon="-2.26888">
        <ele>73</ele>
        <time>2020-12-13T10:05:51.000Z</time>
      </trkpt>
      <trkpt lat="47.23948" lon="-2.26893">
        <ele>73</ele>
        <time>2020-12-13T10:05:53.000Z</time>
      </trkpt>
      <trkpt lat="47.23947" lon="-2.26895">
        <ele>73</ele>
        <time>2020-12-13T10:05:54.000Z</time>
      </trkpt>
      <trkpt lat="47.23942" lon="-2.26895">
        <ele>73</ele>
        <time>2020-12-13T10:05:56.000Z</time>
      </trkpt>
      <trkpt lat="47.23935" lon="-2.26891">
        <ele>73</ele>
        <time>2020-12-13T10:05:58.000Z</time>
      </trkpt>
      <trkpt lat="47.23924" lon="-2.26886">
        <ele>73</ele>
        <time>2020-12-13T10:06:01.000Z</time>
      </trkpt>
      <trkpt lat="47.23887" lon="-2.26874">
        <ele>73</ele>
        <time>2020-12-13T10:06:10.000Z</time>
      </trkpt>
      <trkpt lat="47.23871" lon="-2.26867">
        <ele>73</ele>
        <time>2020-12-13T10:06:14.000Z</time>
      </trkpt>
      <trkpt lat="47.23868" lon="-2.26863">
        <ele>73</ele>
        <time>2020-12-13T10:06:15.000Z</time>
      </trkpt>
      <trkpt lat="47.23869" lon="-2.26846">
        <ele>73</ele>
        <time>2020-12-13T10:06:18.000Z</time>
      </trkpt>
      <trkpt lat="47.23879" lon="-2.26836">
        <ele>73</ele>
        <time>2020-12-13T10:06:21.000Z</time>
      </trkpt>
      <trkpt lat="47.23893" lon="-2.26831">
        <ele>73</ele>
        <time>2020-12-13T10:06:24.000Z</time>
      </trkpt>
      <trkpt lat="47.23897" lon="-2.26829">
        <ele>73</ele>
        <time>2020-12-13T10:06:25.000Z</time>
      </trkpt>
      <trkpt lat="47.23901" lon="-2.26816">
        <ele>73</ele>
        <time>2020-12-13T10:06:27.000Z</time>
      </trkpt>
      <trkpt lat="47.23901" lon="-2.26802">
        <ele>73</ele>
        <time>2020-12-13T10:06:29.000Z</time>
      </trkpt>
      <trkpt lat="47.23896" lon="-2.2679">
        <ele>73</ele>
        <time>2020-12-13T10:06:31.000Z</time>
      </trkpt>
      <trkpt lat="47.23895" lon="-2.26783">
        <ele>73</ele>
        <time>2020-12-13T10:06:32.000Z</time>
      </trkpt>
      <trkpt lat="47.23898" lon="-2.26767">
        <ele>73</ele>
        <time>2020-12-13T10:06:35.000Z</time>
      </trkpt>
      <trkpt lat="47.23911" lon="-2.26752">
        <ele>73</ele>
        <time>2020-12-13T10:06:39.000Z</time>
      </trkpt>
      <trkpt lat="47.23914" lon="-2.2675">
        <ele>73</ele>
        <time>2020-12-13T10:06:40.000Z</time>
      </trkpt>
      <trkpt lat="47.23926" lon="-2.2675">
        <ele>73</ele>
        <time>2020-12-13T10:06:44.000Z</time>
      </trkpt>
      <trkpt lat="47.2393" lon="-2.26749">
        <ele>73</ele>
        <time>2020-12-13T10:06:46.000Z</time>
      </trkpt>
      <trkpt lat="47.23936" lon="-2.26745">
        <ele>73</ele>
        <time>2020-12-13T10:06:49.000Z</time>
      </trkpt>
      <trkpt lat="47.23955" lon="-2.26733">
        <ele>73</ele>
        <time>2020-12-13T10:06:55.000Z</time>
      </trkpt>
      <trkpt lat="47.23974" lon="-2.26733">
        <ele>73</ele>
        <time>2020-12-13T10:07:00.000Z</time>
      </trkpt>
      <trkpt lat="47.24002" lon="-2.26738">
        <ele>73</ele>
        <time>2020-12-13T10:07:07.000Z</time>
      </trkpt>
      <trkpt lat="47.2402" lon="-2.26735">
        <ele>73</ele>
        <time>2020-12-13T10:07:12.000Z</time>
      </trkpt>
      <trkpt lat="47.24042" lon="-2.26725">
        <ele>73</ele>
        <time>2020-12-13T10:07:18.000Z</time>
      </trkpt>
      <trkpt lat="47.24053" lon="-2.26718">
        <ele>73</ele>
        <time>2020-12-13T10:07:21.000Z</time>
      </trkpt>
      <trkpt lat="47.24062" lon="-2.26709">
        <ele>73</ele>
        <time>2020-12-13T10:07:24.000Z</time>
      </trkpt>
      <trkpt lat="47.2408" lon="-2.2668">
        <ele>73</ele>
        <time>2020-12-13T10:07:32.000Z</time>
      </trkpt>
      <trkpt lat="47.24091" lon="-2.26656">
        <ele>73</ele>
        <time>2020-12-13T10:07:38.000Z</time>
      </trkpt>
      <trkpt lat="47.24099" lon="-2.2665">
        <ele>73</ele>
        <time>2020-12-13T10:07:41.000Z</time>
      </trkpt>
      <trkpt lat="47.24101" lon="-2.26651">
        <ele>73</ele>
        <time>2020-12-13T10:07:42.000Z</time>
      </trkpt>
      <trkpt lat="47.24106" lon="-2.26651">
        <ele>73</ele>
        <time>2020-12-13T10:07:44.000Z</time>
      </trkpt>
      <trkpt lat="47.2411" lon="-2.26645">
        <ele>73</ele>
        <time>2020-12-13T10:07:46.000Z</time>
      </trkpt>
      <trkpt lat="47.24116" lon="-2.26637">
        <ele>73</ele>
        <time>2020-12-13T10:07:51.000Z</time>
      </trkpt>
      <trkpt lat="47.2412" lon="-2.26635">
        <ele>73</ele>
        <time>2020-12-13T10:07:54.000Z</time>
      </trkpt>
      <trkpt lat="47.24123" lon="-2.26627">
        <ele>73</ele>
        <time>2020-12-13T10:07:56.000Z</time>
      </trkpt>
      <trkpt lat="47.24126" lon="-2.26617">
        <ele>73</ele>
        <time>2020-12-13T10:07:58.000Z</time>
      </trkpt>
      <trkpt lat="47.24134" lon="-2.26593">
        <ele>73</ele>
        <time>2020-12-13T10:08:04.000Z</time>
      </trkpt>
      <trkpt lat="47.24134" lon="-2.26593">
        <ele>73</ele>
        <time>2020-12-13T10:08:05.000Z</time>
      </trkpt>
      <trkpt lat="47.24136" lon="-2.26591">
        <ele>73</ele>
        <time>2020-12-13T10:08:11.000Z</time>
      </trkpt>
      <trkpt lat="47.24137" lon="-2.26589">
        <ele>73</ele>
        <time>2020-12-13T10:08:12.000Z</time>
      </trkpt>
      <trkpt lat="47.24138" lon="-2.26579">
        <ele>73</ele>
        <time>2020-12-13T10:08:16.000Z</time>
      </trkpt>
      <trkpt lat="47.24146" lon="-2.26577">
        <ele>73</ele>
        <time>2020-12-13T10:08:20.000Z</time>
      </trkpt>
      <trkpt lat="47.24149" lon="-2.26577">
        <ele>73</ele>
        <time>2020-12-13T10:08:21.000Z</time>
      </trkpt>
      <trkpt lat="47.2416" lon="-2.26582">
        <ele>73</ele>
        <time>2020-12-13T10:08:27.000Z</time>
      </trkpt>
      <trkpt lat="47.2416" lon="-2.26592">
        <ele>73</ele>
        <time>2020-12-13T10:08:31.000Z</time>
      </trkpt>
      <trkpt lat="47.2416" lon="-2.26594">
        <ele>73</ele>
        <time>2020-12-13T10:08:32.000Z</time>
      </trkpt>
      <trkpt lat="47.24157" lon="-2.26608">
        <ele>73</ele>
        <time>2020-12-13T10:08:37.000Z</time>
      </trkpt>
      <trkpt lat="47.24157" lon="-2.26612">
        <ele>73</ele>
        <time>2020-12-13T10:08:39.000Z</time>
      </trkpt>
      <trkpt lat="47.24162" lon="-2.26612">
        <ele>73</ele>
        <time>2020-12-13T10:08:42.000Z</time>
      </trkpt>
      <trkpt lat="47.24173" lon="-2.26612">
        <ele>73</ele>
        <time>2020-12-13T10:08:49.000Z</time>
      </trkpt>
      <trkpt lat="47.24188" lon="-2.26618">
        <ele>73</ele>
        <time>2020-12-13T10:08:56.000Z</time>
      </trkpt>
      <trkpt lat="47.24201" lon="-2.26623">
        <ele>73</ele>
        <time>2020-12-13T10:09:02.000Z</time>
      </trkpt>
      <trkpt lat="47.24216" lon="-2.26628">
        <ele>73</ele>
        <time>2020-12-13T10:09:08.000Z</time>
      </trkpt>
      <trkpt lat="47.2423" lon="-2.2662">
        <ele>73</ele>
        <time>2020-12-13T10:09:13.000Z</time>
      </trkpt>
      <trkpt lat="47.2425" lon="-2.26598">
        <ele>73</ele>
        <time>2020-12-13T10:09:18.000Z</time>
      </trkpt>
      <trkpt lat="47.2428" lon="-2.26572">
        <ele>73</ele>
        <time>2020-12-13T10:09:24.000Z</time>
      </trkpt>
      <trkpt lat="47.24326" lon="-2.26528">
        <ele>73</ele>
        <time>2020-12-13T10:09:32.000Z</time>
      </trkpt>
      <trkpt lat="47.24378" lon="-2.26485">
        <ele>73</ele>
        <time>2020-12-13T10:09:41.000Z</time>
      </trkpt>
      <trkpt lat="47.24411" lon="-2.26463">
        <ele>73</ele>
        <time>2020-12-13T10:09:47.000Z</time>
      </trkpt>
      <trkpt lat="47.24416" lon="-2.26458">
        <ele>73</ele>
        <time>2020-12-13T10:09:48.000Z</time>
      </trkpt>
      <trkpt lat="47.24443" lon="-2.2644">
        <ele>73</ele>
        <time>2020-12-13T10:09:53.000Z</time>
      </trkpt>
      <trkpt lat="47.24466" lon="-2.26428">
        <ele>73</ele>
        <time>2020-12-13T10:09:57.000Z</time>
      </trkpt>
      <trkpt lat="47.24482" lon="-2.26421">
        <ele>73</ele>
        <time>2020-12-13T10:10:00.000Z</time>
      </trkpt>
      <trkpt lat="47.24527" lon="-2.26399">
        <ele>73</ele>
        <time>2020-12-13T10:10:08.000Z</time>
      </trkpt>
      <trkpt lat="47.24571" lon="-2.2638">
        <ele>73</ele>
        <time>2020-12-13T10:10:16.000Z</time>
      </trkpt>
      <trkpt lat="47.24599" lon="-2.26374">
        <ele>73</ele>
        <time>2020-12-13T10:10:21.000Z</time>
      </trkpt>
      <trkpt lat="47.24636" lon="-2.26377">
        <ele>73</ele>
        <time>2020-12-13T10:10:27.000Z</time>
      </trkpt>
      <trkpt lat="47.24648" lon="-2.26382">
        <ele>73</ele>
        <time>2020-12-13T10:10:29.000Z</time>
      </trkpt>
      <trkpt lat="47.24672" lon="-2.26393">
        <ele>73</ele>
        <time>2020-12-13T10:10:33.000Z</time>
      </trkpt>
      <trkpt lat="47.24716" lon="-2.26415">
        <ele>73</ele>
        <time>2020-12-13T10:10:40.000Z</time>
      </trkpt>
      <trkpt lat="47.24762" lon="-2.26437">
        <ele>73</ele>
        <time>2020-12-13T10:10:48.000Z</time>
      </trkpt>
      <trkpt lat="47.24816" lon="-2.26456">
        <ele>73</ele>
        <time>2020-12-13T10:10:57.000Z</time>
      </trkpt>
      <trkpt lat="47.24852" lon="-2.26453">
        <ele>73</ele>
        <time>2020-12-13T10:11:03.000Z</time>
      </trkpt>
      <trkpt lat="47.24878" lon="-2.26445">
        <ele>73</ele>
        <time>2020-12-13T10:11:08.000Z</time>
      </trkpt>
      <trkpt lat="47.24892" lon="-2.26439">
        <ele>73</ele>
        <time>2020-12-13T10:11:12.000Z</time>
      </trkpt>
      <trkpt lat="47.24907" lon="-2.26433">
        <ele>73</ele>
        <time>2020-12-13T10:11:17.000Z</time>
      </trkpt>
      <trkpt lat="47.24926" lon="-2.26421">
        <ele>73</ele>
        <time>2020-12-13T10:11:23.000Z</time>
      </trkpt>
      <trkpt lat="47.24934" lon="-2.26416">
        <ele>73</ele>
        <time>2020-12-13T10:11:26.000Z</time>
      </trkpt>
      <trkpt lat="47.24936" lon="-2.26417">
        <ele>73</ele>
        <time>2020-12-13T10:11:27.000Z</time>
      </trkpt>
      <trkpt lat="47.24941" lon="-2.26414">
        <ele>73</ele>
        <time>2020-12-13T10:11:30.000Z</time>
      </trkpt>
      <trkpt lat="47.24943" lon="-2.26412">
        <ele>73</ele>
        <time>2020-12-13T10:11:32.000Z</time>
      </trkpt>
      <trkpt lat="47.24945" lon="-2.2641">
        <ele>73</ele>
        <time>2020-12-13T10:11:35.000Z</time>
      </trkpt>
      <trkpt lat="47.24946" lon="-2.2641">
        <ele>73</ele>
        <time>2020-12-13T10:11:43.000Z</time>
      </trkpt>
      <trkpt lat="47.24948" lon="-2.2641">
        <ele>73</ele>
        <time>2020-12-13T10:11:44.000Z</time>
      </trkpt>
      <trkpt lat="47.24963" lon="-2.26399">
        <ele>72.599998474121</ele>
        <time>2020-12-13T10:11:49.000Z</time>
      </trkpt>
      <trkpt lat="47.24967" lon="-2.26397">
        <ele>72.199996948242</ele>
        <time>2020-12-13T10:11:50.000Z</time>
      </trkpt>
      <trkpt lat="47.24971" lon="-2.26394">
        <ele>71.800003051758</ele>
        <time>2020-12-13T10:11:51.000Z</time>
      </trkpt>
      <trkpt lat="47.24975" lon="-2.26391">
        <ele>71.400001525879</ele>
        <time>2020-12-13T10:11:52.000Z</time>
      </trkpt>
      <trkpt lat="47.24979" lon="-2.26387">
        <ele>71</ele>
        <time>2020-12-13T10:11:53.000Z</time>
      </trkpt>
      <trkpt lat="47.24989" lon="-2.26379">
        <ele>71</ele>
        <time>2020-12-13T10:11:55.000Z</time>
      </trkpt>
      <trkpt lat="47.25018" lon="-2.26361">
        <ele>71</ele>
        <time>2020-12-13T10:12:00.000Z</time>
      </trkpt>
      <trkpt lat="47.25025" lon="-2.26359">
        <ele>71</ele>
        <time>2020-12-13T10:12:01.000Z</time>
      </trkpt>
      <trkpt lat="47.25037" lon="-2.26354">
        <ele>71</ele>
        <time>2020-12-13T10:12:03.000Z</time>
      </trkpt>
      <trkpt lat="47.25043" lon="-2.26349">
        <ele>71</ele>
        <time>2020-12-13T10:12:04.000Z</time>
      </trkpt>
      <trkpt lat="47.25053" lon="-2.26323">
        <ele>71</ele>
        <time>2020-12-13T10:12:07.000Z</time>
      </trkpt>
      <trkpt lat="47.25055" lon="-2.26305">
        <ele>71</ele>
        <time>2020-12-13T10:12:09.000Z</time>
      </trkpt>
      <trkpt lat="47.25056" lon="-2.26288">
        <ele>71</ele>
        <time>2020-12-13T10:12:11.000Z</time>
      </trkpt>
      <trkpt lat="47.25065" lon="-2.26257">
        <ele>71</ele>
        <time>2020-12-13T10:12:15.000Z</time>
      </trkpt>
      <trkpt lat="47.25068" lon="-2.26249">
        <ele>71</ele>
        <time>2020-12-13T10:12:16.000Z</time>
      </trkpt>
      <trkpt lat="47.25079" lon="-2.26225">
        <ele>71</ele>
        <time>2020-12-13T10:12:20.000Z</time>
      </trkpt>
      <trkpt lat="47.25081" lon="-2.26197">
        <ele>71</ele>
        <time>2020-12-13T10:12:24.000Z</time>
      </trkpt>
      <trkpt lat="47.25081" lon="-2.26151">
        <ele>71</ele>
        <time>2020-12-13T10:12:30.000Z</time>
      </trkpt>
      <trkpt lat="47.25081" lon="-2.26131">
        <ele>71</ele>
        <time>2020-12-13T10:12:33.000Z</time>
      </trkpt>
      <trkpt lat="47.25084" lon="-2.2611">
        <ele>71</ele>
        <time>2020-12-13T10:12:36.000Z</time>
      </trkpt>
      <trkpt lat="47.25094" lon="-2.26063">
        <ele>71</ele>
        <time>2020-12-13T10:12:42.000Z</time>
      </trkpt>
      <trkpt lat="47.25103" lon="-2.26006">
        <ele>71</ele>
        <time>2020-12-13T10:12:48.000Z</time>
      </trkpt>
      <trkpt lat="47.25107" lon="-2.25985">
        <ele>71</ele>
        <time>2020-12-13T10:12:50.000Z</time>
      </trkpt>
      <trkpt lat="47.25117" lon="-2.25961">
        <ele>71</ele>
        <time>2020-12-13T10:12:53.000Z</time>
      </trkpt>
      <trkpt lat="47.25138" lon="-2.25929">
        <ele>71</ele>
        <time>2020-12-13T10:12:58.000Z</time>
      </trkpt>
      <trkpt lat="47.25152" lon="-2.25905">
        <ele>71</ele>
        <time>2020-12-13T10:13:02.000Z</time>
      </trkpt>
      <trkpt lat="47.25158" lon="-2.25891">
        <ele>71</ele>
        <time>2020-12-13T10:13:04.000Z</time>
      </trkpt>
      <trkpt lat="47.25171" lon="-2.25841">
        <ele>71</ele>
        <time>2020-12-13T10:13:10.000Z</time>
      </trkpt>
      <trkpt lat="47.25179" lon="-2.25798">
        <ele>71</ele>
        <time>2020-12-13T10:13:16.000Z</time>
      </trkpt>
      <trkpt lat="47.25181" lon="-2.25794">
        <ele>71</ele>
        <time>2020-12-13T10:13:17.000Z</time>
      </trkpt>
      <trkpt lat="47.25188" lon="-2.25789">
        <ele>71</ele>
        <time>2020-12-13T10:13:19.000Z</time>
      </trkpt>
      <trkpt lat="47.25205" lon="-2.2579">
        <ele>71</ele>
        <time>2020-12-13T10:13:23.000Z</time>
      </trkpt>
      <trkpt lat="47.25222" lon="-2.25791">
        <ele>71</ele>
        <time>2020-12-13T10:13:29.000Z</time>
      </trkpt>
      <trkpt lat="47.25226" lon="-2.25788">
        <ele>71</ele>
        <time>2020-12-13T10:13:31.000Z</time>
      </trkpt>
      <trkpt lat="47.25226" lon="-2.25782">
        <ele>71</ele>
        <time>2020-12-13T10:13:33.000Z</time>
      </trkpt>
      <trkpt lat="47.25228" lon="-2.25773">
        <ele>71</ele>
        <time>2020-12-13T10:13:37.000Z</time>
      </trkpt>
      <trkpt lat="47.25231" lon="-2.25754">
        <ele>71</ele>
        <time>2020-12-13T10:13:41.000Z</time>
      </trkpt>
      <trkpt lat="47.25237" lon="-2.25715">
        <ele>71</ele>
        <time>2020-12-13T10:13:47.000Z</time>
      </trkpt>
      <trkpt lat="47.25246" lon="-2.25677">
        <ele>71</ele>
        <time>2020-12-13T10:13:52.000Z</time>
      </trkpt>
      <trkpt lat="47.2526" lon="-2.25646">
        <ele>71</ele>
        <time>2020-12-13T10:13:56.000Z</time>
      </trkpt>
      <trkpt lat="47.25263" lon="-2.25628">
        <ele>71</ele>
        <time>2020-12-13T10:13:58.000Z</time>
      </trkpt>
      <trkpt lat="47.25264" lon="-2.25619">
        <ele>71</ele>
        <time>2020-12-13T10:13:59.000Z</time>
      </trkpt>
      <trkpt lat="47.25265" lon="-2.25602">
        <ele>71</ele>
        <time>2020-12-13T10:14:01.000Z</time>
      </trkpt>
      <trkpt lat="47.25266" lon="-2.25577">
        <ele>71</ele>
        <time>2020-12-13T10:14:04.000Z</time>
      </trkpt>
      <trkpt lat="47.25263" lon="-2.25553">
        <ele>71</ele>
        <time>2020-12-13T10:14:07.000Z</time>
      </trkpt>
      <trkpt lat="47.25257" lon="-2.25504">
        <ele>71</ele>
        <time>2020-12-13T10:14:13.000Z</time>
      </trkpt>
      <trkpt lat="47.25257" lon="-2.25498">
        <ele>71</ele>
        <time>2020-12-13T10:14:14.000Z</time>
      </trkpt>
      <trkpt lat="47.25248" lon="-2.25484">
        <ele>71</ele>
        <time>2020-12-13T10:14:17.000Z</time>
      </trkpt>
      <trkpt lat="47.25237" lon="-2.25475">
        <ele>71</ele>
        <time>2020-12-13T10:14:21.000Z</time>
      </trkpt>
      <trkpt lat="47.25235" lon="-2.2547">
        <ele>71</ele>
        <time>2020-12-13T10:14:23.000Z</time>
      </trkpt>
      <trkpt lat="47.25235" lon="-2.25465">
        <ele>71</ele>
        <time>2020-12-13T10:14:25.000Z</time>
      </trkpt>
      <trkpt lat="47.25236" lon="-2.25463">
        <ele>71</ele>
        <time>2020-12-13T10:14:26.000Z</time>
      </trkpt>
      <trkpt lat="47.25241" lon="-2.25444">
        <ele>71</ele>
        <time>2020-12-13T10:14:32.000Z</time>
      </trkpt>
      <trkpt lat="47.25245" lon="-2.25423">
        <ele>71</ele>
        <time>2020-12-13T10:14:36.000Z</time>
      </trkpt>
      <trkpt lat="47.25255" lon="-2.25409">
        <ele>71</ele>
        <time>2020-12-13T10:14:41.000Z</time>
      </trkpt>
      <trkpt lat="47.25257" lon="-2.2541">
        <ele>71</ele>
        <time>2020-12-13T10:14:42.000Z</time>
      </trkpt>
      <trkpt lat="47.2526" lon="-2.25412">
        <ele>71</ele>
        <time>2020-12-13T10:14:44.000Z</time>
      </trkpt>
      <trkpt lat="47.25267" lon="-2.25403">
        <ele>71</ele>
        <time>2020-12-13T10:14:48.000Z</time>
      </trkpt>
      <trkpt lat="47.25268" lon="-2.25397">
        <ele>71</ele>
        <time>2020-12-13T10:14:49.000Z</time>
      </trkpt>
      <trkpt lat="47.25268" lon="-2.25392">
        <ele>71</ele>
        <time>2020-12-13T10:14:50.000Z</time>
      </trkpt>
      <trkpt lat="47.25268" lon="-2.25386">
        <ele>71</ele>
        <time>2020-12-13T10:14:51.000Z</time>
      </trkpt>
      <trkpt lat="47.25271" lon="-2.25371">
        <ele>71</ele>
        <time>2020-12-13T10:14:55.000Z</time>
      </trkpt>
      <trkpt lat="47.25273" lon="-2.2537">
        <ele>71</ele>
        <time>2020-12-13T10:14:56.000Z</time>
      </trkpt>
      <trkpt lat="47.25276" lon="-2.25376">
        <ele>71</ele>
        <time>2020-12-13T10:14:58.000Z</time>
      </trkpt>
      <trkpt lat="47.25277" lon="-2.2538">
        <ele>71</ele>
        <time>2020-12-13T10:14:59.000Z</time>
      </trkpt>
      <trkpt lat="47.25286" lon="-2.25395">
        <ele>71</ele>
        <time>2020-12-13T10:15:04.000Z</time>
      </trkpt>
      <trkpt lat="47.25299" lon="-2.25403">
        <ele>71</ele>
        <time>2020-12-13T10:15:08.000Z</time>
      </trkpt>
      <trkpt lat="47.25306" lon="-2.2541">
        <ele>71.400001525879</ele>
        <time>2020-12-13T10:15:10.000Z</time>
      </trkpt>
      <trkpt lat="47.25308" lon="-2.25413">
        <ele>71.800003051758</ele>
        <time>2020-12-13T10:15:11.000Z</time>
      </trkpt>
      <trkpt lat="47.25311" lon="-2.25415">
        <ele>72.199996948242</ele>
        <time>2020-12-13T10:15:12.000Z</time>
      </trkpt>
      <trkpt lat="47.25314" lon="-2.25415">
        <ele>72.599998474121</ele>
        <time>2020-12-13T10:15:13.000Z</time>
      </trkpt>
      <trkpt lat="47.25318" lon="-2.25416">
        <ele>73</ele>
        <time>2020-12-13T10:15:14.000Z</time>
      </trkpt>
      <trkpt lat="47.25325" lon="-2.25414">
        <ele>73</ele>
        <time>2020-12-13T10:15:16.000Z</time>
      </trkpt>
      <trkpt lat="47.25341" lon="-2.25412">
        <ele>73</ele>
        <time>2020-12-13T10:15:21.000Z</time>
      </trkpt>
      <trkpt lat="47.25345" lon="-2.25409">
        <ele>73</ele>
        <time>2020-12-13T10:15:23.000Z</time>
      </trkpt>
      <trkpt lat="47.25345" lon="-2.25404">
        <ele>73</ele>
        <time>2020-12-13T10:15:25.000Z</time>
      </trkpt>
      <trkpt lat="47.25343" lon="-2.25396">
        <ele>73</ele>
        <time>2020-12-13T10:15:28.000Z</time>
      </trkpt>
      <trkpt lat="47.25343" lon="-2.25394">
        <ele>73</ele>
        <time>2020-12-13T10:15:30.000Z</time>
      </trkpt>
      <trkpt lat="47.25345" lon="-2.25408">
        <ele>77.199996948242</ele>
        <time>2020-12-13T10:23:00.000Z</time>
      </trkpt>
      <trkpt lat="47.25343" lon="-2.25416">
        <ele>77.199996948242</ele>
        <time>2020-12-13T10:23:03.000Z</time>
      </trkpt>
      <trkpt lat="47.25342" lon="-2.25424">
        <ele>77.199996948242</ele>
        <time>2020-12-13T10:23:06.000Z</time>
      </trkpt>
      <trkpt lat="47.25344" lon="-2.25445">
        <ele>77.199996948242</ele>
        <time>2020-12-13T10:23:13.000Z</time>
      </trkpt>
      <trkpt lat="47.25354" lon="-2.2547">
        <ele>76.800003051758</ele>
        <time>2020-12-13T10:23:18.000Z</time>
      </trkpt>
      <trkpt lat="47.25356" lon="-2.25476">
        <ele>76.400001525879</ele>
        <time>2020-12-13T10:23:19.000Z</time>
      </trkpt>
      <trkpt lat="47.25358" lon="-2.25483">
        <ele>75.599998474121</ele>
        <time>2020-12-13T10:23:20.000Z</time>
      </trkpt>
      <trkpt lat="47.25359" lon="-2.25489">
        <ele>75</ele>
        <time>2020-12-13T10:23:21.000Z</time>
      </trkpt>
      <trkpt lat="47.25363" lon="-2.25505">
        <ele>75</ele>
        <time>2020-12-13T10:23:24.000Z</time>
      </trkpt>
      <trkpt lat="47.25367" lon="-2.25531">
        <ele>75</ele>
        <time>2020-12-13T10:23:29.000Z</time>
      </trkpt>
      <trkpt lat="47.25369" lon="-2.25566">
        <ele>75</ele>
        <time>2020-12-13T10:23:35.000Z</time>
      </trkpt>
      <trkpt lat="47.25369" lon="-2.25599">
        <ele>75</ele>
        <time>2020-12-13T10:23:41.000Z</time>
      </trkpt>
      <trkpt lat="47.25378" lon="-2.25626">
        <ele>75</ele>
        <time>2020-12-13T10:23:45.000Z</time>
      </trkpt>
      <trkpt lat="47.25386" lon="-2.25657">
        <ele>75</ele>
        <time>2020-12-13T10:23:51.000Z</time>
      </trkpt>
      <trkpt lat="47.25389" lon="-2.25669">
        <ele>75</ele>
        <time>2020-12-13T10:23:54.000Z</time>
      </trkpt>
      <trkpt lat="47.2539" lon="-2.25672">
        <ele>75</ele>
        <time>2020-12-13T10:23:55.000Z</time>
      </trkpt>
      <trkpt lat="47.25393" lon="-2.25686">
        <ele>74.599998474121</ele>
        <time>2020-12-13T10:23:59.000Z</time>
      </trkpt>
      <trkpt lat="47.25394" lon="-2.25689">
        <ele>74.199996948242</ele>
        <time>2020-12-13T10:24:00.000Z</time>
      </trkpt>
      <trkpt lat="47.25395" lon="-2.25692">
        <ele>73.800003051758</ele>
        <time>2020-12-13T10:24:01.000Z</time>
      </trkpt>
      <trkpt lat="47.25399" lon="-2.25692">
        <ele>73.400001525879</ele>
        <time>2020-12-13T10:24:02.000Z</time>
      </trkpt>
      <trkpt lat="47.25402" lon="-2.25692">
        <ele>73</ele>
        <time>2020-12-13T10:24:03.000Z</time>
      </trkpt>
      <trkpt lat="47.25404" lon="-2.25691">
        <ele>73</ele>
        <time>2020-12-13T10:24:04.000Z</time>
      </trkpt>
      <trkpt lat="47.25407" lon="-2.2569">
        <ele>73</ele>
        <time>2020-12-13T10:24:05.000Z</time>
      </trkpt>
      <trkpt lat="47.25419" lon="-2.25687">
        <ele>73</ele>
        <time>2020-12-13T10:24:10.000Z</time>
      </trkpt>
      <trkpt lat="47.2543" lon="-2.25687">
        <ele>73</ele>
        <time>2020-12-13T10:24:16.000Z</time>
      </trkpt>
      <trkpt lat="47.25444" lon="-2.25692">
        <ele>73</ele>
        <time>2020-12-13T10:24:22.000Z</time>
      </trkpt>
      <trkpt lat="47.25445" lon="-2.25694">
        <ele>73</ele>
        <time>2020-12-13T10:24:23.000Z</time>
      </trkpt>
      <trkpt lat="47.25452" lon="-2.25698">
        <ele>73</ele>
        <time>2020-12-13T10:24:27.000Z</time>
      </trkpt>
      <trkpt lat="47.25453" lon="-2.25698">
        <ele>72.599998474121</ele>
        <time>2020-12-13T10:24:28.000Z</time>
      </trkpt>
      <trkpt lat="47.25454" lon="-2.25699">
        <ele>72.199996948242</ele>
        <time>2020-12-13T10:24:29.000Z</time>
      </trkpt>
      <trkpt lat="47.25455" lon="-2.25701">
        <ele>71.800003051758</ele>
        <time>2020-12-13T10:24:30.000Z</time>
      </trkpt>
      <trkpt lat="47.25456" lon="-2.25704">
        <ele>71.400001525879</ele>
        <time>2020-12-13T10:24:31.000Z</time>
      </trkpt>
      <trkpt lat="47.25457" lon="-2.25706">
        <ele>71</ele>
        <time>2020-12-13T10:24:32.000Z</time>
      </trkpt>
      <trkpt lat="47.25457" lon="-2.25708">
        <ele>71</ele>
        <time>2020-12-13T10:24:33.000Z</time>
      </trkpt>
      <trkpt lat="47.25461" lon="-2.25728">
        <ele>71</ele>
        <time>2020-12-13T10:24:41.000Z</time>
      </trkpt>
      <trkpt lat="47.25464" lon="-2.25742">
        <ele>71</ele>
        <time>2020-12-13T10:24:47.000Z</time>
      </trkpt>
      <trkpt lat="47.25463" lon="-2.25755">
        <ele>71</ele>
        <time>2020-12-13T10:24:53.000Z</time>
      </trkpt>
      <trkpt lat="47.25462" lon="-2.25764">
        <ele>71</ele>
        <time>2020-12-13T10:24:56.000Z</time>
      </trkpt>
      <trkpt lat="47.2546" lon="-2.25769">
        <ele>70.599998474121</ele>
        <time>2020-12-13T10:24:59.000Z</time>
      </trkpt>
      <trkpt lat="47.2546" lon="-2.2577">
        <ele>70.199996948242</ele>
        <time>2020-12-13T10:25:00.000Z</time>
      </trkpt>
      <trkpt lat="47.2546" lon="-2.25773">
        <ele>69.800003051758</ele>
        <time>2020-12-13T10:25:01.000Z</time>
      </trkpt>
      <trkpt lat="47.2546" lon="-2.25775">
        <ele>69.400001525879</ele>
        <time>2020-12-13T10:25:02.000Z</time>
      </trkpt>
      <trkpt lat="47.2546" lon="-2.25777">
        <ele>69</ele>
        <time>2020-12-13T10:25:03.000Z</time>
      </trkpt>
      <trkpt lat="47.2546" lon="-2.25791">
        <ele>69</ele>
        <time>2020-12-13T10:25:09.000Z</time>
      </trkpt>
      <trkpt lat="47.25455" lon="-2.25796">
        <ele>69</ele>
        <time>2020-12-13T10:25:13.000Z</time>
      </trkpt>
      <trkpt lat="47.25453" lon="-2.25798">
        <ele>69</ele>
        <time>2020-12-13T10:25:14.000Z</time>
      </trkpt>
      <trkpt lat="47.2545" lon="-2.25807">
        <ele>69</ele>
        <time>2020-12-13T10:25:17.000Z</time>
      </trkpt>
      <trkpt lat="47.25449" lon="-2.25812">
        <ele>69</ele>
        <time>2020-12-13T10:25:19.000Z</time>
      </trkpt>
      <trkpt lat="47.25446" lon="-2.25827">
        <ele>68.599998474121</ele>
        <time>2020-12-13T10:25:25.000Z</time>
      </trkpt>
      <trkpt lat="47.25445" lon="-2.25831">
        <ele>68.199996948242</ele>
        <time>2020-12-13T10:25:26.000Z</time>
      </trkpt>
      <trkpt lat="47.25444" lon="-2.25834">
        <ele>67.599998474121</ele>
        <time>2020-12-13T10:25:27.000Z</time>
      </trkpt>
      <trkpt lat="47.25442" lon="-2.25839">
        <ele>67.199996948242</ele>
        <time>2020-12-13T10:25:28.000Z</time>
      </trkpt>
      <trkpt lat="47.25442" lon="-2.25844">
        <ele>66.800003051758</ele>
        <time>2020-12-13T10:25:29.000Z</time>
      </trkpt>
      <trkpt lat="47.25438" lon="-2.25853">
        <ele>66.800003051758</ele>
        <time>2020-12-13T10:25:31.000Z</time>
      </trkpt>
      <trkpt lat="47.25429" lon="-2.25877">
        <ele>66.800003051758</ele>
        <time>2020-12-13T10:25:37.000Z</time>
      </trkpt>
      <trkpt lat="47.25425" lon="-2.25896">
        <ele>66.800003051758</ele>
        <time>2020-12-13T10:25:43.000Z</time>
      </trkpt>
      <trkpt lat="47.25423" lon="-2.25928">
        <ele>66.800003051758</ele>
        <time>2020-12-13T10:25:49.000Z</time>
      </trkpt>
      <trkpt lat="47.25419" lon="-2.25942">
        <ele>66.400001525879</ele>
        <time>2020-12-13T10:25:52.000Z</time>
      </trkpt>
      <trkpt lat="47.25417" lon="-2.25947">
        <ele>66</ele>
        <time>2020-12-13T10:25:53.000Z</time>
      </trkpt>
      <trkpt lat="47.25415" lon="-2.25951">
        <ele>65.599998474121</ele>
        <time>2020-12-13T10:25:54.000Z</time>
      </trkpt>
      <trkpt lat="47.25413" lon="-2.25954">
        <ele>65.199996948242</ele>
        <time>2020-12-13T10:25:55.000Z</time>
      </trkpt>
      <trkpt lat="47.25412" lon="-2.25956">
        <ele>64.800003051758</ele>
        <time>2020-12-13T10:25:56.000Z</time>
      </trkpt>
      <trkpt lat="47.25405" lon="-2.25965">
        <ele>64.800003051758</ele>
        <time>2020-12-13T10:26:00.000Z</time>
      </trkpt>
      <trkpt lat="47.254" lon="-2.25985">
        <ele>64.800003051758</ele>
        <time>2020-12-13T10:26:07.000Z</time>
      </trkpt>
      <trkpt lat="47.25393" lon="-2.25989">
        <ele>64.800003051758</ele>
        <time>2020-12-13T10:26:11.000Z</time>
      </trkpt>
      <trkpt lat="47.25389" lon="-2.2599">
        <ele>64.800003051758</ele>
        <time>2020-12-13T10:26:14.000Z</time>
      </trkpt>
      <trkpt lat="47.25388" lon="-2.2599">
        <ele>64.800003051758</ele>
        <time>2020-12-13T10:26:16.000Z</time>
      </trkpt>
      <trkpt lat="47.25363" lon="-2.25987">
        <ele>64.800003051758</ele>
        <time>2020-12-13T10:26:47.000Z</time>
      </trkpt>
      <trkpt lat="47.2536" lon="-2.25989">
        <ele>64.800003051758</ele>
        <time>2020-12-13T10:26:49.000Z</time>
      </trkpt>
      <trkpt lat="47.25361" lon="-2.25996">
        <ele>64.800003051758</ele>
        <time>2020-12-13T10:26:54.000Z</time>
      </trkpt>
      <trkpt lat="47.2536" lon="-2.25996">
        <ele>64.800003051758</ele>
        <time>2020-12-13T10:26:55.000Z</time>
      </trkpt>
      <trkpt lat="47.2536" lon="-2.26">
        <ele>64.400001525879</ele>
        <time>2020-12-13T10:26:57.000Z</time>
      </trkpt>
      <trkpt lat="47.2536" lon="-2.26001">
        <ele>64</ele>
        <time>2020-12-13T10:26:58.000Z</time>
      </trkpt>
      <trkpt lat="47.2536" lon="-2.26003">
        <ele>63.599998474121</ele>
        <time>2020-12-13T10:26:59.000Z</time>
      </trkpt>
      <trkpt lat="47.25361" lon="-2.26005">
        <ele>63</ele>
        <time>2020-12-13T10:27:00.000Z</time>
      </trkpt>
      <trkpt lat="47.25361" lon="-2.26006">
        <ele>62.599998474121</ele>
        <time>2020-12-13T10:27:01.000Z</time>
      </trkpt>
      <trkpt lat="47.25363" lon="-2.2601">
        <ele>62.599998474121</ele>
        <time>2020-12-13T10:27:03.000Z</time>
      </trkpt>
      <trkpt lat="47.25371" lon="-2.26014">
        <ele>62.599998474121</ele>
        <time>2020-12-13T10:27:08.000Z</time>
      </trkpt>
      <trkpt lat="47.25382" lon="-2.26029">
        <ele>62.599998474121</ele>
        <time>2020-12-13T10:27:14.000Z</time>
      </trkpt>
      <trkpt lat="47.25386" lon="-2.26043">
        <ele>62.599998474121</ele>
        <time>2020-12-13T10:27:19.000Z</time>
      </trkpt>
      <trkpt lat="47.25387" lon="-2.26066">
        <ele>62.200000762939</ele>
        <time>2020-12-13T10:27:23.000Z</time>
      </trkpt>
      <trkpt lat="47.25387" lon="-2.26072">
        <ele>61.799999237061</ele>
        <time>2020-12-13T10:27:24.000Z</time>
      </trkpt>
      <trkpt lat="47.25388" lon="-2.26077">
        <ele>61.400001525879</ele>
        <time>2020-12-13T10:27:25.000Z</time>
      </trkpt>
      <trkpt lat="47.25389" lon="-2.26082">
        <ele>60.599998474121</ele>
        <time>2020-12-13T10:27:26.000Z</time>
      </trkpt>
      <trkpt lat="47.25392" lon="-2.26094">
        <ele>60.599998474121</ele>
        <time>2020-12-13T10:27:28.000Z</time>
      </trkpt>
      <trkpt lat="47.25392" lon="-2.26112">
        <ele>60.599998474121</ele>
        <time>2020-12-13T10:27:32.000Z</time>
      </trkpt>
      <trkpt lat="47.25389" lon="-2.26114">
        <ele>60.599998474121</ele>
        <time>2020-12-13T10:27:33.000Z</time>
      </trkpt>
      <trkpt lat="47.25384" lon="-2.26124">
        <ele>60.599998474121</ele>
        <time>2020-12-13T10:27:38.000Z</time>
      </trkpt>
      <trkpt lat="47.25379" lon="-2.26136">
        <ele>60.599998474121</ele>
        <time>2020-12-13T10:27:42.000Z</time>
      </trkpt>
      <trkpt lat="47.25377" lon="-2.26141">
        <ele>60.599998474121</ele>
        <time>2020-12-13T10:27:44.000Z</time>
      </trkpt>
      <trkpt lat="47.25374" lon="-2.26146">
        <ele>60.599998474121</ele>
        <time>2020-12-13T10:27:47.000Z</time>
      </trkpt>
      <trkpt lat="47.25374" lon="-2.26151">
        <ele>60.599998474121</ele>
        <time>2020-12-13T10:27:59.000Z</time>
      </trkpt>
      <trkpt lat="47.25373" lon="-2.26153">
        <ele>60.599998474121</ele>
        <time>2020-12-13T10:28:00.000Z</time>
      </trkpt>
      <trkpt lat="47.25374" lon="-2.26164">
        <ele>60.599998474121</ele>
        <time>2020-12-13T10:28:06.000Z</time>
      </trkpt>
      <trkpt lat="47.25375" lon="-2.26167">
        <ele>60.599998474121</ele>
        <time>2020-12-13T10:28:07.000Z</time>
      </trkpt>
      <trkpt lat="47.2538" lon="-2.26193">
        <ele>60.599998474121</ele>
        <time>2020-12-13T10:28:13.000Z</time>
      </trkpt>
      <trkpt lat="47.25396" lon="-2.26217">
        <ele>60.599998474121</ele>
        <time>2020-12-13T10:28:19.000Z</time>
      </trkpt>
      <trkpt lat="47.25399" lon="-2.26237">
        <ele>60.599998474121</ele>
        <time>2020-12-13T10:28:23.000Z</time>
      </trkpt>
      <trkpt lat="47.25392" lon="-2.26251">
        <ele>60.599998474121</ele>
        <time>2020-12-13T10:28:27.000Z</time>
      </trkpt>
      <trkpt lat="47.25391" lon="-2.26258">
        <ele>60.599998474121</ele>
        <time>2020-12-13T10:28:29.000Z</time>
      </trkpt>
      <trkpt lat="47.25391" lon="-2.26273">
        <ele>60.599998474121</ele>
        <time>2020-12-13T10:28:33.000Z</time>
      </trkpt>
      <trkpt lat="47.25395" lon="-2.26295">
        <ele>60.599998474121</ele>
        <time>2020-12-13T10:28:40.000Z</time>
      </trkpt>
      <trkpt lat="47.254" lon="-2.26308">
        <ele>60.599998474121</ele>
        <time>2020-12-13T10:28:46.000Z</time>
      </trkpt>
      <trkpt lat="47.25406" lon="-2.26329">
        <ele>60.599998474121</ele>
        <time>2020-12-13T10:28:52.000Z</time>
      </trkpt>
      <trkpt lat="47.25411" lon="-2.26339">
        <ele>60.599998474121</ele>
        <time>2020-12-13T10:28:56.000Z</time>
      </trkpt>
      <trkpt lat="47.25414" lon="-2.26342">
        <ele>60.599998474121</ele>
        <time>2020-12-13T10:28:58.000Z</time>
      </trkpt>
      <trkpt lat="47.25421" lon="-2.26363">
        <ele>60.599998474121</ele>
        <time>2020-12-13T10:29:03.000Z</time>
      </trkpt>
      <trkpt lat="47.25418" lon="-2.26391">
        <ele>60.599998474121</ele>
        <time>2020-12-13T10:29:07.000Z</time>
      </trkpt>
      <trkpt lat="47.2542" lon="-2.26396">
        <ele>60.599998474121</ele>
        <time>2020-12-13T10:29:08.000Z</time>
      </trkpt>
      <trkpt lat="47.2543" lon="-2.26413">
        <ele>60.599998474121</ele>
        <time>2020-12-13T10:29:10.000Z</time>
      </trkpt>
      <trkpt lat="47.25434" lon="-2.26417">
        <ele>60.599998474121</ele>
        <time>2020-12-13T10:29:11.000Z</time>
      </trkpt>
      <trkpt lat="47.25445" lon="-2.26428">
        <ele>60.599998474121</ele>
        <time>2020-12-13T10:29:14.000Z</time>
      </trkpt>
      <trkpt lat="47.25454" lon="-2.26446">
        <ele>60.599998474121</ele>
        <time>2020-12-13T10:29:18.000Z</time>
      </trkpt>
      <trkpt lat="47.25456" lon="-2.26459">
        <ele>60.599998474121</ele>
        <time>2020-12-13T10:29:20.000Z</time>
      </trkpt>
      <trkpt lat="47.25458" lon="-2.26473">
        <ele>60.599998474121</ele>
        <time>2020-12-13T10:29:22.000Z</time>
      </trkpt>
      <trkpt lat="47.25467" lon="-2.26488">
        <ele>60.599998474121</ele>
        <time>2020-12-13T10:29:26.000Z</time>
      </trkpt>
      <trkpt lat="47.25469" lon="-2.26492">
        <ele>60.599998474121</ele>
        <time>2020-12-13T10:29:27.000Z</time>
      </trkpt>
      <trkpt lat="47.25476" lon="-2.26513">
        <ele>60.599998474121</ele>
        <time>2020-12-13T10:29:32.000Z</time>
      </trkpt>
      <trkpt lat="47.25482" lon="-2.26546">
        <ele>60.599998474121</ele>
        <time>2020-12-13T10:29:38.000Z</time>
      </trkpt>
      <trkpt lat="47.25489" lon="-2.26579">
        <ele>60.599998474121</ele>
        <time>2020-12-13T10:29:44.000Z</time>
      </trkpt>
      <trkpt lat="47.25487" lon="-2.26608">
        <ele>60.599998474121</ele>
        <time>2020-12-13T10:29:49.000Z</time>
      </trkpt>
      <trkpt lat="47.25486" lon="-2.26621">
        <ele>60.599998474121</ele>
        <time>2020-12-13T10:29:51.000Z</time>
      </trkpt>
      <trkpt lat="47.25488" lon="-2.26647">
        <ele>60.599998474121</ele>
        <time>2020-12-13T10:29:55.000Z</time>
      </trkpt>
      <trkpt lat="47.25486" lon="-2.26686">
        <ele>60.599998474121</ele>
        <time>2020-12-13T10:30:02.000Z</time>
      </trkpt>
      <trkpt lat="47.25477" lon="-2.26709">
        <ele>60.599998474121</ele>
        <time>2020-12-13T10:30:07.000Z</time>
      </trkpt>
      <trkpt lat="47.25477" lon="-2.26726">
        <ele>60.599998474121</ele>
        <time>2020-12-13T10:30:11.000Z</time>
      </trkpt>
      <trkpt lat="47.25478" lon="-2.26731">
        <ele>60.599998474121</ele>
        <time>2020-12-13T10:30:12.000Z</time>
      </trkpt>
      <trkpt lat="47.25485" lon="-2.2675">
        <ele>60.599998474121</ele>
        <time>2020-12-13T10:30:16.000Z</time>
      </trkpt>
      <trkpt lat="47.2549" lon="-2.2676">
        <ele>60.599998474121</ele>
        <time>2020-12-13T10:30:18.000Z</time>
      </trkpt>
      <trkpt lat="47.25503" lon="-2.26785">
        <ele>60.599998474121</ele>
        <time>2020-12-13T10:30:23.000Z</time>
      </trkpt>
      <trkpt lat="47.25509" lon="-2.26795">
        <ele>60.599998474121</ele>
        <time>2020-12-13T10:30:25.000Z</time>
      </trkpt>
      <trkpt lat="47.25525" lon="-2.26816">
        <ele>60.599998474121</ele>
        <time>2020-12-13T10:30:30.000Z</time>
      </trkpt>
      <trkpt lat="47.25546" lon="-2.26839">
        <ele>60.599998474121</ele>
        <time>2020-12-13T10:30:37.000Z</time>
      </trkpt>
      <trkpt lat="47.25564" lon="-2.26854">
        <ele>60.599998474121</ele>
        <time>2020-12-13T10:30:43.000Z</time>
      </trkpt>
      <trkpt lat="47.25589" lon="-2.26871">
        <ele>60.599998474121</ele>
        <time>2020-12-13T10:30:51.000Z</time>
      </trkpt>
      <trkpt lat="47.25615" lon="-2.2688">
        <ele>60.599998474121</ele>
        <time>2020-12-13T10:30:59.000Z</time>
      </trkpt>
      <trkpt lat="47.25626" lon="-2.26872">
        <ele>60.599998474121</ele>
        <time>2020-12-13T10:31:04.000Z</time>
      </trkpt>
      <trkpt lat="47.25644" lon="-2.26845">
        <ele>60.599998474121</ele>
        <time>2020-12-13T10:31:10.000Z</time>
      </trkpt>
      <trkpt lat="47.25666" lon="-2.26822">
        <ele>60.599998474121</ele>
        <time>2020-12-13T10:31:16.000Z</time>
      </trkpt>
      <trkpt lat="47.25687" lon="-2.26818">
        <ele>60.599998474121</ele>
        <time>2020-12-13T10:31:21.000Z</time>
      </trkpt>
      <trkpt lat="47.25695" lon="-2.26819">
        <ele>60.599998474121</ele>
        <time>2020-12-13T10:31:23.000Z</time>
      </trkpt>
      <trkpt lat="47.25711" lon="-2.26826">
        <ele>60.599998474121</ele>
        <time>2020-12-13T10:31:27.000Z</time>
      </trkpt>
      <trkpt lat="47.25729" lon="-2.26842">
        <ele>60.599998474121</ele>
        <time>2020-12-13T10:31:32.000Z</time>
      </trkpt>
      <trkpt lat="47.25742" lon="-2.26867">
        <ele>60.599998474121</ele>
        <time>2020-12-13T10:31:37.000Z</time>
      </trkpt>
      <trkpt lat="47.2575" lon="-2.26898">
        <ele>60.599998474121</ele>
        <time>2020-12-13T10:31:43.000Z</time>
      </trkpt>
      <trkpt lat="47.2576" lon="-2.26901">
        <ele>60.599998474121</ele>
        <time>2020-12-13T10:31:46.000Z</time>
      </trkpt>
      <trkpt lat="47.25771" lon="-2.26895">
        <ele>60.599998474121</ele>
        <time>2020-12-13T10:31:49.000Z</time>
      </trkpt>
      <trkpt lat="47.25775" lon="-2.26894">
        <ele>60.599998474121</ele>
        <time>2020-12-13T10:31:50.000Z</time>
      </trkpt>
      <trkpt lat="47.25809" lon="-2.26877">
        <ele>60.599998474121</ele>
        <time>2020-12-13T10:31:57.000Z</time>
      </trkpt>
      <trkpt lat="47.2585" lon="-2.26856">
        <ele>60.599998474121</ele>
        <time>2020-12-13T10:32:04.000Z</time>
      </trkpt>
      <trkpt lat="47.25904" lon="-2.26833">
        <ele>60.599998474121</ele>
        <time>2020-12-13T10:32:12.000Z</time>
      </trkpt>
      <trkpt lat="47.25918" lon="-2.26823">
        <ele>60.599998474121</ele>
        <time>2020-12-13T10:32:14.000Z</time>
      </trkpt>
      <trkpt lat="47.25932" lon="-2.26815">
        <ele>60.599998474121</ele>
        <time>2020-12-13T10:32:16.000Z</time>
      </trkpt>
      <trkpt lat="47.2594" lon="-2.26815">
        <ele>60.599998474121</ele>
        <time>2020-12-13T10:32:17.000Z</time>
      </trkpt>
      <trkpt lat="47.25982" lon="-2.26809">
        <ele>60.599998474121</ele>
        <time>2020-12-13T10:32:23.000Z</time>
      </trkpt>
      <trkpt lat="47.25992" lon="-2.26824">
        <ele>60.599998474121</ele>
        <time>2020-12-13T10:32:26.000Z</time>
      </trkpt>
      <trkpt lat="47.25995" lon="-2.26848">
        <ele>60.599998474121</ele>
        <time>2020-12-13T10:32:29.000Z</time>
      </trkpt>
      <trkpt lat="47.25996" lon="-2.26857">
        <ele>60.599998474121</ele>
        <time>2020-12-13T10:32:30.000Z</time>
      </trkpt>
      <trkpt lat="47.25999" lon="-2.26894">
        <ele>60.599998474121</ele>
        <time>2020-12-13T10:32:34.000Z</time>
      </trkpt>
      <trkpt lat="47.26003" lon="-2.26902">
        <ele>60.599998474121</ele>
        <time>2020-12-13T10:32:35.000Z</time>
      </trkpt>
      <trkpt lat="47.26014" lon="-2.26923">
        <ele>60.599998474121</ele>
        <time>2020-12-13T10:32:38.000Z</time>
      </trkpt>
      <trkpt lat="47.26018" lon="-2.26929">
        <ele>60.599998474121</ele>
        <time>2020-12-13T10:32:39.000Z</time>
      </trkpt>
      <trkpt lat="47.26022" lon="-2.26935">
        <ele>60.599998474121</ele>
        <time>2020-12-13T10:32:40.000Z</time>
      </trkpt>
      <trkpt lat="47.26043" lon="-2.2696">
        <ele>60.599998474121</ele>
        <time>2020-12-13T10:32:45.000Z</time>
      </trkpt>
      <trkpt lat="47.2607" lon="-2.26996">
        <ele>60.599998474121</ele>
        <time>2020-12-13T10:32:51.000Z</time>
      </trkpt>
      <trkpt lat="47.26073" lon="-2.27004">
        <ele>60.599998474121</ele>
        <time>2020-12-13T10:32:52.000Z</time>
      </trkpt>
      <trkpt lat="47.26081" lon="-2.2703">
        <ele>60.599998474121</ele>
        <time>2020-12-13T10:32:55.000Z</time>
      </trkpt>
      <trkpt lat="47.26091" lon="-2.27064">
        <ele>60.599998474121</ele>
        <time>2020-12-13T10:32:59.000Z</time>
      </trkpt>
      <trkpt lat="47.26093" lon="-2.27083">
        <ele>60.599998474121</ele>
        <time>2020-12-13T10:33:01.000Z</time>
      </trkpt>
      <trkpt lat="47.26094" lon="-2.27093">
        <ele>60.599998474121</ele>
        <time>2020-12-13T10:33:02.000Z</time>
      </trkpt>
      <trkpt lat="47.26095" lon="-2.27125">
        <ele>60.599998474121</ele>
        <time>2020-12-13T10:33:06.000Z</time>
      </trkpt>
      <trkpt lat="47.26096" lon="-2.27133">
        <ele>60.599998474121</ele>
        <time>2020-12-13T10:33:07.000Z</time>
      </trkpt>
      <trkpt lat="47.26102" lon="-2.27158">
        <ele>60.599998474121</ele>
        <time>2020-12-13T10:33:10.000Z</time>
      </trkpt>
      <trkpt lat="47.26104" lon="-2.27165">
        <ele>60.599998474121</ele>
        <time>2020-12-13T10:33:11.000Z</time>
      </trkpt>
      <trkpt lat="47.26109" lon="-2.2718">
        <ele>60.599998474121</ele>
        <time>2020-12-13T10:33:13.000Z</time>
      </trkpt>
      <trkpt lat="47.26119" lon="-2.272">
        <ele>60.599998474121</ele>
        <time>2020-12-13T10:33:16.000Z</time>
      </trkpt>
      <trkpt lat="47.26131" lon="-2.27233">
        <ele>60.599998474121</ele>
        <time>2020-12-13T10:33:21.000Z</time>
      </trkpt>
      <trkpt lat="47.26145" lon="-2.27284">
        <ele>60.599998474121</ele>
        <time>2020-12-13T10:33:28.000Z</time>
      </trkpt>
      <trkpt lat="47.26148" lon="-2.27306">
        <ele>60.599998474121</ele>
        <time>2020-12-13T10:33:31.000Z</time>
      </trkpt>
      <trkpt lat="47.26152" lon="-2.27317">
        <ele>60.599998474121</ele>
        <time>2020-12-13T10:33:33.000Z</time>
      </trkpt>
      <trkpt lat="47.26163" lon="-2.27323">
        <ele>60.599998474121</ele>
        <time>2020-12-13T10:33:36.000Z</time>
      </trkpt>
      <trkpt lat="47.26173" lon="-2.27321">
        <ele>60.599998474121</ele>
        <time>2020-12-13T10:33:38.000Z</time>
      </trkpt>
      <trkpt lat="47.26193" lon="-2.27316">
        <ele>60.599998474121</ele>
        <time>2020-12-13T10:33:42.000Z</time>
      </trkpt>
      <trkpt lat="47.26198" lon="-2.27315">
        <ele>60.599998474121</ele>
        <time>2020-12-13T10:33:43.000Z</time>
      </trkpt>
      <trkpt lat="47.26221" lon="-2.27317">
        <ele>60.599998474121</ele>
        <time>2020-12-13T10:33:47.000Z</time>
      </trkpt>
      <trkpt lat="47.26238" lon="-2.2732">
        <ele>60.599998474121</ele>
        <time>2020-12-13T10:33:50.000Z</time>
      </trkpt>
      <trkpt lat="47.26243" lon="-2.27321">
        <ele>60.599998474121</ele>
        <time>2020-12-13T10:33:51.000Z</time>
      </trkpt>
      <trkpt lat="47.26249" lon="-2.27323">
        <ele>60.599998474121</ele>
        <time>2020-12-13T10:33:52.000Z</time>
      </trkpt>
      <trkpt lat="47.26278" lon="-2.27323">
        <ele>60.599998474121</ele>
        <time>2020-12-13T10:33:57.000Z</time>
      </trkpt>
      <trkpt lat="47.26296" lon="-2.27325">
        <ele>60.599998474121</ele>
        <time>2020-12-13T10:34:00.000Z</time>
      </trkpt>
      <trkpt lat="47.26314" lon="-2.27327">
        <ele>60.599998474121</ele>
        <time>2020-12-13T10:34:03.000Z</time>
      </trkpt>
      <trkpt lat="47.26349" lon="-2.27331">
        <ele>60.599998474121</ele>
        <time>2020-12-13T10:34:09.000Z</time>
      </trkpt>
      <trkpt lat="47.2638" lon="-2.27332">
        <ele>60.599998474121</ele>
        <time>2020-12-13T10:34:15.000Z</time>
      </trkpt>
      <trkpt lat="47.26404" lon="-2.27333">
        <ele>60.599998474121</ele>
        <time>2020-12-13T10:34:20.000Z</time>
      </trkpt>
      <trkpt lat="47.26408" lon="-2.27334">
        <ele>60.599998474121</ele>
        <time>2020-12-13T10:34:21.000Z</time>
      </trkpt>
      <trkpt lat="47.26429" lon="-2.27344">
        <ele>60.599998474121</ele>
        <time>2020-12-13T10:34:27.000Z</time>
      </trkpt>
      <trkpt lat="47.26438" lon="-2.27366">
        <ele>60.599998474121</ele>
        <time>2020-12-13T10:34:32.000Z</time>
      </trkpt>
      <trkpt lat="47.26451" lon="-2.27395">
        <ele>60.599998474121</ele>
        <time>2020-12-13T10:34:38.000Z</time>
      </trkpt>
      <trkpt lat="47.26466" lon="-2.27437">
        <ele>60.599998474121</ele>
        <time>2020-12-13T10:34:44.000Z</time>
      </trkpt>
      <trkpt lat="47.26483" lon="-2.27497">
        <ele>60.599998474121</ele>
        <time>2020-12-13T10:34:52.000Z</time>
      </trkpt>
      <trkpt lat="47.26485" lon="-2.27505">
        <ele>60.599998474121</ele>
        <time>2020-12-13T10:34:53.000Z</time>
      </trkpt>
      <trkpt lat="47.26492" lon="-2.27537">
        <ele>60.599998474121</ele>
        <time>2020-12-13T10:34:57.000Z</time>
      </trkpt>
      <trkpt lat="47.26498" lon="-2.27568">
        <ele>60.599998474121</ele>
        <time>2020-12-13T10:35:01.000Z</time>
      </trkpt>
      <trkpt lat="47.26501" lon="-2.27574">
        <ele>60.599998474121</ele>
        <time>2020-12-13T10:35:02.000Z</time>
      </trkpt>
      <trkpt lat="47.26514" lon="-2.27576">
        <ele>60.599998474121</ele>
        <time>2020-12-13T10:35:05.000Z</time>
      </trkpt>
      <trkpt lat="47.26535" lon="-2.27578">
        <ele>60.599998474121</ele>
        <time>2020-12-13T10:35:09.000Z</time>
      </trkpt>
      <trkpt lat="47.26541" lon="-2.2758">
        <ele>60.599998474121</ele>
        <time>2020-12-13T10:35:10.000Z</time>
      </trkpt>
      <trkpt lat="47.26559" lon="-2.27582">
        <ele>60.599998474121</ele>
        <time>2020-12-13T10:35:13.000Z</time>
      </trkpt>
      <trkpt lat="47.26576" lon="-2.27582">
        <ele>60.599998474121</ele>
        <time>2020-12-13T10:35:16.000Z</time>
      </trkpt>
      <trkpt lat="47.26588" lon="-2.27586">
        <ele>60.599998474121</ele>
        <time>2020-12-13T10:35:18.000Z</time>
      </trkpt>
      <trkpt lat="47.26599" lon="-2.27591">
        <ele>60.599998474121</ele>
        <time>2020-12-13T10:35:20.000Z</time>
      </trkpt>
      <trkpt lat="47.26616" lon="-2.27598">
        <ele>60.599998474121</ele>
        <time>2020-12-13T10:35:23.000Z</time>
      </trkpt>
      <trkpt lat="47.2664" lon="-2.2761">
        <ele>60.599998474121</ele>
        <time>2020-12-13T10:35:28.000Z</time>
      </trkpt>
      <trkpt lat="47.26644" lon="-2.27612">
        <ele>60.599998474121</ele>
        <time>2020-12-13T10:35:29.000Z</time>
      </trkpt>
      <trkpt lat="47.26665" lon="-2.27622">
        <ele>60.599998474121</ele>
        <time>2020-12-13T10:35:35.000Z</time>
      </trkpt>
      <trkpt lat="47.2667" lon="-2.27624">
        <ele>60.599998474121</ele>
        <time>2020-12-13T10:35:38.000Z</time>
      </trkpt>
      <trkpt lat="47.26672" lon="-2.27626">
        <ele>60.599998474121</ele>
        <time>2020-12-13T10:36:16.000Z</time>
      </trkpt>
      <trkpt lat="47.26685" lon="-2.27628">
        <ele>60.599998474121</ele>
        <time>2020-12-13T10:36:22.000Z</time>
      </trkpt>
      <trkpt lat="47.26706" lon="-2.27637">
        <ele>60.599998474121</ele>
        <time>2020-12-13T10:36:27.000Z</time>
      </trkpt>
      <trkpt lat="47.26736" lon="-2.27648">
        <ele>60.599998474121</ele>
        <time>2020-12-13T10:36:33.000Z</time>
      </trkpt>
      <trkpt lat="47.26753" lon="-2.27649">
        <ele>60.599998474121</ele>
        <time>2020-12-13T10:36:37.000Z</time>
      </trkpt>
      <trkpt lat="47.2676" lon="-2.2764">
        <ele>60.599998474121</ele>
        <time>2020-12-13T10:36:40.000Z</time>
      </trkpt>
      <trkpt lat="47.26759" lon="-2.27617">
        <ele>60.599998474121</ele>
        <time>2020-12-13T10:36:44.000Z</time>
      </trkpt>
      <trkpt lat="47.26752" lon="-2.27559">
        <ele>60.599998474121</ele>
        <time>2020-12-13T10:36:53.000Z</time>
      </trkpt>
      <trkpt lat="47.26752" lon="-2.27514">
        <ele>60.599998474121</ele>
        <time>2020-12-13T10:37:00.000Z</time>
      </trkpt>
      <trkpt lat="47.26752" lon="-2.27495">
        <ele>60.599998474121</ele>
        <time>2020-12-13T10:37:03.000Z</time>
      </trkpt>
      <trkpt lat="47.26752" lon="-2.27475">
        <ele>60.599998474121</ele>
        <time>2020-12-13T10:37:06.000Z</time>
      </trkpt>
      <trkpt lat="47.26752" lon="-2.2743">
        <ele>60.599998474121</ele>
        <time>2020-12-13T10:37:12.000Z</time>
      </trkpt>
      <trkpt lat="47.26751" lon="-2.27423">
        <ele>60.599998474121</ele>
        <time>2020-12-13T10:37:13.000Z</time>
      </trkpt>
      <trkpt lat="47.26753" lon="-2.27414">
        <ele>60.599998474121</ele>
        <time>2020-12-13T10:37:15.000Z</time>
      </trkpt>
      <trkpt lat="47.26764" lon="-2.27411">
        <ele>60.599998474121</ele>
        <time>2020-12-13T10:37:19.000Z</time>
      </trkpt>
      <trkpt lat="47.26783" lon="-2.27411">
        <ele>60.599998474121</ele>
        <time>2020-12-13T10:37:23.000Z</time>
      </trkpt>
      <trkpt lat="47.26805" lon="-2.27409">
        <ele>60.599998474121</ele>
        <time>2020-12-13T10:37:28.000Z</time>
      </trkpt>
      <trkpt lat="47.26826" lon="-2.27405">
        <ele>60.599998474121</ele>
        <time>2020-12-13T10:37:33.000Z</time>
      </trkpt>
      <trkpt lat="47.2683" lon="-2.27404">
        <ele>60.599998474121</ele>
        <time>2020-12-13T10:37:34.000Z</time>
      </trkpt>
      <trkpt lat="47.26858" lon="-2.27391">
        <ele>60.599998474121</ele>
        <time>2020-12-13T10:37:40.000Z</time>
      </trkpt>
      <trkpt lat="47.26889" lon="-2.27375">
        <ele>60.599998474121</ele>
        <time>2020-12-13T10:37:46.000Z</time>
      </trkpt>
      <trkpt lat="47.26902" lon="-2.27365">
        <ele>60.599998474121</ele>
        <time>2020-12-13T10:37:50.000Z</time>
      </trkpt>
      <trkpt lat="47.2691" lon="-2.27351">
        <ele>60.599998474121</ele>
        <time>2020-12-13T10:37:55.000Z</time>
      </trkpt>
      <trkpt lat="47.26912" lon="-2.27343">
        <ele>60.599998474121</ele>
        <time>2020-12-13T10:37:58.000Z</time>
      </trkpt>
      <trkpt lat="47.26915" lon="-2.27334">
        <ele>60.599998474121</ele>
        <time>2020-12-13T10:38:01.000Z</time>
      </trkpt>
      <trkpt lat="47.2692" lon="-2.27318">
        <ele>60.599998474121</ele>
        <time>2020-12-13T10:38:07.000Z</time>
      </trkpt>
      <trkpt lat="47.26921" lon="-2.27313">
        <ele>60.599998474121</ele>
        <time>2020-12-13T10:38:09.000Z</time>
      </trkpt>
      <trkpt lat="47.26922" lon="-2.27303">
        <ele>60.599998474121</ele>
        <time>2020-12-13T10:38:13.000Z</time>
      </trkpt>
      <trkpt lat="47.26923" lon="-2.27292">
        <ele>60.599998474121</ele>
        <time>2020-12-13T10:38:17.000Z</time>
      </trkpt>
      <trkpt lat="47.26926" lon="-2.27286">
        <ele>60.599998474121</ele>
        <time>2020-12-13T10:38:19.000Z</time>
      </trkpt>
      <trkpt lat="47.26927" lon="-2.27282">
        <ele>60.599998474121</ele>
        <time>2020-12-13T10:38:20.000Z</time>
      </trkpt>
      <trkpt lat="47.26932" lon="-2.27269">
        <ele>60.599998474121</ele>
        <time>2020-12-13T10:38:24.000Z</time>
      </trkpt>
      <trkpt lat="47.26936" lon="-2.27264">
        <ele>60.200000762939</ele>
        <time>2020-12-13T10:38:26.000Z</time>
      </trkpt>
      <trkpt lat="47.26939" lon="-2.27264">
        <ele>59.799999237061</ele>
        <time>2020-12-13T10:38:27.000Z</time>
      </trkpt>
      <trkpt lat="47.26942" lon="-2.27263">
        <ele>59.400001525879</ele>
        <time>2020-12-13T10:38:28.000Z</time>
      </trkpt>
      <trkpt lat="47.26945" lon="-2.27263">
        <ele>59</ele>
        <time>2020-12-13T10:38:29.000Z</time>
      </trkpt>
      <trkpt lat="47.26948" lon="-2.27261">
        <ele>58.599998474121</ele>
        <time>2020-12-13T10:38:30.000Z</time>
      </trkpt>
      <trkpt lat="47.26952" lon="-2.27255">
        <ele>58.599998474121</ele>
        <time>2020-12-13T10:38:32.000Z</time>
      </trkpt>
      <trkpt lat="47.26959" lon="-2.2724">
        <ele>58.599998474121</ele>
        <time>2020-12-13T10:38:36.000Z</time>
      </trkpt>
      <trkpt lat="47.26961" lon="-2.27237">
        <ele>58.599998474121</ele>
        <time>2020-12-13T10:38:37.000Z</time>
      </trkpt>
      <trkpt lat="47.26966" lon="-2.27221">
        <ele>58.599998474121</ele>
        <time>2020-12-13T10:38:42.000Z</time>
      </trkpt>
      <trkpt lat="47.2697" lon="-2.27202">
        <ele>58.599998474121</ele>
        <time>2020-12-13T10:38:47.000Z</time>
      </trkpt>
      <trkpt lat="47.26977" lon="-2.27191">
        <ele>58.599998474121</ele>
        <time>2020-12-13T10:38:53.000Z</time>
      </trkpt>
      <trkpt lat="47.26982" lon="-2.27179">
        <ele>58.599998474121</ele>
        <time>2020-12-13T10:38:58.000Z</time>
      </trkpt>
      <trkpt lat="47.2699" lon="-2.27177">
        <ele>58.599998474121</ele>
        <time>2020-12-13T10:39:03.000Z</time>
      </trkpt>
      <trkpt lat="47.26994" lon="-2.27174">
        <ele>58.599998474121</ele>
        <time>2020-12-13T10:39:06.000Z</time>
      </trkpt>
      <trkpt lat="47.26998" lon="-2.27172">
        <ele>58.599998474121</ele>
        <time>2020-12-13T10:39:08.000Z</time>
      </trkpt>
      <trkpt lat="47.27" lon="-2.27169">
        <ele>58.599998474121</ele>
        <time>2020-12-13T10:39:09.000Z</time>
      </trkpt>
      <trkpt lat="47.27007" lon="-2.2717">
        <ele>58.599998474121</ele>
        <time>2020-12-13T10:39:14.000Z</time>
      </trkpt>
      <trkpt lat="47.27012" lon="-2.27172">
        <ele>58.599998474121</ele>
        <time>2020-12-13T10:39:19.000Z</time>
      </trkpt>
      <trkpt lat="47.27016" lon="-2.27165">
        <ele>58.599998474121</ele>
        <time>2020-12-13T10:39:24.000Z</time>
      </trkpt>
      <trkpt lat="47.27025" lon="-2.27157">
        <ele>58.599998474121</ele>
        <time>2020-12-13T10:39:30.000Z</time>
      </trkpt>
      <trkpt lat="47.27031" lon="-2.27149">
        <ele>58.599998474121</ele>
        <time>2020-12-13T10:39:34.000Z</time>
      </trkpt>
      <trkpt lat="47.27033" lon="-2.27147">
        <ele>58.599998474121</ele>
        <time>2020-12-13T10:39:36.000Z</time>
      </trkpt>
      <trkpt lat="47.27034" lon="-2.27146">
        <ele>58.599998474121</ele>
        <time>2020-12-13T10:39:37.000Z</time>
      </trkpt>
      <trkpt lat="47.27038" lon="-2.27149">
        <ele>56.599998474121</ele>
        <time>2020-12-13T10:39:42.000Z</time>
      </trkpt>
      <trkpt lat="47.2704" lon="-2.27153">
        <ele>56.599998474121</ele>
        <time>2020-12-13T10:39:44.000Z</time>
      </trkpt>
      <trkpt lat="47.27043" lon="-2.27157">
        <ele>56.599998474121</ele>
        <time>2020-12-13T10:39:46.000Z</time>
      </trkpt>
      <trkpt lat="47.27052" lon="-2.27172">
        <ele>56.599998474121</ele>
        <time>2020-12-13T10:39:50.000Z</time>
      </trkpt>
      <trkpt lat="47.27069" lon="-2.27197">
        <ele>56.599998474121</ele>
        <time>2020-12-13T10:39:56.000Z</time>
      </trkpt>
      <trkpt lat="47.27086" lon="-2.27227">
        <ele>56.599998474121</ele>
        <time>2020-12-13T10:40:03.000Z</time>
      </trkpt>
      <trkpt lat="47.27104" lon="-2.27254">
        <ele>56.599998474121</ele>
        <time>2020-12-13T10:40:10.000Z</time>
      </trkpt>
      <trkpt lat="47.27124" lon="-2.27295">
        <ele>56.599998474121</ele>
        <time>2020-12-13T10:40:19.000Z</time>
      </trkpt>
      <trkpt lat="47.27128" lon="-2.27325">
        <ele>56.599998474121</ele>
        <time>2020-12-13T10:40:24.000Z</time>
      </trkpt>
      <trkpt lat="47.2713" lon="-2.2735">
        <ele>56.599998474121</ele>
        <time>2020-12-13T10:40:28.000Z</time>
      </trkpt>
      <trkpt lat="47.27132" lon="-2.27356">
        <ele>56.599998474121</ele>
        <time>2020-12-13T10:40:29.000Z</time>
      </trkpt>
      <trkpt lat="47.2714" lon="-2.27398">
        <ele>56.599998474121</ele>
        <time>2020-12-13T10:40:36.000Z</time>
      </trkpt>
      <trkpt lat="47.27142" lon="-2.27425">
        <ele>56.599998474121</ele>
        <time>2020-12-13T10:40:41.000Z</time>
      </trkpt>
      <trkpt lat="47.27147" lon="-2.27464">
        <ele>56.599998474121</ele>
        <time>2020-12-13T10:40:48.000Z</time>
      </trkpt>
      <trkpt lat="47.27149" lon="-2.27503">
        <ele>56.599998474121</ele>
        <time>2020-12-13T10:40:54.000Z</time>
      </trkpt>
      <trkpt lat="47.27149" lon="-2.27532">
        <ele>56.599998474121</ele>
        <time>2020-12-13T10:40:58.000Z</time>
      </trkpt>
      <trkpt lat="47.27149" lon="-2.27547">
        <ele>56.599998474121</ele>
        <time>2020-12-13T10:41:00.000Z</time>
      </trkpt>
      <trkpt lat="47.27145" lon="-2.27586">
        <ele>56.599998474121</ele>
        <time>2020-12-13T10:41:06.000Z</time>
      </trkpt>
      <trkpt lat="47.2713" lon="-2.27612">
        <ele>56.599998474121</ele>
        <time>2020-12-13T10:41:11.000Z</time>
      </trkpt>
      <trkpt lat="47.27111" lon="-2.27622">
        <ele>56.599998474121</ele>
        <time>2020-12-13T10:41:15.000Z</time>
      </trkpt>
      <trkpt lat="47.27106" lon="-2.27625">
        <ele>56.599998474121</ele>
        <time>2020-12-13T10:41:16.000Z</time>
      </trkpt>
      <trkpt lat="47.27075" lon="-2.27648">
        <ele>56.599998474121</ele>
        <time>2020-12-13T10:41:23.000Z</time>
      </trkpt>
      <trkpt lat="47.27048" lon="-2.27673">
        <ele>56.599998474121</ele>
        <time>2020-12-13T10:41:30.000Z</time>
      </trkpt>
      <trkpt lat="47.2703" lon="-2.27699">
        <ele>56.599998474121</ele>
        <time>2020-12-13T10:41:36.000Z</time>
      </trkpt>
      <trkpt lat="47.27025" lon="-2.27715">
        <ele>56.599998474121</ele>
        <time>2020-12-13T10:41:40.000Z</time>
      </trkpt>
      <trkpt lat="47.27025" lon="-2.27718">
        <ele>56.599998474121</ele>
        <time>2020-12-13T10:41:42.000Z</time>
      </trkpt>
      <trkpt lat="47.27026" lon="-2.27721">
        <ele>54.599998474121</ele>
        <time>2020-12-13T10:42:56.000Z</time>
      </trkpt>
      <trkpt lat="47.27033" lon="-2.27726">
        <ele>54.599998474121</ele>
        <time>2020-12-13T10:43:00.000Z</time>
      </trkpt>
      <trkpt lat="47.27036" lon="-2.27726">
        <ele>54.599998474121</ele>
        <time>2020-12-13T10:43:01.000Z</time>
      </trkpt>
      <trkpt lat="47.27057" lon="-2.27734">
        <ele>54.599998474121</ele>
        <time>2020-12-13T10:43:07.000Z</time>
      </trkpt>
      <trkpt lat="47.27083" lon="-2.27744">
        <ele>54.599998474121</ele>
        <time>2020-12-13T10:43:14.000Z</time>
      </trkpt>
      <trkpt lat="47.27102" lon="-2.27765">
        <ele>54.599998474121</ele>
        <time>2020-12-13T10:43:20.000Z</time>
      </trkpt>
      <trkpt lat="47.27107" lon="-2.27781">
        <ele>54.599998474121</ele>
        <time>2020-12-13T10:43:23.000Z</time>
      </trkpt>
      <trkpt lat="47.2711" lon="-2.27793">
        <ele>54.599998474121</ele>
        <time>2020-12-13T10:43:25.000Z</time>
      </trkpt>
      <trkpt lat="47.27112" lon="-2.27799">
        <ele>54.599998474121</ele>
        <time>2020-12-13T10:43:26.000Z</time>
      </trkpt>
      <trkpt lat="47.27115" lon="-2.27809">
        <ele>54.599998474121</ele>
        <time>2020-12-13T10:43:28.000Z</time>
      </trkpt>
      <trkpt lat="47.27114" lon="-2.27814">
        <ele>54.599998474121</ele>
        <time>2020-12-13T10:43:29.000Z</time>
      </trkpt>
      <trkpt lat="47.27109" lon="-2.27834">
        <ele>54.599998474121</ele>
        <time>2020-12-13T10:43:33.000Z</time>
      </trkpt>
      <trkpt lat="47.27107" lon="-2.2784">
        <ele>54.599998474121</ele>
        <time>2020-12-13T10:43:34.000Z</time>
      </trkpt>
      <trkpt lat="47.27096" lon="-2.27879">
        <ele>54.599998474121</ele>
        <time>2020-12-13T10:43:41.000Z</time>
      </trkpt>
      <trkpt lat="47.27082" lon="-2.27898">
        <ele>54.599998474121</ele>
        <time>2020-12-13T10:43:46.000Z</time>
      </trkpt>
      <trkpt lat="47.27076" lon="-2.27906">
        <ele>54.599998474121</ele>
        <time>2020-12-13T10:43:48.000Z</time>
      </trkpt>
      <trkpt lat="47.27067" lon="-2.27928">
        <ele>54.599998474121</ele>
        <time>2020-12-13T10:43:52.000Z</time>
      </trkpt>
      <trkpt lat="47.27068" lon="-2.27954">
        <ele>54.599998474121</ele>
        <time>2020-12-13T10:43:56.000Z</time>
      </trkpt>
      <trkpt lat="47.27081" lon="-2.2798">
        <ele>54.599998474121</ele>
        <time>2020-12-13T10:44:01.000Z</time>
      </trkpt>
      <trkpt lat="47.27101" lon="-2.2799">
        <ele>54.599998474121</ele>
        <time>2020-12-13T10:44:05.000Z</time>
      </trkpt>
      <trkpt lat="47.27106" lon="-2.27993">
        <ele>54.599998474121</ele>
        <time>2020-12-13T10:44:06.000Z</time>
      </trkpt>
      <trkpt lat="47.27115" lon="-2.28006">
        <ele>54.599998474121</ele>
        <time>2020-12-13T10:44:08.000Z</time>
      </trkpt>
      <trkpt lat="47.27118" lon="-2.28024">
        <ele>54.599998474121</ele>
        <time>2020-12-13T10:44:10.000Z</time>
      </trkpt>
      <trkpt lat="47.2712" lon="-2.28033">
        <ele>54.599998474121</ele>
        <time>2020-12-13T10:44:11.000Z</time>
      </trkpt>
      <trkpt lat="47.27123" lon="-2.28059">
        <ele>54.599998474121</ele>
        <time>2020-12-13T10:44:14.000Z</time>
      </trkpt>
      <trkpt lat="47.27124" lon="-2.28068">
        <ele>54.599998474121</ele>
        <time>2020-12-13T10:44:15.000Z</time>
      </trkpt>
      <trkpt lat="47.27124" lon="-2.28085">
        <ele>54.599998474121</ele>
        <time>2020-12-13T10:44:17.000Z</time>
      </trkpt>
      <trkpt lat="47.27125" lon="-2.28128">
        <ele>54.599998474121</ele>
        <time>2020-12-13T10:44:22.000Z</time>
      </trkpt>
      <trkpt lat="47.27126" lon="-2.28136">
        <ele>54.599998474121</ele>
        <time>2020-12-13T10:44:23.000Z</time>
      </trkpt>
      <trkpt lat="47.27128" lon="-2.28159">
        <ele>54.599998474121</ele>
        <time>2020-12-13T10:44:26.000Z</time>
      </trkpt>
      <trkpt lat="47.27126" lon="-2.28177">
        <ele>54.599998474121</ele>
        <time>2020-12-13T10:44:28.000Z</time>
      </trkpt>
      <trkpt lat="47.27119" lon="-2.28239">
        <ele>54.599998474121</ele>
        <time>2020-12-13T10:44:35.000Z</time>
      </trkpt>
      <trkpt lat="47.27124" lon="-2.2827">
        <ele>54.599998474121</ele>
        <time>2020-12-13T10:44:39.000Z</time>
      </trkpt>
      <trkpt lat="47.27136" lon="-2.28317">
        <ele>54.599998474121</ele>
        <time>2020-12-13T10:44:45.000Z</time>
      </trkpt>
      <trkpt lat="47.27145" lon="-2.28365">
        <ele>54.599998474121</ele>
        <time>2020-12-13T10:44:51.000Z</time>
      </trkpt>
      <trkpt lat="47.27147" lon="-2.28381">
        <ele>54.599998474121</ele>
        <time>2020-12-13T10:44:53.000Z</time>
      </trkpt>
      <trkpt lat="47.27149" lon="-2.28405">
        <ele>54.599998474121</ele>
        <time>2020-12-13T10:44:56.000Z</time>
      </trkpt>
      <trkpt lat="47.27154" lon="-2.28456">
        <ele>54.599998474121</ele>
        <time>2020-12-13T10:45:02.000Z</time>
      </trkpt>
      <trkpt lat="47.27165" lon="-2.28521">
        <ele>54.599998474121</ele>
        <time>2020-12-13T10:45:09.000Z</time>
      </trkpt>
      <trkpt lat="47.2717" lon="-2.28548">
        <ele>54.599998474121</ele>
        <time>2020-12-13T10:45:12.000Z</time>
      </trkpt>
      <trkpt lat="47.27174" lon="-2.28566">
        <ele>54.599998474121</ele>
        <time>2020-12-13T10:45:14.000Z</time>
      </trkpt>
      <trkpt lat="47.27177" lon="-2.28575">
        <ele>54.599998474121</ele>
        <time>2020-12-13T10:45:15.000Z</time>
      </trkpt>
      <trkpt lat="47.27185" lon="-2.28599">
        <ele>54.599998474121</ele>
        <time>2020-12-13T10:45:18.000Z</time>
      </trkpt>
      <trkpt lat="47.27187" lon="-2.28625">
        <ele>54.599998474121</ele>
        <time>2020-12-13T10:45:21.000Z</time>
      </trkpt>
      <trkpt lat="47.27186" lon="-2.28645">
        <ele>54.599998474121</ele>
        <time>2020-12-13T10:45:23.000Z</time>
      </trkpt>
      <trkpt lat="47.27187" lon="-2.28677">
        <ele>54.599998474121</ele>
        <time>2020-12-13T10:45:26.000Z</time>
      </trkpt>
      <trkpt lat="47.27188" lon="-2.2874">
        <ele>54.599998474121</ele>
        <time>2020-12-13T10:45:32.000Z</time>
      </trkpt>
      <trkpt lat="47.27187" lon="-2.28793">
        <ele>54.599998474121</ele>
        <time>2020-12-13T10:45:37.000Z</time>
      </trkpt>
      <trkpt lat="47.27183" lon="-2.28842">
        <ele>54.599998474121</ele>
        <time>2020-12-13T10:45:42.000Z</time>
      </trkpt>
      <trkpt lat="47.2718" lon="-2.28887">
        <ele>54.599998474121</ele>
        <time>2020-12-13T10:45:47.000Z</time>
      </trkpt>
      <trkpt lat="47.27178" lon="-2.28924">
        <ele>55</ele>
        <time>2020-12-13T10:45:51.000Z</time>
      </trkpt>
      <trkpt lat="47.27178" lon="-2.28934">
        <ele>55.400001525879</ele>
        <time>2020-12-13T10:45:52.000Z</time>
      </trkpt>
      <trkpt lat="47.27179" lon="-2.28944">
        <ele>55.799999237061</ele>
        <time>2020-12-13T10:45:53.000Z</time>
      </trkpt>
      <trkpt lat="47.2718" lon="-2.28953">
        <ele>56.200000762939</ele>
        <time>2020-12-13T10:45:54.000Z</time>
      </trkpt>
      <trkpt lat="47.27181" lon="-2.28963">
        <ele>56.599998474121</ele>
        <time>2020-12-13T10:45:55.000Z</time>
      </trkpt>
      <trkpt lat="47.27187" lon="-2.29001">
        <ele>56.599998474121</ele>
        <time>2020-12-13T10:45:59.000Z</time>
      </trkpt>
      <trkpt lat="47.27194" lon="-2.29057">
        <ele>56.599998474121</ele>
        <time>2020-12-13T10:46:05.000Z</time>
      </trkpt>
      <trkpt lat="47.27199" lon="-2.29097">
        <ele>56.599998474121</ele>
        <time>2020-12-13T10:46:10.000Z</time>
      </trkpt>
      <trkpt lat="47.27188" lon="-2.29116">
        <ele>56.599998474121</ele>
        <time>2020-12-13T10:46:13.000Z</time>
      </trkpt>
      <trkpt lat="47.27171" lon="-2.29135">
        <ele>56.599998474121</ele>
        <time>2020-12-13T10:46:17.000Z</time>
      </trkpt>
      <trkpt lat="47.27168" lon="-2.29138">
        <ele>56.599998474121</ele>
        <time>2020-12-13T10:46:18.000Z</time>
      </trkpt>
      <trkpt lat="47.27164" lon="-2.29143">
        <ele>56.599998474121</ele>
        <time>2020-12-13T10:46:19.000Z</time>
      </trkpt>
      <trkpt lat="47.27154" lon="-2.29158">
        <ele>56.599998474121</ele>
        <time>2020-12-13T10:46:22.000Z</time>
      </trkpt>
      <trkpt lat="47.27152" lon="-2.29163">
        <ele>56.599998474121</ele>
        <time>2020-12-13T10:46:23.000Z</time>
      </trkpt>
      <trkpt lat="47.27154" lon="-2.2918">
        <ele>56.599998474121</ele>
        <time>2020-12-13T10:46:26.000Z</time>
      </trkpt>
      <trkpt lat="47.27161" lon="-2.292">
        <ele>56.599998474121</ele>
        <time>2020-12-13T10:46:29.000Z</time>
      </trkpt>
      <trkpt lat="47.27165" lon="-2.29212">
        <ele>56.599998474121</ele>
        <time>2020-12-13T10:46:31.000Z</time>
      </trkpt>
      <trkpt lat="47.27175" lon="-2.29234">
        <ele>56.599998474121</ele>
        <time>2020-12-13T10:46:35.000Z</time>
      </trkpt>
      <trkpt lat="47.27175" lon="-2.29247">
        <ele>56.599998474121</ele>
        <time>2020-12-13T10:46:37.000Z</time>
      </trkpt>
      <trkpt lat="47.27166" lon="-2.29272">
        <ele>56.599998474121</ele>
        <time>2020-12-13T10:46:41.000Z</time>
      </trkpt>
      <trkpt lat="47.27161" lon="-2.29283">
        <ele>56.599998474121</ele>
        <time>2020-12-13T10:46:43.000Z</time>
      </trkpt>
      <trkpt lat="47.27155" lon="-2.29295">
        <ele>56.599998474121</ele>
        <time>2020-12-13T10:46:46.000Z</time>
      </trkpt>
      <trkpt lat="47.27155" lon="-2.29307">
        <ele>56.599998474121</ele>
        <time>2020-12-13T10:46:49.000Z</time>
      </trkpt>
      <trkpt lat="47.27156" lon="-2.2931">
        <ele>56.599998474121</ele>
        <time>2020-12-13T10:46:50.000Z</time>
      </trkpt>
      <trkpt lat="47.27168" lon="-2.29329">
        <ele>56.599998474121</ele>
        <time>2020-12-13T10:46:55.000Z</time>
      </trkpt>
      <trkpt lat="47.27182" lon="-2.29347">
        <ele>56.599998474121</ele>
        <time>2020-12-13T10:46:59.000Z</time>
      </trkpt>
      <trkpt lat="47.27188" lon="-2.29358">
        <ele>57</ele>
        <time>2020-12-13T10:47:01.000Z</time>
      </trkpt>
      <trkpt lat="47.27191" lon="-2.29364">
        <ele>57.400001525879</ele>
        <time>2020-12-13T10:47:02.000Z</time>
      </trkpt>
      <trkpt lat="47.27194" lon="-2.29371">
        <ele>58</ele>
        <time>2020-12-13T10:47:03.000Z</time>
      </trkpt>
      <trkpt lat="47.27196" lon="-2.29378">
        <ele>58.400001525879</ele>
        <time>2020-12-13T10:47:04.000Z</time>
      </trkpt>
      <trkpt lat="47.27199" lon="-2.29385">
        <ele>58.799999237061</ele>
        <time>2020-12-13T10:47:05.000Z</time>
      </trkpt>
      <trkpt lat="47.27201" lon="-2.29392">
        <ele>58.799999237061</ele>
        <time>2020-12-13T10:47:06.000Z</time>
      </trkpt>
      <trkpt lat="47.27202" lon="-2.29398">
        <ele>58.799999237061</ele>
        <time>2020-12-13T10:47:07.000Z</time>
      </trkpt>
      <trkpt lat="47.27215" lon="-2.29443">
        <ele>58.799999237061</ele>
        <time>2020-12-13T10:47:15.000Z</time>
      </trkpt>
      <trkpt lat="47.27225" lon="-2.29484">
        <ele>58.799999237061</ele>
        <time>2020-12-13T10:47:23.000Z</time>
      </trkpt>
      <trkpt lat="47.27236" lon="-2.2951">
        <ele>58.799999237061</ele>
        <time>2020-12-13T10:47:29.000Z</time>
      </trkpt>
      <trkpt lat="47.27247" lon="-2.2953">
        <ele>58.799999237061</ele>
        <time>2020-12-13T10:47:34.000Z</time>
      </trkpt>
      <trkpt lat="47.27247" lon="-2.29548">
        <ele>58.799999237061</ele>
        <time>2020-12-13T10:47:38.000Z</time>
      </trkpt>
      <trkpt lat="47.27245" lon="-2.29567">
        <ele>58.799999237061</ele>
        <time>2020-12-13T10:47:42.000Z</time>
      </trkpt>
      <trkpt lat="47.27232" lon="-2.29587">
        <ele>58.799999237061</ele>
        <time>2020-12-13T10:47:47.000Z</time>
      </trkpt>
      <trkpt lat="47.27211" lon="-2.29603">
        <ele>58.799999237061</ele>
        <time>2020-12-13T10:47:52.000Z</time>
      </trkpt>
      <trkpt lat="47.27182" lon="-2.29623">
        <ele>58.799999237061</ele>
        <time>2020-12-13T10:47:59.000Z</time>
      </trkpt>
      <trkpt lat="47.27158" lon="-2.2964">
        <ele>58.799999237061</ele>
        <time>2020-12-13T10:48:06.000Z</time>
      </trkpt>
      <trkpt lat="47.2714" lon="-2.29641">
        <ele>58.799999237061</ele>
        <time>2020-12-13T10:48:10.000Z</time>
      </trkpt>
      <trkpt lat="47.27124" lon="-2.29647">
        <ele>58.799999237061</ele>
        <time>2020-12-13T10:48:15.000Z</time>
      </trkpt>
      <trkpt lat="47.27122" lon="-2.29651">
        <ele>58.799999237061</ele>
        <time>2020-12-13T10:48:16.000Z</time>
      </trkpt>
      <trkpt lat="47.27121" lon="-2.29659">
        <ele>59.200000762939</ele>
        <time>2020-12-13T10:48:19.000Z</time>
      </trkpt>
      <trkpt lat="47.27121" lon="-2.2966">
        <ele>59.599998474121</ele>
        <time>2020-12-13T10:48:20.000Z</time>
      </trkpt>
      <trkpt lat="47.27122" lon="-2.2966">
        <ele>60</ele>
        <time>2020-12-13T10:48:21.000Z</time>
      </trkpt>
      <trkpt lat="47.27123" lon="-2.2966">
        <ele>60.400001525879</ele>
        <time>2020-12-13T10:48:22.000Z</time>
      </trkpt>
      <trkpt lat="47.27124" lon="-2.29658">
        <ele>60.799999237061</ele>
        <time>2020-12-13T10:48:23.000Z</time>
      </trkpt>
      <trkpt lat="47.27123" lon="-2.29655">
        <ele>60.799999237061</ele>
        <time>2020-12-13T10:48:25.000Z</time>
      </trkpt>
      <trkpt lat="47.27118" lon="-2.29659">
        <ele>60.799999237061</ele>
        <time>2020-12-13T10:48:29.000Z</time>
      </trkpt>
      <trkpt lat="47.27115" lon="-2.29674">
        <ele>60.799999237061</ele>
        <time>2020-12-13T10:48:35.000Z</time>
      </trkpt>
      <trkpt lat="47.27117" lon="-2.29694">
        <ele>60.799999237061</ele>
        <time>2020-12-13T10:48:41.000Z</time>
      </trkpt>
      <trkpt lat="47.27116" lon="-2.29718">
        <ele>60.799999237061</ele>
        <time>2020-12-13T10:48:46.000Z</time>
      </trkpt>
      <trkpt lat="47.27116" lon="-2.29748">
        <ele>60.799999237061</ele>
        <time>2020-12-13T10:48:52.000Z</time>
      </trkpt>
      <trkpt lat="47.27114" lon="-2.29775">
        <ele>60.799999237061</ele>
        <time>2020-12-13T10:48:57.000Z</time>
      </trkpt>
      <trkpt lat="47.27116" lon="-2.29795">
        <ele>60.799999237061</ele>
        <time>2020-12-13T10:49:01.000Z</time>
      </trkpt>
      <trkpt lat="47.27114" lon="-2.29829">
        <ele>60.799999237061</ele>
        <time>2020-12-13T10:49:07.000Z</time>
      </trkpt>
      <trkpt lat="47.27105" lon="-2.29858">
        <ele>60.799999237061</ele>
        <time>2020-12-13T10:49:12.000Z</time>
      </trkpt>
      <trkpt lat="47.27093" lon="-2.29891">
        <ele>60.799999237061</ele>
        <time>2020-12-13T10:49:17.000Z</time>
      </trkpt>
      <trkpt lat="47.27086" lon="-2.29903">
        <ele>60.799999237061</ele>
        <time>2020-12-13T10:49:19.000Z</time>
      </trkpt>
      <trkpt lat="47.27076" lon="-2.29915">
        <ele>60.799999237061</ele>
        <time>2020-12-13T10:49:22.000Z</time>
      </trkpt>
      <trkpt lat="47.27068" lon="-2.29923">
        <ele>60.799999237061</ele>
        <time>2020-12-13T10:49:24.000Z</time>
      </trkpt>
      <trkpt lat="47.27058" lon="-2.29936">
        <ele>60.799999237061</ele>
        <time>2020-12-13T10:49:27.000Z</time>
      </trkpt>
      <trkpt lat="47.2705" lon="-2.29953">
        <ele>60.799999237061</ele>
        <time>2020-12-13T10:49:30.000Z</time>
      </trkpt>
      <trkpt lat="47.27047" lon="-2.29958">
        <ele>60.799999237061</ele>
        <time>2020-12-13T10:49:31.000Z</time>
      </trkpt>
      <trkpt lat="47.27031" lon="-2.29998">
        <ele>60.799999237061</ele>
        <time>2020-12-13T10:49:38.000Z</time>
      </trkpt>
      <trkpt lat="47.27018" lon="-2.30031">
        <ele>60.799999237061</ele>
        <time>2020-12-13T10:49:45.000Z</time>
      </trkpt>
      <trkpt lat="47.27012" lon="-2.30054">
        <ele>60.799999237061</ele>
        <time>2020-12-13T10:49:51.000Z</time>
      </trkpt>
      <trkpt lat="47.27013" lon="-2.30056">
        <ele>60.799999237061</ele>
        <time>2020-12-13T10:49:52.000Z</time>
      </trkpt>
      <trkpt lat="47.27018" lon="-2.30058">
        <ele>60.799999237061</ele>
        <time>2020-12-13T10:49:55.000Z</time>
      </trkpt>
      <trkpt lat="47.27033" lon="-2.30057">
        <ele>60.799999237061</ele>
        <time>2020-12-13T10:50:00.000Z</time>
      </trkpt>
      <trkpt lat="47.27036" lon="-2.30057">
        <ele>60.799999237061</ele>
        <time>2020-12-13T10:50:01.000Z</time>
      </trkpt>
      <trkpt lat="47.27059" lon="-2.30062">
        <ele>60.799999237061</ele>
        <time>2020-12-13T10:50:07.000Z</time>
      </trkpt>
      <trkpt lat="47.27083" lon="-2.30074">
        <ele>60.799999237061</ele>
        <time>2020-12-13T10:50:13.000Z</time>
      </trkpt>
      <trkpt lat="47.27098" lon="-2.30088">
        <ele>60.799999237061</ele>
        <time>2020-12-13T10:50:17.000Z</time>
      </trkpt>
      <trkpt lat="47.27106" lon="-2.30096">
        <ele>60.799999237061</ele>
        <time>2020-12-13T10:50:19.000Z</time>
      </trkpt>
      <trkpt lat="47.27119" lon="-2.30103">
        <ele>60.799999237061</ele>
        <time>2020-12-13T10:50:22.000Z</time>
      </trkpt>
      <trkpt lat="47.27128" lon="-2.30106">
        <ele>60.799999237061</ele>
        <time>2020-12-13T10:50:24.000Z</time>
      </trkpt>
      <trkpt lat="47.27148" lon="-2.30111">
        <ele>60.799999237061</ele>
        <time>2020-12-13T10:50:30.000Z</time>
      </trkpt>
      <trkpt lat="47.27159" lon="-2.30121">
        <ele>60.799999237061</ele>
        <time>2020-12-13T10:50:36.000Z</time>
      </trkpt>
      <trkpt lat="47.27163" lon="-2.30143">
        <ele>60.799999237061</ele>
        <time>2020-12-13T10:50:41.000Z</time>
      </trkpt>
      <trkpt lat="47.2716" lon="-2.30189">
        <ele>60.799999237061</ele>
        <time>2020-12-13T10:50:48.000Z</time>
      </trkpt>
      <trkpt lat="47.27157" lon="-2.30219">
        <ele>60.799999237061</ele>
        <time>2020-12-13T10:50:53.000Z</time>
      </trkpt>
      <trkpt lat="47.27141" lon="-2.30235">
        <ele>60.799999237061</ele>
        <time>2020-12-13T10:50:59.000Z</time>
      </trkpt>
      <trkpt lat="47.27107" lon="-2.30255">
        <ele>60.799999237061</ele>
        <time>2020-12-13T10:51:06.000Z</time>
      </trkpt>
      <trkpt lat="47.27096" lon="-2.30259">
        <ele>60.799999237061</ele>
        <time>2020-12-13T10:51:08.000Z</time>
      </trkpt>
      <trkpt lat="47.27084" lon="-2.3027">
        <ele>60.799999237061</ele>
        <time>2020-12-13T10:51:11.000Z</time>
      </trkpt>
      <trkpt lat="47.27072" lon="-2.3029">
        <ele>60.799999237061</ele>
        <time>2020-12-13T10:51:16.000Z</time>
      </trkpt>
      <trkpt lat="47.2707" lon="-2.30296">
        <ele>60.799999237061</ele>
        <time>2020-12-13T10:51:17.000Z</time>
      </trkpt>
      <trkpt lat="47.27063" lon="-2.30327">
        <ele>60.799999237061</ele>
        <time>2020-12-13T10:51:22.000Z</time>
      </trkpt>
      <trkpt lat="47.27057" lon="-2.30377">
        <ele>60.799999237061</ele>
        <time>2020-12-13T10:51:29.000Z</time>
      </trkpt>
      <trkpt lat="47.27051" lon="-2.30433">
        <ele>60.799999237061</ele>
        <time>2020-12-13T10:51:36.000Z</time>
      </trkpt>
      <trkpt lat="47.27043" lon="-2.30476">
        <ele>60.799999237061</ele>
        <time>2020-12-13T10:51:42.000Z</time>
      </trkpt>
      <trkpt lat="47.27041" lon="-2.30483">
        <ele>60.799999237061</ele>
        <time>2020-12-13T10:51:43.000Z</time>
      </trkpt>
      <trkpt lat="47.27032" lon="-2.30517">
        <ele>60.799999237061</ele>
        <time>2020-12-13T10:51:48.000Z</time>
      </trkpt>
      <trkpt lat="47.27028" lon="-2.30531">
        <ele>60.799999237061</ele>
        <time>2020-12-13T10:51:50.000Z</time>
      </trkpt>
      <trkpt lat="47.27023" lon="-2.30549">
        <ele>60.799999237061</ele>
        <time>2020-12-13T10:51:53.000Z</time>
      </trkpt>
      <trkpt lat="47.2702" lon="-2.30563">
        <ele>60.799999237061</ele>
        <time>2020-12-13T10:51:55.000Z</time>
      </trkpt>
      <trkpt lat="47.27012" lon="-2.30589">
        <ele>60.799999237061</ele>
        <time>2020-12-13T10:51:59.000Z</time>
      </trkpt>
      <trkpt lat="47.27006" lon="-2.306">
        <ele>60.799999237061</ele>
        <time>2020-12-13T10:52:01.000Z</time>
      </trkpt>
      <trkpt lat="47.26997" lon="-2.30608">
        <ele>60.799999237061</ele>
        <time>2020-12-13T10:52:03.000Z</time>
      </trkpt>
      <trkpt lat="47.26986" lon="-2.30614">
        <ele>60.799999237061</ele>
        <time>2020-12-13T10:52:05.000Z</time>
      </trkpt>
      <trkpt lat="47.26976" lon="-2.30619">
        <ele>60.799999237061</ele>
        <time>2020-12-13T10:52:07.000Z</time>
      </trkpt>
      <trkpt lat="47.26972" lon="-2.30621">
        <ele>60.799999237061</ele>
        <time>2020-12-13T10:52:08.000Z</time>
      </trkpt>
      <trkpt lat="47.26944" lon="-2.30631">
        <ele>60.799999237061</ele>
        <time>2020-12-13T10:52:14.000Z</time>
      </trkpt>
      <trkpt lat="47.26929" lon="-2.30633">
        <ele>61.200000762939</ele>
        <time>2020-12-13T10:52:18.000Z</time>
      </trkpt>
      <trkpt lat="47.26926" lon="-2.30633">
        <ele>61.599998474121</ele>
        <time>2020-12-13T10:52:19.000Z</time>
      </trkpt>
      <trkpt lat="47.26923" lon="-2.30633">
        <ele>62</ele>
        <time>2020-12-13T10:52:20.000Z</time>
      </trkpt>
      <trkpt lat="47.26921" lon="-2.30636">
        <ele>62.400001525879</ele>
        <time>2020-12-13T10:52:21.000Z</time>
      </trkpt>
      <trkpt lat="47.26918" lon="-2.30639">
        <ele>62.799999237061</ele>
        <time>2020-12-13T10:52:22.000Z</time>
      </trkpt>
      <trkpt lat="47.26914" lon="-2.30646">
        <ele>62.799999237061</ele>
        <time>2020-12-13T10:52:24.000Z</time>
      </trkpt>
      <trkpt lat="47.269" lon="-2.30667">
        <ele>62.799999237061</ele>
        <time>2020-12-13T10:52:30.000Z</time>
      </trkpt>
      <trkpt lat="47.26904" lon="-2.30677">
        <ele>62.799999237061</ele>
        <time>2020-12-13T10:52:33.000Z</time>
      </trkpt>
      <trkpt lat="47.26907" lon="-2.30681">
        <ele>62.799999237061</ele>
        <time>2020-12-13T10:52:34.000Z</time>
      </trkpt>
      <trkpt lat="47.26915" lon="-2.30692">
        <ele>62.799999237061</ele>
        <time>2020-12-13T10:52:37.000Z</time>
      </trkpt>
      <trkpt lat="47.26918" lon="-2.30696">
        <ele>62.799999237061</ele>
        <time>2020-12-13T10:52:38.000Z</time>
      </trkpt>
      <trkpt lat="47.2694" lon="-2.30729">
        <ele>62.799999237061</ele>
        <time>2020-12-13T10:52:45.000Z</time>
      </trkpt>
      <trkpt lat="47.26966" lon="-2.30764">
        <ele>62.799999237061</ele>
        <time>2020-12-13T10:52:52.000Z</time>
      </trkpt>
      <trkpt lat="47.26992" lon="-2.30802">
        <ele>62.799999237061</ele>
        <time>2020-12-13T10:52:59.000Z</time>
      </trkpt>
      <trkpt lat="47.27014" lon="-2.30837">
        <ele>62.799999237061</ele>
        <time>2020-12-13T10:53:05.000Z</time>
      </trkpt>
      <trkpt lat="47.27035" lon="-2.30866">
        <ele>62.799999237061</ele>
        <time>2020-12-13T10:53:11.000Z</time>
      </trkpt>
      <trkpt lat="47.27042" lon="-2.30876">
        <ele>62.799999237061</ele>
        <time>2020-12-13T10:53:13.000Z</time>
      </trkpt>
      <trkpt lat="47.27046" lon="-2.30889">
        <ele>62.799999237061</ele>
        <time>2020-12-13T10:53:16.000Z</time>
      </trkpt>
      <trkpt lat="47.27047" lon="-2.30897">
        <ele>62.799999237061</ele>
        <time>2020-12-13T10:53:19.000Z</time>
      </trkpt>
      <trkpt lat="47.27048" lon="-2.30901">
        <ele>62.799999237061</ele>
        <time>2020-12-13T10:53:21.000Z</time>
      </trkpt>
      <trkpt lat="47.27055" lon="-2.30919">
        <ele>62.799999237061</ele>
        <time>2020-12-13T10:53:28.000Z</time>
      </trkpt>
      <trkpt lat="47.27059" lon="-2.30934">
        <ele>62.799999237061</ele>
        <time>2020-12-13T10:53:33.000Z</time>
      </trkpt>
      <trkpt lat="47.27061" lon="-2.30955">
        <ele>62.799999237061</ele>
        <time>2020-12-13T10:53:38.000Z</time>
      </trkpt>
      <trkpt lat="47.27065" lon="-2.30975">
        <ele>62.799999237061</ele>
        <time>2020-12-13T10:53:42.000Z</time>
      </trkpt>
      <trkpt lat="47.27064" lon="-2.30983">
        <ele>62.799999237061</ele>
        <time>2020-12-13T10:53:44.000Z</time>
      </trkpt>
      <trkpt lat="47.27057" lon="-2.30994">
        <ele>62.799999237061</ele>
        <time>2020-12-13T10:53:48.000Z</time>
      </trkpt>
      <trkpt lat="47.27052" lon="-2.31">
        <ele>62.799999237061</ele>
        <time>2020-12-13T10:53:50.000Z</time>
      </trkpt>
      <trkpt lat="47.27034" lon="-2.31026">
        <ele>62.799999237061</ele>
        <time>2020-12-13T10:53:55.000Z</time>
      </trkpt>
      <trkpt lat="47.27011" lon="-2.31049">
        <ele>62.799999237061</ele>
        <time>2020-12-13T10:54:01.000Z</time>
      </trkpt>
      <trkpt lat="47.26995" lon="-2.31075">
        <ele>62.799999237061</ele>
        <time>2020-12-13T10:54:06.000Z</time>
      </trkpt>
      <trkpt lat="47.26994" lon="-2.31081">
        <ele>62.799999237061</ele>
        <time>2020-12-13T10:54:07.000Z</time>
      </trkpt>
      <trkpt lat="47.26994" lon="-2.31101">
        <ele>62.799999237061</ele>
        <time>2020-12-13T10:54:10.000Z</time>
      </trkpt>
      <trkpt lat="47.26992" lon="-2.3114">
        <ele>62.799999237061</ele>
        <time>2020-12-13T10:54:16.000Z</time>
      </trkpt>
      <trkpt lat="47.26991" lon="-2.31146">
        <ele>62.799999237061</ele>
        <time>2020-12-13T10:54:17.000Z</time>
      </trkpt>
      <trkpt lat="47.26985" lon="-2.31187">
        <ele>62.799999237061</ele>
        <time>2020-12-13T10:54:24.000Z</time>
      </trkpt>
      <trkpt lat="47.26977" lon="-2.31231">
        <ele>62.799999237061</ele>
        <time>2020-12-13T10:54:32.000Z</time>
      </trkpt>
      <trkpt lat="47.26976" lon="-2.31261">
        <ele>62.799999237061</ele>
        <time>2020-12-13T10:54:37.000Z</time>
      </trkpt>
      <trkpt lat="47.26975" lon="-2.31294">
        <ele>62.799999237061</ele>
        <time>2020-12-13T10:54:43.000Z</time>
      </trkpt>
      <trkpt lat="47.26979" lon="-2.31322">
        <ele>62.799999237061</ele>
        <time>2020-12-13T10:54:48.000Z</time>
      </trkpt>
      <trkpt lat="47.26985" lon="-2.31368">
        <ele>62.799999237061</ele>
        <time>2020-12-13T10:54:55.000Z</time>
      </trkpt>
      <trkpt lat="47.26989" lon="-2.31419">
        <ele>62.799999237061</ele>
        <time>2020-12-13T10:55:01.000Z</time>
      </trkpt>
      <trkpt lat="47.26991" lon="-2.31462">
        <ele>62.799999237061</ele>
        <time>2020-12-13T10:55:07.000Z</time>
      </trkpt>
      <trkpt lat="47.26997" lon="-2.31489">
        <ele>62.799999237061</ele>
        <time>2020-12-13T10:55:12.000Z</time>
      </trkpt>
      <trkpt lat="47.26999" lon="-2.31496">
        <ele>62.799999237061</ele>
        <time>2020-12-13T10:55:13.000Z</time>
      </trkpt>
      <trkpt lat="47.27005" lon="-2.3152">
        <ele>62.799999237061</ele>
        <time>2020-12-13T10:55:16.000Z</time>
      </trkpt>
      <trkpt lat="47.2701" lon="-2.31538">
        <ele>62.799999237061</ele>
        <time>2020-12-13T10:55:18.000Z</time>
      </trkpt>
      <trkpt lat="47.27016" lon="-2.31554">
        <ele>62.799999237061</ele>
        <time>2020-12-13T10:55:20.000Z</time>
      </trkpt>
      <trkpt lat="47.27025" lon="-2.31574">
        <ele>62.799999237061</ele>
        <time>2020-12-13T10:55:23.000Z</time>
      </trkpt>
      <trkpt lat="47.27031" lon="-2.31596">
        <ele>62.799999237061</ele>
        <time>2020-12-13T10:55:27.000Z</time>
      </trkpt>
      <trkpt lat="47.27035" lon="-2.31631">
        <ele>62.799999237061</ele>
        <time>2020-12-13T10:55:32.000Z</time>
      </trkpt>
      <trkpt lat="47.27036" lon="-2.31648">
        <ele>62.799999237061</ele>
        <time>2020-12-13T10:55:34.000Z</time>
      </trkpt>
      <trkpt lat="47.27033" lon="-2.31676">
        <ele>62.799999237061</ele>
        <time>2020-12-13T10:55:37.000Z</time>
      </trkpt>
      <trkpt lat="47.27028" lon="-2.31691">
        <ele>62.799999237061</ele>
        <time>2020-12-13T10:55:40.000Z</time>
      </trkpt>
      <trkpt lat="47.27027" lon="-2.31695">
        <ele>62.799999237061</ele>
        <time>2020-12-13T10:55:43.000Z</time>
      </trkpt>
      <trkpt lat="47.27028" lon="-2.31698">
        <ele>62.799999237061</ele>
        <time>2020-12-13T10:55:49.000Z</time>
      </trkpt>
      <trkpt lat="47.27037" lon="-2.31711">
        <ele>62.799999237061</ele>
        <time>2020-12-13T10:55:53.000Z</time>
      </trkpt>
      <trkpt lat="47.27041" lon="-2.31713">
        <ele>62.799999237061</ele>
        <time>2020-12-13T10:55:54.000Z</time>
      </trkpt>
      <trkpt lat="47.27052" lon="-2.31729">
        <ele>62.799999237061</ele>
        <time>2020-12-13T10:55:58.000Z</time>
      </trkpt>
      <trkpt lat="47.27052" lon="-2.31755">
        <ele>62.799999237061</ele>
        <time>2020-12-13T10:56:02.000Z</time>
      </trkpt>
      <trkpt lat="47.27056" lon="-2.31788">
        <ele>62.799999237061</ele>
        <time>2020-12-13T10:56:07.000Z</time>
      </trkpt>
      <trkpt lat="47.2706" lon="-2.3182">
        <ele>62.799999237061</ele>
        <time>2020-12-13T10:56:12.000Z</time>
      </trkpt>
      <trkpt lat="47.27065" lon="-2.31849">
        <ele>62.799999237061</ele>
        <time>2020-12-13T10:56:18.000Z</time>
      </trkpt>
      <trkpt lat="47.27076" lon="-2.31857">
        <ele>62.799999237061</ele>
        <time>2020-12-13T10:56:22.000Z</time>
      </trkpt>
      <trkpt lat="47.27079" lon="-2.31861">
        <ele>62.799999237061</ele>
        <time>2020-12-13T10:56:24.000Z</time>
      </trkpt>
      <trkpt lat="47.27079" lon="-2.31864">
        <ele>62.799999237061</ele>
        <time>2020-12-13T10:56:26.000Z</time>
      </trkpt>
      <trkpt lat="47.27078" lon="-2.31868">
        <ele>62.799999237061</ele>
        <time>2020-12-13T10:56:28.000Z</time>
      </trkpt>
      <trkpt lat="47.27076" lon="-2.31877">
        <ele>62.799999237061</ele>
        <time>2020-12-13T10:56:31.000Z</time>
      </trkpt>
      <trkpt lat="47.27077" lon="-2.31902">
        <ele>62.799999237061</ele>
        <time>2020-12-13T10:56:37.000Z</time>
      </trkpt>
      <trkpt lat="47.27077" lon="-2.31932">
        <ele>62.799999237061</ele>
        <time>2020-12-13T10:56:43.000Z</time>
      </trkpt>
      <trkpt lat="47.27074" lon="-2.31944">
        <ele>62.799999237061</ele>
        <time>2020-12-13T10:56:45.000Z</time>
      </trkpt>
      <trkpt lat="47.2707" lon="-2.31949">
        <ele>62.799999237061</ele>
        <time>2020-12-13T10:56:47.000Z</time>
      </trkpt>
      <trkpt lat="47.27054" lon="-2.31954">
        <ele>62.799999237061</ele>
        <time>2020-12-13T10:56:52.000Z</time>
      </trkpt>
      <trkpt lat="47.2704" lon="-2.31956">
        <ele>62.799999237061</ele>
        <time>2020-12-13T10:56:57.000Z</time>
      </trkpt>
      <trkpt lat="47.27021" lon="-2.31968">
        <ele>62.799999237061</ele>
        <time>2020-12-13T10:57:03.000Z</time>
      </trkpt>
      <trkpt lat="47.27007" lon="-2.31981">
        <ele>62.799999237061</ele>
        <time>2020-12-13T10:57:08.000Z</time>
      </trkpt>
      <trkpt lat="47.2701" lon="-2.31994">
        <ele>62.799999237061</ele>
        <time>2020-12-13T10:57:12.000Z</time>
      </trkpt>
      <trkpt lat="47.27011" lon="-2.31997">
        <ele>62.799999237061</ele>
        <time>2020-12-13T10:57:13.000Z</time>
      </trkpt>
      <trkpt lat="47.27017" lon="-2.32014">
        <ele>62.799999237061</ele>
        <time>2020-12-13T10:57:16.000Z</time>
      </trkpt>
      <trkpt lat="47.27019" lon="-2.32022">
        <ele>62.799999237061</ele>
        <time>2020-12-13T10:57:17.000Z</time>
      </trkpt>
      <trkpt lat="47.27023" lon="-2.32043">
        <ele>62.799999237061</ele>
        <time>2020-12-13T10:57:20.000Z</time>
      </trkpt>
      <trkpt lat="47.27024" lon="-2.32064">
        <ele>62.799999237061</ele>
        <time>2020-12-13T10:57:23.000Z</time>
      </trkpt>
      <trkpt lat="47.27023" lon="-2.32076">
        <ele>62.799999237061</ele>
        <time>2020-12-13T10:57:25.000Z</time>
      </trkpt>
      <trkpt lat="47.27022" lon="-2.3209">
        <ele>62.799999237061</ele>
        <time>2020-12-13T10:57:28.000Z</time>
      </trkpt>
      <trkpt lat="47.27007" lon="-2.32115">
        <ele>62.799999237061</ele>
        <time>2020-12-13T10:57:33.000Z</time>
      </trkpt>
      <trkpt lat="47.26996" lon="-2.32132">
        <ele>62.799999237061</ele>
        <time>2020-12-13T10:57:36.000Z</time>
      </trkpt>
      <trkpt lat="47.26994" lon="-2.32143">
        <ele>62.799999237061</ele>
        <time>2020-12-13T10:57:38.000Z</time>
      </trkpt>
      <trkpt lat="47.26998" lon="-2.32152">
        <ele>62.799999237061</ele>
        <time>2020-12-13T10:57:40.000Z</time>
      </trkpt>
      <trkpt lat="47.27003" lon="-2.3216">
        <ele>62.799999237061</ele>
        <time>2020-12-13T10:57:42.000Z</time>
      </trkpt>
      <trkpt lat="47.27012" lon="-2.32175">
        <ele>62.799999237061</ele>
        <time>2020-12-13T10:57:45.000Z</time>
      </trkpt>
      <trkpt lat="47.27015" lon="-2.32184">
        <ele>62.799999237061</ele>
        <time>2020-12-13T10:57:47.000Z</time>
      </trkpt>
      <trkpt lat="47.27022" lon="-2.3221">
        <ele>62.799999237061</ele>
        <time>2020-12-13T10:57:52.000Z</time>
      </trkpt>
      <trkpt lat="47.27023" lon="-2.32217">
        <ele>62.799999237061</ele>
        <time>2020-12-13T10:57:53.000Z</time>
      </trkpt>
      <trkpt lat="47.27023" lon="-2.32224">
        <ele>62.799999237061</ele>
        <time>2020-12-13T10:57:54.000Z</time>
      </trkpt>
      <trkpt lat="47.27024" lon="-2.32248">
        <ele>62.799999237061</ele>
        <time>2020-12-13T10:57:57.000Z</time>
      </trkpt>
      <trkpt lat="47.27025" lon="-2.32304">
        <ele>62.799999237061</ele>
        <time>2020-12-13T10:58:04.000Z</time>
      </trkpt>
      <trkpt lat="47.27025" lon="-2.32339">
        <ele>62.799999237061</ele>
        <time>2020-12-13T10:58:09.000Z</time>
      </trkpt>
      <trkpt lat="47.27026" lon="-2.32347">
        <ele>62.799999237061</ele>
        <time>2020-12-13T10:58:10.000Z</time>
      </trkpt>
      <trkpt lat="47.27027" lon="-2.32361">
        <ele>62.799999237061</ele>
        <time>2020-12-13T10:58:12.000Z</time>
      </trkpt>
      <trkpt lat="47.27028" lon="-2.32391">
        <ele>62.799999237061</ele>
        <time>2020-12-13T10:58:16.000Z</time>
      </trkpt>
      <trkpt lat="47.2703" lon="-2.32445">
        <ele>62.799999237061</ele>
        <time>2020-12-13T10:58:22.000Z</time>
      </trkpt>
      <trkpt lat="47.27029" lon="-2.32482">
        <ele>62.799999237061</ele>
        <time>2020-12-13T10:58:27.000Z</time>
      </trkpt>
      <trkpt lat="47.27019" lon="-2.32499">
        <ele>62.799999237061</ele>
        <time>2020-12-13T10:58:31.000Z</time>
      </trkpt>
      <trkpt lat="47.27002" lon="-2.32498">
        <ele>62.799999237061</ele>
        <time>2020-12-13T10:58:35.000Z</time>
      </trkpt>
      <trkpt lat="47.26999" lon="-2.32494">
        <ele>62.799999237061</ele>
        <time>2020-12-13T10:58:36.000Z</time>
      </trkpt>
      <trkpt lat="47.26995" lon="-2.32484">
        <ele>62.799999237061</ele>
        <time>2020-12-13T10:58:38.000Z</time>
      </trkpt>
      <trkpt lat="47.26983" lon="-2.3246">
        <ele>62.799999237061</ele>
        <time>2020-12-13T10:58:43.000Z</time>
      </trkpt>
      <trkpt lat="47.26978" lon="-2.32451">
        <ele>62.799999237061</ele>
        <time>2020-12-13T10:58:45.000Z</time>
      </trkpt>
      <trkpt lat="47.26961" lon="-2.32427">
        <ele>62.799999237061</ele>
        <time>2020-12-13T10:58:51.000Z</time>
      </trkpt>
      <trkpt lat="47.26947" lon="-2.32397">
        <ele>62.799999237061</ele>
        <time>2020-12-13T10:58:57.000Z</time>
      </trkpt>
      <trkpt lat="47.26946" lon="-2.32391">
        <ele>62.799999237061</ele>
        <time>2020-12-13T10:58:58.000Z</time>
      </trkpt>
      <trkpt lat="47.2694" lon="-2.32368">
        <ele>62.799999237061</ele>
        <time>2020-12-13T10:59:02.000Z</time>
      </trkpt>
      <trkpt lat="47.26938" lon="-2.32363">
        <ele>62.799999237061</ele>
        <time>2020-12-13T10:59:03.000Z</time>
      </trkpt>
      <trkpt lat="47.26925" lon="-2.32337">
        <ele>62.799999237061</ele>
        <time>2020-12-13T10:59:09.000Z</time>
      </trkpt>
      <trkpt lat="47.26919" lon="-2.32333">
        <ele>62.799999237061</ele>
        <time>2020-12-13T10:59:11.000Z</time>
      </trkpt>
      <trkpt lat="47.26911" lon="-2.32334">
        <ele>62.799999237061</ele>
        <time>2020-12-13T10:59:13.000Z</time>
      </trkpt>
      <trkpt lat="47.2689" lon="-2.32339">
        <ele>62.799999237061</ele>
        <time>2020-12-13T10:59:19.000Z</time>
      </trkpt>
      <trkpt lat="47.26872" lon="-2.32342">
        <ele>62.799999237061</ele>
        <time>2020-12-13T10:59:24.000Z</time>
      </trkpt>
      <trkpt lat="47.26852" lon="-2.32347">
        <ele>62.799999237061</ele>
        <time>2020-12-13T10:59:30.000Z</time>
      </trkpt>
      <trkpt lat="47.26836" lon="-2.32348">
        <ele>62.799999237061</ele>
        <time>2020-12-13T10:59:35.000Z</time>
      </trkpt>
      <trkpt lat="47.26815" lon="-2.32353">
        <ele>62.799999237061</ele>
        <time>2020-12-13T10:59:42.000Z</time>
      </trkpt>
      <trkpt lat="47.26795" lon="-2.32361">
        <ele>62.799999237061</ele>
        <time>2020-12-13T10:59:50.000Z</time>
      </trkpt>
      <trkpt lat="47.26781" lon="-2.32371">
        <ele>62.799999237061</ele>
        <time>2020-12-13T10:59:56.000Z</time>
      </trkpt>
      <trkpt lat="47.26779" lon="-2.32379">
        <ele>62.799999237061</ele>
        <time>2020-12-13T10:59:58.000Z</time>
      </trkpt>
      <trkpt lat="47.2678" lon="-2.32387">
        <ele>62.799999237061</ele>
        <time>2020-12-13T11:00:00.000Z</time>
      </trkpt>
      <trkpt lat="47.26782" lon="-2.32398">
        <ele>62.799999237061</ele>
        <time>2020-12-13T11:00:02.000Z</time>
      </trkpt>
      <trkpt lat="47.26784" lon="-2.32414">
        <ele>63.200000762939</ele>
        <time>2020-12-13T11:00:05.000Z</time>
      </trkpt>
      <trkpt lat="47.26785" lon="-2.3242">
        <ele>63.599998474121</ele>
        <time>2020-12-13T11:00:06.000Z</time>
      </trkpt>
      <trkpt lat="47.26786" lon="-2.32426">
        <ele>64</ele>
        <time>2020-12-13T11:00:07.000Z</time>
      </trkpt>
      <trkpt lat="47.26787" lon="-2.32432">
        <ele>64.400001525879</ele>
        <time>2020-12-13T11:00:08.000Z</time>
      </trkpt>
      <trkpt lat="47.26788" lon="-2.32438">
        <ele>64.800003051758</ele>
        <time>2020-12-13T11:00:09.000Z</time>
      </trkpt>
      <trkpt lat="47.26793" lon="-2.3247">
        <ele>64.800003051758</ele>
        <time>2020-12-13T11:00:14.000Z</time>
      </trkpt>
      <trkpt lat="47.26798" lon="-2.32513">
        <ele>64.800003051758</ele>
        <time>2020-12-13T11:00:20.000Z</time>
      </trkpt>
      <trkpt lat="47.26802" lon="-2.32551">
        <ele>64.800003051758</ele>
        <time>2020-12-13T11:00:25.000Z</time>
      </trkpt>
      <trkpt lat="47.26802" lon="-2.32558">
        <ele>64.800003051758</ele>
        <time>2020-12-13T11:00:26.000Z</time>
      </trkpt>
      <trkpt lat="47.26805" lon="-2.32601">
        <ele>64.800003051758</ele>
        <time>2020-12-13T11:00:32.000Z</time>
      </trkpt>
      <trkpt lat="47.26812" lon="-2.32639">
        <ele>64.800003051758</ele>
        <time>2020-12-13T11:00:38.000Z</time>
      </trkpt>
      <trkpt lat="47.26813" lon="-2.32659">
        <ele>64.800003051758</ele>
        <time>2020-12-13T11:00:41.000Z</time>
      </trkpt>
      <trkpt lat="47.26809" lon="-2.32671">
        <ele>64.800003051758</ele>
        <time>2020-12-13T11:00:43.000Z</time>
      </trkpt>
      <trkpt lat="47.26804" lon="-2.32692">
        <ele>64.800003051758</ele>
        <time>2020-12-13T11:00:47.000Z</time>
      </trkpt>
      <trkpt lat="47.26814" lon="-2.32715">
        <ele>64.800003051758</ele>
        <time>2020-12-13T11:00:51.000Z</time>
      </trkpt>
      <trkpt lat="47.26832" lon="-2.32755">
        <ele>64.800003051758</ele>
        <time>2020-12-13T11:00:57.000Z</time>
      </trkpt>
      <trkpt lat="47.26837" lon="-2.3277">
        <ele>64.800003051758</ele>
        <time>2020-12-13T11:00:59.000Z</time>
      </trkpt>
      <trkpt lat="47.26844" lon="-2.32798">
        <ele>64.800003051758</ele>
        <time>2020-12-13T11:01:02.000Z</time>
      </trkpt>
      <trkpt lat="47.26857" lon="-2.32839">
        <ele>64.800003051758</ele>
        <time>2020-12-13T11:01:07.000Z</time>
      </trkpt>
      <trkpt lat="47.26865" lon="-2.3287">
        <ele>64.800003051758</ele>
        <time>2020-12-13T11:01:11.000Z</time>
      </trkpt>
      <trkpt lat="47.26863" lon="-2.32876">
        <ele>64.800003051758</ele>
        <time>2020-12-13T11:01:12.000Z</time>
      </trkpt>
      <trkpt lat="47.26851" lon="-2.32882">
        <ele>64.800003051758</ele>
        <time>2020-12-13T11:01:15.000Z</time>
      </trkpt>
      <trkpt lat="47.26845" lon="-2.32882">
        <ele>64.800003051758</ele>
        <time>2020-12-13T11:01:16.000Z</time>
      </trkpt>
      <trkpt lat="47.26836" lon="-2.32885">
        <ele>64.800003051758</ele>
        <time>2020-12-13T11:01:18.000Z</time>
      </trkpt>
      <trkpt lat="47.26829" lon="-2.3289">
        <ele>64.800003051758</ele>
        <time>2020-12-13T11:01:20.000Z</time>
      </trkpt>
      <trkpt lat="47.26825" lon="-2.32894">
        <ele>64.800003051758</ele>
        <time>2020-12-13T11:01:21.000Z</time>
      </trkpt>
      <trkpt lat="47.26814" lon="-2.32908">
        <ele>64.800003051758</ele>
        <time>2020-12-13T11:01:26.000Z</time>
      </trkpt>
      <trkpt lat="47.26801" lon="-2.32914">
        <ele>64.800003051758</ele>
        <time>2020-12-13T11:01:30.000Z</time>
      </trkpt>
      <trkpt lat="47.26785" lon="-2.32928">
        <ele>64.800003051758</ele>
        <time>2020-12-13T11:01:34.000Z</time>
      </trkpt>
      <trkpt lat="47.26781" lon="-2.32933">
        <ele>64.800003051758</ele>
        <time>2020-12-13T11:01:35.000Z</time>
      </trkpt>
      <trkpt lat="47.2676" lon="-2.32957">
        <ele>64.800003051758</ele>
        <time>2020-12-13T11:01:40.000Z</time>
      </trkpt>
      <trkpt lat="47.26741" lon="-2.32982">
        <ele>64.800003051758</ele>
        <time>2020-12-13T11:01:45.000Z</time>
      </trkpt>
      <trkpt lat="47.26738" lon="-2.32989">
        <ele>64.800003051758</ele>
        <time>2020-12-13T11:01:46.000Z</time>
      </trkpt>
      <trkpt lat="47.26734" lon="-2.33015">
        <ele>64.800003051758</ele>
        <time>2020-12-13T11:01:50.000Z</time>
      </trkpt>
      <trkpt lat="47.26735" lon="-2.33028">
        <ele>64.800003051758</ele>
        <time>2020-12-13T11:01:52.000Z</time>
      </trkpt>
      <trkpt lat="47.26732" lon="-2.33048">
        <ele>64.800003051758</ele>
        <time>2020-12-13T11:01:55.000Z</time>
      </trkpt>
      <trkpt lat="47.2673" lon="-2.33054">
        <ele>64.800003051758</ele>
        <time>2020-12-13T11:01:56.000Z</time>
      </trkpt>
      <trkpt lat="47.2672" lon="-2.33069">
        <ele>64.800003051758</ele>
        <time>2020-12-13T11:01:59.000Z</time>
      </trkpt>
      <trkpt lat="47.26716" lon="-2.33074">
        <ele>64.800003051758</ele>
        <time>2020-12-13T11:02:00.000Z</time>
      </trkpt>
      <trkpt lat="47.26691" lon="-2.33106">
        <ele>64.800003051758</ele>
        <time>2020-12-13T11:02:07.000Z</time>
      </trkpt>
      <trkpt lat="47.26687" lon="-2.3311">
        <ele>64.800003051758</ele>
        <time>2020-12-13T11:02:08.000Z</time>
      </trkpt>
      <trkpt lat="47.26667" lon="-2.33126">
        <ele>64.800003051758</ele>
        <time>2020-12-13T11:02:13.000Z</time>
      </trkpt>
      <trkpt lat="47.26655" lon="-2.33136">
        <ele>64.800003051758</ele>
        <time>2020-12-13T11:02:16.000Z</time>
      </trkpt>
      <trkpt lat="47.26643" lon="-2.33146">
        <ele>64.800003051758</ele>
        <time>2020-12-13T11:02:19.000Z</time>
      </trkpt>
      <trkpt lat="47.26635" lon="-2.3315">
        <ele>64.800003051758</ele>
        <time>2020-12-13T11:02:21.000Z</time>
      </trkpt>
      <trkpt lat="47.26623" lon="-2.3315">
        <ele>64.800003051758</ele>
        <time>2020-12-13T11:02:24.000Z</time>
      </trkpt>
      <trkpt lat="47.26605" lon="-2.33147">
        <ele>64.800003051758</ele>
        <time>2020-12-13T11:02:30.000Z</time>
      </trkpt>
      <trkpt lat="47.26599" lon="-2.33144">
        <ele>64.800003051758</ele>
        <time>2020-12-13T11:02:35.000Z</time>
      </trkpt>
      <trkpt lat="47.26596" lon="-2.33147">
        <ele>56.400001525879</ele>
        <time>2020-12-13T11:05:58.000Z</time>
      </trkpt>
      <trkpt lat="47.26594" lon="-2.3315">
        <ele>56.400001525879</ele>
        <time>2020-12-13T11:06:00.000Z</time>
      </trkpt>
      <trkpt lat="47.26594" lon="-2.33152">
        <ele>56.400001525879</ele>
        <time>2020-12-13T11:06:01.000Z</time>
      </trkpt>
      <trkpt lat="47.26592" lon="-2.33163">
        <ele>56.400001525879</ele>
        <time>2020-12-13T11:06:04.000Z</time>
      </trkpt>
      <trkpt lat="47.26589" lon="-2.33175">
        <ele>56.400001525879</ele>
        <time>2020-12-13T11:06:07.000Z</time>
      </trkpt>
      <trkpt lat="47.26577" lon="-2.33195">
        <ele>56.400001525879</ele>
        <time>2020-12-13T11:06:12.000Z</time>
      </trkpt>
      <trkpt lat="47.26559" lon="-2.33207">
        <ele>56.400001525879</ele>
        <time>2020-12-13T11:06:17.000Z</time>
      </trkpt>
      <trkpt lat="47.26544" lon="-2.33216">
        <ele>56</ele>
        <time>2020-12-13T11:06:21.000Z</time>
      </trkpt>
      <trkpt lat="47.2654" lon="-2.33218">
        <ele>55.599998474121</ele>
        <time>2020-12-13T11:06:22.000Z</time>
      </trkpt>
      <trkpt lat="47.26536" lon="-2.3322">
        <ele>55.200000762939</ele>
        <time>2020-12-13T11:06:23.000Z</time>
      </trkpt>
      <trkpt lat="47.26532" lon="-2.33221">
        <ele>54.799999237061</ele>
        <time>2020-12-13T11:06:24.000Z</time>
      </trkpt>
      <trkpt lat="47.26528" lon="-2.33224">
        <ele>54.400001525879</ele>
        <time>2020-12-13T11:06:25.000Z</time>
      </trkpt>
      <trkpt lat="47.26519" lon="-2.33229">
        <ele>54.400001525879</ele>
        <time>2020-12-13T11:06:27.000Z</time>
      </trkpt>
      <trkpt lat="47.26505" lon="-2.33236">
        <ele>54.400001525879</ele>
        <time>2020-12-13T11:06:30.000Z</time>
      </trkpt>
      <trkpt lat="47.26488" lon="-2.33258">
        <ele>54.400001525879</ele>
        <time>2020-12-13T11:06:35.000Z</time>
      </trkpt>
      <trkpt lat="47.2647" lon="-2.33278">
        <ele>54.400001525879</ele>
        <time>2020-12-13T11:06:41.000Z</time>
      </trkpt>
      <trkpt lat="47.26454" lon="-2.33272">
        <ele>54.400001525879</ele>
        <time>2020-12-13T11:06:45.000Z</time>
      </trkpt>
      <trkpt lat="47.26445" lon="-2.3327">
        <ele>54.400001525879</ele>
        <time>2020-12-13T11:06:47.000Z</time>
      </trkpt>
      <trkpt lat="47.26427" lon="-2.33269">
        <ele>54.400001525879</ele>
        <time>2020-12-13T11:06:51.000Z</time>
      </trkpt>
      <trkpt lat="47.26393" lon="-2.33264">
        <ele>54.400001525879</ele>
        <time>2020-12-13T11:06:58.000Z</time>
      </trkpt>
      <trkpt lat="47.26389" lon="-2.3326">
        <ele>54.400001525879</ele>
        <time>2020-12-13T11:06:59.000Z</time>
      </trkpt>
      <trkpt lat="47.26381" lon="-2.33251">
        <ele>54.400001525879</ele>
        <time>2020-12-13T11:07:01.000Z</time>
      </trkpt>
      <trkpt lat="47.26378" lon="-2.33228">
        <ele>54.400001525879</ele>
        <time>2020-12-13T11:07:04.000Z</time>
      </trkpt>
      <trkpt lat="47.26377" lon="-2.33219">
        <ele>54.400001525879</ele>
        <time>2020-12-13T11:07:05.000Z</time>
      </trkpt>
      <trkpt lat="47.26377" lon="-2.33211">
        <ele>54.400001525879</ele>
        <time>2020-12-13T11:07:06.000Z</time>
      </trkpt>
      <trkpt lat="47.26375" lon="-2.3318">
        <ele>54.400001525879</ele>
        <time>2020-12-13T11:07:10.000Z</time>
      </trkpt>
      <trkpt lat="47.26371" lon="-2.33099">
        <ele>54.400001525879</ele>
        <time>2020-12-13T11:07:20.000Z</time>
      </trkpt>
      <trkpt lat="47.2637" lon="-2.33091">
        <ele>54.400001525879</ele>
        <time>2020-12-13T11:07:21.000Z</time>
      </trkpt>
      <trkpt lat="47.26367" lon="-2.33024">
        <ele>54.400001525879</ele>
        <time>2020-12-13T11:07:29.000Z</time>
      </trkpt>
      <trkpt lat="47.26367" lon="-2.33007">
        <ele>54</ele>
        <time>2020-12-13T11:07:31.000Z</time>
      </trkpt>
      <trkpt lat="47.26366" lon="-2.32999">
        <ele>53.599998474121</ele>
        <time>2020-12-13T11:07:32.000Z</time>
      </trkpt>
      <trkpt lat="47.26365" lon="-2.3299">
        <ele>53.200000762939</ele>
        <time>2020-12-13T11:07:33.000Z</time>
      </trkpt>
      <trkpt lat="47.26364" lon="-2.32983">
        <ele>52.799999237061</ele>
        <time>2020-12-13T11:07:34.000Z</time>
      </trkpt>
      <trkpt lat="47.2636" lon="-2.32976">
        <ele>52.400001525879</ele>
        <time>2020-12-13T11:07:35.000Z</time>
      </trkpt>
      <trkpt lat="47.26347" lon="-2.32961">
        <ele>52.400001525879</ele>
        <time>2020-12-13T11:07:38.000Z</time>
      </trkpt>
      <trkpt lat="47.26339" lon="-2.32939">
        <ele>52.400001525879</ele>
        <time>2020-12-13T11:07:41.000Z</time>
      </trkpt>
      <trkpt lat="47.26336" lon="-2.32932">
        <ele>52.400001525879</ele>
        <time>2020-12-13T11:07:42.000Z</time>
      </trkpt>
      <trkpt lat="47.26323" lon="-2.32887">
        <ele>52.400001525879</ele>
        <time>2020-12-13T11:07:48.000Z</time>
      </trkpt>
      <trkpt lat="47.26312" lon="-2.3286">
        <ele>52.400001525879</ele>
        <time>2020-12-13T11:07:52.000Z</time>
      </trkpt>
      <trkpt lat="47.26302" lon="-2.32856">
        <ele>52.400001525879</ele>
        <time>2020-12-13T11:07:54.000Z</time>
      </trkpt>
      <trkpt lat="47.26292" lon="-2.32851">
        <ele>52.400001525879</ele>
        <time>2020-12-13T11:07:56.000Z</time>
      </trkpt>
      <trkpt lat="47.26287" lon="-2.32839">
        <ele>52.400001525879</ele>
        <time>2020-12-13T11:07:58.000Z</time>
      </trkpt>
      <trkpt lat="47.26284" lon="-2.32825">
        <ele>52.400001525879</ele>
        <time>2020-12-13T11:08:00.000Z</time>
      </trkpt>
      <trkpt lat="47.2628" lon="-2.32803">
        <ele>52.400001525879</ele>
        <time>2020-12-13T11:08:03.000Z</time>
      </trkpt>
      <trkpt lat="47.26278" lon="-2.32796">
        <ele>52.400001525879</ele>
        <time>2020-12-13T11:08:04.000Z</time>
      </trkpt>
      <trkpt lat="47.26261" lon="-2.32759">
        <ele>52.400001525879</ele>
        <time>2020-12-13T11:08:10.000Z</time>
      </trkpt>
      <trkpt lat="47.26258" lon="-2.32754">
        <ele>52.400001525879</ele>
        <time>2020-12-13T11:08:11.000Z</time>
      </trkpt>
      <trkpt lat="47.26227" lon="-2.3271">
        <ele>52.400001525879</ele>
        <time>2020-12-13T11:08:19.000Z</time>
      </trkpt>
      <trkpt lat="47.26212" lon="-2.3269">
        <ele>52.400001525879</ele>
        <time>2020-12-13T11:08:23.000Z</time>
      </trkpt>
      <trkpt lat="47.262" lon="-2.32676">
        <ele>52.400001525879</ele>
        <time>2020-12-13T11:08:26.000Z</time>
      </trkpt>
      <trkpt lat="47.26173" lon="-2.32651">
        <ele>52.400001525879</ele>
        <time>2020-12-13T11:08:32.000Z</time>
      </trkpt>
      <trkpt lat="47.26158" lon="-2.32643">
        <ele>52.400001525879</ele>
        <time>2020-12-13T11:08:35.000Z</time>
      </trkpt>
      <trkpt lat="47.26148" lon="-2.3264">
        <ele>52.400001525879</ele>
        <time>2020-12-13T11:08:37.000Z</time>
      </trkpt>
      <trkpt lat="47.26111" lon="-2.32634">
        <ele>52.400001525879</ele>
        <time>2020-12-13T11:08:44.000Z</time>
      </trkpt>
      <trkpt lat="47.26062" lon="-2.32642">
        <ele>52.400001525879</ele>
        <time>2020-12-13T11:08:53.000Z</time>
      </trkpt>
      <trkpt lat="47.26017" lon="-2.32651">
        <ele>52.400001525879</ele>
        <time>2020-12-13T11:09:01.000Z</time>
      </trkpt>
      <trkpt lat="47.25984" lon="-2.32656">
        <ele>52.400001525879</ele>
        <time>2020-12-13T11:09:07.000Z</time>
      </trkpt>
      <trkpt lat="47.25973" lon="-2.32654">
        <ele>52.400001525879</ele>
        <time>2020-12-13T11:09:09.000Z</time>
      </trkpt>
      <trkpt lat="47.25963" lon="-2.32654">
        <ele>52.400001525879</ele>
        <time>2020-12-13T11:09:11.000Z</time>
      </trkpt>
      <trkpt lat="47.25954" lon="-2.32654">
        <ele>52.400001525879</ele>
        <time>2020-12-13T11:09:13.000Z</time>
      </trkpt>
      <trkpt lat="47.25938" lon="-2.32638">
        <ele>52.400001525879</ele>
        <time>2020-12-13T11:09:17.000Z</time>
      </trkpt>
      <trkpt lat="47.25909" lon="-2.32599">
        <ele>52.400001525879</ele>
        <time>2020-12-13T11:09:24.000Z</time>
      </trkpt>
      <trkpt lat="47.25896" lon="-2.32584">
        <ele>52.400001525879</ele>
        <time>2020-12-13T11:09:27.000Z</time>
      </trkpt>
      <trkpt lat="47.25886" lon="-2.32578">
        <ele>52.400001525879</ele>
        <time>2020-12-13T11:09:29.000Z</time>
      </trkpt>
      <trkpt lat="47.25874" lon="-2.32563">
        <ele>52.400001525879</ele>
        <time>2020-12-13T11:09:32.000Z</time>
      </trkpt>
      <trkpt lat="47.2587" lon="-2.32558">
        <ele>52.400001525879</ele>
        <time>2020-12-13T11:09:33.000Z</time>
      </trkpt>
      <trkpt lat="47.25844" lon="-2.32521">
        <ele>52.400001525879</ele>
        <time>2020-12-13T11:09:40.000Z</time>
      </trkpt>
      <trkpt lat="47.25825" lon="-2.3249">
        <ele>52.400001525879</ele>
        <time>2020-12-13T11:09:47.000Z</time>
      </trkpt>
      <trkpt lat="47.25831" lon="-2.32482">
        <ele>52.400001525879</ele>
        <time>2020-12-13T11:09:50.000Z</time>
      </trkpt>
      <trkpt lat="47.25847" lon="-2.32485">
        <ele>52.400001525879</ele>
        <time>2020-12-13T11:09:54.000Z</time>
      </trkpt>
      <trkpt lat="47.25852" lon="-2.32485">
        <ele>52.400001525879</ele>
        <time>2020-12-13T11:09:55.000Z</time>
      </trkpt>
      <trkpt lat="47.25879" lon="-2.32487">
        <ele>52.400001525879</ele>
        <time>2020-12-13T11:10:01.000Z</time>
      </trkpt>
      <trkpt lat="47.25891" lon="-2.32476">
        <ele>52.400001525879</ele>
        <time>2020-12-13T11:10:04.000Z</time>
      </trkpt>
      <trkpt lat="47.25901" lon="-2.32457">
        <ele>52.400001525879</ele>
        <time>2020-12-13T11:10:08.000Z</time>
      </trkpt>
      <trkpt lat="47.25904" lon="-2.32452">
        <ele>52.400001525879</ele>
        <time>2020-12-13T11:10:09.000Z</time>
      </trkpt>
      <trkpt lat="47.25931" lon="-2.32421">
        <ele>52.400001525879</ele>
        <time>2020-12-13T11:10:16.000Z</time>
      </trkpt>
      <trkpt lat="47.25934" lon="-2.32416">
        <ele>52.400001525879</ele>
        <time>2020-12-13T11:10:17.000Z</time>
      </trkpt>
      <trkpt lat="47.25941" lon="-2.32406">
        <ele>52</ele>
        <time>2020-12-13T11:10:19.000Z</time>
      </trkpt>
      <trkpt lat="47.25945" lon="-2.32402">
        <ele>51.599998474121</ele>
        <time>2020-12-13T11:10:20.000Z</time>
      </trkpt>
      <trkpt lat="47.25948" lon="-2.32398">
        <ele>51.200000762939</ele>
        <time>2020-12-13T11:10:21.000Z</time>
      </trkpt>
      <trkpt lat="47.25951" lon="-2.32394">
        <ele>50.799999237061</ele>
        <time>2020-12-13T11:10:22.000Z</time>
      </trkpt>
      <trkpt lat="47.25955" lon="-2.3239">
        <ele>50.400001525879</ele>
        <time>2020-12-13T11:10:23.000Z</time>
      </trkpt>
      <trkpt lat="47.2596" lon="-2.32381">
        <ele>50.400001525879</ele>
        <time>2020-12-13T11:10:25.000Z</time>
      </trkpt>
      <trkpt lat="47.25966" lon="-2.32372">
        <ele>50.400001525879</ele>
        <time>2020-12-13T11:10:27.000Z</time>
      </trkpt>
      <trkpt lat="47.25979" lon="-2.32355">
        <ele>50.400001525879</ele>
        <time>2020-12-13T11:10:31.000Z</time>
      </trkpt>
      <trkpt lat="47.25983" lon="-2.32351">
        <ele>50.400001525879</ele>
        <time>2020-12-13T11:10:32.000Z</time>
      </trkpt>
      <trkpt lat="47.26004" lon="-2.32324">
        <ele>50.400001525879</ele>
        <time>2020-12-13T11:10:38.000Z</time>
      </trkpt>
      <trkpt lat="47.26026" lon="-2.32295">
        <ele>50.400001525879</ele>
        <time>2020-12-13T11:10:45.000Z</time>
      </trkpt>
      <trkpt lat="47.26056" lon="-2.32262">
        <ele>50.400001525879</ele>
        <time>2020-12-13T11:10:53.000Z</time>
      </trkpt>
      <trkpt lat="47.26082" lon="-2.3223">
        <ele>50.400001525879</ele>
        <time>2020-12-13T11:11:00.000Z</time>
      </trkpt>
      <trkpt lat="47.26095" lon="-2.3221">
        <ele>50.400001525879</ele>
        <time>2020-12-13T11:11:04.000Z</time>
      </trkpt>
      <trkpt lat="47.261" lon="-2.32199">
        <ele>50.400001525879</ele>
        <time>2020-12-13T11:11:06.000Z</time>
      </trkpt>
      <trkpt lat="47.26118" lon="-2.32157">
        <ele>50.400001525879</ele>
        <time>2020-12-13T11:11:13.000Z</time>
      </trkpt>
      <trkpt lat="47.26119" lon="-2.32151">
        <ele>50.400001525879</ele>
        <time>2020-12-13T11:11:14.000Z</time>
      </trkpt>
      <trkpt lat="47.26135" lon="-2.32105">
        <ele>50.400001525879</ele>
        <time>2020-12-13T11:11:21.000Z</time>
      </trkpt>
      <trkpt lat="47.2615" lon="-2.32055">
        <ele>50.400001525879</ele>
        <time>2020-12-13T11:11:29.000Z</time>
      </trkpt>
      <trkpt lat="47.26159" lon="-2.32031">
        <ele>50.400001525879</ele>
        <time>2020-12-13T11:11:33.000Z</time>
      </trkpt>
      <trkpt lat="47.26165" lon="-2.32023">
        <ele>50.400001525879</ele>
        <time>2020-12-13T11:11:35.000Z</time>
      </trkpt>
      <trkpt lat="47.2618" lon="-2.3202">
        <ele>50.400001525879</ele>
        <time>2020-12-13T11:11:39.000Z</time>
      </trkpt>
      <trkpt lat="47.26186" lon="-2.32022">
        <ele>50.400001525879</ele>
        <time>2020-12-13T11:11:41.000Z</time>
      </trkpt>
      <trkpt lat="47.26192" lon="-2.32023">
        <ele>50.400001525879</ele>
        <time>2020-12-13T11:11:44.000Z</time>
      </trkpt>
      <trkpt lat="47.26197" lon="-2.32021">
        <ele>50.400001525879</ele>
        <time>2020-12-13T11:11:47.000Z</time>
      </trkpt>
      <trkpt lat="47.26198" lon="-2.32019">
        <ele>50.400001525879</ele>
        <time>2020-12-13T11:11:48.000Z</time>
      </trkpt>
      <trkpt lat="47.26203" lon="-2.32002">
        <ele>50.400001525879</ele>
        <time>2020-12-13T11:11:54.000Z</time>
      </trkpt>
      <trkpt lat="47.26213" lon="-2.31986">
        <ele>50.400001525879</ele>
        <time>2020-12-13T11:12:00.000Z</time>
      </trkpt>
      <trkpt lat="47.26217" lon="-2.31979">
        <ele>50.400001525879</ele>
        <time>2020-12-13T11:12:02.000Z</time>
      </trkpt>
      <trkpt lat="47.26222" lon="-2.31973">
        <ele>50.400001525879</ele>
        <time>2020-12-13T11:12:04.000Z</time>
      </trkpt>
      <trkpt lat="47.26224" lon="-2.31972">
        <ele>50.400001525879</ele>
        <time>2020-12-13T11:12:05.000Z</time>
      </trkpt>
      <trkpt lat="47.26238" lon="-2.31962">
        <ele>50.400001525879</ele>
        <time>2020-12-13T11:12:10.000Z</time>
      </trkpt>
      <trkpt lat="47.26251" lon="-2.31943">
        <ele>50.400001525879</ele>
        <time>2020-12-13T11:12:16.000Z</time>
      </trkpt>
      <trkpt lat="47.26265" lon="-2.31923">
        <ele>50.400001525879</ele>
        <time>2020-12-13T11:12:22.000Z</time>
      </trkpt>
      <trkpt lat="47.26281" lon="-2.31904">
        <ele>50.400001525879</ele>
        <time>2020-12-13T11:12:28.000Z</time>
      </trkpt>
      <trkpt lat="47.26295" lon="-2.3189">
        <ele>50.400001525879</ele>
        <time>2020-12-13T11:12:33.000Z</time>
      </trkpt>
      <trkpt lat="47.26296" lon="-2.31887">
        <ele>50.400001525879</ele>
        <time>2020-12-13T11:12:34.000Z</time>
      </trkpt>
      <trkpt lat="47.263" lon="-2.31867">
        <ele>50.400001525879</ele>
        <time>2020-12-13T11:12:39.000Z</time>
      </trkpt>
      <trkpt lat="47.26302" lon="-2.31842">
        <ele>50.400001525879</ele>
        <time>2020-12-13T11:12:45.000Z</time>
      </trkpt>
      <trkpt lat="47.26302" lon="-2.3181">
        <ele>50.400001525879</ele>
        <time>2020-12-13T11:12:51.000Z</time>
      </trkpt>
      <trkpt lat="47.26304" lon="-2.31786">
        <ele>50.400001525879</ele>
        <time>2020-12-13T11:12:56.000Z</time>
      </trkpt>
      <trkpt lat="47.26303" lon="-2.31757">
        <ele>50.400001525879</ele>
        <time>2020-12-13T11:13:03.000Z</time>
      </trkpt>
      <trkpt lat="47.26305" lon="-2.31727">
        <ele>50.400001525879</ele>
        <time>2020-12-13T11:13:08.000Z</time>
      </trkpt>
      <trkpt lat="47.26308" lon="-2.31722">
        <ele>50.400001525879</ele>
        <time>2020-12-13T11:13:09.000Z</time>
      </trkpt>
      <trkpt lat="47.26315" lon="-2.31715">
        <ele>50.400001525879</ele>
        <time>2020-12-13T11:13:11.000Z</time>
      </trkpt>
      <trkpt lat="47.26333" lon="-2.317">
        <ele>50.400001525879</ele>
        <time>2020-12-13T11:13:17.000Z</time>
      </trkpt>
      <trkpt lat="47.26335" lon="-2.31696">
        <ele>50.400001525879</ele>
        <time>2020-12-13T11:13:18.000Z</time>
      </trkpt>
      <trkpt lat="47.26342" lon="-2.31687">
        <ele>50.400001525879</ele>
        <time>2020-12-13T11:13:21.000Z</time>
      </trkpt>
      <trkpt lat="47.26347" lon="-2.31685">
        <ele>50.400001525879</ele>
        <time>2020-12-13T11:13:23.000Z</time>
      </trkpt>
      <trkpt lat="47.26358" lon="-2.31679">
        <ele>50.400001525879</ele>
        <time>2020-12-13T11:13:27.000Z</time>
      </trkpt>
      <trkpt lat="47.2638" lon="-2.31669">
        <ele>50.400001525879</ele>
        <time>2020-12-13T11:13:35.000Z</time>
      </trkpt>
      <trkpt lat="47.26394" lon="-2.31659">
        <ele>50.400001525879</ele>
        <time>2020-12-13T11:13:41.000Z</time>
      </trkpt>
      <trkpt lat="47.26407" lon="-2.31645">
        <ele>50.400001525879</ele>
        <time>2020-12-13T11:13:46.000Z</time>
      </trkpt>
      <trkpt lat="47.26409" lon="-2.31629">
        <ele>50.400001525879</ele>
        <time>2020-12-13T11:13:50.000Z</time>
      </trkpt>
      <trkpt lat="47.26409" lon="-2.31625">
        <ele>50.400001525879</ele>
        <time>2020-12-13T11:13:51.000Z</time>
      </trkpt>
      <trkpt lat="47.26409" lon="-2.31598">
        <ele>50.400001525879</ele>
        <time>2020-12-13T11:13:57.000Z</time>
      </trkpt>
      <trkpt lat="47.26411" lon="-2.31571">
        <ele>50.400001525879</ele>
        <time>2020-12-13T11:14:03.000Z</time>
      </trkpt>
      <trkpt lat="47.26412" lon="-2.31553">
        <ele>50.400001525879</ele>
        <time>2020-12-13T11:14:08.000Z</time>
      </trkpt>
      <trkpt lat="47.26413" lon="-2.31552">
        <ele>50.400001525879</ele>
        <time>2020-12-13T11:14:09.000Z</time>
      </trkpt>
      <trkpt lat="47.26417" lon="-2.31551">
        <ele>50.400001525879</ele>
        <time>2020-12-13T11:14:12.000Z</time>
      </trkpt>
    </trkseg>
  </trk>
</gpx>